<?xml version="1.0" encoding="UTF-8" standalone="no" ?>
<gpx xmlns="http://www.topografix.com/GPX/1/1" xmlns:xsi="http://www.w3.org/2001/XMLSchema-instance" xsi:schemaLocation="http://www.topografix.com/GPX/1/1 http://www.topografix.com/GPX/1/1/gpx.xsd" version="1.1" creator="VisuGPX - https://www.visugpx.com">
  <metadata>
    <name>parcours gto 2013</name>
    <desc><![CDATA[gto 2013 30km de nuit en orientation]]></desc>
  </metadata>
  <trk>
    <name><![CDATA[GTO]]></name>
    <trkseg>
      <trkpt lat="49.5345" lon="0.50076">
        <ele>104.19999694824</ele>
        <time>2013-03-30T20:05:21.000Z</time>
      </trkpt>
      <trkpt lat="49.53441" lon="0.50067">
        <ele>105.19999694824</ele>
        <time>2013-03-30T20:05:26.000Z</time>
      </trkpt>
      <trkpt lat="49.5344" lon="0.50064">
        <ele>105.19999694824</ele>
        <time>2013-03-30T20:05:27.000Z</time>
      </trkpt>
      <trkpt lat="49.53436" lon="0.50058">
        <ele>105.80000305176</ele>
        <time>2013-03-30T20:05:30.000Z</time>
      </trkpt>
      <trkpt lat="49.53429" lon="0.50046">
        <ele>106.40000152588</ele>
        <time>2013-03-30T20:05:35.000Z</time>
      </trkpt>
      <trkpt lat="49.53424" lon="0.5004">
        <ele>106.80000305176</ele>
        <time>2013-03-30T20:05:38.000Z</time>
      </trkpt>
      <trkpt lat="49.53416" lon="0.5002">
        <ele>107.80000305176</ele>
        <time>2013-03-30T20:05:45.000Z</time>
      </trkpt>
      <trkpt lat="49.53414" lon="0.50014">
        <ele>107.80000305176</ele>
        <time>2013-03-30T20:05:47.000Z</time>
      </trkpt>
      <trkpt lat="49.53401" lon="0.49998">
        <ele>108.80000305176</ele>
        <time>2013-03-30T20:05:55.000Z</time>
      </trkpt>
      <trkpt lat="49.53396" lon="0.49992">
        <ele>109</ele>
        <time>2013-03-30T20:06:00.000Z</time>
      </trkpt>
      <trkpt lat="49.5339" lon="0.49983">
        <ele>109.19999694824</ele>
        <time>2013-03-30T20:06:08.000Z</time>
      </trkpt>
      <trkpt lat="49.53388" lon="0.49982">
        <ele>109.19999694824</ele>
        <time>2013-03-30T20:06:13.000Z</time>
      </trkpt>
      <trkpt lat="49.53383" lon="0.49978">
        <ele>109.40000152588</ele>
        <time>2013-03-30T20:06:18.000Z</time>
      </trkpt>
      <trkpt lat="49.53381" lon="0.49972">
        <ele>109.59999847412</ele>
        <time>2013-03-30T20:06:20.000Z</time>
      </trkpt>
      <trkpt lat="49.53365" lon="0.49954">
        <ele>110.19999694824</ele>
        <time>2013-03-30T20:06:28.000Z</time>
      </trkpt>
      <trkpt lat="49.53352" lon="0.49934">
        <ele>110.80000305176</ele>
        <time>2013-03-30T20:06:35.000Z</time>
      </trkpt>
      <trkpt lat="49.5334" lon="0.49913">
        <ele>111.40000152588</ele>
        <time>2013-03-30T20:06:42.000Z</time>
      </trkpt>
      <trkpt lat="49.53329" lon="0.49896">
        <ele>112</ele>
        <time>2013-03-30T20:06:48.000Z</time>
      </trkpt>
      <trkpt lat="49.53321" lon="0.49876">
        <ele>112.40000152588</ele>
        <time>2013-03-30T20:06:54.000Z</time>
      </trkpt>
      <trkpt lat="49.53318" lon="0.49854">
        <ele>112.40000152588</ele>
        <time>2013-03-30T20:07:00.000Z</time>
      </trkpt>
      <trkpt lat="49.53319" lon="0.49834">
        <ele>112.19999694824</ele>
        <time>2013-03-30T20:07:05.000Z</time>
      </trkpt>
      <trkpt lat="49.53322" lon="0.4982">
        <ele>112</ele>
        <time>2013-03-30T20:07:09.000Z</time>
      </trkpt>
      <trkpt lat="49.53323" lon="0.49816">
        <ele>112</ele>
        <time>2013-03-30T20:07:11.000Z</time>
      </trkpt>
      <trkpt lat="49.53321" lon="0.49805">
        <ele>112.19999694824</ele>
        <time>2013-03-30T20:07:17.000Z</time>
      </trkpt>
      <trkpt lat="49.53321" lon="0.4979">
        <ele>112.40000152588</ele>
        <time>2013-03-30T20:07:22.000Z</time>
      </trkpt>
      <trkpt lat="49.53329" lon="0.49777">
        <ele>111.80000305176</ele>
        <time>2013-03-30T20:07:27.000Z</time>
      </trkpt>
      <trkpt lat="49.53332" lon="0.49775">
        <ele>111.59999847412</ele>
        <time>2013-03-30T20:07:29.000Z</time>
      </trkpt>
      <trkpt lat="49.53328" lon="0.49774">
        <ele>112</ele>
        <time>2013-03-30T20:07:33.000Z</time>
      </trkpt>
      <trkpt lat="49.53326" lon="0.49774">
        <ele>112.19999694824</ele>
        <time>2013-03-30T20:07:34.000Z</time>
      </trkpt>
      <trkpt lat="49.5332" lon="0.49764">
        <ele>112.59999847412</ele>
        <time>2013-03-30T20:07:39.000Z</time>
      </trkpt>
      <trkpt lat="49.53321" lon="0.49744">
        <ele>112.59999847412</ele>
        <time>2013-03-30T20:07:44.000Z</time>
      </trkpt>
      <trkpt lat="49.53324" lon="0.49724">
        <ele>112.40000152588</ele>
        <time>2013-03-30T20:07:49.000Z</time>
      </trkpt>
      <trkpt lat="49.53329" lon="0.49717">
        <ele>112.19999694824</ele>
        <time>2013-03-30T20:07:53.000Z</time>
      </trkpt>
      <trkpt lat="49.53328" lon="0.49718">
        <ele>112.19999694824</ele>
        <time>2013-03-30T20:07:57.000Z</time>
      </trkpt>
      <trkpt lat="49.53323" lon="0.49717">
        <ele>112.40000152588</ele>
        <time>2013-03-30T20:08:01.000Z</time>
      </trkpt>
      <trkpt lat="49.53322" lon="0.49715">
        <ele>112.59999847412</ele>
        <time>2013-03-30T20:08:08.000Z</time>
      </trkpt>
      <trkpt lat="49.53323" lon="0.49714">
        <ele>112.59999847412</ele>
        <time>2013-03-30T20:08:10.000Z</time>
      </trkpt>
      <trkpt lat="49.53315" lon="0.49703">
        <ele>113</ele>
        <time>2013-03-30T20:08:15.000Z</time>
      </trkpt>
      <trkpt lat="49.53299" lon="0.49691">
        <ele>114</ele>
        <time>2013-03-30T20:08:22.000Z</time>
      </trkpt>
      <trkpt lat="49.53283" lon="0.49683">
        <ele>114.80000305176</ele>
        <time>2013-03-30T20:08:28.000Z</time>
      </trkpt>
      <trkpt lat="49.53264" lon="0.49674">
        <ele>116</ele>
        <time>2013-03-30T20:08:35.000Z</time>
      </trkpt>
      <trkpt lat="49.53248" lon="0.49673">
        <ele>117</ele>
        <time>2013-03-30T20:08:41.000Z</time>
      </trkpt>
      <trkpt lat="49.53228" lon="0.49675">
        <ele>118.40000152588</ele>
        <time>2013-03-30T20:08:48.000Z</time>
      </trkpt>
      <trkpt lat="49.53209" lon="0.49677">
        <ele>119.80000305176</ele>
        <time>2013-03-30T20:08:55.000Z</time>
      </trkpt>
      <trkpt lat="49.53194" lon="0.49678">
        <ele>120.80000305176</ele>
        <time>2013-03-30T20:09:01.000Z</time>
      </trkpt>
      <trkpt lat="49.53179" lon="0.49679">
        <ele>121.80000305176</ele>
        <time>2013-03-30T20:09:07.000Z</time>
      </trkpt>
      <trkpt lat="49.53166" lon="0.49683">
        <ele>122.80000305176</ele>
        <time>2013-03-30T20:09:12.000Z</time>
      </trkpt>
      <trkpt lat="49.5315" lon="0.49684">
        <ele>123.19999694824</ele>
        <time>2013-03-30T20:09:18.000Z</time>
      </trkpt>
      <trkpt lat="49.53135" lon="0.49688">
        <ele>123.59999847412</ele>
        <time>2013-03-30T20:09:24.000Z</time>
      </trkpt>
      <trkpt lat="49.53122" lon="0.49692">
        <ele>123.80000305176</ele>
        <time>2013-03-30T20:09:29.000Z</time>
      </trkpt>
      <trkpt lat="49.53103" lon="0.49696">
        <ele>124.40000152588</ele>
        <time>2013-03-30T20:09:36.000Z</time>
      </trkpt>
      <trkpt lat="49.53086" lon="0.49701">
        <ele>124.80000305176</ele>
        <time>2013-03-30T20:09:42.000Z</time>
      </trkpt>
      <trkpt lat="49.53066" lon="0.49702">
        <ele>124.80000305176</ele>
        <time>2013-03-30T20:09:49.000Z</time>
      </trkpt>
      <trkpt lat="49.53046" lon="0.49706">
        <ele>124.80000305176</ele>
        <time>2013-03-30T20:09:56.000Z</time>
      </trkpt>
      <trkpt lat="49.53038" lon="0.49705">
        <ele>124.80000305176</ele>
        <time>2013-03-30T20:09:59.000Z</time>
      </trkpt>
      <trkpt lat="49.53034" lon="0.49684">
        <ele>124.59999847412</ele>
        <time>2013-03-30T20:10:04.000Z</time>
      </trkpt>
      <trkpt lat="49.53034" lon="0.4968">
        <ele>124.40000152588</ele>
        <time>2013-03-30T20:10:05.000Z</time>
      </trkpt>
      <trkpt lat="49.53029" lon="0.49653">
        <ele>124.40000152588</ele>
        <time>2013-03-30T20:10:11.000Z</time>
      </trkpt>
      <trkpt lat="49.53026" lon="0.4963">
        <ele>124.40000152588</ele>
        <time>2013-03-30T20:10:16.000Z</time>
      </trkpt>
      <trkpt lat="49.53026" lon="0.496">
        <ele>124.40000152588</ele>
        <time>2013-03-30T20:10:23.000Z</time>
      </trkpt>
      <trkpt lat="49.53027" lon="0.49578">
        <ele>124.59999847412</ele>
        <time>2013-03-30T20:10:28.000Z</time>
      </trkpt>
      <trkpt lat="49.53028" lon="0.49553">
        <ele>124.59999847412</ele>
        <time>2013-03-30T20:10:34.000Z</time>
      </trkpt>
      <trkpt lat="49.53028" lon="0.4953">
        <ele>124.80000305176</ele>
        <time>2013-03-30T20:10:39.000Z</time>
      </trkpt>
      <trkpt lat="49.53027" lon="0.49526">
        <ele>124.80000305176</ele>
        <time>2013-03-30T20:10:40.000Z</time>
      </trkpt>
      <trkpt lat="49.53025" lon="0.49521">
        <ele>124.80000305176</ele>
        <time>2013-03-30T20:10:42.000Z</time>
      </trkpt>
      <trkpt lat="49.53012" lon="0.49519">
        <ele>124.40000152588</ele>
        <time>2013-03-30T20:10:46.000Z</time>
      </trkpt>
      <trkpt lat="49.52997" lon="0.4952">
        <ele>123.80000305176</ele>
        <time>2013-03-30T20:10:51.000Z</time>
      </trkpt>
      <trkpt lat="49.52977" lon="0.49519">
        <ele>123.40000152588</ele>
        <time>2013-03-30T20:10:58.000Z</time>
      </trkpt>
      <trkpt lat="49.52974" lon="0.49518">
        <ele>123.19999694824</ele>
        <time>2013-03-30T20:10:59.000Z</time>
      </trkpt>
      <trkpt lat="49.52968" lon="0.49503">
        <ele>123.19999694824</ele>
        <time>2013-03-30T20:11:03.000Z</time>
      </trkpt>
      <trkpt lat="49.52968" lon="0.49499">
        <ele>123.19999694824</ele>
        <time>2013-03-30T20:11:04.000Z</time>
      </trkpt>
      <trkpt lat="49.52965" lon="0.49469">
        <ele>122.80000305176</ele>
        <time>2013-03-30T20:11:11.000Z</time>
      </trkpt>
      <trkpt lat="49.52962" lon="0.49439">
        <ele>122.19999694824</ele>
        <time>2013-03-30T20:11:18.000Z</time>
      </trkpt>
      <trkpt lat="49.52961" lon="0.49432">
        <ele>122.19999694824</ele>
        <time>2013-03-30T20:11:20.000Z</time>
      </trkpt>
      <trkpt lat="49.5295" lon="0.49427">
        <ele>121.80000305176</ele>
        <time>2013-03-30T20:11:24.000Z</time>
      </trkpt>
      <trkpt lat="49.5293" lon="0.49432">
        <ele>121.40000152588</ele>
        <time>2013-03-30T20:11:31.000Z</time>
      </trkpt>
      <trkpt lat="49.52912" lon="0.49437">
        <ele>121</ele>
        <time>2013-03-30T20:11:37.000Z</time>
      </trkpt>
      <trkpt lat="49.529" lon="0.49442">
        <ele>120.40000152588</ele>
        <time>2013-03-30T20:11:41.000Z</time>
      </trkpt>
      <trkpt lat="49.52897" lon="0.49443">
        <ele>120.19999694824</ele>
        <time>2013-03-30T20:11:42.000Z</time>
      </trkpt>
      <trkpt lat="49.52884" lon="0.49448">
        <ele>119.59999847412</ele>
        <time>2013-03-30T20:11:46.000Z</time>
      </trkpt>
      <trkpt lat="49.5287" lon="0.49453">
        <ele>118.80000305176</ele>
        <time>2013-03-30T20:11:51.000Z</time>
      </trkpt>
      <trkpt lat="49.52852" lon="0.49458">
        <ele>118</ele>
        <time>2013-03-30T20:11:57.000Z</time>
      </trkpt>
      <trkpt lat="49.52834" lon="0.49463">
        <ele>117</ele>
        <time>2013-03-30T20:12:03.000Z</time>
      </trkpt>
      <trkpt lat="49.52819" lon="0.49467">
        <ele>116</ele>
        <time>2013-03-30T20:12:08.000Z</time>
      </trkpt>
      <trkpt lat="49.52806" lon="0.49468">
        <ele>115.19999694824</ele>
        <time>2013-03-30T20:12:12.000Z</time>
      </trkpt>
      <trkpt lat="49.52791" lon="0.4947">
        <ele>114.40000152588</ele>
        <time>2013-03-30T20:12:17.000Z</time>
      </trkpt>
      <trkpt lat="49.52774" lon="0.4947">
        <ele>113.40000152588</ele>
        <time>2013-03-30T20:12:23.000Z</time>
      </trkpt>
      <trkpt lat="49.52757" lon="0.49467">
        <ele>112.40000152588</ele>
        <time>2013-03-30T20:12:29.000Z</time>
      </trkpt>
      <trkpt lat="49.5274" lon="0.49462">
        <ele>111.19999694824</ele>
        <time>2013-03-30T20:12:35.000Z</time>
      </trkpt>
      <trkpt lat="49.5272" lon="0.49454">
        <ele>109.80000305176</ele>
        <time>2013-03-30T20:12:42.000Z</time>
      </trkpt>
      <trkpt lat="49.52703" lon="0.49442">
        <ele>108.59999847412</ele>
        <time>2013-03-30T20:12:48.000Z</time>
      </trkpt>
      <trkpt lat="49.52686" lon="0.4943">
        <ele>107.40000152588</ele>
        <time>2013-03-30T20:12:54.000Z</time>
      </trkpt>
      <trkpt lat="49.52669" lon="0.49418">
        <ele>106</ele>
        <time>2013-03-30T20:13:00.000Z</time>
      </trkpt>
      <trkpt lat="49.52655" lon="0.4941">
        <ele>105.19999694824</ele>
        <time>2013-03-30T20:13:05.000Z</time>
      </trkpt>
      <trkpt lat="49.52643" lon="0.494">
        <ele>104.40000152588</ele>
        <time>2013-03-30T20:13:10.000Z</time>
      </trkpt>
      <trkpt lat="49.5263" lon="0.49391">
        <ele>103.40000152588</ele>
        <time>2013-03-30T20:13:15.000Z</time>
      </trkpt>
      <trkpt lat="49.52617" lon="0.49382">
        <ele>102.40000152588</ele>
        <time>2013-03-30T20:13:20.000Z</time>
      </trkpt>
      <trkpt lat="49.52603" lon="0.49377">
        <ele>101.40000152588</ele>
        <time>2013-03-30T20:13:25.000Z</time>
      </trkpt>
      <trkpt lat="49.52587" lon="0.49371">
        <ele>100</ele>
        <time>2013-03-30T20:13:31.000Z</time>
      </trkpt>
      <trkpt lat="49.52574" lon="0.49366">
        <ele>99.599998474121</ele>
        <time>2013-03-30T20:13:35.000Z</time>
      </trkpt>
      <trkpt lat="49.52556" lon="0.4936">
        <ele>99</ele>
        <time>2013-03-30T20:13:41.000Z</time>
      </trkpt>
      <trkpt lat="49.52536" lon="0.49353">
        <ele>98.400001525879</ele>
        <time>2013-03-30T20:13:48.000Z</time>
      </trkpt>
      <trkpt lat="49.5252" lon="0.49348">
        <ele>97.800003051758</ele>
        <time>2013-03-30T20:13:53.000Z</time>
      </trkpt>
      <trkpt lat="49.5251" lon="0.49344">
        <ele>97.599998474121</ele>
        <time>2013-03-30T20:13:57.000Z</time>
      </trkpt>
      <trkpt lat="49.52497" lon="0.49335">
        <ele>97.199996948242</ele>
        <time>2013-03-30T20:14:02.000Z</time>
      </trkpt>
      <trkpt lat="49.52487" lon="0.49327">
        <ele>97.800003051758</ele>
        <time>2013-03-30T20:14:06.000Z</time>
      </trkpt>
      <trkpt lat="49.52471" lon="0.49308">
        <ele>98.599998474121</ele>
        <time>2013-03-30T20:14:13.000Z</time>
      </trkpt>
      <trkpt lat="49.52469" lon="0.49305">
        <ele>98.599998474121</ele>
        <time>2013-03-30T20:14:14.000Z</time>
      </trkpt>
      <trkpt lat="49.52462" lon="0.49295">
        <ele>98.800003051758</ele>
        <time>2013-03-30T20:14:18.000Z</time>
      </trkpt>
      <trkpt lat="49.52456" lon="0.49288">
        <ele>99</ele>
        <time>2013-03-30T20:14:21.000Z</time>
      </trkpt>
      <trkpt lat="49.52453" lon="0.49284">
        <ele>99</ele>
        <time>2013-03-30T20:14:23.000Z</time>
      </trkpt>
      <trkpt lat="49.52444" lon="0.49273">
        <ele>99</ele>
        <time>2013-03-30T20:14:29.000Z</time>
      </trkpt>
      <trkpt lat="49.5244" lon="0.49266">
        <ele>98.800003051758</ele>
        <time>2013-03-30T20:14:33.000Z</time>
      </trkpt>
      <trkpt lat="49.5244" lon="0.49265">
        <ele>98.800003051758</ele>
        <time>2013-03-30T20:14:34.000Z</time>
      </trkpt>
      <trkpt lat="49.52437" lon="0.49257">
        <ele>98.599998474121</ele>
        <time>2013-03-30T20:14:38.000Z</time>
      </trkpt>
      <trkpt lat="49.52435" lon="0.49255">
        <ele>98.599998474121</ele>
        <time>2013-03-30T20:14:39.000Z</time>
      </trkpt>
      <trkpt lat="49.52429" lon="0.49247">
        <ele>98.599998474121</ele>
        <time>2013-03-30T20:14:44.000Z</time>
      </trkpt>
      <trkpt lat="49.52425" lon="0.49241">
        <ele>98.400001525879</ele>
        <time>2013-03-30T20:14:49.000Z</time>
      </trkpt>
      <trkpt lat="49.52424" lon="0.49237">
        <ele>98.199996948242</ele>
        <time>2013-03-30T20:14:54.000Z</time>
      </trkpt>
      <trkpt lat="49.52423" lon="0.49237">
        <ele>98.199996948242</ele>
        <time>2013-03-30T20:14:55.000Z</time>
      </trkpt>
      <trkpt lat="49.52418" lon="0.49231">
        <ele>98</ele>
        <time>2013-03-30T20:15:01.000Z</time>
      </trkpt>
      <trkpt lat="49.52413" lon="0.49222">
        <ele>97.800003051758</ele>
        <time>2013-03-30T20:15:06.000Z</time>
      </trkpt>
      <trkpt lat="49.52412" lon="0.4922">
        <ele>97.599998474121</ele>
        <time>2013-03-30T20:15:07.000Z</time>
      </trkpt>
      <trkpt lat="49.52403" lon="0.49202">
        <ele>97.199996948242</ele>
        <time>2013-03-30T20:15:14.000Z</time>
      </trkpt>
      <trkpt lat="49.52403" lon="0.492">
        <ele>97</ele>
        <time>2013-03-30T20:15:15.000Z</time>
      </trkpt>
      <trkpt lat="49.52401" lon="0.49194">
        <ele>96.800003051758</ele>
        <time>2013-03-30T20:15:18.000Z</time>
      </trkpt>
      <trkpt lat="49.52394" lon="0.4918">
        <ele>96.400001525879</ele>
        <time>2013-03-30T20:15:23.000Z</time>
      </trkpt>
      <trkpt lat="49.52393" lon="0.49177">
        <ele>96.199996948242</ele>
        <time>2013-03-30T20:15:24.000Z</time>
      </trkpt>
      <trkpt lat="49.52384" lon="0.49162">
        <ele>96.199996948242</ele>
        <time>2013-03-30T20:15:29.000Z</time>
      </trkpt>
      <trkpt lat="49.52379" lon="0.49154">
        <ele>96.599998474121</ele>
        <time>2013-03-30T20:15:32.000Z</time>
      </trkpt>
      <trkpt lat="49.52372" lon="0.49131">
        <ele>97</ele>
        <time>2013-03-30T20:15:38.000Z</time>
      </trkpt>
      <trkpt lat="49.52369" lon="0.49125">
        <ele>97.199996948242</ele>
        <time>2013-03-30T20:15:40.000Z</time>
      </trkpt>
      <trkpt lat="49.52355" lon="0.49105">
        <ele>97.400001525879</ele>
        <time>2013-03-30T20:15:47.000Z</time>
      </trkpt>
      <trkpt lat="49.52348" lon="0.49089">
        <ele>97.199996948242</ele>
        <time>2013-03-30T20:15:52.000Z</time>
      </trkpt>
      <trkpt lat="49.52342" lon="0.49074">
        <ele>97.400001525879</ele>
        <time>2013-03-30T20:15:57.000Z</time>
      </trkpt>
      <trkpt lat="49.52337" lon="0.49061">
        <ele>97.599998474121</ele>
        <time>2013-03-30T20:16:02.000Z</time>
      </trkpt>
      <trkpt lat="49.52335" lon="0.49048">
        <ele>97.800003051758</ele>
        <time>2013-03-30T20:16:05.000Z</time>
      </trkpt>
      <trkpt lat="49.52333" lon="0.49038">
        <ele>98</ele>
        <time>2013-03-30T20:16:09.000Z</time>
      </trkpt>
      <trkpt lat="49.52333" lon="0.49032">
        <ele>98.199996948242</ele>
        <time>2013-03-30T20:16:13.000Z</time>
      </trkpt>
      <trkpt lat="49.52333" lon="0.4903">
        <ele>98.199996948242</ele>
        <time>2013-03-30T20:16:14.000Z</time>
      </trkpt>
      <trkpt lat="49.52332" lon="0.49025">
        <ele>98.400001525879</ele>
        <time>2013-03-30T20:16:17.000Z</time>
      </trkpt>
      <trkpt lat="49.52332" lon="0.49013">
        <ele>98.599998474121</ele>
        <time>2013-03-30T20:16:22.000Z</time>
      </trkpt>
      <trkpt lat="49.52338" lon="0.49002">
        <ele>99.199996948242</ele>
        <time>2013-03-30T20:16:27.000Z</time>
      </trkpt>
      <trkpt lat="49.52339" lon="0.48995">
        <ele>99.400001525879</ele>
        <time>2013-03-30T20:16:29.000Z</time>
      </trkpt>
      <trkpt lat="49.52336" lon="0.48974">
        <ele>99.400001525879</ele>
        <time>2013-03-30T20:16:35.000Z</time>
      </trkpt>
      <trkpt lat="49.52331" lon="0.48957">
        <ele>99.400001525879</ele>
        <time>2013-03-30T20:16:40.000Z</time>
      </trkpt>
      <trkpt lat="49.52329" lon="0.4895">
        <ele>99.400001525879</ele>
        <time>2013-03-30T20:16:42.000Z</time>
      </trkpt>
      <trkpt lat="49.52329" lon="0.4893">
        <ele>99.599998474121</ele>
        <time>2013-03-30T20:16:49.000Z</time>
      </trkpt>
      <trkpt lat="49.5233" lon="0.48927">
        <ele>99.599998474121</ele>
        <time>2013-03-30T20:16:50.000Z</time>
      </trkpt>
      <trkpt lat="49.52325" lon="0.48892">
        <ele>99.400001525879</ele>
        <time>2013-03-30T20:16:58.000Z</time>
      </trkpt>
      <trkpt lat="49.52325" lon="0.48887">
        <ele>99.400001525879</ele>
        <time>2013-03-30T20:16:59.000Z</time>
      </trkpt>
      <trkpt lat="49.52325" lon="0.48878">
        <ele>99.400001525879</ele>
        <time>2013-03-30T20:17:01.000Z</time>
      </trkpt>
      <trkpt lat="49.52321" lon="0.48857">
        <ele>99.199996948242</ele>
        <time>2013-03-30T20:17:06.000Z</time>
      </trkpt>
      <trkpt lat="49.5232" lon="0.48852">
        <ele>99.199996948242</ele>
        <time>2013-03-30T20:17:07.000Z</time>
      </trkpt>
      <trkpt lat="49.52311" lon="0.48824">
        <ele>98.599998474121</ele>
        <time>2013-03-30T20:17:13.000Z</time>
      </trkpt>
      <trkpt lat="49.52305" lon="0.48802">
        <ele>98.400001525879</ele>
        <time>2013-03-30T20:17:18.000Z</time>
      </trkpt>
      <trkpt lat="49.52297" lon="0.48781">
        <ele>97.800003051758</ele>
        <time>2013-03-30T20:17:23.000Z</time>
      </trkpt>
      <trkpt lat="49.52293" lon="0.48765">
        <ele>97.599998474121</ele>
        <time>2013-03-30T20:17:27.000Z</time>
      </trkpt>
      <trkpt lat="49.52285" lon="0.48743">
        <ele>97.199996948242</ele>
        <time>2013-03-30T20:17:33.000Z</time>
      </trkpt>
      <trkpt lat="49.52283" lon="0.48739">
        <ele>97.400001525879</ele>
        <time>2013-03-30T20:17:34.000Z</time>
      </trkpt>
      <trkpt lat="49.52276" lon="0.48726">
        <ele>97.400001525879</ele>
        <time>2013-03-30T20:17:38.000Z</time>
      </trkpt>
      <trkpt lat="49.52275" lon="0.48722">
        <ele>97.400001525879</ele>
        <time>2013-03-30T20:17:39.000Z</time>
      </trkpt>
      <trkpt lat="49.52265" lon="0.48703">
        <ele>97.400001525879</ele>
        <time>2013-03-30T20:17:45.000Z</time>
      </trkpt>
      <trkpt lat="49.52262" lon="0.48696">
        <ele>97.400001525879</ele>
        <time>2013-03-30T20:17:48.000Z</time>
      </trkpt>
      <trkpt lat="49.52258" lon="0.4869">
        <ele>97</ele>
        <time>2013-03-30T20:17:51.000Z</time>
      </trkpt>
      <trkpt lat="49.52253" lon="0.48678">
        <ele>96.800003051758</ele>
        <time>2013-03-30T20:17:55.000Z</time>
      </trkpt>
      <trkpt lat="49.52243" lon="0.4866">
        <ele>97.400001525879</ele>
        <time>2013-03-30T20:18:00.000Z</time>
      </trkpt>
      <trkpt lat="49.52241" lon="0.48656">
        <ele>97.599998474121</ele>
        <time>2013-03-30T20:18:01.000Z</time>
      </trkpt>
      <trkpt lat="49.52236" lon="0.48639">
        <ele>97.599998474121</ele>
        <time>2013-03-30T20:18:05.000Z</time>
      </trkpt>
      <trkpt lat="49.5223" lon="0.48629">
        <ele>97.800003051758</ele>
        <time>2013-03-30T20:18:08.000Z</time>
      </trkpt>
      <trkpt lat="49.52222" lon="0.48603">
        <ele>97.599998474121</ele>
        <time>2013-03-30T20:18:14.000Z</time>
      </trkpt>
      <trkpt lat="49.52221" lon="0.48599">
        <ele>97.400001525879</ele>
        <time>2013-03-30T20:18:15.000Z</time>
      </trkpt>
      <trkpt lat="49.52217" lon="0.4858">
        <ele>97</ele>
        <time>2013-03-30T20:18:20.000Z</time>
      </trkpt>
      <trkpt lat="49.52212" lon="0.48558">
        <ele>96.800003051758</ele>
        <time>2013-03-30T20:18:25.000Z</time>
      </trkpt>
      <trkpt lat="49.5221" lon="0.48536">
        <ele>96.599998474121</ele>
        <time>2013-03-30T20:18:30.000Z</time>
      </trkpt>
      <trkpt lat="49.52206" lon="0.4852">
        <ele>96.400001525879</ele>
        <time>2013-03-30T20:18:34.000Z</time>
      </trkpt>
      <trkpt lat="49.52204" lon="0.48499">
        <ele>96</ele>
        <time>2013-03-30T20:18:39.000Z</time>
      </trkpt>
      <trkpt lat="49.52204" lon="0.4848">
        <ele>95.400001525879</ele>
        <time>2013-03-30T20:18:44.000Z</time>
      </trkpt>
      <trkpt lat="49.52202" lon="0.48476">
        <ele>95.400001525879</ele>
        <time>2013-03-30T20:18:45.000Z</time>
      </trkpt>
      <trkpt lat="49.52199" lon="0.48457">
        <ele>95</ele>
        <time>2013-03-30T20:18:50.000Z</time>
      </trkpt>
      <trkpt lat="49.52197" lon="0.48447">
        <ele>94.800003051758</ele>
        <time>2013-03-30T20:18:54.000Z</time>
      </trkpt>
      <trkpt lat="49.52197" lon="0.48441">
        <ele>94.599998474121</ele>
        <time>2013-03-30T20:18:57.000Z</time>
      </trkpt>
      <trkpt lat="49.52194" lon="0.48428">
        <ele>94.599998474121</ele>
        <time>2013-03-30T20:19:01.000Z</time>
      </trkpt>
      <trkpt lat="49.52188" lon="0.48414">
        <ele>94.599998474121</ele>
        <time>2013-03-30T20:19:05.000Z</time>
      </trkpt>
      <trkpt lat="49.52181" lon="0.48396">
        <ele>94.599998474121</ele>
        <time>2013-03-30T20:19:10.000Z</time>
      </trkpt>
      <trkpt lat="49.52177" lon="0.48382">
        <ele>94.199996948242</ele>
        <time>2013-03-30T20:19:14.000Z</time>
      </trkpt>
      <trkpt lat="49.5217" lon="0.48367">
        <ele>93.599998474121</ele>
        <time>2013-03-30T20:19:19.000Z</time>
      </trkpt>
      <trkpt lat="49.5217" lon="0.48364">
        <ele>93.400001525879</ele>
        <time>2013-03-30T20:19:20.000Z</time>
      </trkpt>
      <trkpt lat="49.52167" lon="0.48355">
        <ele>93</ele>
        <time>2013-03-30T20:19:26.000Z</time>
      </trkpt>
      <trkpt lat="49.52164" lon="0.48343">
        <ele>92.599998474121</ele>
        <time>2013-03-30T20:19:31.000Z</time>
      </trkpt>
      <trkpt lat="49.52164" lon="0.48337">
        <ele>92.400001525879</ele>
        <time>2013-03-30T20:19:33.000Z</time>
      </trkpt>
      <trkpt lat="49.5216" lon="0.48328">
        <ele>92.599998474121</ele>
        <time>2013-03-30T20:19:38.000Z</time>
      </trkpt>
      <trkpt lat="49.52158" lon="0.48322">
        <ele>92.800003051758</ele>
        <time>2013-03-30T20:19:43.000Z</time>
      </trkpt>
      <trkpt lat="49.52154" lon="0.48317">
        <ele>93</ele>
        <time>2013-03-30T20:19:55.000Z</time>
      </trkpt>
      <trkpt lat="49.52149" lon="0.48297">
        <ele>93</ele>
        <time>2013-03-30T20:20:29.000Z</time>
      </trkpt>
      <trkpt lat="49.5214" lon="0.48279">
        <ele>92.800003051758</ele>
        <time>2013-03-30T20:20:34.000Z</time>
      </trkpt>
      <trkpt lat="49.52131" lon="0.4826">
        <ele>92</ele>
        <time>2013-03-30T20:20:39.000Z</time>
      </trkpt>
      <trkpt lat="49.52123" lon="0.4825">
        <ele>91.400001525879</ele>
        <time>2013-03-30T20:20:42.000Z</time>
      </trkpt>
      <trkpt lat="49.52112" lon="0.48237">
        <ele>91</ele>
        <time>2013-03-30T20:20:47.000Z</time>
      </trkpt>
      <trkpt lat="49.5211" lon="0.48234">
        <ele>90.800003051758</ele>
        <time>2013-03-30T20:20:48.000Z</time>
      </trkpt>
      <trkpt lat="49.52097" lon="0.48221">
        <ele>89.599998474121</ele>
        <time>2013-03-30T20:20:53.000Z</time>
      </trkpt>
      <trkpt lat="49.5209" lon="0.48216">
        <ele>89</ele>
        <time>2013-03-30T20:20:56.000Z</time>
      </trkpt>
      <trkpt lat="49.5209" lon="0.48209">
        <ele>88.400001525879</ele>
        <time>2013-03-30T20:21:01.000Z</time>
      </trkpt>
      <trkpt lat="49.52089" lon="0.48208">
        <ele>88.400001525879</ele>
        <time>2013-03-30T20:21:02.000Z</time>
      </trkpt>
      <trkpt lat="49.52086" lon="0.48202">
        <ele>87.599998474121</ele>
        <time>2013-03-30T20:21:06.000Z</time>
      </trkpt>
      <trkpt lat="49.52083" lon="0.48198">
        <ele>87.199996948242</ele>
        <time>2013-03-30T20:21:08.000Z</time>
      </trkpt>
      <trkpt lat="49.52082" lon="0.48196">
        <ele>87</ele>
        <time>2013-03-30T20:21:11.000Z</time>
      </trkpt>
      <trkpt lat="49.52078" lon="0.48192">
        <ele>86.800003051758</ele>
        <time>2013-03-30T20:21:14.000Z</time>
      </trkpt>
      <trkpt lat="49.52072" lon="0.4819">
        <ele>86.400001525879</ele>
        <time>2013-03-30T20:21:18.000Z</time>
      </trkpt>
      <trkpt lat="49.52075" lon="0.4819">
        <ele>86.599998474121</ele>
        <time>2013-03-30T20:21:25.000Z</time>
      </trkpt>
      <trkpt lat="49.52078" lon="0.48193">
        <ele>86.800003051758</ele>
        <time>2013-03-30T20:21:28.000Z</time>
      </trkpt>
      <trkpt lat="49.52086" lon="0.48195">
        <ele>87.199996948242</ele>
        <time>2013-03-30T20:21:32.000Z</time>
      </trkpt>
      <trkpt lat="49.52086" lon="0.48195">
        <ele>87.199996948242</ele>
        <time>2013-03-30T20:21:33.000Z</time>
      </trkpt>
      <trkpt lat="49.52092" lon="0.48189">
        <ele>87.599998474121</ele>
        <time>2013-03-30T20:21:38.000Z</time>
      </trkpt>
      <trkpt lat="49.52096" lon="0.48187">
        <ele>87.800003051758</ele>
        <time>2013-03-30T20:21:41.000Z</time>
      </trkpt>
      <trkpt lat="49.52097" lon="0.48186">
        <ele>88</ele>
        <time>2013-03-30T20:21:43.000Z</time>
      </trkpt>
      <trkpt lat="49.52098" lon="0.48184">
        <ele>88</ele>
        <time>2013-03-30T20:21:45.000Z</time>
      </trkpt>
      <trkpt lat="49.52103" lon="0.48178">
        <ele>88.400001525879</ele>
        <time>2013-03-30T20:21:51.000Z</time>
      </trkpt>
      <trkpt lat="49.52103" lon="0.48177">
        <ele>88.400001525879</ele>
        <time>2013-03-30T20:21:52.000Z</time>
      </trkpt>
      <trkpt lat="49.52106" lon="0.48175">
        <ele>88.800003051758</ele>
        <time>2013-03-30T20:22:02.000Z</time>
      </trkpt>
      <trkpt lat="49.52113" lon="0.48168">
        <ele>89.599998474121</ele>
        <time>2013-03-30T20:22:07.000Z</time>
      </trkpt>
      <trkpt lat="49.52114" lon="0.48168">
        <ele>89.599998474121</ele>
        <time>2013-03-30T20:22:08.000Z</time>
      </trkpt>
      <trkpt lat="49.52116" lon="0.48167">
        <ele>90</ele>
        <time>2013-03-30T20:22:10.000Z</time>
      </trkpt>
      <trkpt lat="49.52122" lon="0.48169">
        <ele>90.800003051758</ele>
        <time>2013-03-30T20:22:16.000Z</time>
      </trkpt>
      <trkpt lat="49.52122" lon="0.48169">
        <ele>91</ele>
        <time>2013-03-30T20:22:17.000Z</time>
      </trkpt>
      <trkpt lat="49.52124" lon="0.48169">
        <ele>91.199996948242</ele>
        <time>2013-03-30T20:22:21.000Z</time>
      </trkpt>
      <trkpt lat="49.52125" lon="0.48169">
        <ele>91.400001525879</ele>
        <time>2013-03-30T20:22:24.000Z</time>
      </trkpt>
      <trkpt lat="49.52129" lon="0.48167">
        <ele>92</ele>
        <time>2013-03-30T20:22:29.000Z</time>
      </trkpt>
      <trkpt lat="49.52133" lon="0.48165">
        <ele>92.800003051758</ele>
        <time>2013-03-30T20:22:33.000Z</time>
      </trkpt>
      <trkpt lat="49.52134" lon="0.48164">
        <ele>93</ele>
        <time>2013-03-30T20:22:34.000Z</time>
      </trkpt>
      <trkpt lat="49.52138" lon="0.48164">
        <ele>93.599998474121</ele>
        <time>2013-03-30T20:22:39.000Z</time>
      </trkpt>
      <trkpt lat="49.52138" lon="0.48159">
        <ele>93.599998474121</ele>
        <time>2013-03-30T20:22:44.000Z</time>
      </trkpt>
      <trkpt lat="49.52138" lon="0.48157">
        <ele>93.800003051758</ele>
        <time>2013-03-30T20:22:45.000Z</time>
      </trkpt>
      <trkpt lat="49.52139" lon="0.48155">
        <ele>94</ele>
        <time>2013-03-30T20:22:46.000Z</time>
      </trkpt>
      <trkpt lat="49.52141" lon="0.48153">
        <ele>94.400001525879</ele>
        <time>2013-03-30T20:22:49.000Z</time>
      </trkpt>
      <trkpt lat="49.52144" lon="0.48151">
        <ele>94.800003051758</ele>
        <time>2013-03-30T20:22:53.000Z</time>
      </trkpt>
      <trkpt lat="49.52146" lon="0.4815">
        <ele>95.199996948242</ele>
        <time>2013-03-30T20:22:55.000Z</time>
      </trkpt>
      <trkpt lat="49.52148" lon="0.48148">
        <ele>95.400001525879</ele>
        <time>2013-03-30T20:23:01.000Z</time>
      </trkpt>
      <trkpt lat="49.52151" lon="0.48145">
        <ele>96</ele>
        <time>2013-03-30T20:23:10.000Z</time>
      </trkpt>
      <trkpt lat="49.52153" lon="0.48142">
        <ele>96.599998474121</ele>
        <time>2013-03-30T20:23:13.000Z</time>
      </trkpt>
      <trkpt lat="49.52154" lon="0.48139">
        <ele>96.599998474121</ele>
        <time>2013-03-30T20:23:21.000Z</time>
      </trkpt>
      <trkpt lat="49.52161" lon="0.48132">
        <ele>97.800003051758</ele>
        <time>2013-03-30T20:23:36.000Z</time>
      </trkpt>
      <trkpt lat="49.52157" lon="0.48131">
        <ele>97.400001525879</ele>
        <time>2013-03-30T20:23:49.000Z</time>
      </trkpt>
      <trkpt lat="49.52155" lon="0.48126">
        <ele>97.199996948242</ele>
        <time>2013-03-30T20:23:57.000Z</time>
      </trkpt>
      <trkpt lat="49.52155" lon="0.48121">
        <ele>97.199996948242</ele>
        <time>2013-03-30T20:24:07.000Z</time>
      </trkpt>
      <trkpt lat="49.52154" lon="0.48119">
        <ele>97.199996948242</ele>
        <time>2013-03-30T20:24:15.000Z</time>
      </trkpt>
      <trkpt lat="49.52151" lon="0.48117">
        <ele>97</ele>
        <time>2013-03-30T20:24:19.000Z</time>
      </trkpt>
      <trkpt lat="49.5215" lon="0.48112">
        <ele>97</ele>
        <time>2013-03-30T20:24:22.000Z</time>
      </trkpt>
      <trkpt lat="49.52152" lon="0.48103">
        <ele>97.400001525879</ele>
        <time>2013-03-30T20:24:27.000Z</time>
      </trkpt>
      <trkpt lat="49.52147" lon="0.48111">
        <ele>96.599998474121</ele>
        <time>2013-03-30T20:24:31.000Z</time>
      </trkpt>
      <trkpt lat="49.52144" lon="0.48121">
        <ele>95.800003051758</ele>
        <time>2013-03-30T20:24:35.000Z</time>
      </trkpt>
      <trkpt lat="49.52143" lon="0.48124">
        <ele>95.599998474121</ele>
        <time>2013-03-30T20:24:36.000Z</time>
      </trkpt>
      <trkpt lat="49.52138" lon="0.48139">
        <ele>94.199996948242</ele>
        <time>2013-03-30T20:24:42.000Z</time>
      </trkpt>
      <trkpt lat="49.52137" lon="0.48141">
        <ele>94.199996948242</ele>
        <time>2013-03-30T20:24:43.000Z</time>
      </trkpt>
      <trkpt lat="49.52131" lon="0.48145">
        <ele>93</ele>
        <time>2013-03-30T20:24:46.000Z</time>
      </trkpt>
      <trkpt lat="49.52129" lon="0.48146">
        <ele>92.599998474121</ele>
        <time>2013-03-30T20:24:48.000Z</time>
      </trkpt>
      <trkpt lat="49.52127" lon="0.48152">
        <ele>92.199996948242</ele>
        <time>2013-03-30T20:24:51.000Z</time>
      </trkpt>
      <trkpt lat="49.52118" lon="0.4816">
        <ele>90.599998474121</ele>
        <time>2013-03-30T20:24:56.000Z</time>
      </trkpt>
      <trkpt lat="49.52113" lon="0.48171">
        <ele>89.599998474121</ele>
        <time>2013-03-30T20:25:00.000Z</time>
      </trkpt>
      <trkpt lat="49.52112" lon="0.48175">
        <ele>89.599998474121</ele>
        <time>2013-03-30T20:25:01.000Z</time>
      </trkpt>
      <trkpt lat="49.52111" lon="0.48177">
        <ele>89.400001525879</ele>
        <time>2013-03-30T20:25:02.000Z</time>
      </trkpt>
      <trkpt lat="49.52101" lon="0.48178">
        <ele>88.199996948242</ele>
        <time>2013-03-30T20:25:06.000Z</time>
      </trkpt>
      <trkpt lat="49.521" lon="0.48177">
        <ele>88</ele>
        <time>2013-03-30T20:25:07.000Z</time>
      </trkpt>
      <trkpt lat="49.52094" lon="0.48171">
        <ele>86.800003051758</ele>
        <time>2013-03-30T20:25:30.000Z</time>
      </trkpt>
      <trkpt lat="49.52088" lon="0.48165">
        <ele>85.599998474121</ele>
        <time>2013-03-30T20:25:35.000Z</time>
      </trkpt>
      <trkpt lat="49.52087" lon="0.48164">
        <ele>85.599998474121</ele>
        <time>2013-03-30T20:25:36.000Z</time>
      </trkpt>
      <trkpt lat="49.52082" lon="0.48168">
        <ele>85</ele>
        <time>2013-03-30T20:25:43.000Z</time>
      </trkpt>
      <trkpt lat="49.52073" lon="0.48166">
        <ele>84.400001525879</ele>
        <time>2013-03-30T20:25:47.000Z</time>
      </trkpt>
      <trkpt lat="49.52064" lon="0.48159">
        <ele>84.199996948242</ele>
        <time>2013-03-30T20:25:51.000Z</time>
      </trkpt>
      <trkpt lat="49.52052" lon="0.48151">
        <ele>83.800003051758</ele>
        <time>2013-03-30T20:25:56.000Z</time>
      </trkpt>
      <trkpt lat="49.52045" lon="0.48141">
        <ele>83.400001525879</ele>
        <time>2013-03-30T20:26:01.000Z</time>
      </trkpt>
      <trkpt lat="49.52043" lon="0.48139">
        <ele>83.400001525879</ele>
        <time>2013-03-30T20:26:02.000Z</time>
      </trkpt>
      <trkpt lat="49.52036" lon="0.48126">
        <ele>83</ele>
        <time>2013-03-30T20:26:06.000Z</time>
      </trkpt>
      <trkpt lat="49.52031" lon="0.48107">
        <ele>82.599998474121</ele>
        <time>2013-03-30T20:26:11.000Z</time>
      </trkpt>
      <trkpt lat="49.5203" lon="0.481">
        <ele>82.400001525879</ele>
        <time>2013-03-30T20:26:13.000Z</time>
      </trkpt>
      <trkpt lat="49.52028" lon="0.48094">
        <ele>82.199996948242</ele>
        <time>2013-03-30T20:26:15.000Z</time>
      </trkpt>
      <trkpt lat="49.52026" lon="0.48088">
        <ele>82</ele>
        <time>2013-03-30T20:26:17.000Z</time>
      </trkpt>
      <trkpt lat="49.52022" lon="0.48073">
        <ele>83.199996948242</ele>
        <time>2013-03-30T20:26:22.000Z</time>
      </trkpt>
      <trkpt lat="49.52019" lon="0.48067">
        <ele>83.800003051758</ele>
        <time>2013-03-30T20:26:24.000Z</time>
      </trkpt>
      <trkpt lat="49.52017" lon="0.48061">
        <ele>84.400001525879</ele>
        <time>2013-03-30T20:26:26.000Z</time>
      </trkpt>
      <trkpt lat="49.52011" lon="0.48052">
        <ele>85.199996948242</ele>
        <time>2013-03-30T20:26:30.000Z</time>
      </trkpt>
      <trkpt lat="49.52007" lon="0.48047">
        <ele>85.400001525879</ele>
        <time>2013-03-30T20:26:32.000Z</time>
      </trkpt>
      <trkpt lat="49.52002" lon="0.48039">
        <ele>86.199996948242</ele>
        <time>2013-03-30T20:26:35.000Z</time>
      </trkpt>
      <trkpt lat="49.51997" lon="0.48031">
        <ele>87</ele>
        <time>2013-03-30T20:26:39.000Z</time>
      </trkpt>
      <trkpt lat="49.51994" lon="0.48022">
        <ele>88.199996948242</ele>
        <time>2013-03-30T20:26:42.000Z</time>
      </trkpt>
      <trkpt lat="49.51992" lon="0.4801">
        <ele>90</ele>
        <time>2013-03-30T20:26:46.000Z</time>
      </trkpt>
      <trkpt lat="49.51983" lon="0.48001">
        <ele>91</ele>
        <time>2013-03-30T20:26:51.000Z</time>
      </trkpt>
      <trkpt lat="49.51976" lon="0.47992">
        <ele>92</ele>
        <time>2013-03-30T20:26:55.000Z</time>
      </trkpt>
      <trkpt lat="49.51972" lon="0.47985">
        <ele>92.800003051758</ele>
        <time>2013-03-30T20:26:59.000Z</time>
      </trkpt>
      <trkpt lat="49.51969" lon="0.47976">
        <ele>94</ele>
        <time>2013-03-30T20:27:04.000Z</time>
      </trkpt>
      <trkpt lat="49.51969" lon="0.47971">
        <ele>94.599998474121</ele>
        <time>2013-03-30T20:27:07.000Z</time>
      </trkpt>
      <trkpt lat="49.51967" lon="0.47969">
        <ele>95</ele>
        <time>2013-03-30T20:27:09.000Z</time>
      </trkpt>
      <trkpt lat="49.51961" lon="0.47964">
        <ele>95.400001525879</ele>
        <time>2013-03-30T20:27:14.000Z</time>
      </trkpt>
      <trkpt lat="49.51961" lon="0.47963">
        <ele>95.400001525879</ele>
        <time>2013-03-30T20:27:15.000Z</time>
      </trkpt>
      <trkpt lat="49.51956" lon="0.47957">
        <ele>96.400001525879</ele>
        <time>2013-03-30T20:27:21.000Z</time>
      </trkpt>
      <trkpt lat="49.51952" lon="0.47952">
        <ele>96.800003051758</ele>
        <time>2013-03-30T20:27:25.000Z</time>
      </trkpt>
      <trkpt lat="49.5195" lon="0.47948">
        <ele>97.400001525879</ele>
        <time>2013-03-30T20:27:29.000Z</time>
      </trkpt>
      <trkpt lat="49.51944" lon="0.47943">
        <ele>98</ele>
        <time>2013-03-30T20:27:34.000Z</time>
      </trkpt>
      <trkpt lat="49.5194" lon="0.47937">
        <ele>98.599998474121</ele>
        <time>2013-03-30T20:27:38.000Z</time>
      </trkpt>
      <trkpt lat="49.51934" lon="0.4793">
        <ele>99.400001525879</ele>
        <time>2013-03-30T20:27:42.000Z</time>
      </trkpt>
      <trkpt lat="49.51929" lon="0.47926">
        <ele>100</ele>
        <time>2013-03-30T20:27:45.000Z</time>
      </trkpt>
      <trkpt lat="49.51927" lon="0.47924">
        <ele>100.19999694824</ele>
        <time>2013-03-30T20:27:46.000Z</time>
      </trkpt>
      <trkpt lat="49.51925" lon="0.47922">
        <ele>100.40000152588</ele>
        <time>2013-03-30T20:27:47.000Z</time>
      </trkpt>
      <trkpt lat="49.5192" lon="0.47915">
        <ele>101</ele>
        <time>2013-03-30T20:27:51.000Z</time>
      </trkpt>
      <trkpt lat="49.51918" lon="0.47912">
        <ele>101</ele>
        <time>2013-03-30T20:27:53.000Z</time>
      </trkpt>
      <trkpt lat="49.51915" lon="0.4791">
        <ele>101.19999694824</ele>
        <time>2013-03-30T20:27:55.000Z</time>
      </trkpt>
      <trkpt lat="49.51911" lon="0.47908">
        <ele>101</ele>
        <time>2013-03-30T20:27:58.000Z</time>
      </trkpt>
      <trkpt lat="49.51901" lon="0.47905">
        <ele>101</ele>
        <time>2013-03-30T20:28:06.000Z</time>
      </trkpt>
      <trkpt lat="49.51901" lon="0.47905">
        <ele>100.80000305176</ele>
        <time>2013-03-30T20:28:07.000Z</time>
      </trkpt>
      <trkpt lat="49.5189" lon="0.47908">
        <ele>100.59999847412</ele>
        <time>2013-03-30T20:28:14.000Z</time>
      </trkpt>
      <trkpt lat="49.51889" lon="0.47909">
        <ele>100.40000152588</ele>
        <time>2013-03-30T20:28:15.000Z</time>
      </trkpt>
      <trkpt lat="49.51883" lon="0.47914">
        <ele>100.19999694824</ele>
        <time>2013-03-30T20:28:18.000Z</time>
      </trkpt>
      <trkpt lat="49.51878" lon="0.47918">
        <ele>99.800003051758</ele>
        <time>2013-03-30T20:28:20.000Z</time>
      </trkpt>
      <trkpt lat="49.5187" lon="0.47924">
        <ele>99.199996948242</ele>
        <time>2013-03-30T20:28:24.000Z</time>
      </trkpt>
      <trkpt lat="49.51863" lon="0.47937">
        <ele>98.199996948242</ele>
        <time>2013-03-30T20:28:29.000Z</time>
      </trkpt>
      <trkpt lat="49.51856" lon="0.47947">
        <ele>97.599998474121</ele>
        <time>2013-03-30T20:28:34.000Z</time>
      </trkpt>
      <trkpt lat="49.51849" lon="0.47957">
        <ele>97.199996948242</ele>
        <time>2013-03-30T20:28:39.000Z</time>
      </trkpt>
      <trkpt lat="49.51847" lon="0.47961">
        <ele>97.199996948242</ele>
        <time>2013-03-30T20:28:41.000Z</time>
      </trkpt>
      <trkpt lat="49.51841" lon="0.47967">
        <ele>97.199996948242</ele>
        <time>2013-03-30T20:28:45.000Z</time>
      </trkpt>
      <trkpt lat="49.51828" lon="0.47981">
        <ele>97.800003051758</ele>
        <time>2013-03-30T20:28:52.000Z</time>
      </trkpt>
      <trkpt lat="49.51818" lon="0.47994">
        <ele>98.400001525879</ele>
        <time>2013-03-30T20:28:58.000Z</time>
      </trkpt>
      <trkpt lat="49.51816" lon="0.47997">
        <ele>98.599998474121</ele>
        <time>2013-03-30T20:29:00.000Z</time>
      </trkpt>
      <trkpt lat="49.51806" lon="0.48006">
        <ele>98.800003051758</ele>
        <time>2013-03-30T20:29:05.000Z</time>
      </trkpt>
      <trkpt lat="49.51798" lon="0.48015">
        <ele>98.599998474121</ele>
        <time>2013-03-30T20:29:09.000Z</time>
      </trkpt>
      <trkpt lat="49.51794" lon="0.48019">
        <ele>98.599998474121</ele>
        <time>2013-03-30T20:29:11.000Z</time>
      </trkpt>
      <trkpt lat="49.51783" lon="0.48032">
        <ele>98.400001525879</ele>
        <time>2013-03-30T20:29:17.000Z</time>
      </trkpt>
      <trkpt lat="49.5177" lon="0.48035">
        <ele>99.199996948242</ele>
        <time>2013-03-30T20:29:22.000Z</time>
      </trkpt>
      <trkpt lat="49.51765" lon="0.48037">
        <ele>99.400001525879</ele>
        <time>2013-03-30T20:29:24.000Z</time>
      </trkpt>
      <trkpt lat="49.51751" lon="0.48038">
        <ele>100.59999847412</ele>
        <time>2013-03-30T20:29:29.000Z</time>
      </trkpt>
      <trkpt lat="49.51745" lon="0.48038">
        <ele>100.80000305176</ele>
        <time>2013-03-30T20:29:32.000Z</time>
      </trkpt>
      <trkpt lat="49.51731" lon="0.48036">
        <ele>100.59999847412</ele>
        <time>2013-03-30T20:29:37.000Z</time>
      </trkpt>
      <trkpt lat="49.51723" lon="0.48034">
        <ele>100.59999847412</ele>
        <time>2013-03-30T20:29:41.000Z</time>
      </trkpt>
      <trkpt lat="49.51721" lon="0.48034">
        <ele>100.59999847412</ele>
        <time>2013-03-30T20:29:42.000Z</time>
      </trkpt>
      <trkpt lat="49.51711" lon="0.48026">
        <ele>101.40000152588</ele>
        <time>2013-03-30T20:29:49.000Z</time>
      </trkpt>
      <trkpt lat="49.51706" lon="0.48022">
        <ele>101.59999847412</ele>
        <time>2013-03-30T20:29:51.000Z</time>
      </trkpt>
      <trkpt lat="49.51698" lon="0.48011">
        <ele>102.59999847412</ele>
        <time>2013-03-30T20:29:56.000Z</time>
      </trkpt>
      <trkpt lat="49.51689" lon="0.48002">
        <ele>103.19999694824</ele>
        <time>2013-03-30T20:30:01.000Z</time>
      </trkpt>
      <trkpt lat="49.5168" lon="0.47996">
        <ele>103.40000152588</ele>
        <time>2013-03-30T20:30:05.000Z</time>
      </trkpt>
      <trkpt lat="49.51671" lon="0.47995">
        <ele>103.19999694824</ele>
        <time>2013-03-30T20:30:10.000Z</time>
      </trkpt>
      <trkpt lat="49.5167" lon="0.47994">
        <ele>103.19999694824</ele>
        <time>2013-03-30T20:30:11.000Z</time>
      </trkpt>
      <trkpt lat="49.51663" lon="0.47989">
        <ele>102.59999847412</ele>
        <time>2013-03-30T20:30:15.000Z</time>
      </trkpt>
      <trkpt lat="49.51658" lon="0.47987">
        <ele>102.19999694824</ele>
        <time>2013-03-30T20:30:17.000Z</time>
      </trkpt>
      <trkpt lat="49.51646" lon="0.47982">
        <ele>100.59999847412</ele>
        <time>2013-03-30T20:30:22.000Z</time>
      </trkpt>
      <trkpt lat="49.5163" lon="0.47982">
        <ele>98.400001525879</ele>
        <time>2013-03-30T20:30:29.000Z</time>
      </trkpt>
      <trkpt lat="49.51623" lon="0.47988">
        <ele>97.599998474121</ele>
        <time>2013-03-30T20:30:32.000Z</time>
      </trkpt>
      <trkpt lat="49.51619" lon="0.47992">
        <ele>97.199996948242</ele>
        <time>2013-03-30T20:30:34.000Z</time>
      </trkpt>
      <trkpt lat="49.51607" lon="0.47998">
        <ele>95.800003051758</ele>
        <time>2013-03-30T20:30:39.000Z</time>
      </trkpt>
      <trkpt lat="49.51604" lon="0.47998">
        <ele>95.400001525879</ele>
        <time>2013-03-30T20:30:41.000Z</time>
      </trkpt>
      <trkpt lat="49.516" lon="0.48004">
        <ele>94.599998474121</ele>
        <time>2013-03-30T20:30:47.000Z</time>
      </trkpt>
      <trkpt lat="49.51599" lon="0.48007">
        <ele>94.400001525879</ele>
        <time>2013-03-30T20:30:49.000Z</time>
      </trkpt>
      <trkpt lat="49.51597" lon="0.4801">
        <ele>93.800003051758</ele>
        <time>2013-03-30T20:30:58.000Z</time>
      </trkpt>
      <trkpt lat="49.51595" lon="0.48012">
        <ele>93.400001525879</ele>
        <time>2013-03-30T20:31:04.000Z</time>
      </trkpt>
      <trkpt lat="49.5159" lon="0.48015">
        <ele>92.800003051758</ele>
        <time>2013-03-30T20:31:08.000Z</time>
      </trkpt>
      <trkpt lat="49.51589" lon="0.48018">
        <ele>92.400001525879</ele>
        <time>2013-03-30T20:31:10.000Z</time>
      </trkpt>
      <trkpt lat="49.51585" lon="0.48019">
        <ele>92</ele>
        <time>2013-03-30T20:31:13.000Z</time>
      </trkpt>
      <trkpt lat="49.51584" lon="0.48019">
        <ele>91.800003051758</ele>
        <time>2013-03-30T20:31:15.000Z</time>
      </trkpt>
      <trkpt lat="49.51582" lon="0.48015">
        <ele>91.800003051758</ele>
        <time>2013-03-30T20:31:20.000Z</time>
      </trkpt>
      <trkpt lat="49.51581" lon="0.48013">
        <ele>91.599998474121</ele>
        <time>2013-03-30T20:31:22.000Z</time>
      </trkpt>
      <trkpt lat="49.51578" lon="0.4801">
        <ele>91.400001525879</ele>
        <time>2013-03-30T20:31:26.000Z</time>
      </trkpt>
      <trkpt lat="49.51577" lon="0.48009">
        <ele>91.199996948242</ele>
        <time>2013-03-30T20:31:27.000Z</time>
      </trkpt>
      <trkpt lat="49.51576" lon="0.48009">
        <ele>91</ele>
        <time>2013-03-30T20:31:31.000Z</time>
      </trkpt>
      <trkpt lat="49.51572" lon="0.48008">
        <ele>90.400001525879</ele>
        <time>2013-03-30T20:31:38.000Z</time>
      </trkpt>
      <trkpt lat="49.51571" lon="0.48007">
        <ele>90.400001525879</ele>
        <time>2013-03-30T20:31:39.000Z</time>
      </trkpt>
      <trkpt lat="49.51565" lon="0.48004">
        <ele>89.400001525879</ele>
        <time>2013-03-30T20:31:44.000Z</time>
      </trkpt>
      <trkpt lat="49.51561" lon="0.48003">
        <ele>88.800003051758</ele>
        <time>2013-03-30T20:31:47.000Z</time>
      </trkpt>
      <trkpt lat="49.51555" lon="0.48005">
        <ele>87.599998474121</ele>
        <time>2013-03-30T20:31:51.000Z</time>
      </trkpt>
      <trkpt lat="49.51552" lon="0.48005">
        <ele>87.199996948242</ele>
        <time>2013-03-30T20:31:53.000Z</time>
      </trkpt>
      <trkpt lat="49.51545" lon="0.48012">
        <ele>85.400001525879</ele>
        <time>2013-03-30T20:31:58.000Z</time>
      </trkpt>
      <trkpt lat="49.51544" lon="0.48013">
        <ele>85.199996948242</ele>
        <time>2013-03-30T20:32:00.000Z</time>
      </trkpt>
      <trkpt lat="49.51541" lon="0.48012">
        <ele>84.599998474121</ele>
        <time>2013-03-30T20:32:02.000Z</time>
      </trkpt>
      <trkpt lat="49.51535" lon="0.48007">
        <ele>83.800003051758</ele>
        <time>2013-03-30T20:32:07.000Z</time>
      </trkpt>
      <trkpt lat="49.51529" lon="0.48012">
        <ele>82.599998474121</ele>
        <time>2013-03-30T20:32:11.000Z</time>
      </trkpt>
      <trkpt lat="49.51529" lon="0.48014">
        <ele>82.400001525879</ele>
        <time>2013-03-30T20:32:12.000Z</time>
      </trkpt>
      <trkpt lat="49.51525" lon="0.48021">
        <ele>81.599998474121</ele>
        <time>2013-03-30T20:32:19.000Z</time>
      </trkpt>
      <trkpt lat="49.51524" lon="0.48025">
        <ele>81.199996948242</ele>
        <time>2013-03-30T20:32:24.000Z</time>
      </trkpt>
      <trkpt lat="49.51522" lon="0.4803">
        <ele>80.599998474121</ele>
        <time>2013-03-30T20:32:29.000Z</time>
      </trkpt>
      <trkpt lat="49.51522" lon="0.48032">
        <ele>80.599998474121</ele>
        <time>2013-03-30T20:32:30.000Z</time>
      </trkpt>
      <trkpt lat="49.51519" lon="0.48046">
        <ele>79.400001525879</ele>
        <time>2013-03-30T20:32:35.000Z</time>
      </trkpt>
      <trkpt lat="49.51518" lon="0.48053">
        <ele>79</ele>
        <time>2013-03-30T20:32:37.000Z</time>
      </trkpt>
      <trkpt lat="49.51515" lon="0.48073">
        <ele>77.800003051758</ele>
        <time>2013-03-30T20:32:43.000Z</time>
      </trkpt>
      <trkpt lat="49.51515" lon="0.48075">
        <ele>77.599998474121</ele>
        <time>2013-03-30T20:32:44.000Z</time>
      </trkpt>
      <trkpt lat="49.51513" lon="0.48095">
        <ele>76.400001525879</ele>
        <time>2013-03-30T20:32:49.000Z</time>
      </trkpt>
      <trkpt lat="49.51513" lon="0.48102">
        <ele>76</ele>
        <time>2013-03-30T20:32:51.000Z</time>
      </trkpt>
      <trkpt lat="49.51509" lon="0.48128">
        <ele>74.199996948242</ele>
        <time>2013-03-30T20:32:56.000Z</time>
      </trkpt>
      <trkpt lat="49.51509" lon="0.48132">
        <ele>74</ele>
        <time>2013-03-30T20:32:57.000Z</time>
      </trkpt>
      <trkpt lat="49.51508" lon="0.48145">
        <ele>73.400001525879</ele>
        <time>2013-03-30T20:33:00.000Z</time>
      </trkpt>
      <trkpt lat="49.51509" lon="0.48164">
        <ele>72.599998474121</ele>
        <time>2013-03-30T20:33:04.000Z</time>
      </trkpt>
      <trkpt lat="49.51511" lon="0.48175">
        <ele>72.199996948242</ele>
        <time>2013-03-30T20:33:07.000Z</time>
      </trkpt>
      <trkpt lat="49.51517" lon="0.48197">
        <ele>71.199996948242</ele>
        <time>2013-03-30T20:33:14.000Z</time>
      </trkpt>
      <trkpt lat="49.51518" lon="0.48202">
        <ele>71</ele>
        <time>2013-03-30T20:33:17.000Z</time>
      </trkpt>
      <trkpt lat="49.51521" lon="0.48211">
        <ele>70.400001525879</ele>
        <time>2013-03-30T20:33:21.000Z</time>
      </trkpt>
      <trkpt lat="49.51525" lon="0.48225">
        <ele>69.199996948242</ele>
        <time>2013-03-30T20:33:26.000Z</time>
      </trkpt>
      <trkpt lat="49.51526" lon="0.48226">
        <ele>69.199996948242</ele>
        <time>2013-03-30T20:33:27.000Z</time>
      </trkpt>
      <trkpt lat="49.51531" lon="0.48241">
        <ele>67.599998474121</ele>
        <time>2013-03-30T20:33:32.000Z</time>
      </trkpt>
      <trkpt lat="49.51535" lon="0.4825">
        <ele>66.599998474121</ele>
        <time>2013-03-30T20:33:37.000Z</time>
      </trkpt>
      <trkpt lat="49.5154" lon="0.4826">
        <ele>65.800003051758</ele>
        <time>2013-03-30T20:33:41.000Z</time>
      </trkpt>
      <trkpt lat="49.51542" lon="0.48263">
        <ele>65.400001525879</ele>
        <time>2013-03-30T20:33:42.000Z</time>
      </trkpt>
      <trkpt lat="49.51552" lon="0.48278">
        <ele>64</ele>
        <time>2013-03-30T20:33:47.000Z</time>
      </trkpt>
      <trkpt lat="49.51555" lon="0.48283">
        <ele>63.400001525879</ele>
        <time>2013-03-30T20:33:51.000Z</time>
      </trkpt>
      <trkpt lat="49.51556" lon="0.48286">
        <ele>63.200000762939</ele>
        <time>2013-03-30T20:34:00.000Z</time>
      </trkpt>
      <trkpt lat="49.51557" lon="0.4829">
        <ele>63</ele>
        <time>2013-03-30T20:34:06.000Z</time>
      </trkpt>
      <trkpt lat="49.51559" lon="0.48302">
        <ele>62.400001525879</ele>
        <time>2013-03-30T20:34:13.000Z</time>
      </trkpt>
      <trkpt lat="49.51564" lon="0.48321">
        <ele>61</ele>
        <time>2013-03-30T20:34:18.000Z</time>
      </trkpt>
      <trkpt lat="49.51568" lon="0.4834">
        <ele>60</ele>
        <time>2013-03-30T20:34:23.000Z</time>
      </trkpt>
      <trkpt lat="49.51569" lon="0.48344">
        <ele>60</ele>
        <time>2013-03-30T20:34:24.000Z</time>
      </trkpt>
      <trkpt lat="49.5157" lon="0.48361">
        <ele>60</ele>
        <time>2013-03-30T20:34:28.000Z</time>
      </trkpt>
      <trkpt lat="49.51575" lon="0.48385">
        <ele>60</ele>
        <time>2013-03-30T20:34:34.000Z</time>
      </trkpt>
      <trkpt lat="49.51576" lon="0.48409">
        <ele>60.400001525879</ele>
        <time>2013-03-30T20:34:39.000Z</time>
      </trkpt>
      <trkpt lat="49.51577" lon="0.48435">
        <ele>59.400001525879</ele>
        <time>2013-03-30T20:34:45.000Z</time>
      </trkpt>
      <trkpt lat="49.51577" lon="0.48466">
        <ele>57.799999237061</ele>
        <time>2013-03-30T20:34:52.000Z</time>
      </trkpt>
      <trkpt lat="49.51578" lon="0.48488">
        <ele>56.599998474121</ele>
        <time>2013-03-30T20:34:57.000Z</time>
      </trkpt>
      <trkpt lat="49.51576" lon="0.48517">
        <ele>55.599998474121</ele>
        <time>2013-03-30T20:35:03.000Z</time>
      </trkpt>
      <trkpt lat="49.51575" lon="0.4854">
        <ele>55</ele>
        <time>2013-03-30T20:35:08.000Z</time>
      </trkpt>
      <trkpt lat="49.51573" lon="0.48565">
        <ele>54.200000762939</ele>
        <time>2013-03-30T20:35:14.000Z</time>
      </trkpt>
      <trkpt lat="49.51569" lon="0.48589">
        <ele>53.400001525879</ele>
        <time>2013-03-30T20:35:20.000Z</time>
      </trkpt>
      <trkpt lat="49.51564" lon="0.48617">
        <ele>53.400001525879</ele>
        <time>2013-03-30T20:35:26.000Z</time>
      </trkpt>
      <trkpt lat="49.51559" lon="0.48632">
        <ele>53</ele>
        <time>2013-03-30T20:35:30.000Z</time>
      </trkpt>
      <trkpt lat="49.5155" lon="0.48655">
        <ele>51.599998474121</ele>
        <time>2013-03-30T20:35:36.000Z</time>
      </trkpt>
      <trkpt lat="49.51541" lon="0.48673">
        <ele>50.400001525879</ele>
        <time>2013-03-30T20:35:41.000Z</time>
      </trkpt>
      <trkpt lat="49.51529" lon="0.48694">
        <ele>49.799999237061</ele>
        <time>2013-03-30T20:35:47.000Z</time>
      </trkpt>
      <trkpt lat="49.51515" lon="0.48714">
        <ele>48.400001525879</ele>
        <time>2013-03-30T20:35:53.000Z</time>
      </trkpt>
      <trkpt lat="49.51508" lon="0.48724">
        <ele>47.400001525879</ele>
        <time>2013-03-30T20:35:56.000Z</time>
      </trkpt>
      <trkpt lat="49.51502" lon="0.48734">
        <ele>46.400001525879</ele>
        <time>2013-03-30T20:35:59.000Z</time>
      </trkpt>
      <trkpt lat="49.51494" lon="0.48746">
        <ele>46.200000762939</ele>
        <time>2013-03-30T20:36:03.000Z</time>
      </trkpt>
      <trkpt lat="49.51485" lon="0.48759">
        <ele>47.400001525879</ele>
        <time>2013-03-30T20:36:08.000Z</time>
      </trkpt>
      <trkpt lat="49.51479" lon="0.48768">
        <ele>48.200000762939</ele>
        <time>2013-03-30T20:36:12.000Z</time>
      </trkpt>
      <trkpt lat="49.51472" lon="0.48779">
        <ele>49</ele>
        <time>2013-03-30T20:36:19.000Z</time>
      </trkpt>
      <trkpt lat="49.51465" lon="0.48789">
        <ele>49.200000762939</ele>
        <time>2013-03-30T20:36:24.000Z</time>
      </trkpt>
      <trkpt lat="49.51457" lon="0.48799">
        <ele>49.200000762939</ele>
        <time>2013-03-30T20:36:29.000Z</time>
      </trkpt>
      <trkpt lat="49.51454" lon="0.48803">
        <ele>49.200000762939</ele>
        <time>2013-03-30T20:36:33.000Z</time>
      </trkpt>
      <trkpt lat="49.51449" lon="0.4881">
        <ele>48.799999237061</ele>
        <time>2013-03-30T20:36:41.000Z</time>
      </trkpt>
      <trkpt lat="49.51443" lon="0.48817">
        <ele>48.400001525879</ele>
        <time>2013-03-30T20:36:48.000Z</time>
      </trkpt>
      <trkpt lat="49.51434" lon="0.48826">
        <ele>47.200000762939</ele>
        <time>2013-03-30T20:37:00.000Z</time>
      </trkpt>
      <trkpt lat="49.51428" lon="0.48835">
        <ele>46.599998474121</ele>
        <time>2013-03-30T20:37:06.000Z</time>
      </trkpt>
      <trkpt lat="49.51418" lon="0.48849">
        <ele>45.799999237061</ele>
        <time>2013-03-30T20:37:12.000Z</time>
      </trkpt>
      <trkpt lat="49.51407" lon="0.48862">
        <ele>46.200000762939</ele>
        <time>2013-03-30T20:37:18.000Z</time>
      </trkpt>
      <trkpt lat="49.51397" lon="0.48876">
        <ele>46.599998474121</ele>
        <time>2013-03-30T20:37:24.000Z</time>
      </trkpt>
      <trkpt lat="49.51383" lon="0.48896">
        <ele>46.599998474121</ele>
        <time>2013-03-30T20:37:31.000Z</time>
      </trkpt>
      <trkpt lat="49.51374" lon="0.48911">
        <ele>46.200000762939</ele>
        <time>2013-03-30T20:37:36.000Z</time>
      </trkpt>
      <trkpt lat="49.51361" lon="0.48929">
        <ele>45.400001525879</ele>
        <time>2013-03-30T20:37:42.000Z</time>
      </trkpt>
      <trkpt lat="49.51349" lon="0.48948">
        <ele>44.200000762939</ele>
        <time>2013-03-30T20:37:48.000Z</time>
      </trkpt>
      <trkpt lat="49.51338" lon="0.48974">
        <ele>42.799999237061</ele>
        <time>2013-03-30T20:37:55.000Z</time>
      </trkpt>
      <trkpt lat="49.51334" lon="0.48997">
        <ele>42</ele>
        <time>2013-03-30T20:38:00.000Z</time>
      </trkpt>
      <trkpt lat="49.51332" lon="0.49023">
        <ele>42.400001525879</ele>
        <time>2013-03-30T20:38:06.000Z</time>
      </trkpt>
      <trkpt lat="49.51334" lon="0.49054">
        <ele>42.599998474121</ele>
        <time>2013-03-30T20:38:13.000Z</time>
      </trkpt>
      <trkpt lat="49.51335" lon="0.49083">
        <ele>43.200000762939</ele>
        <time>2013-03-30T20:38:19.000Z</time>
      </trkpt>
      <trkpt lat="49.51336" lon="0.49105">
        <ele>42.400001525879</ele>
        <time>2013-03-30T20:38:24.000Z</time>
      </trkpt>
      <trkpt lat="49.51337" lon="0.49131">
        <ele>41.400001525879</ele>
        <time>2013-03-30T20:38:30.000Z</time>
      </trkpt>
      <trkpt lat="49.51337" lon="0.4915">
        <ele>40.400001525879</ele>
        <time>2013-03-30T20:38:34.000Z</time>
      </trkpt>
      <trkpt lat="49.51336" lon="0.49182">
        <ele>39.599998474121</ele>
        <time>2013-03-30T20:38:41.000Z</time>
      </trkpt>
      <trkpt lat="49.51336" lon="0.49196">
        <ele>39.599998474121</ele>
        <time>2013-03-30T20:38:46.000Z</time>
      </trkpt>
      <trkpt lat="49.51336" lon="0.49197">
        <ele>39.599998474121</ele>
        <time>2013-03-30T20:38:47.000Z</time>
      </trkpt>
      <trkpt lat="49.51335" lon="0.49198">
        <ele>39.400001525879</ele>
        <time>2013-03-30T20:38:54.000Z</time>
      </trkpt>
      <trkpt lat="49.51334" lon="0.49207">
        <ele>39</ele>
        <time>2013-03-30T20:39:05.000Z</time>
      </trkpt>
      <trkpt lat="49.5133" lon="0.49222">
        <ele>38.799999237061</ele>
        <time>2013-03-30T20:39:09.000Z</time>
      </trkpt>
      <trkpt lat="49.51318" lon="0.49238">
        <ele>38.599998474121</ele>
        <time>2013-03-30T20:39:15.000Z</time>
      </trkpt>
      <trkpt lat="49.51306" lon="0.49251">
        <ele>38.400001525879</ele>
        <time>2013-03-30T20:39:20.000Z</time>
      </trkpt>
      <trkpt lat="49.51304" lon="0.49253">
        <ele>38.599998474121</ele>
        <time>2013-03-30T20:39:21.000Z</time>
      </trkpt>
      <trkpt lat="49.51289" lon="0.49256">
        <ele>38.599998474121</ele>
        <time>2013-03-30T20:39:26.000Z</time>
      </trkpt>
      <trkpt lat="49.51276" lon="0.49248">
        <ele>37.599998474121</ele>
        <time>2013-03-30T20:39:30.000Z</time>
      </trkpt>
      <trkpt lat="49.51261" lon="0.49238">
        <ele>37.400001525879</ele>
        <time>2013-03-30T20:39:35.000Z</time>
      </trkpt>
      <trkpt lat="49.51243" lon="0.49226">
        <ele>37.599998474121</ele>
        <time>2013-03-30T20:39:41.000Z</time>
      </trkpt>
      <trkpt lat="49.51226" lon="0.49215">
        <ele>37.799999237061</ele>
        <time>2013-03-30T20:39:46.000Z</time>
      </trkpt>
      <trkpt lat="49.5121" lon="0.49204">
        <ele>37.400001525879</ele>
        <time>2013-03-30T20:39:51.000Z</time>
      </trkpt>
      <trkpt lat="49.51196" lon="0.49193">
        <ele>36.400001525879</ele>
        <time>2013-03-30T20:39:56.000Z</time>
      </trkpt>
      <trkpt lat="49.51183" lon="0.49181">
        <ele>34.799999237061</ele>
        <time>2013-03-30T20:40:01.000Z</time>
      </trkpt>
      <trkpt lat="49.51171" lon="0.49168">
        <ele>32.400001525879</ele>
        <time>2013-03-30T20:40:06.000Z</time>
      </trkpt>
      <trkpt lat="49.51156" lon="0.49161">
        <ele>32.400001525879</ele>
        <time>2013-03-30T20:40:12.000Z</time>
      </trkpt>
      <trkpt lat="49.51145" lon="0.49154">
        <ele>32.599998474121</ele>
        <time>2013-03-30T20:40:16.000Z</time>
      </trkpt>
      <trkpt lat="49.51127" lon="0.49146">
        <ele>32.599998474121</ele>
        <time>2013-03-30T20:40:23.000Z</time>
      </trkpt>
      <trkpt lat="49.51115" lon="0.49137">
        <ele>32.400001525879</ele>
        <time>2013-03-30T20:40:28.000Z</time>
      </trkpt>
      <trkpt lat="49.51102" lon="0.49131">
        <ele>31.60000038147</ele>
        <time>2013-03-30T20:40:33.000Z</time>
      </trkpt>
      <trkpt lat="49.51099" lon="0.49129">
        <ele>31.60000038147</ele>
        <time>2013-03-30T20:40:34.000Z</time>
      </trkpt>
      <trkpt lat="49.51095" lon="0.49126">
        <ele>31.200000762939</ele>
        <time>2013-03-30T20:40:36.000Z</time>
      </trkpt>
      <trkpt lat="49.51086" lon="0.49121">
        <ele>30.39999961853</ele>
        <time>2013-03-30T20:40:40.000Z</time>
      </trkpt>
      <trkpt lat="49.51078" lon="0.49116">
        <ele>30</ele>
        <time>2013-03-30T20:40:44.000Z</time>
      </trkpt>
      <trkpt lat="49.5107" lon="0.49111">
        <ele>29.60000038147</ele>
        <time>2013-03-30T20:40:47.000Z</time>
      </trkpt>
      <trkpt lat="49.51056" lon="0.49105">
        <ele>29</ele>
        <time>2013-03-30T20:40:52.000Z</time>
      </trkpt>
      <trkpt lat="49.51039" lon="0.49099">
        <ele>27.799999237061</ele>
        <time>2013-03-30T20:40:57.000Z</time>
      </trkpt>
      <trkpt lat="49.51033" lon="0.49095">
        <ele>27.200000762939</ele>
        <time>2013-03-30T20:40:59.000Z</time>
      </trkpt>
      <trkpt lat="49.51017" lon="0.49086">
        <ele>25.200000762939</ele>
        <time>2013-03-30T20:41:04.000Z</time>
      </trkpt>
      <trkpt lat="49.51011" lon="0.49084">
        <ele>24.60000038147</ele>
        <time>2013-03-30T20:41:06.000Z</time>
      </trkpt>
      <trkpt lat="49.50991" lon="0.49085">
        <ele>24.200000762939</ele>
        <time>2013-03-30T20:41:13.000Z</time>
      </trkpt>
      <trkpt lat="49.50978" lon="0.49087">
        <ele>24.60000038147</ele>
        <time>2013-03-30T20:41:18.000Z</time>
      </trkpt>
      <trkpt lat="49.50966" lon="0.49087">
        <ele>24.39999961853</ele>
        <time>2013-03-30T20:41:23.000Z</time>
      </trkpt>
      <trkpt lat="49.5095" lon="0.49087">
        <ele>24.60000038147</ele>
        <time>2013-03-30T20:41:29.000Z</time>
      </trkpt>
      <trkpt lat="49.50936" lon="0.49089">
        <ele>24.799999237061</ele>
        <time>2013-03-30T20:41:34.000Z</time>
      </trkpt>
      <trkpt lat="49.50926" lon="0.49089">
        <ele>24.799999237061</ele>
        <time>2013-03-30T20:41:38.000Z</time>
      </trkpt>
      <trkpt lat="49.50915" lon="0.49092">
        <ele>25.200000762939</ele>
        <time>2013-03-30T20:41:42.000Z</time>
      </trkpt>
      <trkpt lat="49.50895" lon="0.49094">
        <ele>24.39999961853</ele>
        <time>2013-03-30T20:41:49.000Z</time>
      </trkpt>
      <trkpt lat="49.50876" lon="0.49098">
        <ele>23.60000038147</ele>
        <time>2013-03-30T20:41:56.000Z</time>
      </trkpt>
      <trkpt lat="49.50863" lon="0.49102">
        <ele>23</ele>
        <time>2013-03-30T20:42:01.000Z</time>
      </trkpt>
      <trkpt lat="49.50845" lon="0.4911">
        <ele>22</ele>
        <time>2013-03-30T20:42:08.000Z</time>
      </trkpt>
      <trkpt lat="49.50832" lon="0.49117">
        <ele>21</ele>
        <time>2013-03-30T20:42:13.000Z</time>
      </trkpt>
      <trkpt lat="49.50816" lon="0.49124">
        <ele>21.39999961853</ele>
        <time>2013-03-30T20:42:19.000Z</time>
      </trkpt>
      <trkpt lat="49.508" lon="0.49135">
        <ele>22.200000762939</ele>
        <time>2013-03-30T20:42:25.000Z</time>
      </trkpt>
      <trkpt lat="49.50786" lon="0.49138">
        <ele>23</ele>
        <time>2013-03-30T20:42:30.000Z</time>
      </trkpt>
      <trkpt lat="49.50783" lon="0.49136">
        <ele>23</ele>
        <time>2013-03-30T20:42:31.000Z</time>
      </trkpt>
      <trkpt lat="49.50769" lon="0.49121">
        <ele>22.60000038147</ele>
        <time>2013-03-30T20:42:36.000Z</time>
      </trkpt>
      <trkpt lat="49.50765" lon="0.49108">
        <ele>21.799999237061</ele>
        <time>2013-03-30T20:42:39.000Z</time>
      </trkpt>
      <trkpt lat="49.50755" lon="0.49075">
        <ele>21</ele>
        <time>2013-03-30T20:42:46.000Z</time>
      </trkpt>
      <trkpt lat="49.50745" lon="0.49057">
        <ele>23.39999961853</ele>
        <time>2013-03-30T20:42:51.000Z</time>
      </trkpt>
      <trkpt lat="49.50735" lon="0.49039">
        <ele>25.39999961853</ele>
        <time>2013-03-30T20:42:56.000Z</time>
      </trkpt>
      <trkpt lat="49.50723" lon="0.49021">
        <ele>26.200000762939</ele>
        <time>2013-03-30T20:43:02.000Z</time>
      </trkpt>
      <trkpt lat="49.5071" lon="0.49004">
        <ele>25.60000038147</ele>
        <time>2013-03-30T20:43:08.000Z</time>
      </trkpt>
      <trkpt lat="49.507" lon="0.48993">
        <ele>24.39999961853</ele>
        <time>2013-03-30T20:43:12.000Z</time>
      </trkpt>
      <trkpt lat="49.50689" lon="0.48976">
        <ele>22.39999961853</ele>
        <time>2013-03-30T20:43:18.000Z</time>
      </trkpt>
      <trkpt lat="49.50687" lon="0.48973">
        <ele>22.200000762939</ele>
        <time>2013-03-30T20:43:19.000Z</time>
      </trkpt>
      <trkpt lat="49.50684" lon="0.48968">
        <ele>21.39999961853</ele>
        <time>2013-03-30T20:43:21.000Z</time>
      </trkpt>
      <trkpt lat="49.50674" lon="0.48955">
        <ele>19.39999961853</ele>
        <time>2013-03-30T20:43:26.000Z</time>
      </trkpt>
      <trkpt lat="49.5066" lon="0.48936">
        <ele>17</ele>
        <time>2013-03-30T20:43:33.000Z</time>
      </trkpt>
      <trkpt lat="49.50648" lon="0.48923">
        <ele>15.800000190735</ele>
        <time>2013-03-30T20:43:38.000Z</time>
      </trkpt>
      <trkpt lat="49.50632" lon="0.48908">
        <ele>14.60000038147</ele>
        <time>2013-03-30T20:43:45.000Z</time>
      </trkpt>
      <trkpt lat="49.50618" lon="0.48888">
        <ele>13.60000038147</ele>
        <time>2013-03-30T20:43:52.000Z</time>
      </trkpt>
      <trkpt lat="49.50604" lon="0.48875">
        <ele>12.60000038147</ele>
        <time>2013-03-30T20:43:58.000Z</time>
      </trkpt>
      <trkpt lat="49.5059" lon="0.48868">
        <ele>11.60000038147</ele>
        <time>2013-03-30T20:44:03.000Z</time>
      </trkpt>
      <trkpt lat="49.50575" lon="0.48861">
        <ele>10.60000038147</ele>
        <time>2013-03-30T20:44:09.000Z</time>
      </trkpt>
      <trkpt lat="49.5056" lon="0.48851">
        <ele>9.8000001907349</ele>
        <time>2013-03-30T20:44:15.000Z</time>
      </trkpt>
      <trkpt lat="49.50541" lon="0.48839">
        <ele>8.3999996185303</ele>
        <time>2013-03-30T20:44:22.000Z</time>
      </trkpt>
      <trkpt lat="49.50527" lon="0.48831">
        <ele>7.4000000953674</ele>
        <time>2013-03-30T20:44:27.000Z</time>
      </trkpt>
      <trkpt lat="49.50513" lon="0.48819">
        <ele>7</ele>
        <time>2013-03-30T20:44:33.000Z</time>
      </trkpt>
      <trkpt lat="49.505" lon="0.48806">
        <ele>6.5999999046326</ele>
        <time>2013-03-30T20:44:39.000Z</time>
      </trkpt>
      <trkpt lat="49.50495" lon="0.48783">
        <ele>7.1999998092651</ele>
        <time>2013-03-30T20:44:45.000Z</time>
      </trkpt>
      <trkpt lat="49.50494" lon="0.4876">
        <ele>8</ele>
        <time>2013-03-30T20:44:51.000Z</time>
      </trkpt>
      <trkpt lat="49.50495" lon="0.48732">
        <ele>10.60000038147</ele>
        <time>2013-03-30T20:44:58.000Z</time>
      </trkpt>
      <trkpt lat="49.50494" lon="0.48728">
        <ele>11</ele>
        <time>2013-03-30T20:44:59.000Z</time>
      </trkpt>
      <trkpt lat="49.50495" lon="0.4871">
        <ele>13.60000038147</ele>
        <time>2013-03-30T20:45:05.000Z</time>
      </trkpt>
      <trkpt lat="49.50495" lon="0.48708">
        <ele>13.800000190735</ele>
        <time>2013-03-30T20:45:06.000Z</time>
      </trkpt>
      <trkpt lat="49.50497" lon="0.48696">
        <ele>15.60000038147</ele>
        <time>2013-03-30T20:45:13.000Z</time>
      </trkpt>
      <trkpt lat="49.50499" lon="0.48683">
        <ele>17.39999961853</ele>
        <time>2013-03-30T20:45:20.000Z</time>
      </trkpt>
      <trkpt lat="49.50499" lon="0.48681">
        <ele>17.799999237061</ele>
        <time>2013-03-30T20:45:21.000Z</time>
      </trkpt>
      <trkpt lat="49.505" lon="0.48672">
        <ele>19.200000762939</ele>
        <time>2013-03-30T20:45:26.000Z</time>
      </trkpt>
      <trkpt lat="49.505" lon="0.4867">
        <ele>19.60000038147</ele>
        <time>2013-03-30T20:45:27.000Z</time>
      </trkpt>
      <trkpt lat="49.50499" lon="0.48663">
        <ele>20.39999961853</ele>
        <time>2013-03-30T20:45:30.000Z</time>
      </trkpt>
      <trkpt lat="49.50497" lon="0.48655">
        <ele>21.60000038147</ele>
        <time>2013-03-30T20:45:34.000Z</time>
      </trkpt>
      <trkpt lat="49.50494" lon="0.4865">
        <ele>22.39999961853</ele>
        <time>2013-03-30T20:45:38.000Z</time>
      </trkpt>
      <trkpt lat="49.50489" lon="0.48646">
        <ele>22.39999961853</ele>
        <time>2013-03-30T20:45:44.000Z</time>
      </trkpt>
      <trkpt lat="49.50488" lon="0.48643">
        <ele>22.60000038147</ele>
        <time>2013-03-30T20:45:46.000Z</time>
      </trkpt>
      <trkpt lat="49.50481" lon="0.48633">
        <ele>23.39999961853</ele>
        <time>2013-03-30T20:45:52.000Z</time>
      </trkpt>
      <trkpt lat="49.50479" lon="0.48632">
        <ele>23.39999961853</ele>
        <time>2013-03-30T20:45:53.000Z</time>
      </trkpt>
      <trkpt lat="49.50477" lon="0.48629">
        <ele>23.39999961853</ele>
        <time>2013-03-30T20:45:55.000Z</time>
      </trkpt>
      <trkpt lat="49.50475" lon="0.48626">
        <ele>23.60000038147</ele>
        <time>2013-03-30T20:45:57.000Z</time>
      </trkpt>
      <trkpt lat="49.5047" lon="0.48616">
        <ele>24.39999961853</ele>
        <time>2013-03-30T20:46:03.000Z</time>
      </trkpt>
      <trkpt lat="49.50465" lon="0.48606">
        <ele>24.799999237061</ele>
        <time>2013-03-30T20:46:08.000Z</time>
      </trkpt>
      <trkpt lat="49.50463" lon="0.48603">
        <ele>25</ele>
        <time>2013-03-30T20:46:10.000Z</time>
      </trkpt>
      <trkpt lat="49.50459" lon="0.48597">
        <ele>25</ele>
        <time>2013-03-30T20:46:14.000Z</time>
      </trkpt>
      <trkpt lat="49.50455" lon="0.48589">
        <ele>25</ele>
        <time>2013-03-30T20:46:19.000Z</time>
      </trkpt>
      <trkpt lat="49.50454" lon="0.48588">
        <ele>25</ele>
        <time>2013-03-30T20:46:20.000Z</time>
      </trkpt>
      <trkpt lat="49.50453" lon="0.48584">
        <ele>25.200000762939</ele>
        <time>2013-03-30T20:46:22.000Z</time>
      </trkpt>
      <trkpt lat="49.50448" lon="0.48575">
        <ele>25.799999237061</ele>
        <time>2013-03-30T20:46:28.000Z</time>
      </trkpt>
      <trkpt lat="49.50445" lon="0.48569">
        <ele>26</ele>
        <time>2013-03-30T20:46:31.000Z</time>
      </trkpt>
      <trkpt lat="49.50443" lon="0.48566">
        <ele>26.39999961853</ele>
        <time>2013-03-30T20:46:33.000Z</time>
      </trkpt>
      <trkpt lat="49.50441" lon="0.48561">
        <ele>27</ele>
        <time>2013-03-30T20:46:36.000Z</time>
      </trkpt>
      <trkpt lat="49.50437" lon="0.48554">
        <ele>27.60000038147</ele>
        <time>2013-03-30T20:46:41.000Z</time>
      </trkpt>
      <trkpt lat="49.50435" lon="0.48548">
        <ele>28.200000762939</ele>
        <time>2013-03-30T20:46:44.000Z</time>
      </trkpt>
      <trkpt lat="49.50431" lon="0.48539">
        <ele>29.39999961853</ele>
        <time>2013-03-30T20:46:49.000Z</time>
      </trkpt>
      <trkpt lat="49.50426" lon="0.48532">
        <ele>29.799999237061</ele>
        <time>2013-03-30T20:46:53.000Z</time>
      </trkpt>
      <trkpt lat="49.50421" lon="0.48522">
        <ele>31.200000762939</ele>
        <time>2013-03-30T20:46:59.000Z</time>
      </trkpt>
      <trkpt lat="49.50417" lon="0.4851">
        <ele>33</ele>
        <time>2013-03-30T20:47:05.000Z</time>
      </trkpt>
      <trkpt lat="49.50412" lon="0.485">
        <ele>33.799999237061</ele>
        <time>2013-03-30T20:47:10.000Z</time>
      </trkpt>
      <trkpt lat="49.50408" lon="0.48489">
        <ele>34.400001525879</ele>
        <time>2013-03-30T20:47:16.000Z</time>
      </trkpt>
      <trkpt lat="49.50405" lon="0.4848">
        <ele>34.799999237061</ele>
        <time>2013-03-30T20:47:21.000Z</time>
      </trkpt>
      <trkpt lat="49.50405" lon="0.48472">
        <ele>35.799999237061</ele>
        <time>2013-03-30T20:47:26.000Z</time>
      </trkpt>
      <trkpt lat="49.50403" lon="0.48465">
        <ele>36.200000762939</ele>
        <time>2013-03-30T20:47:30.000Z</time>
      </trkpt>
      <trkpt lat="49.504" lon="0.48452">
        <ele>36.799999237061</ele>
        <time>2013-03-30T20:47:36.000Z</time>
      </trkpt>
      <trkpt lat="49.504" lon="0.4845">
        <ele>37</ele>
        <time>2013-03-30T20:47:37.000Z</time>
      </trkpt>
      <trkpt lat="49.50398" lon="0.48442">
        <ele>37.599998474121</ele>
        <time>2013-03-30T20:47:41.000Z</time>
      </trkpt>
      <trkpt lat="49.50397" lon="0.48423">
        <ele>39.400001525879</ele>
        <time>2013-03-30T20:47:49.000Z</time>
      </trkpt>
      <trkpt lat="49.50397" lon="0.48421">
        <ele>39.599998474121</ele>
        <time>2013-03-30T20:47:50.000Z</time>
      </trkpt>
      <trkpt lat="49.50397" lon="0.48418">
        <ele>40</ele>
        <time>2013-03-30T20:47:52.000Z</time>
      </trkpt>
      <trkpt lat="49.50397" lon="0.48412">
        <ele>40.400001525879</ele>
        <time>2013-03-30T20:47:55.000Z</time>
      </trkpt>
      <trkpt lat="49.504" lon="0.484">
        <ele>41.799999237061</ele>
        <time>2013-03-30T20:48:01.000Z</time>
      </trkpt>
      <trkpt lat="49.50401" lon="0.48398">
        <ele>42.200000762939</ele>
        <time>2013-03-30T20:48:02.000Z</time>
      </trkpt>
      <trkpt lat="49.50403" lon="0.48395">
        <ele>42.799999237061</ele>
        <time>2013-03-30T20:48:04.000Z</time>
      </trkpt>
      <trkpt lat="49.50404" lon="0.48393">
        <ele>43</ele>
        <time>2013-03-30T20:48:05.000Z</time>
      </trkpt>
      <trkpt lat="49.50404" lon="0.48386">
        <ele>43.400001525879</ele>
        <time>2013-03-30T20:48:08.000Z</time>
      </trkpt>
      <trkpt lat="49.50407" lon="0.4838">
        <ele>44.599998474121</ele>
        <time>2013-03-30T20:48:13.000Z</time>
      </trkpt>
      <trkpt lat="49.5041" lon="0.48369">
        <ele>45.799999237061</ele>
        <time>2013-03-30T20:48:18.000Z</time>
      </trkpt>
      <trkpt lat="49.50414" lon="0.48357">
        <ele>47.200000762939</ele>
        <time>2013-03-30T20:48:23.000Z</time>
      </trkpt>
      <trkpt lat="49.50417" lon="0.48348">
        <ele>48.400001525879</ele>
        <time>2013-03-30T20:48:28.000Z</time>
      </trkpt>
      <trkpt lat="49.50418" lon="0.48343">
        <ele>48.599998474121</ele>
        <time>2013-03-30T20:48:30.000Z</time>
      </trkpt>
      <trkpt lat="49.50419" lon="0.48339">
        <ele>48.799999237061</ele>
        <time>2013-03-30T20:48:32.000Z</time>
      </trkpt>
      <trkpt lat="49.50422" lon="0.48332">
        <ele>49.400001525879</ele>
        <time>2013-03-30T20:48:37.000Z</time>
      </trkpt>
      <trkpt lat="49.50427" lon="0.48321">
        <ele>50</ele>
        <time>2013-03-30T20:48:42.000Z</time>
      </trkpt>
      <trkpt lat="49.50433" lon="0.48314">
        <ele>50.599998474121</ele>
        <time>2013-03-30T20:48:47.000Z</time>
      </trkpt>
      <trkpt lat="49.50433" lon="0.48312">
        <ele>50.799999237061</ele>
        <time>2013-03-30T20:48:48.000Z</time>
      </trkpt>
      <trkpt lat="49.5044" lon="0.48296">
        <ele>51.799999237061</ele>
        <time>2013-03-30T20:48:55.000Z</time>
      </trkpt>
      <trkpt lat="49.50445" lon="0.48284">
        <ele>52.599998474121</ele>
        <time>2013-03-30T20:49:03.000Z</time>
      </trkpt>
      <trkpt lat="49.50445" lon="0.48283">
        <ele>52.599998474121</ele>
        <time>2013-03-30T20:49:05.000Z</time>
      </trkpt>
      <trkpt lat="49.50446" lon="0.48275">
        <ele>52.799999237061</ele>
        <time>2013-03-30T20:49:09.000Z</time>
      </trkpt>
      <trkpt lat="49.50447" lon="0.48263">
        <ele>53.400001525879</ele>
        <time>2013-03-30T20:49:30.000Z</time>
      </trkpt>
      <trkpt lat="49.50447" lon="0.48246">
        <ele>53.799999237061</ele>
        <time>2013-03-30T20:49:34.000Z</time>
      </trkpt>
      <trkpt lat="49.50449" lon="0.48223">
        <ele>54.200000762939</ele>
        <time>2013-03-30T20:49:40.000Z</time>
      </trkpt>
      <trkpt lat="49.50449" lon="0.48222">
        <ele>54.200000762939</ele>
        <time>2013-03-30T20:49:41.000Z</time>
      </trkpt>
      <trkpt lat="49.50447" lon="0.48217">
        <ele>54.200000762939</ele>
        <time>2013-03-30T20:49:48.000Z</time>
      </trkpt>
      <trkpt lat="49.50448" lon="0.48211">
        <ele>54.400001525879</ele>
        <time>2013-03-30T20:49:51.000Z</time>
      </trkpt>
      <trkpt lat="49.50449" lon="0.48207">
        <ele>54.599998474121</ele>
        <time>2013-03-30T20:49:59.000Z</time>
      </trkpt>
      <trkpt lat="49.50452" lon="0.48203">
        <ele>54.799999237061</ele>
        <time>2013-03-30T20:50:03.000Z</time>
      </trkpt>
      <trkpt lat="49.50449" lon="0.48199">
        <ele>54.799999237061</ele>
        <time>2013-03-30T20:50:31.000Z</time>
      </trkpt>
      <trkpt lat="49.50448" lon="0.48197">
        <ele>54.599998474121</ele>
        <time>2013-03-30T20:50:38.000Z</time>
      </trkpt>
      <trkpt lat="49.50447" lon="0.48197">
        <ele>54.599998474121</ele>
        <time>2013-03-30T20:50:39.000Z</time>
      </trkpt>
      <trkpt lat="49.50446" lon="0.48197">
        <ele>54.599998474121</ele>
        <time>2013-03-30T20:50:40.000Z</time>
      </trkpt>
      <trkpt lat="49.50442" lon="0.48194">
        <ele>54.200000762939</ele>
        <time>2013-03-30T20:50:44.000Z</time>
      </trkpt>
      <trkpt lat="49.5044" lon="0.48195">
        <ele>54.200000762939</ele>
        <time>2013-03-30T20:50:50.000Z</time>
      </trkpt>
      <trkpt lat="49.5044" lon="0.48197">
        <ele>54</ele>
        <time>2013-03-30T20:51:17.000Z</time>
      </trkpt>
      <trkpt lat="49.50429" lon="0.48191">
        <ele>53.400001525879</ele>
        <time>2013-03-30T20:51:22.000Z</time>
      </trkpt>
      <trkpt lat="49.50423" lon="0.48187">
        <ele>53.200000762939</ele>
        <time>2013-03-30T20:51:25.000Z</time>
      </trkpt>
      <trkpt lat="49.5042" lon="0.48181">
        <ele>53</ele>
        <time>2013-03-30T20:51:30.000Z</time>
      </trkpt>
      <trkpt lat="49.50417" lon="0.48179">
        <ele>52.799999237061</ele>
        <time>2013-03-30T20:51:35.000Z</time>
      </trkpt>
      <trkpt lat="49.50416" lon="0.48178">
        <ele>52.599998474121</ele>
        <time>2013-03-30T20:51:41.000Z</time>
      </trkpt>
      <trkpt lat="49.50415" lon="0.48177">
        <ele>52.599998474121</ele>
        <time>2013-03-30T20:51:42.000Z</time>
      </trkpt>
      <trkpt lat="49.50414" lon="0.48175">
        <ele>52.400001525879</ele>
        <time>2013-03-30T20:51:46.000Z</time>
      </trkpt>
      <trkpt lat="49.50415" lon="0.4817">
        <ele>52.599998474121</ele>
        <time>2013-03-30T20:51:50.000Z</time>
      </trkpt>
      <trkpt lat="49.50417" lon="0.48167">
        <ele>53</ele>
        <time>2013-03-30T20:51:58.000Z</time>
      </trkpt>
      <trkpt lat="49.50418" lon="0.48165">
        <ele>53</ele>
        <time>2013-03-30T20:52:02.000Z</time>
      </trkpt>
      <trkpt lat="49.50418" lon="0.48166">
        <ele>53</ele>
        <time>2013-03-30T20:52:03.000Z</time>
      </trkpt>
      <trkpt lat="49.50414" lon="0.48174">
        <ele>52.400001525879</ele>
        <time>2013-03-30T20:52:07.000Z</time>
      </trkpt>
      <trkpt lat="49.50413" lon="0.48174">
        <ele>52.400001525879</ele>
        <time>2013-03-30T20:52:15.000Z</time>
      </trkpt>
      <trkpt lat="49.50412" lon="0.48174">
        <ele>52.200000762939</ele>
        <time>2013-03-30T20:52:18.000Z</time>
      </trkpt>
      <trkpt lat="49.50411" lon="0.48171">
        <ele>52</ele>
        <time>2013-03-30T20:52:24.000Z</time>
      </trkpt>
      <trkpt lat="49.50408" lon="0.48169">
        <ele>51.799999237061</ele>
        <time>2013-03-30T20:52:26.000Z</time>
      </trkpt>
      <trkpt lat="49.50406" lon="0.48164">
        <ele>51.599998474121</ele>
        <time>2013-03-30T20:52:31.000Z</time>
      </trkpt>
      <trkpt lat="49.50405" lon="0.48162">
        <ele>51.599998474121</ele>
        <time>2013-03-30T20:52:32.000Z</time>
      </trkpt>
      <trkpt lat="49.50397" lon="0.48152">
        <ele>50.799999237061</ele>
        <time>2013-03-30T20:52:38.000Z</time>
      </trkpt>
      <trkpt lat="49.50397" lon="0.48151">
        <ele>50.599998474121</ele>
        <time>2013-03-30T20:52:39.000Z</time>
      </trkpt>
      <trkpt lat="49.50394" lon="0.48145">
        <ele>50.400001525879</ele>
        <time>2013-03-30T20:52:44.000Z</time>
      </trkpt>
      <trkpt lat="49.50393" lon="0.48143">
        <ele>50.400001525879</ele>
        <time>2013-03-30T20:52:53.000Z</time>
      </trkpt>
      <trkpt lat="49.5039" lon="0.48145">
        <ele>50.200000762939</ele>
        <time>2013-03-30T20:53:09.000Z</time>
      </trkpt>
      <trkpt lat="49.50389" lon="0.48145">
        <ele>50</ele>
        <time>2013-03-30T20:53:15.000Z</time>
      </trkpt>
      <trkpt lat="49.50387" lon="0.48143">
        <ele>49.799999237061</ele>
        <time>2013-03-30T20:53:18.000Z</time>
      </trkpt>
      <trkpt lat="49.50379" lon="0.48137">
        <ele>49.400001525879</ele>
        <time>2013-03-30T20:53:24.000Z</time>
      </trkpt>
      <trkpt lat="49.50378" lon="0.48135">
        <ele>49.200000762939</ele>
        <time>2013-03-30T20:53:25.000Z</time>
      </trkpt>
      <trkpt lat="49.50376" lon="0.48134">
        <ele>49.200000762939</ele>
        <time>2013-03-30T20:53:28.000Z</time>
      </trkpt>
      <trkpt lat="49.50371" lon="0.48129">
        <ele>49</ele>
        <time>2013-03-30T20:53:32.000Z</time>
      </trkpt>
      <trkpt lat="49.5037" lon="0.48129">
        <ele>48.799999237061</ele>
        <time>2013-03-30T20:53:33.000Z</time>
      </trkpt>
      <trkpt lat="49.50358" lon="0.4812">
        <ele>48.400001525879</ele>
        <time>2013-03-30T20:53:55.000Z</time>
      </trkpt>
      <trkpt lat="49.50356" lon="0.48118">
        <ele>48.400001525879</ele>
        <time>2013-03-30T20:53:57.000Z</time>
      </trkpt>
      <trkpt lat="49.50348" lon="0.48115">
        <ele>48.200000762939</ele>
        <time>2013-03-30T20:54:03.000Z</time>
      </trkpt>
      <trkpt lat="49.50347" lon="0.48114">
        <ele>48.200000762939</ele>
        <time>2013-03-30T20:54:04.000Z</time>
      </trkpt>
      <trkpt lat="49.50345" lon="0.48113">
        <ele>48.200000762939</ele>
        <time>2013-03-30T20:54:07.000Z</time>
      </trkpt>
      <trkpt lat="49.50341" lon="0.48112">
        <ele>48</ele>
        <time>2013-03-30T20:54:12.000Z</time>
      </trkpt>
      <trkpt lat="49.50339" lon="0.48111">
        <ele>47.799999237061</ele>
        <time>2013-03-30T20:54:14.000Z</time>
      </trkpt>
      <trkpt lat="49.50336" lon="0.48108">
        <ele>48</ele>
        <time>2013-03-30T20:54:20.000Z</time>
      </trkpt>
      <trkpt lat="49.50332" lon="0.48105">
        <ele>48</ele>
        <time>2013-03-30T20:54:26.000Z</time>
      </trkpt>
      <trkpt lat="49.5033" lon="0.48103">
        <ele>48.200000762939</ele>
        <time>2013-03-30T20:54:31.000Z</time>
      </trkpt>
      <trkpt lat="49.50327" lon="0.48105">
        <ele>48</ele>
        <time>2013-03-30T20:54:38.000Z</time>
      </trkpt>
      <trkpt lat="49.50325" lon="0.48102">
        <ele>48.200000762939</ele>
        <time>2013-03-30T20:54:43.000Z</time>
      </trkpt>
      <trkpt lat="49.50322" lon="0.481">
        <ele>48.400001525879</ele>
        <time>2013-03-30T20:54:48.000Z</time>
      </trkpt>
      <trkpt lat="49.50321" lon="0.48099">
        <ele>48.599998474121</ele>
        <time>2013-03-30T20:54:53.000Z</time>
      </trkpt>
      <trkpt lat="49.50319" lon="0.48095">
        <ele>49</ele>
        <time>2013-03-30T20:55:00.000Z</time>
      </trkpt>
      <trkpt lat="49.50314" lon="0.48091">
        <ele>49.400001525879</ele>
        <time>2013-03-30T20:55:05.000Z</time>
      </trkpt>
      <trkpt lat="49.50313" lon="0.4809">
        <ele>49.400001525879</ele>
        <time>2013-03-30T20:55:06.000Z</time>
      </trkpt>
      <trkpt lat="49.50312" lon="0.48089">
        <ele>49.599998474121</ele>
        <time>2013-03-30T20:55:09.000Z</time>
      </trkpt>
      <trkpt lat="49.50308" lon="0.48086">
        <ele>50</ele>
        <time>2013-03-30T20:55:15.000Z</time>
      </trkpt>
      <trkpt lat="49.50305" lon="0.48088">
        <ele>49.599998474121</ele>
        <time>2013-03-30T20:55:21.000Z</time>
      </trkpt>
      <trkpt lat="49.503" lon="0.48092">
        <ele>49.400001525879</ele>
        <time>2013-03-30T20:55:26.000Z</time>
      </trkpt>
      <trkpt lat="49.50299" lon="0.48092">
        <ele>49.400001525879</ele>
        <time>2013-03-30T20:55:27.000Z</time>
      </trkpt>
      <trkpt lat="49.50298" lon="0.48091">
        <ele>49.400001525879</ele>
        <time>2013-03-30T20:55:33.000Z</time>
      </trkpt>
      <trkpt lat="49.50298" lon="0.4809">
        <ele>49.599998474121</ele>
        <time>2013-03-30T20:55:39.000Z</time>
      </trkpt>
      <trkpt lat="49.50296" lon="0.48088">
        <ele>49.799999237061</ele>
        <time>2013-03-30T20:55:46.000Z</time>
      </trkpt>
      <trkpt lat="49.50292" lon="0.48085">
        <ele>50.200000762939</ele>
        <time>2013-03-30T20:55:51.000Z</time>
      </trkpt>
      <trkpt lat="49.50291" lon="0.48084">
        <ele>50.200000762939</ele>
        <time>2013-03-30T20:55:53.000Z</time>
      </trkpt>
      <trkpt lat="49.5029" lon="0.48083">
        <ele>50.400001525879</ele>
        <time>2013-03-30T20:55:55.000Z</time>
      </trkpt>
      <trkpt lat="49.50284" lon="0.48079">
        <ele>50.799999237061</ele>
        <time>2013-03-30T20:55:59.000Z</time>
      </trkpt>
      <trkpt lat="49.5028" lon="0.48074">
        <ele>51</ele>
        <time>2013-03-30T20:56:01.000Z</time>
      </trkpt>
      <trkpt lat="49.5027" lon="0.48065">
        <ele>51.799999237061</ele>
        <time>2013-03-30T20:56:06.000Z</time>
      </trkpt>
      <trkpt lat="49.50268" lon="0.48064">
        <ele>51.799999237061</ele>
        <time>2013-03-30T20:56:07.000Z</time>
      </trkpt>
      <trkpt lat="49.50261" lon="0.48055">
        <ele>52.400001525879</ele>
        <time>2013-03-30T20:56:11.000Z</time>
      </trkpt>
      <trkpt lat="49.50259" lon="0.48053">
        <ele>52.599998474121</ele>
        <time>2013-03-30T20:56:12.000Z</time>
      </trkpt>
      <trkpt lat="49.50252" lon="0.48042">
        <ele>53.400001525879</ele>
        <time>2013-03-30T20:56:17.000Z</time>
      </trkpt>
      <trkpt lat="49.50249" lon="0.48029">
        <ele>54</ele>
        <time>2013-03-30T20:56:21.000Z</time>
      </trkpt>
      <trkpt lat="49.50247" lon="0.48013">
        <ele>54.799999237061</ele>
        <time>2013-03-30T20:56:26.000Z</time>
      </trkpt>
      <trkpt lat="49.50245" lon="0.48">
        <ele>55.200000762939</ele>
        <time>2013-03-30T20:56:31.000Z</time>
      </trkpt>
      <trkpt lat="49.5024" lon="0.47986">
        <ele>55.400001525879</ele>
        <time>2013-03-30T20:56:36.000Z</time>
      </trkpt>
      <trkpt lat="49.5024" lon="0.47984">
        <ele>55.599998474121</ele>
        <time>2013-03-30T20:56:37.000Z</time>
      </trkpt>
      <trkpt lat="49.50237" lon="0.47968">
        <ele>56</ele>
        <time>2013-03-30T20:56:42.000Z</time>
      </trkpt>
      <trkpt lat="49.50235" lon="0.47959">
        <ele>56.200000762939</ele>
        <time>2013-03-30T20:56:47.000Z</time>
      </trkpt>
      <trkpt lat="49.50234" lon="0.47949">
        <ele>56.599998474121</ele>
        <time>2013-03-30T20:56:53.000Z</time>
      </trkpt>
      <trkpt lat="49.50234" lon="0.47947">
        <ele>56.799999237061</ele>
        <time>2013-03-30T20:56:54.000Z</time>
      </trkpt>
      <trkpt lat="49.50234" lon="0.47944">
        <ele>56.799999237061</ele>
        <time>2013-03-30T20:56:55.000Z</time>
      </trkpt>
      <trkpt lat="49.50233" lon="0.47937">
        <ele>57.200000762939</ele>
        <time>2013-03-30T20:56:58.000Z</time>
      </trkpt>
      <trkpt lat="49.50229" lon="0.47917">
        <ele>57.799999237061</ele>
        <time>2013-03-30T20:57:08.000Z</time>
      </trkpt>
      <trkpt lat="49.50228" lon="0.47908">
        <ele>58.400001525879</ele>
        <time>2013-03-30T20:57:13.000Z</time>
      </trkpt>
      <trkpt lat="49.50228" lon="0.47898">
        <ele>59.400001525879</ele>
        <time>2013-03-30T20:57:19.000Z</time>
      </trkpt>
      <trkpt lat="49.50228" lon="0.47893">
        <ele>59.799999237061</ele>
        <time>2013-03-30T20:57:22.000Z</time>
      </trkpt>
      <trkpt lat="49.50231" lon="0.47878">
        <ele>61.200000762939</ele>
        <time>2013-03-30T20:57:31.000Z</time>
      </trkpt>
      <trkpt lat="49.50231" lon="0.47874">
        <ele>61.400001525879</ele>
        <time>2013-03-30T20:57:33.000Z</time>
      </trkpt>
      <trkpt lat="49.5023" lon="0.4786">
        <ele>62.599998474121</ele>
        <time>2013-03-30T20:57:40.000Z</time>
      </trkpt>
      <trkpt lat="49.5023" lon="0.47858">
        <ele>62.599998474121</ele>
        <time>2013-03-30T20:57:41.000Z</time>
      </trkpt>
      <trkpt lat="49.50231" lon="0.4785">
        <ele>63.400001525879</ele>
        <time>2013-03-30T20:57:46.000Z</time>
      </trkpt>
      <trkpt lat="49.50231" lon="0.47841">
        <ele>64.199996948242</ele>
        <time>2013-03-30T20:57:51.000Z</time>
      </trkpt>
      <trkpt lat="49.50231" lon="0.47839">
        <ele>64.199996948242</ele>
        <time>2013-03-30T20:57:52.000Z</time>
      </trkpt>
      <trkpt lat="49.50229" lon="0.47831">
        <ele>65.199996948242</ele>
        <time>2013-03-30T20:57:57.000Z</time>
      </trkpt>
      <trkpt lat="49.50228" lon="0.47822">
        <ele>66.599998474121</ele>
        <time>2013-03-30T20:58:02.000Z</time>
      </trkpt>
      <trkpt lat="49.50228" lon="0.47812">
        <ele>68.400001525879</ele>
        <time>2013-03-30T20:58:08.000Z</time>
      </trkpt>
      <trkpt lat="49.50227" lon="0.47811">
        <ele>68.599998474121</ele>
        <time>2013-03-30T20:58:09.000Z</time>
      </trkpt>
      <trkpt lat="49.50226" lon="0.47799">
        <ele>70.800003051758</ele>
        <time>2013-03-30T20:58:16.000Z</time>
      </trkpt>
      <trkpt lat="49.50224" lon="0.47793">
        <ele>71.800003051758</ele>
        <time>2013-03-30T20:58:20.000Z</time>
      </trkpt>
      <trkpt lat="49.50222" lon="0.47782">
        <ele>73.800003051758</ele>
        <time>2013-03-30T20:58:27.000Z</time>
      </trkpt>
      <trkpt lat="49.50222" lon="0.47779">
        <ele>74.400001525879</ele>
        <time>2013-03-30T20:58:29.000Z</time>
      </trkpt>
      <trkpt lat="49.50223" lon="0.47773">
        <ele>75.400001525879</ele>
        <time>2013-03-30T20:58:34.000Z</time>
      </trkpt>
      <trkpt lat="49.50224" lon="0.47767">
        <ele>76.599998474121</ele>
        <time>2013-03-30T20:58:39.000Z</time>
      </trkpt>
      <trkpt lat="49.50225" lon="0.47758">
        <ele>78.199996948242</ele>
        <time>2013-03-30T20:58:47.000Z</time>
      </trkpt>
      <trkpt lat="49.50225" lon="0.47742">
        <ele>81</ele>
        <time>2013-03-30T20:59:00.000Z</time>
      </trkpt>
      <trkpt lat="49.50226" lon="0.47739">
        <ele>81.400001525879</ele>
        <time>2013-03-30T20:59:02.000Z</time>
      </trkpt>
      <trkpt lat="49.50227" lon="0.47734">
        <ele>82</ele>
        <time>2013-03-30T20:59:06.000Z</time>
      </trkpt>
      <trkpt lat="49.50228" lon="0.47732">
        <ele>82.199996948242</ele>
        <time>2013-03-30T20:59:08.000Z</time>
      </trkpt>
      <trkpt lat="49.50228" lon="0.47727">
        <ele>82.800003051758</ele>
        <time>2013-03-30T20:59:12.000Z</time>
      </trkpt>
      <trkpt lat="49.50231" lon="0.4772">
        <ele>83.800003051758</ele>
        <time>2013-03-30T20:59:18.000Z</time>
      </trkpt>
      <trkpt lat="49.50232" lon="0.47717">
        <ele>84.199996948242</ele>
        <time>2013-03-30T20:59:21.000Z</time>
      </trkpt>
      <trkpt lat="49.50234" lon="0.47707">
        <ele>85.599998474121</ele>
        <time>2013-03-30T20:59:28.000Z</time>
      </trkpt>
      <trkpt lat="49.50237" lon="0.47699">
        <ele>86.599998474121</ele>
        <time>2013-03-30T20:59:35.000Z</time>
      </trkpt>
      <trkpt lat="49.50237" lon="0.47693">
        <ele>87.599998474121</ele>
        <time>2013-03-30T20:59:39.000Z</time>
      </trkpt>
      <trkpt lat="49.50235" lon="0.47688">
        <ele>88.199996948242</ele>
        <time>2013-03-30T20:59:42.000Z</time>
      </trkpt>
      <trkpt lat="49.50224" lon="0.47681">
        <ele>89.599998474121</ele>
        <time>2013-03-30T20:59:50.000Z</time>
      </trkpt>
      <trkpt lat="49.50211" lon="0.47675">
        <ele>90.599998474121</ele>
        <time>2013-03-30T20:59:56.000Z</time>
      </trkpt>
      <trkpt lat="49.50198" lon="0.47662">
        <ele>92.199996948242</ele>
        <time>2013-03-30T21:00:02.000Z</time>
      </trkpt>
      <trkpt lat="49.50192" lon="0.47651">
        <ele>92.599998474121</ele>
        <time>2013-03-30T21:00:07.000Z</time>
      </trkpt>
      <trkpt lat="49.50185" lon="0.47641">
        <ele>92.599998474121</ele>
        <time>2013-03-30T21:00:13.000Z</time>
      </trkpt>
      <trkpt lat="49.50184" lon="0.47638">
        <ele>92.599998474121</ele>
        <time>2013-03-30T21:00:15.000Z</time>
      </trkpt>
      <trkpt lat="49.50182" lon="0.47633">
        <ele>92.599998474121</ele>
        <time>2013-03-30T21:00:22.000Z</time>
      </trkpt>
      <trkpt lat="49.50178" lon="0.47628">
        <ele>92.599998474121</ele>
        <time>2013-03-30T21:00:37.000Z</time>
      </trkpt>
      <trkpt lat="49.50174" lon="0.47616">
        <ele>92.400001525879</ele>
        <time>2013-03-30T21:00:43.000Z</time>
      </trkpt>
      <trkpt lat="49.50173" lon="0.47606">
        <ele>92.400001525879</ele>
        <time>2013-03-30T21:00:48.000Z</time>
      </trkpt>
      <trkpt lat="49.50171" lon="0.47604">
        <ele>92.400001525879</ele>
        <time>2013-03-30T21:00:53.000Z</time>
      </trkpt>
      <trkpt lat="49.50168" lon="0.47594">
        <ele>92</ele>
        <time>2013-03-30T21:01:01.000Z</time>
      </trkpt>
      <trkpt lat="49.50166" lon="0.47589">
        <ele>92</ele>
        <time>2013-03-30T21:01:05.000Z</time>
      </trkpt>
      <trkpt lat="49.50165" lon="0.47583">
        <ele>92</ele>
        <time>2013-03-30T21:01:09.000Z</time>
      </trkpt>
      <trkpt lat="49.50165" lon="0.47567">
        <ele>92.599998474121</ele>
        <time>2013-03-30T21:01:18.000Z</time>
      </trkpt>
      <trkpt lat="49.50165" lon="0.47563">
        <ele>92.800003051758</ele>
        <time>2013-03-30T21:01:23.000Z</time>
      </trkpt>
      <trkpt lat="49.50164" lon="0.47555">
        <ele>93</ele>
        <time>2013-03-30T21:01:30.000Z</time>
      </trkpt>
      <trkpt lat="49.50161" lon="0.47555">
        <ele>93.400001525879</ele>
        <time>2013-03-30T21:01:35.000Z</time>
      </trkpt>
      <trkpt lat="49.50156" lon="0.47553">
        <ele>93.800003051758</ele>
        <time>2013-03-30T21:01:44.000Z</time>
      </trkpt>
      <trkpt lat="49.50155" lon="0.47552">
        <ele>94</ele>
        <time>2013-03-30T21:01:45.000Z</time>
      </trkpt>
      <trkpt lat="49.5015" lon="0.4755">
        <ele>94.199996948242</ele>
        <time>2013-03-30T21:01:48.000Z</time>
      </trkpt>
      <trkpt lat="49.50135" lon="0.47541">
        <ele>95.400001525879</ele>
        <time>2013-03-30T21:01:56.000Z</time>
      </trkpt>
      <trkpt lat="49.50129" lon="0.47537">
        <ele>95.599998474121</ele>
        <time>2013-03-30T21:02:02.000Z</time>
      </trkpt>
      <trkpt lat="49.50127" lon="0.47536">
        <ele>95.800003051758</ele>
        <time>2013-03-30T21:02:09.000Z</time>
      </trkpt>
      <trkpt lat="49.50126" lon="0.47536">
        <ele>95.800003051758</ele>
        <time>2013-03-30T21:02:12.000Z</time>
      </trkpt>
      <trkpt lat="49.50114" lon="0.47528">
        <ele>96.199996948242</ele>
        <time>2013-03-30T21:02:19.000Z</time>
      </trkpt>
      <trkpt lat="49.50102" lon="0.47521">
        <ele>96.400001525879</ele>
        <time>2013-03-30T21:02:25.000Z</time>
      </trkpt>
      <trkpt lat="49.5009" lon="0.47513">
        <ele>96.599998474121</ele>
        <time>2013-03-30T21:02:31.000Z</time>
      </trkpt>
      <trkpt lat="49.50079" lon="0.47507">
        <ele>96.800003051758</ele>
        <time>2013-03-30T21:02:36.000Z</time>
      </trkpt>
      <trkpt lat="49.50068" lon="0.47508">
        <ele>98.199996948242</ele>
        <time>2013-03-30T21:02:41.000Z</time>
      </trkpt>
      <trkpt lat="49.50058" lon="0.47514">
        <ele>99.400001525879</ele>
        <time>2013-03-30T21:02:46.000Z</time>
      </trkpt>
      <trkpt lat="49.50057" lon="0.47515">
        <ele>99.599998474121</ele>
        <time>2013-03-30T21:02:47.000Z</time>
      </trkpt>
      <trkpt lat="49.5005" lon="0.47516">
        <ele>100.19999694824</ele>
        <time>2013-03-30T21:02:52.000Z</time>
      </trkpt>
      <trkpt lat="49.50046" lon="0.47517">
        <ele>100.59999847412</ele>
        <time>2013-03-30T21:02:56.000Z</time>
      </trkpt>
      <trkpt lat="49.50045" lon="0.47521">
        <ele>100.59999847412</ele>
        <time>2013-03-30T21:03:00.000Z</time>
      </trkpt>
      <trkpt lat="49.50044" lon="0.47522">
        <ele>100.80000305176</ele>
        <time>2013-03-30T21:03:02.000Z</time>
      </trkpt>
      <trkpt lat="49.5004" lon="0.4752">
        <ele>101</ele>
        <time>2013-03-30T21:03:06.000Z</time>
      </trkpt>
      <trkpt lat="49.50037" lon="0.47521">
        <ele>101.19999694824</ele>
        <time>2013-03-30T21:03:08.000Z</time>
      </trkpt>
      <trkpt lat="49.50036" lon="0.47522">
        <ele>101.40000152588</ele>
        <time>2013-03-30T21:03:10.000Z</time>
      </trkpt>
      <trkpt lat="49.50031" lon="0.47523">
        <ele>101.80000305176</ele>
        <time>2013-03-30T21:03:14.000Z</time>
      </trkpt>
      <trkpt lat="49.50022" lon="0.47517">
        <ele>103</ele>
        <time>2013-03-30T21:03:18.000Z</time>
      </trkpt>
      <trkpt lat="49.50014" lon="0.47507">
        <ele>104.59999847412</ele>
        <time>2013-03-30T21:03:22.000Z</time>
      </trkpt>
      <trkpt lat="49.5" lon="0.47493">
        <ele>106.59999847412</ele>
        <time>2013-03-30T21:03:27.000Z</time>
      </trkpt>
      <trkpt lat="49.49997" lon="0.47491">
        <ele>106.40000152588</ele>
        <time>2013-03-30T21:03:28.000Z</time>
      </trkpt>
      <trkpt lat="49.49992" lon="0.47485">
        <ele>105.59999847412</ele>
        <time>2013-03-30T21:03:31.000Z</time>
      </trkpt>
      <trkpt lat="49.49981" lon="0.47468">
        <ele>104.40000152588</ele>
        <time>2013-03-30T21:03:37.000Z</time>
      </trkpt>
      <trkpt lat="49.49977" lon="0.47463">
        <ele>104.19999694824</ele>
        <time>2013-03-30T21:03:39.000Z</time>
      </trkpt>
      <trkpt lat="49.4997" lon="0.47451">
        <ele>103.59999847412</ele>
        <time>2013-03-30T21:03:44.000Z</time>
      </trkpt>
      <trkpt lat="49.49961" lon="0.47438">
        <ele>103</ele>
        <time>2013-03-30T21:03:49.000Z</time>
      </trkpt>
      <trkpt lat="49.49954" lon="0.47426">
        <ele>102.80000305176</ele>
        <time>2013-03-30T21:03:53.000Z</time>
      </trkpt>
      <trkpt lat="49.49939" lon="0.47401">
        <ele>102.40000152588</ele>
        <time>2013-03-30T21:04:01.000Z</time>
      </trkpt>
      <trkpt lat="49.4993" lon="0.47382">
        <ele>102.19999694824</ele>
        <time>2013-03-30T21:04:07.000Z</time>
      </trkpt>
      <trkpt lat="49.49921" lon="0.47368">
        <ele>102</ele>
        <time>2013-03-30T21:04:11.000Z</time>
      </trkpt>
      <trkpt lat="49.49918" lon="0.47362">
        <ele>102</ele>
        <time>2013-03-30T21:04:13.000Z</time>
      </trkpt>
      <trkpt lat="49.49916" lon="0.4736">
        <ele>101.80000305176</ele>
        <time>2013-03-30T21:04:14.000Z</time>
      </trkpt>
      <trkpt lat="49.49901" lon="0.47339">
        <ele>100.19999694824</ele>
        <time>2013-03-30T21:04:21.000Z</time>
      </trkpt>
      <trkpt lat="49.49889" lon="0.47317">
        <ele>99.800003051758</ele>
        <time>2013-03-30T21:04:28.000Z</time>
      </trkpt>
      <trkpt lat="49.49883" lon="0.47302">
        <ele>99.800003051758</ele>
        <time>2013-03-30T21:04:33.000Z</time>
      </trkpt>
      <trkpt lat="49.49879" lon="0.47289">
        <ele>100.19999694824</ele>
        <time>2013-03-30T21:04:37.000Z</time>
      </trkpt>
      <trkpt lat="49.49874" lon="0.47273">
        <ele>100.80000305176</ele>
        <time>2013-03-30T21:04:41.000Z</time>
      </trkpt>
      <trkpt lat="49.49872" lon="0.47241">
        <ele>102</ele>
        <time>2013-03-30T21:04:49.000Z</time>
      </trkpt>
      <trkpt lat="49.49872" lon="0.47221">
        <ele>101.80000305176</ele>
        <time>2013-03-30T21:04:54.000Z</time>
      </trkpt>
      <trkpt lat="49.49874" lon="0.47215">
        <ele>101.59999847412</ele>
        <time>2013-03-30T21:04:56.000Z</time>
      </trkpt>
      <trkpt lat="49.49873" lon="0.47211">
        <ele>101.59999847412</ele>
        <time>2013-03-30T21:04:58.000Z</time>
      </trkpt>
      <trkpt lat="49.49866" lon="0.47197">
        <ele>101.59999847412</ele>
        <time>2013-03-30T21:05:04.000Z</time>
      </trkpt>
      <trkpt lat="49.49864" lon="0.47194">
        <ele>101.59999847412</ele>
        <time>2013-03-30T21:05:05.000Z</time>
      </trkpt>
      <trkpt lat="49.49858" lon="0.47173">
        <ele>101.19999694824</ele>
        <time>2013-03-30T21:05:11.000Z</time>
      </trkpt>
      <trkpt lat="49.49852" lon="0.47157">
        <ele>101.19999694824</ele>
        <time>2013-03-30T21:05:16.000Z</time>
      </trkpt>
      <trkpt lat="49.49843" lon="0.47137">
        <ele>101.40000152588</ele>
        <time>2013-03-30T21:05:22.000Z</time>
      </trkpt>
      <trkpt lat="49.49837" lon="0.47123">
        <ele>101.40000152588</ele>
        <time>2013-03-30T21:05:27.000Z</time>
      </trkpt>
      <trkpt lat="49.49829" lon="0.47107">
        <ele>101.59999847412</ele>
        <time>2013-03-30T21:05:33.000Z</time>
      </trkpt>
      <trkpt lat="49.49822" lon="0.47093">
        <ele>101.59999847412</ele>
        <time>2013-03-30T21:05:38.000Z</time>
      </trkpt>
      <trkpt lat="49.49819" lon="0.47087">
        <ele>101.80000305176</ele>
        <time>2013-03-30T21:05:41.000Z</time>
      </trkpt>
      <trkpt lat="49.49814" lon="0.47079">
        <ele>101.59999847412</ele>
        <time>2013-03-30T21:05:47.000Z</time>
      </trkpt>
      <trkpt lat="49.49804" lon="0.47063">
        <ele>101.40000152588</ele>
        <time>2013-03-30T21:05:53.000Z</time>
      </trkpt>
      <trkpt lat="49.49792" lon="0.4705">
        <ele>101.40000152588</ele>
        <time>2013-03-30T21:05:59.000Z</time>
      </trkpt>
      <trkpt lat="49.49781" lon="0.4704">
        <ele>101.40000152588</ele>
        <time>2013-03-30T21:06:04.000Z</time>
      </trkpt>
      <trkpt lat="49.49771" lon="0.4703">
        <ele>101.40000152588</ele>
        <time>2013-03-30T21:06:09.000Z</time>
      </trkpt>
      <trkpt lat="49.49764" lon="0.47024">
        <ele>101.59999847412</ele>
        <time>2013-03-30T21:06:13.000Z</time>
      </trkpt>
      <trkpt lat="49.49749" lon="0.47008">
        <ele>101.80000305176</ele>
        <time>2013-03-30T21:06:21.000Z</time>
      </trkpt>
      <trkpt lat="49.49738" lon="0.46996">
        <ele>102</ele>
        <time>2013-03-30T21:06:27.000Z</time>
      </trkpt>
      <trkpt lat="49.49724" lon="0.46982">
        <ele>102</ele>
        <time>2013-03-30T21:06:34.000Z</time>
      </trkpt>
      <trkpt lat="49.49714" lon="0.46971">
        <ele>102</ele>
        <time>2013-03-30T21:06:39.000Z</time>
      </trkpt>
      <trkpt lat="49.49702" lon="0.46957">
        <ele>102</ele>
        <time>2013-03-30T21:06:45.000Z</time>
      </trkpt>
      <trkpt lat="49.49687" lon="0.46944">
        <ele>102</ele>
        <time>2013-03-30T21:06:51.000Z</time>
      </trkpt>
      <trkpt lat="49.49677" lon="0.46932">
        <ele>102</ele>
        <time>2013-03-30T21:06:56.000Z</time>
      </trkpt>
      <trkpt lat="49.49667" lon="0.46919">
        <ele>102</ele>
        <time>2013-03-30T21:07:01.000Z</time>
      </trkpt>
      <trkpt lat="49.49655" lon="0.46903">
        <ele>102</ele>
        <time>2013-03-30T21:07:07.000Z</time>
      </trkpt>
      <trkpt lat="49.49644" lon="0.46887">
        <ele>102</ele>
        <time>2013-03-30T21:07:13.000Z</time>
      </trkpt>
      <trkpt lat="49.49633" lon="0.46873">
        <ele>102.19999694824</ele>
        <time>2013-03-30T21:07:19.000Z</time>
      </trkpt>
      <trkpt lat="49.49622" lon="0.46858">
        <ele>102.40000152588</ele>
        <time>2013-03-30T21:07:25.000Z</time>
      </trkpt>
      <trkpt lat="49.49612" lon="0.46844">
        <ele>102.59999847412</ele>
        <time>2013-03-30T21:07:30.000Z</time>
      </trkpt>
      <trkpt lat="49.49601" lon="0.4683">
        <ele>102.80000305176</ele>
        <time>2013-03-30T21:07:36.000Z</time>
      </trkpt>
      <trkpt lat="49.49591" lon="0.46818">
        <ele>102.80000305176</ele>
        <time>2013-03-30T21:07:41.000Z</time>
      </trkpt>
      <trkpt lat="49.4958" lon="0.46804">
        <ele>103</ele>
        <time>2013-03-30T21:07:47.000Z</time>
      </trkpt>
      <trkpt lat="49.4957" lon="0.46788">
        <ele>103</ele>
        <time>2013-03-30T21:07:53.000Z</time>
      </trkpt>
      <trkpt lat="49.49556" lon="0.46774">
        <ele>103.19999694824</ele>
        <time>2013-03-30T21:08:00.000Z</time>
      </trkpt>
      <trkpt lat="49.49544" lon="0.46761">
        <ele>103.40000152588</ele>
        <time>2013-03-30T21:08:06.000Z</time>
      </trkpt>
      <trkpt lat="49.49534" lon="0.46748">
        <ele>103.40000152588</ele>
        <time>2013-03-30T21:08:12.000Z</time>
      </trkpt>
      <trkpt lat="49.49526" lon="0.46734">
        <ele>103.19999694824</ele>
        <time>2013-03-30T21:08:17.000Z</time>
      </trkpt>
      <trkpt lat="49.49514" lon="0.46718">
        <ele>103</ele>
        <time>2013-03-30T21:08:23.000Z</time>
      </trkpt>
      <trkpt lat="49.49508" lon="0.46708">
        <ele>102.80000305176</ele>
        <time>2013-03-30T21:08:26.000Z</time>
      </trkpt>
      <trkpt lat="49.49501" lon="0.46693">
        <ele>102.59999847412</ele>
        <time>2013-03-30T21:08:31.000Z</time>
      </trkpt>
      <trkpt lat="49.49492" lon="0.46675">
        <ele>102</ele>
        <time>2013-03-30T21:08:37.000Z</time>
      </trkpt>
      <trkpt lat="49.49481" lon="0.46657">
        <ele>101.80000305176</ele>
        <time>2013-03-30T21:08:43.000Z</time>
      </trkpt>
      <trkpt lat="49.49467" lon="0.46642">
        <ele>101.80000305176</ele>
        <time>2013-03-30T21:08:49.000Z</time>
      </trkpt>
      <trkpt lat="49.4945" lon="0.46632">
        <ele>102.40000152588</ele>
        <time>2013-03-30T21:08:55.000Z</time>
      </trkpt>
      <trkpt lat="49.49433" lon="0.46623">
        <ele>103</ele>
        <time>2013-03-30T21:09:01.000Z</time>
      </trkpt>
      <trkpt lat="49.49415" lon="0.46613">
        <ele>103.80000305176</ele>
        <time>2013-03-30T21:09:08.000Z</time>
      </trkpt>
      <trkpt lat="49.49396" lon="0.46604">
        <ele>103.59999847412</ele>
        <time>2013-03-30T21:09:15.000Z</time>
      </trkpt>
      <trkpt lat="49.49383" lon="0.46598">
        <ele>103.40000152588</ele>
        <time>2013-03-30T21:09:20.000Z</time>
      </trkpt>
      <trkpt lat="49.49364" lon="0.46584">
        <ele>103</ele>
        <time>2013-03-30T21:09:27.000Z</time>
      </trkpt>
      <trkpt lat="49.49351" lon="0.46566">
        <ele>102</ele>
        <time>2013-03-30T21:09:33.000Z</time>
      </trkpt>
      <trkpt lat="49.49338" lon="0.46548">
        <ele>100.80000305176</ele>
        <time>2013-03-30T21:09:39.000Z</time>
      </trkpt>
      <trkpt lat="49.49336" lon="0.46547">
        <ele>100.59999847412</ele>
        <time>2013-03-30T21:09:40.000Z</time>
      </trkpt>
      <trkpt lat="49.49329" lon="0.46542">
        <ele>100.40000152588</ele>
        <time>2013-03-30T21:09:45.000Z</time>
      </trkpt>
      <trkpt lat="49.49328" lon="0.46542">
        <ele>100.40000152588</ele>
        <time>2013-03-30T21:09:47.000Z</time>
      </trkpt>
      <trkpt lat="49.49329" lon="0.46533">
        <ele>100.19999694824</ele>
        <time>2013-03-30T21:09:50.000Z</time>
      </trkpt>
      <trkpt lat="49.49311" lon="0.46533">
        <ele>100.19999694824</ele>
        <time>2013-03-30T21:09:56.000Z</time>
      </trkpt>
      <trkpt lat="49.49294" lon="0.46533">
        <ele>100.19999694824</ele>
        <time>2013-03-30T21:10:02.000Z</time>
      </trkpt>
      <trkpt lat="49.4928" lon="0.46536">
        <ele>100.40000152588</ele>
        <time>2013-03-30T21:10:07.000Z</time>
      </trkpt>
      <trkpt lat="49.49269" lon="0.46537">
        <ele>100.59999847412</ele>
        <time>2013-03-30T21:10:11.000Z</time>
      </trkpt>
      <trkpt lat="49.49266" lon="0.46537">
        <ele>100.59999847412</ele>
        <time>2013-03-30T21:10:12.000Z</time>
      </trkpt>
      <trkpt lat="49.49253" lon="0.46538">
        <ele>100.80000305176</ele>
        <time>2013-03-30T21:10:16.000Z</time>
      </trkpt>
      <trkpt lat="49.49235" lon="0.46543">
        <ele>100.19999694824</ele>
        <time>2013-03-30T21:10:22.000Z</time>
      </trkpt>
      <trkpt lat="49.49224" lon="0.46548">
        <ele>100</ele>
        <time>2013-03-30T21:10:27.000Z</time>
      </trkpt>
      <trkpt lat="49.49222" lon="0.46549">
        <ele>100</ele>
        <time>2013-03-30T21:10:28.000Z</time>
      </trkpt>
      <trkpt lat="49.49218" lon="0.46553">
        <ele>100</ele>
        <time>2013-03-30T21:10:32.000Z</time>
      </trkpt>
      <trkpt lat="49.49217" lon="0.46555">
        <ele>100.19999694824</ele>
        <time>2013-03-30T21:10:38.000Z</time>
      </trkpt>
      <trkpt lat="49.49213" lon="0.46554">
        <ele>100</ele>
        <time>2013-03-30T21:10:50.000Z</time>
      </trkpt>
      <trkpt lat="49.49213" lon="0.46553">
        <ele>99.800003051758</ele>
        <time>2013-03-30T21:10:52.000Z</time>
      </trkpt>
      <trkpt lat="49.4921" lon="0.46551">
        <ele>99.599998474121</ele>
        <time>2013-03-30T21:10:59.000Z</time>
      </trkpt>
      <trkpt lat="49.49208" lon="0.46552">
        <ele>99.599998474121</ele>
        <time>2013-03-30T21:11:08.000Z</time>
      </trkpt>
      <trkpt lat="49.49209" lon="0.46551">
        <ele>99.400001525879</ele>
        <time>2013-03-30T21:11:16.000Z</time>
      </trkpt>
      <trkpt lat="49.49208" lon="0.4655">
        <ele>99.400001525879</ele>
        <time>2013-03-30T21:11:17.000Z</time>
      </trkpt>
      <trkpt lat="49.49206" lon="0.46551">
        <ele>99.400001525879</ele>
        <time>2013-03-30T21:11:24.000Z</time>
      </trkpt>
      <trkpt lat="49.49206" lon="0.46552">
        <ele>99.599998474121</ele>
        <time>2013-03-30T21:11:27.000Z</time>
      </trkpt>
      <trkpt lat="49.49209" lon="0.4655">
        <ele>99.400001525879</ele>
        <time>2013-03-30T21:11:34.000Z</time>
      </trkpt>
      <trkpt lat="49.49208" lon="0.46552">
        <ele>99.599998474121</ele>
        <time>2013-03-30T21:11:42.000Z</time>
      </trkpt>
      <trkpt lat="49.49204" lon="0.46555">
        <ele>99.599998474121</ele>
        <time>2013-03-30T21:11:49.000Z</time>
      </trkpt>
      <trkpt lat="49.49201" lon="0.46567">
        <ele>100.80000305176</ele>
        <time>2013-03-30T21:11:54.000Z</time>
      </trkpt>
      <trkpt lat="49.492" lon="0.46578">
        <ele>101.80000305176</ele>
        <time>2013-03-30T21:11:59.000Z</time>
      </trkpt>
      <trkpt lat="49.49197" lon="0.46578">
        <ele>101.59999847412</ele>
        <time>2013-03-30T21:12:01.000Z</time>
      </trkpt>
      <trkpt lat="49.49186" lon="0.46566">
        <ele>100.19999694824</ele>
        <time>2013-03-30T21:12:09.000Z</time>
      </trkpt>
      <trkpt lat="49.49176" lon="0.46558">
        <ele>98.800003051758</ele>
        <time>2013-03-30T21:12:13.000Z</time>
      </trkpt>
      <trkpt lat="49.49183" lon="0.46556">
        <ele>98.800003051758</ele>
        <time>2013-03-30T21:12:24.000Z</time>
      </trkpt>
      <trkpt lat="49.49192" lon="0.4655">
        <ele>98.599998474121</ele>
        <time>2013-03-30T21:13:12.000Z</time>
      </trkpt>
      <trkpt lat="49.49193" lon="0.46552">
        <ele>98.800003051758</ele>
        <time>2013-03-30T21:13:18.000Z</time>
      </trkpt>
      <trkpt lat="49.4919" lon="0.4655">
        <ele>98.599998474121</ele>
        <time>2013-03-30T21:13:25.000Z</time>
      </trkpt>
      <trkpt lat="49.49189" lon="0.4655">
        <ele>98.599998474121</ele>
        <time>2013-03-30T21:13:34.000Z</time>
      </trkpt>
      <trkpt lat="49.49188" lon="0.46548">
        <ele>98.199996948242</ele>
        <time>2013-03-30T21:13:41.000Z</time>
      </trkpt>
      <trkpt lat="49.49186" lon="0.46546">
        <ele>98</ele>
        <time>2013-03-30T21:13:52.000Z</time>
      </trkpt>
      <trkpt lat="49.49184" lon="0.46546">
        <ele>97.800003051758</ele>
        <time>2013-03-30T21:14:06.000Z</time>
      </trkpt>
      <trkpt lat="49.49186" lon="0.46546">
        <ele>98</ele>
        <time>2013-03-30T21:14:15.000Z</time>
      </trkpt>
      <trkpt lat="49.49186" lon="0.46548">
        <ele>98.199996948242</ele>
        <time>2013-03-30T21:14:23.000Z</time>
      </trkpt>
      <trkpt lat="49.4918" lon="0.46548">
        <ele>97.800003051758</ele>
        <time>2013-03-30T21:14:29.000Z</time>
      </trkpt>
      <trkpt lat="49.49177" lon="0.46548">
        <ele>97.599998474121</ele>
        <time>2013-03-30T21:14:35.000Z</time>
      </trkpt>
      <trkpt lat="49.49184" lon="0.4655">
        <ele>98.199996948242</ele>
        <time>2013-03-30T21:14:45.000Z</time>
      </trkpt>
      <trkpt lat="49.49186" lon="0.46548">
        <ele>98.199996948242</ele>
        <time>2013-03-30T21:14:53.000Z</time>
      </trkpt>
      <trkpt lat="49.49192" lon="0.46548">
        <ele>98.400001525879</ele>
        <time>2013-03-30T21:14:58.000Z</time>
      </trkpt>
      <trkpt lat="49.49194" lon="0.46548">
        <ele>98.599998474121</ele>
        <time>2013-03-30T21:15:02.000Z</time>
      </trkpt>
      <trkpt lat="49.49193" lon="0.46549">
        <ele>98.599998474121</ele>
        <time>2013-03-30T21:15:11.000Z</time>
      </trkpt>
      <trkpt lat="49.49192" lon="0.46551">
        <ele>98.800003051758</ele>
        <time>2013-03-30T21:15:17.000Z</time>
      </trkpt>
      <trkpt lat="49.49189" lon="0.46553">
        <ele>98.800003051758</ele>
        <time>2013-03-30T21:15:20.000Z</time>
      </trkpt>
      <trkpt lat="49.49186" lon="0.46561">
        <ele>99.599998474121</ele>
        <time>2013-03-30T21:15:24.000Z</time>
      </trkpt>
      <trkpt lat="49.49187" lon="0.46564">
        <ele>100</ele>
        <time>2013-03-30T21:15:28.000Z</time>
      </trkpt>
      <trkpt lat="49.49187" lon="0.46565">
        <ele>100</ele>
        <time>2013-03-30T21:15:34.000Z</time>
      </trkpt>
      <trkpt lat="49.49184" lon="0.46568">
        <ele>100.40000152588</ele>
        <time>2013-03-30T21:15:39.000Z</time>
      </trkpt>
      <trkpt lat="49.49185" lon="0.46569">
        <ele>100.40000152588</ele>
        <time>2013-03-30T21:15:40.000Z</time>
      </trkpt>
      <trkpt lat="49.49189" lon="0.46565">
        <ele>100.19999694824</ele>
        <time>2013-03-30T21:15:46.000Z</time>
      </trkpt>
      <trkpt lat="49.49189" lon="0.46562">
        <ele>99.800003051758</ele>
        <time>2013-03-30T21:15:51.000Z</time>
      </trkpt>
      <trkpt lat="49.49188" lon="0.46563">
        <ele>100</ele>
        <time>2013-03-30T21:15:57.000Z</time>
      </trkpt>
      <trkpt lat="49.49187" lon="0.46563">
        <ele>99.800003051758</ele>
        <time>2013-03-30T21:16:01.000Z</time>
      </trkpt>
      <trkpt lat="49.49189" lon="0.46561">
        <ele>99.800003051758</ele>
        <time>2013-03-30T21:16:03.000Z</time>
      </trkpt>
      <trkpt lat="49.49193" lon="0.4656">
        <ele>99.800003051758</ele>
        <time>2013-03-30T21:16:07.000Z</time>
      </trkpt>
      <trkpt lat="49.49196" lon="0.46557">
        <ele>99.599998474121</ele>
        <time>2013-03-30T21:16:11.000Z</time>
      </trkpt>
      <trkpt lat="49.49196" lon="0.46553">
        <ele>99.199996948242</ele>
        <time>2013-03-30T21:16:18.000Z</time>
      </trkpt>
      <trkpt lat="49.49195" lon="0.4655">
        <ele>98.800003051758</ele>
        <time>2013-03-30T21:16:22.000Z</time>
      </trkpt>
      <trkpt lat="49.49197" lon="0.4655">
        <ele>98.800003051758</ele>
        <time>2013-03-30T21:16:23.000Z</time>
      </trkpt>
      <trkpt lat="49.49207" lon="0.46551">
        <ele>99.400001525879</ele>
        <time>2013-03-30T21:16:28.000Z</time>
      </trkpt>
      <trkpt lat="49.4921" lon="0.46551">
        <ele>99.599998474121</ele>
        <time>2013-03-30T21:16:32.000Z</time>
      </trkpt>
      <trkpt lat="49.49213" lon="0.4655">
        <ele>99.599998474121</ele>
        <time>2013-03-30T21:16:39.000Z</time>
      </trkpt>
      <trkpt lat="49.49215" lon="0.46551">
        <ele>99.800003051758</ele>
        <time>2013-03-30T21:16:54.000Z</time>
      </trkpt>
      <trkpt lat="49.49215" lon="0.4655">
        <ele>99.599998474121</ele>
        <time>2013-03-30T21:17:00.000Z</time>
      </trkpt>
      <trkpt lat="49.49215" lon="0.46547">
        <ele>99.400001525879</ele>
        <time>2013-03-30T21:17:03.000Z</time>
      </trkpt>
      <trkpt lat="49.49217" lon="0.46545">
        <ele>99.400001525879</ele>
        <time>2013-03-30T21:17:09.000Z</time>
      </trkpt>
      <trkpt lat="49.49216" lon="0.46542">
        <ele>99</ele>
        <time>2013-03-30T21:17:34.000Z</time>
      </trkpt>
      <trkpt lat="49.49214" lon="0.46545">
        <ele>99.199996948242</ele>
        <time>2013-03-30T21:17:36.000Z</time>
      </trkpt>
      <trkpt lat="49.49201" lon="0.46552">
        <ele>99.400001525879</ele>
        <time>2013-03-30T21:17:41.000Z</time>
      </trkpt>
      <trkpt lat="49.49199" lon="0.46554">
        <ele>99.400001525879</ele>
        <time>2013-03-30T21:17:42.000Z</time>
      </trkpt>
      <trkpt lat="49.49186" lon="0.46564">
        <ele>100</ele>
        <time>2013-03-30T21:17:47.000Z</time>
      </trkpt>
      <trkpt lat="49.49172" lon="0.46574">
        <ele>100.80000305176</ele>
        <time>2013-03-30T21:17:53.000Z</time>
      </trkpt>
      <trkpt lat="49.49161" lon="0.46582">
        <ele>101.19999694824</ele>
        <time>2013-03-30T21:17:58.000Z</time>
      </trkpt>
      <trkpt lat="49.49157" lon="0.46584">
        <ele>101</ele>
        <time>2013-03-30T21:18:00.000Z</time>
      </trkpt>
      <trkpt lat="49.49145" lon="0.4659">
        <ele>100.19999694824</ele>
        <time>2013-03-30T21:18:04.000Z</time>
      </trkpt>
      <trkpt lat="49.49143" lon="0.46591">
        <ele>100</ele>
        <time>2013-03-30T21:18:05.000Z</time>
      </trkpt>
      <trkpt lat="49.49135" lon="0.46595">
        <ele>99.599998474121</ele>
        <time>2013-03-30T21:18:08.000Z</time>
      </trkpt>
      <trkpt lat="49.49126" lon="0.46596">
        <ele>98.800003051758</ele>
        <time>2013-03-30T21:18:11.000Z</time>
      </trkpt>
      <trkpt lat="49.49111" lon="0.46604">
        <ele>98.199996948242</ele>
        <time>2013-03-30T21:18:17.000Z</time>
      </trkpt>
      <trkpt lat="49.491" lon="0.46612">
        <ele>97.800003051758</ele>
        <time>2013-03-30T21:18:21.000Z</time>
      </trkpt>
      <trkpt lat="49.49086" lon="0.46619">
        <ele>97.599998474121</ele>
        <time>2013-03-30T21:18:26.000Z</time>
      </trkpt>
      <trkpt lat="49.49073" lon="0.46626">
        <ele>96.199996948242</ele>
        <time>2013-03-30T21:18:31.000Z</time>
      </trkpt>
      <trkpt lat="49.49069" lon="0.4663">
        <ele>96</ele>
        <time>2013-03-30T21:18:33.000Z</time>
      </trkpt>
      <trkpt lat="49.49057" lon="0.46635">
        <ele>94.599998474121</ele>
        <time>2013-03-30T21:18:38.000Z</time>
      </trkpt>
      <trkpt lat="49.49055" lon="0.46636">
        <ele>94.400001525879</ele>
        <time>2013-03-30T21:18:39.000Z</time>
      </trkpt>
      <trkpt lat="49.49048" lon="0.46641">
        <ele>94</ele>
        <time>2013-03-30T21:18:43.000Z</time>
      </trkpt>
      <trkpt lat="49.49039" lon="0.46647">
        <ele>93.400001525879</ele>
        <time>2013-03-30T21:18:48.000Z</time>
      </trkpt>
      <trkpt lat="49.49029" lon="0.46654">
        <ele>93</ele>
        <time>2013-03-30T21:18:53.000Z</time>
      </trkpt>
      <trkpt lat="49.49016" lon="0.46661">
        <ele>92.199996948242</ele>
        <time>2013-03-30T21:18:58.000Z</time>
      </trkpt>
      <trkpt lat="49.4901" lon="0.46666">
        <ele>92.199996948242</ele>
        <time>2013-03-30T21:19:01.000Z</time>
      </trkpt>
      <trkpt lat="49.48994" lon="0.46675">
        <ele>91</ele>
        <time>2013-03-30T21:19:07.000Z</time>
      </trkpt>
      <trkpt lat="49.48989" lon="0.46677">
        <ele>90.400001525879</ele>
        <time>2013-03-30T21:19:09.000Z</time>
      </trkpt>
      <trkpt lat="49.48976" lon="0.46686">
        <ele>89.599998474121</ele>
        <time>2013-03-30T21:19:15.000Z</time>
      </trkpt>
      <trkpt lat="49.48966" lon="0.46694">
        <ele>89</ele>
        <time>2013-03-30T21:19:19.000Z</time>
      </trkpt>
      <trkpt lat="49.48964" lon="0.46695">
        <ele>88.800003051758</ele>
        <time>2013-03-30T21:19:20.000Z</time>
      </trkpt>
      <trkpt lat="49.48959" lon="0.46699">
        <ele>88.400001525879</ele>
        <time>2013-03-30T21:19:23.000Z</time>
      </trkpt>
      <trkpt lat="49.48956" lon="0.467">
        <ele>88</ele>
        <time>2013-03-30T21:19:25.000Z</time>
      </trkpt>
      <trkpt lat="49.48944" lon="0.46706">
        <ele>86.800003051758</ele>
        <time>2013-03-30T21:19:30.000Z</time>
      </trkpt>
      <trkpt lat="49.4893" lon="0.46713">
        <ele>85.400001525879</ele>
        <time>2013-03-30T21:19:37.000Z</time>
      </trkpt>
      <trkpt lat="49.48927" lon="0.46713">
        <ele>85</ele>
        <time>2013-03-30T21:19:38.000Z</time>
      </trkpt>
      <trkpt lat="49.48917" lon="0.46715">
        <ele>83.800003051758</ele>
        <time>2013-03-30T21:19:43.000Z</time>
      </trkpt>
      <trkpt lat="49.48916" lon="0.46716">
        <ele>83.599998474121</ele>
        <time>2013-03-30T21:19:44.000Z</time>
      </trkpt>
      <trkpt lat="49.48906" lon="0.4672">
        <ele>81.400001525879</ele>
        <time>2013-03-30T21:19:49.000Z</time>
      </trkpt>
      <trkpt lat="49.48888" lon="0.46726">
        <ele>76.599998474121</ele>
        <time>2013-03-30T21:19:54.000Z</time>
      </trkpt>
      <trkpt lat="49.4887" lon="0.46733">
        <ele>71.199996948242</ele>
        <time>2013-03-30T21:20:01.000Z</time>
      </trkpt>
      <trkpt lat="49.48868" lon="0.46735">
        <ele>70.400001525879</ele>
        <time>2013-03-30T21:20:03.000Z</time>
      </trkpt>
      <trkpt lat="49.48861" lon="0.46741">
        <ele>68.199996948242</ele>
        <time>2013-03-30T21:20:10.000Z</time>
      </trkpt>
      <trkpt lat="49.48855" lon="0.46745">
        <ele>66</ele>
        <time>2013-03-30T21:20:19.000Z</time>
      </trkpt>
      <trkpt lat="49.4885" lon="0.46746">
        <ele>64</ele>
        <time>2013-03-30T21:20:26.000Z</time>
      </trkpt>
      <trkpt lat="49.48849" lon="0.46747">
        <ele>63.599998474121</ele>
        <time>2013-03-30T21:20:27.000Z</time>
      </trkpt>
      <trkpt lat="49.48841" lon="0.46744">
        <ele>61.200000762939</ele>
        <time>2013-03-30T21:20:32.000Z</time>
      </trkpt>
      <trkpt lat="49.4884" lon="0.46741">
        <ele>61.200000762939</ele>
        <time>2013-03-30T21:20:34.000Z</time>
      </trkpt>
      <trkpt lat="49.48839" lon="0.46738">
        <ele>61</ele>
        <time>2013-03-30T21:20:39.000Z</time>
      </trkpt>
      <trkpt lat="49.48835" lon="0.46727">
        <ele>60.799999237061</ele>
        <time>2013-03-30T21:20:45.000Z</time>
      </trkpt>
      <trkpt lat="49.48833" lon="0.46723">
        <ele>60.799999237061</ele>
        <time>2013-03-30T21:20:48.000Z</time>
      </trkpt>
      <trkpt lat="49.48826" lon="0.46722">
        <ele>57.200000762939</ele>
        <time>2013-03-30T21:21:06.000Z</time>
      </trkpt>
      <trkpt lat="49.48828" lon="0.46721">
        <ele>58.799999237061</ele>
        <time>2013-03-30T21:21:12.000Z</time>
      </trkpt>
      <trkpt lat="49.4883" lon="0.46728">
        <ele>58.599998474121</ele>
        <time>2013-03-30T21:21:35.000Z</time>
      </trkpt>
      <trkpt lat="49.48829" lon="0.46736">
        <ele>57.400001525879</ele>
        <time>2013-03-30T21:21:42.000Z</time>
      </trkpt>
      <trkpt lat="49.48829" lon="0.46739">
        <ele>57.200000762939</ele>
        <time>2013-03-30T21:21:47.000Z</time>
      </trkpt>
      <trkpt lat="49.48832" lon="0.46737">
        <ele>58.599998474121</ele>
        <time>2013-03-30T21:21:50.000Z</time>
      </trkpt>
      <trkpt lat="49.48833" lon="0.46736">
        <ele>59.400001525879</ele>
        <time>2013-03-30T21:21:55.000Z</time>
      </trkpt>
      <trkpt lat="49.48832" lon="0.4673">
        <ele>59.400001525879</ele>
        <time>2013-03-30T21:21:59.000Z</time>
      </trkpt>
      <trkpt lat="49.48831" lon="0.46726">
        <ele>59.400001525879</ele>
        <time>2013-03-30T21:22:01.000Z</time>
      </trkpt>
      <trkpt lat="49.48824" lon="0.46725">
        <ele>56.400001525879</ele>
        <time>2013-03-30T21:22:06.000Z</time>
      </trkpt>
      <trkpt lat="49.48816" lon="0.46722">
        <ele>52.599998474121</ele>
        <time>2013-03-30T21:22:11.000Z</time>
      </trkpt>
      <trkpt lat="49.48813" lon="0.46722">
        <ele>51.200000762939</ele>
        <time>2013-03-30T21:22:13.000Z</time>
      </trkpt>
      <trkpt lat="49.48811" lon="0.46723">
        <ele>50.400001525879</ele>
        <time>2013-03-30T21:22:15.000Z</time>
      </trkpt>
      <trkpt lat="49.48808" lon="0.46719">
        <ele>49.599998474121</ele>
        <time>2013-03-30T21:22:20.000Z</time>
      </trkpt>
      <trkpt lat="49.48803" lon="0.46719">
        <ele>47.200000762939</ele>
        <time>2013-03-30T21:22:24.000Z</time>
      </trkpt>
      <trkpt lat="49.48801" lon="0.46716">
        <ele>46.799999237061</ele>
        <time>2013-03-30T21:22:26.000Z</time>
      </trkpt>
      <trkpt lat="49.48799" lon="0.46714">
        <ele>46.200000762939</ele>
        <time>2013-03-30T21:22:28.000Z</time>
      </trkpt>
      <trkpt lat="49.48793" lon="0.46708">
        <ele>44.400001525879</ele>
        <time>2013-03-30T21:22:34.000Z</time>
      </trkpt>
      <trkpt lat="49.48792" lon="0.46706">
        <ele>44.200000762939</ele>
        <time>2013-03-30T21:22:35.000Z</time>
      </trkpt>
      <trkpt lat="49.48792" lon="0.46704">
        <ele>44.400001525879</ele>
        <time>2013-03-30T21:22:36.000Z</time>
      </trkpt>
      <trkpt lat="49.48791" lon="0.46703">
        <ele>44.400001525879</ele>
        <time>2013-03-30T21:22:40.000Z</time>
      </trkpt>
      <trkpt lat="49.48787" lon="0.46701">
        <ele>42.799999237061</ele>
        <time>2013-03-30T21:22:45.000Z</time>
      </trkpt>
      <trkpt lat="49.48786" lon="0.467">
        <ele>42.599998474121</ele>
        <time>2013-03-30T21:22:46.000Z</time>
      </trkpt>
      <trkpt lat="49.48783" lon="0.46701">
        <ele>40.799999237061</ele>
        <time>2013-03-30T21:22:50.000Z</time>
      </trkpt>
      <trkpt lat="49.4878" lon="0.46699">
        <ele>40</ele>
        <time>2013-03-30T21:22:53.000Z</time>
      </trkpt>
      <trkpt lat="49.48777" lon="0.46698">
        <ele>39</ele>
        <time>2013-03-30T21:22:59.000Z</time>
      </trkpt>
      <trkpt lat="49.48775" lon="0.46697">
        <ele>38</ele>
        <time>2013-03-30T21:23:10.000Z</time>
      </trkpt>
      <trkpt lat="49.48771" lon="0.46693">
        <ele>37.200000762939</ele>
        <time>2013-03-30T21:23:14.000Z</time>
      </trkpt>
      <trkpt lat="49.48767" lon="0.46687">
        <ele>36.400001525879</ele>
        <time>2013-03-30T21:23:19.000Z</time>
      </trkpt>
      <trkpt lat="49.48766" lon="0.46684">
        <ele>36.599998474121</ele>
        <time>2013-03-30T21:23:24.000Z</time>
      </trkpt>
      <trkpt lat="49.48765" lon="0.46683">
        <ele>36.599998474121</ele>
        <time>2013-03-30T21:23:25.000Z</time>
      </trkpt>
      <trkpt lat="49.48759" lon="0.46677">
        <ele>35.200000762939</ele>
        <time>2013-03-30T21:23:30.000Z</time>
      </trkpt>
      <trkpt lat="49.48757" lon="0.46674">
        <ele>35</ele>
        <time>2013-03-30T21:23:34.000Z</time>
      </trkpt>
      <trkpt lat="49.48756" lon="0.46675">
        <ele>34.599998474121</ele>
        <time>2013-03-30T21:23:35.000Z</time>
      </trkpt>
      <trkpt lat="49.48755" lon="0.46674">
        <ele>34.200000762939</ele>
        <time>2013-03-30T21:23:37.000Z</time>
      </trkpt>
      <trkpt lat="49.48752" lon="0.46673">
        <ele>33.599998474121</ele>
        <time>2013-03-30T21:23:39.000Z</time>
      </trkpt>
      <trkpt lat="49.4875" lon="0.46671">
        <ele>33</ele>
        <time>2013-03-30T21:23:43.000Z</time>
      </trkpt>
      <trkpt lat="49.48745" lon="0.46665">
        <ele>32.400001525879</ele>
        <time>2013-03-30T21:23:49.000Z</time>
      </trkpt>
      <trkpt lat="49.48745" lon="0.46665">
        <ele>32.200000762939</ele>
        <time>2013-03-30T21:23:50.000Z</time>
      </trkpt>
      <trkpt lat="49.48743" lon="0.46663">
        <ele>31.39999961853</ele>
        <time>2013-03-30T21:23:52.000Z</time>
      </trkpt>
      <trkpt lat="49.48742" lon="0.46658">
        <ele>30.200000762939</ele>
        <time>2013-03-30T21:23:58.000Z</time>
      </trkpt>
      <trkpt lat="49.48739" lon="0.46652">
        <ele>28.60000038147</ele>
        <time>2013-03-30T21:24:03.000Z</time>
      </trkpt>
      <trkpt lat="49.48737" lon="0.46652">
        <ele>28.200000762939</ele>
        <time>2013-03-30T21:24:04.000Z</time>
      </trkpt>
      <trkpt lat="49.48733" lon="0.4665">
        <ele>26.60000038147</ele>
        <time>2013-03-30T21:24:09.000Z</time>
      </trkpt>
      <trkpt lat="49.48731" lon="0.46647">
        <ele>26</ele>
        <time>2013-03-30T21:24:13.000Z</time>
      </trkpt>
      <trkpt lat="49.4873" lon="0.46646">
        <ele>25.39999961853</ele>
        <time>2013-03-30T21:24:15.000Z</time>
      </trkpt>
      <trkpt lat="49.48724" lon="0.46643">
        <ele>23.60000038147</ele>
        <time>2013-03-30T21:24:20.000Z</time>
      </trkpt>
      <trkpt lat="49.48721" lon="0.46644">
        <ele>23.200000762939</ele>
        <time>2013-03-30T21:24:22.000Z</time>
      </trkpt>
      <trkpt lat="49.48719" lon="0.46645">
        <ele>22.799999237061</ele>
        <time>2013-03-30T21:24:25.000Z</time>
      </trkpt>
      <trkpt lat="49.48717" lon="0.46647">
        <ele>22.39999961853</ele>
        <time>2013-03-30T21:24:31.000Z</time>
      </trkpt>
      <trkpt lat="49.4871" lon="0.46648">
        <ele>21</ele>
        <time>2013-03-30T21:24:35.000Z</time>
      </trkpt>
      <trkpt lat="49.48708" lon="0.46647">
        <ele>20.39999961853</ele>
        <time>2013-03-30T21:24:36.000Z</time>
      </trkpt>
      <trkpt lat="49.48703" lon="0.46648">
        <ele>19.200000762939</ele>
        <time>2013-03-30T21:24:43.000Z</time>
      </trkpt>
      <trkpt lat="49.48703" lon="0.46648">
        <ele>19.200000762939</ele>
        <time>2013-03-30T21:24:44.000Z</time>
      </trkpt>
      <trkpt lat="49.48697" lon="0.46649">
        <ele>17.799999237061</ele>
        <time>2013-03-30T21:24:48.000Z</time>
      </trkpt>
      <trkpt lat="49.48696" lon="0.4665">
        <ele>17.799999237061</ele>
        <time>2013-03-30T21:24:49.000Z</time>
      </trkpt>
      <trkpt lat="49.48694" lon="0.46651">
        <ele>17.200000762939</ele>
        <time>2013-03-30T21:24:51.000Z</time>
      </trkpt>
      <trkpt lat="49.48691" lon="0.46646">
        <ele>16.200000762939</ele>
        <time>2013-03-30T21:24:57.000Z</time>
      </trkpt>
      <trkpt lat="49.48691" lon="0.46637">
        <ele>15.39999961853</ele>
        <time>2013-03-30T21:25:10.000Z</time>
      </trkpt>
      <trkpt lat="49.4869" lon="0.46634">
        <ele>14.800000190735</ele>
        <time>2013-03-30T21:25:15.000Z</time>
      </trkpt>
      <trkpt lat="49.48689" lon="0.46633">
        <ele>14.60000038147</ele>
        <time>2013-03-30T21:25:17.000Z</time>
      </trkpt>
      <trkpt lat="49.48682" lon="0.46626">
        <ele>12.60000038147</ele>
        <time>2013-03-30T21:25:22.000Z</time>
      </trkpt>
      <trkpt lat="49.48677" lon="0.46635">
        <ele>12</ele>
        <time>2013-03-30T21:25:26.000Z</time>
      </trkpt>
      <trkpt lat="49.48675" lon="0.46636">
        <ele>11.800000190735</ele>
        <time>2013-03-30T21:25:27.000Z</time>
      </trkpt>
      <trkpt lat="49.48663" lon="0.46645">
        <ele>9.8000001907349</ele>
        <time>2013-03-30T21:25:33.000Z</time>
      </trkpt>
      <trkpt lat="49.4865" lon="0.4665">
        <ele>9.3999996185303</ele>
        <time>2013-03-30T21:25:38.000Z</time>
      </trkpt>
      <trkpt lat="49.48648" lon="0.46651">
        <ele>9.1999998092651</ele>
        <time>2013-03-30T21:25:39.000Z</time>
      </trkpt>
      <trkpt lat="49.48638" lon="0.46652">
        <ele>8.6000003814697</ele>
        <time>2013-03-30T21:25:45.000Z</time>
      </trkpt>
      <trkpt lat="49.48631" lon="0.46644">
        <ele>8</ele>
        <time>2013-03-30T21:25:52.000Z</time>
      </trkpt>
      <trkpt lat="49.48617" lon="0.46631">
        <ele>7.4000000953674</ele>
        <time>2013-03-30T21:25:59.000Z</time>
      </trkpt>
      <trkpt lat="49.48603" lon="0.46621">
        <ele>6.8000001907349</ele>
        <time>2013-03-30T21:26:05.000Z</time>
      </trkpt>
      <trkpt lat="49.48589" lon="0.4661">
        <ele>6.4000000953674</ele>
        <time>2013-03-30T21:26:11.000Z</time>
      </trkpt>
      <trkpt lat="49.48581" lon="0.46604">
        <ele>6.4000000953674</ele>
        <time>2013-03-30T21:26:17.000Z</time>
      </trkpt>
      <trkpt lat="49.4857" lon="0.46601">
        <ele>6.4000000953674</ele>
        <time>2013-03-30T21:26:23.000Z</time>
      </trkpt>
      <trkpt lat="49.48553" lon="0.46595">
        <ele>6.4000000953674</ele>
        <time>2013-03-30T21:26:29.000Z</time>
      </trkpt>
      <trkpt lat="49.48543" lon="0.4659">
        <ele>6.1999998092651</ele>
        <time>2013-03-30T21:26:33.000Z</time>
      </trkpt>
      <trkpt lat="49.48528" lon="0.46579">
        <ele>6.8000001907349</ele>
        <time>2013-03-30T21:26:39.000Z</time>
      </trkpt>
      <trkpt lat="49.48516" lon="0.46574">
        <ele>7.4000000953674</ele>
        <time>2013-03-30T21:26:45.000Z</time>
      </trkpt>
      <trkpt lat="49.4851" lon="0.46572">
        <ele>7.8000001907349</ele>
        <time>2013-03-30T21:26:48.000Z</time>
      </trkpt>
      <trkpt lat="49.48513" lon="0.46573">
        <ele>7.5999999046326</ele>
        <time>2013-03-30T21:26:53.000Z</time>
      </trkpt>
      <trkpt lat="49.48515" lon="0.46574">
        <ele>7.5999999046326</ele>
        <time>2013-03-30T21:26:58.000Z</time>
      </trkpt>
      <trkpt lat="49.48518" lon="0.46576">
        <ele>7.1999998092651</ele>
        <time>2013-03-30T21:27:01.000Z</time>
      </trkpt>
      <trkpt lat="49.4852" lon="0.46576">
        <ele>7.1999998092651</ele>
        <time>2013-03-30T21:27:09.000Z</time>
      </trkpt>
      <trkpt lat="49.48522" lon="0.46573">
        <ele>7.5999999046326</ele>
        <time>2013-03-30T21:27:16.000Z</time>
      </trkpt>
      <trkpt lat="49.48524" lon="0.46573">
        <ele>7.5999999046326</ele>
        <time>2013-03-30T21:27:23.000Z</time>
      </trkpt>
      <trkpt lat="49.48526" lon="0.46571">
        <ele>7.8000001907349</ele>
        <time>2013-03-30T21:27:32.000Z</time>
      </trkpt>
      <trkpt lat="49.48539" lon="0.46581">
        <ele>6.5999999046326</ele>
        <time>2013-03-30T21:27:37.000Z</time>
      </trkpt>
      <trkpt lat="49.48557" lon="0.46589">
        <ele>6.4000000953674</ele>
        <time>2013-03-30T21:27:43.000Z</time>
      </trkpt>
      <trkpt lat="49.48568" lon="0.46586">
        <ele>6.5999999046326</ele>
        <time>2013-03-30T21:27:47.000Z</time>
      </trkpt>
      <trkpt lat="49.48574" lon="0.46575">
        <ele>7.1999998092651</ele>
        <time>2013-03-30T21:27:51.000Z</time>
      </trkpt>
      <trkpt lat="49.48575" lon="0.46567">
        <ele>7.4000000953674</ele>
        <time>2013-03-30T21:27:53.000Z</time>
      </trkpt>
      <trkpt lat="49.48567" lon="0.46547">
        <ele>8.6000003814697</ele>
        <time>2013-03-30T21:27:59.000Z</time>
      </trkpt>
      <trkpt lat="49.48566" lon="0.46545">
        <ele>8.8000001907349</ele>
        <time>2013-03-30T21:28:00.000Z</time>
      </trkpt>
      <trkpt lat="49.48559" lon="0.46529">
        <ele>10.39999961853</ele>
        <time>2013-03-30T21:28:05.000Z</time>
      </trkpt>
      <trkpt lat="49.48557" lon="0.46525">
        <ele>10.800000190735</ele>
        <time>2013-03-30T21:28:07.000Z</time>
      </trkpt>
      <trkpt lat="49.48554" lon="0.46525">
        <ele>11.199999809265</ele>
        <time>2013-03-30T21:28:14.000Z</time>
      </trkpt>
      <trkpt lat="49.48554" lon="0.46526">
        <ele>11</ele>
        <time>2013-03-30T21:28:31.000Z</time>
      </trkpt>
      <trkpt lat="49.48557" lon="0.46519">
        <ele>11.199999809265</ele>
        <time>2013-03-30T21:28:34.000Z</time>
      </trkpt>
      <trkpt lat="49.48548" lon="0.46504">
        <ele>13.60000038147</ele>
        <time>2013-03-30T21:28:40.000Z</time>
      </trkpt>
      <trkpt lat="49.48546" lon="0.46505">
        <ele>13.800000190735</ele>
        <time>2013-03-30T21:28:42.000Z</time>
      </trkpt>
      <trkpt lat="49.48543" lon="0.46503">
        <ele>14.39999961853</ele>
        <time>2013-03-30T21:28:44.000Z</time>
      </trkpt>
      <trkpt lat="49.48542" lon="0.46498">
        <ele>15</ele>
        <time>2013-03-30T21:28:47.000Z</time>
      </trkpt>
      <trkpt lat="49.48541" lon="0.4649">
        <ele>15.800000190735</ele>
        <time>2013-03-30T21:28:52.000Z</time>
      </trkpt>
      <trkpt lat="49.4854" lon="0.46487">
        <ele>16.200000762939</ele>
        <time>2013-03-30T21:28:55.000Z</time>
      </trkpt>
      <trkpt lat="49.48538" lon="0.46483">
        <ele>16.799999237061</ele>
        <time>2013-03-30T21:28:57.000Z</time>
      </trkpt>
      <trkpt lat="49.48534" lon="0.46478">
        <ele>17.799999237061</ele>
        <time>2013-03-30T21:29:02.000Z</time>
      </trkpt>
      <trkpt lat="49.48532" lon="0.46476">
        <ele>18.200000762939</ele>
        <time>2013-03-30T21:29:04.000Z</time>
      </trkpt>
      <trkpt lat="49.48528" lon="0.46469">
        <ele>19.200000762939</ele>
        <time>2013-03-30T21:29:14.000Z</time>
      </trkpt>
      <trkpt lat="49.48519" lon="0.46463">
        <ele>20.60000038147</ele>
        <time>2013-03-30T21:29:20.000Z</time>
      </trkpt>
      <trkpt lat="49.48517" lon="0.46461">
        <ele>20.799999237061</ele>
        <time>2013-03-30T21:29:21.000Z</time>
      </trkpt>
      <trkpt lat="49.48515" lon="0.46459">
        <ele>21.200000762939</ele>
        <time>2013-03-30T21:29:23.000Z</time>
      </trkpt>
      <trkpt lat="49.48514" lon="0.46458">
        <ele>21.39999961853</ele>
        <time>2013-03-30T21:29:25.000Z</time>
      </trkpt>
      <trkpt lat="49.48507" lon="0.46454">
        <ele>22.39999961853</ele>
        <time>2013-03-30T21:29:31.000Z</time>
      </trkpt>
      <trkpt lat="49.48506" lon="0.46454">
        <ele>22.60000038147</ele>
        <time>2013-03-30T21:29:32.000Z</time>
      </trkpt>
      <trkpt lat="49.48504" lon="0.46458">
        <ele>22.39999961853</ele>
        <time>2013-03-30T21:29:38.000Z</time>
      </trkpt>
      <trkpt lat="49.48505" lon="0.4646">
        <ele>22.39999961853</ele>
        <time>2013-03-30T21:29:39.000Z</time>
      </trkpt>
      <trkpt lat="49.48508" lon="0.46463">
        <ele>21.799999237061</ele>
        <time>2013-03-30T21:29:43.000Z</time>
      </trkpt>
      <trkpt lat="49.4851" lon="0.46464">
        <ele>21.39999961853</ele>
        <time>2013-03-30T21:29:45.000Z</time>
      </trkpt>
      <trkpt lat="49.48517" lon="0.46471">
        <ele>20.200000762939</ele>
        <time>2013-03-30T21:29:52.000Z</time>
      </trkpt>
      <trkpt lat="49.48517" lon="0.46476">
        <ele>20</ele>
        <time>2013-03-30T21:29:57.000Z</time>
      </trkpt>
      <trkpt lat="49.48516" lon="0.46479">
        <ele>20</ele>
        <time>2013-03-30T21:29:59.000Z</time>
      </trkpt>
      <trkpt lat="49.48513" lon="0.46485">
        <ele>20</ele>
        <time>2013-03-30T21:30:04.000Z</time>
      </trkpt>
      <trkpt lat="49.48511" lon="0.46487">
        <ele>20</ele>
        <time>2013-03-30T21:30:07.000Z</time>
      </trkpt>
      <trkpt lat="49.48509" lon="0.4649">
        <ele>20.200000762939</ele>
        <time>2013-03-30T21:30:08.000Z</time>
      </trkpt>
      <trkpt lat="49.48502" lon="0.46492">
        <ele>21</ele>
        <time>2013-03-30T21:30:13.000Z</time>
      </trkpt>
      <trkpt lat="49.48498" lon="0.46493">
        <ele>21.39999961853</ele>
        <time>2013-03-30T21:30:21.000Z</time>
      </trkpt>
      <trkpt lat="49.48495" lon="0.46491">
        <ele>21.60000038147</ele>
        <time>2013-03-30T21:30:25.000Z</time>
      </trkpt>
      <trkpt lat="49.4849" lon="0.46493">
        <ele>21.60000038147</ele>
        <time>2013-03-30T21:30:29.000Z</time>
      </trkpt>
      <trkpt lat="49.48489" lon="0.46493">
        <ele>21.60000038147</ele>
        <time>2013-03-30T21:30:31.000Z</time>
      </trkpt>
      <trkpt lat="49.48487" lon="0.46493">
        <ele>21.60000038147</ele>
        <time>2013-03-30T21:30:34.000Z</time>
      </trkpt>
      <trkpt lat="49.48485" lon="0.46494">
        <ele>21.60000038147</ele>
        <time>2013-03-30T21:30:36.000Z</time>
      </trkpt>
      <trkpt lat="49.48479" lon="0.46492">
        <ele>22</ele>
        <time>2013-03-30T21:30:42.000Z</time>
      </trkpt>
      <trkpt lat="49.48477" lon="0.46491">
        <ele>22.200000762939</ele>
        <time>2013-03-30T21:30:49.000Z</time>
      </trkpt>
      <trkpt lat="49.48468" lon="0.46489">
        <ele>22.60000038147</ele>
        <time>2013-03-30T21:30:55.000Z</time>
      </trkpt>
      <trkpt lat="49.48467" lon="0.46488">
        <ele>22.799999237061</ele>
        <time>2013-03-30T21:30:56.000Z</time>
      </trkpt>
      <trkpt lat="49.48464" lon="0.46486">
        <ele>23</ele>
        <time>2013-03-30T21:30:59.000Z</time>
      </trkpt>
      <trkpt lat="49.48461" lon="0.46486">
        <ele>23.200000762939</ele>
        <time>2013-03-30T21:31:07.000Z</time>
      </trkpt>
      <trkpt lat="49.48458" lon="0.46486">
        <ele>23.39999961853</ele>
        <time>2013-03-30T21:31:09.000Z</time>
      </trkpt>
      <trkpt lat="49.48444" lon="0.46483">
        <ele>24.39999961853</ele>
        <time>2013-03-30T21:31:16.000Z</time>
      </trkpt>
      <trkpt lat="49.48442" lon="0.46481">
        <ele>24.60000038147</ele>
        <time>2013-03-30T21:31:18.000Z</time>
      </trkpt>
      <trkpt lat="49.48435" lon="0.46483">
        <ele>24.799999237061</ele>
        <time>2013-03-30T21:31:24.000Z</time>
      </trkpt>
      <trkpt lat="49.48434" lon="0.46483">
        <ele>24.799999237061</ele>
        <time>2013-03-30T21:31:25.000Z</time>
      </trkpt>
      <trkpt lat="49.48433" lon="0.46482">
        <ele>25</ele>
        <time>2013-03-30T21:31:27.000Z</time>
      </trkpt>
      <trkpt lat="49.48431" lon="0.46483">
        <ele>25</ele>
        <time>2013-03-30T21:31:30.000Z</time>
      </trkpt>
      <trkpt lat="49.48427" lon="0.46481">
        <ele>25.39999961853</ele>
        <time>2013-03-30T21:31:34.000Z</time>
      </trkpt>
      <trkpt lat="49.48425" lon="0.46481">
        <ele>25.60000038147</ele>
        <time>2013-03-30T21:31:37.000Z</time>
      </trkpt>
      <trkpt lat="49.48421" lon="0.46479">
        <ele>26</ele>
        <time>2013-03-30T21:31:41.000Z</time>
      </trkpt>
      <trkpt lat="49.48418" lon="0.46476">
        <ele>26.60000038147</ele>
        <time>2013-03-30T21:31:45.000Z</time>
      </trkpt>
      <trkpt lat="49.48416" lon="0.46474">
        <ele>26.799999237061</ele>
        <time>2013-03-30T21:31:47.000Z</time>
      </trkpt>
      <trkpt lat="49.48414" lon="0.46474">
        <ele>26.799999237061</ele>
        <time>2013-03-30T21:31:50.000Z</time>
      </trkpt>
      <trkpt lat="49.48407" lon="0.46474">
        <ele>26.799999237061</ele>
        <time>2013-03-30T21:31:56.000Z</time>
      </trkpt>
      <trkpt lat="49.48403" lon="0.4647">
        <ele>27.39999961853</ele>
        <time>2013-03-30T21:32:00.000Z</time>
      </trkpt>
      <trkpt lat="49.48401" lon="0.46469">
        <ele>27.60000038147</ele>
        <time>2013-03-30T21:32:01.000Z</time>
      </trkpt>
      <trkpt lat="49.48399" lon="0.46468">
        <ele>27.799999237061</ele>
        <time>2013-03-30T21:32:03.000Z</time>
      </trkpt>
      <trkpt lat="49.48394" lon="0.46467">
        <ele>27.799999237061</ele>
        <time>2013-03-30T21:32:08.000Z</time>
      </trkpt>
      <trkpt lat="49.48392" lon="0.46465">
        <ele>28.200000762939</ele>
        <time>2013-03-30T21:32:13.000Z</time>
      </trkpt>
      <trkpt lat="49.48391" lon="0.46464">
        <ele>28.39999961853</ele>
        <time>2013-03-30T21:32:14.000Z</time>
      </trkpt>
      <trkpt lat="49.48388" lon="0.46464">
        <ele>28.39999961853</ele>
        <time>2013-03-30T21:32:18.000Z</time>
      </trkpt>
      <trkpt lat="49.48386" lon="0.46463">
        <ele>28.60000038147</ele>
        <time>2013-03-30T21:32:20.000Z</time>
      </trkpt>
      <trkpt lat="49.48382" lon="0.46463">
        <ele>28.60000038147</ele>
        <time>2013-03-30T21:32:25.000Z</time>
      </trkpt>
      <trkpt lat="49.48379" lon="0.4646">
        <ele>29.200000762939</ele>
        <time>2013-03-30T21:32:31.000Z</time>
      </trkpt>
      <trkpt lat="49.48376" lon="0.4646">
        <ele>29.200000762939</ele>
        <time>2013-03-30T21:32:33.000Z</time>
      </trkpt>
      <trkpt lat="49.4837" lon="0.46457">
        <ele>29.799999237061</ele>
        <time>2013-03-30T21:32:37.000Z</time>
      </trkpt>
      <trkpt lat="49.48368" lon="0.46456">
        <ele>30.200000762939</ele>
        <time>2013-03-30T21:32:39.000Z</time>
      </trkpt>
      <trkpt lat="49.48364" lon="0.46454">
        <ele>30.60000038147</ele>
        <time>2013-03-30T21:32:43.000Z</time>
      </trkpt>
      <trkpt lat="49.48363" lon="0.46453">
        <ele>31</ele>
        <time>2013-03-30T21:32:45.000Z</time>
      </trkpt>
      <trkpt lat="49.48361" lon="0.46453">
        <ele>31.200000762939</ele>
        <time>2013-03-30T21:32:47.000Z</time>
      </trkpt>
      <trkpt lat="49.48357" lon="0.46451">
        <ele>31.60000038147</ele>
        <time>2013-03-30T21:32:52.000Z</time>
      </trkpt>
      <trkpt lat="49.48356" lon="0.4645">
        <ele>31.799999237061</ele>
        <time>2013-03-30T21:32:54.000Z</time>
      </trkpt>
      <trkpt lat="49.48351" lon="0.46448">
        <ele>32.400001525879</ele>
        <time>2013-03-30T21:33:01.000Z</time>
      </trkpt>
      <trkpt lat="49.48349" lon="0.46447">
        <ele>32.599998474121</ele>
        <time>2013-03-30T21:33:07.000Z</time>
      </trkpt>
      <trkpt lat="49.4835" lon="0.46446">
        <ele>33</ele>
        <time>2013-03-30T21:33:13.000Z</time>
      </trkpt>
      <trkpt lat="49.48346" lon="0.46445">
        <ele>33.400001525879</ele>
        <time>2013-03-30T21:33:21.000Z</time>
      </trkpt>
      <trkpt lat="49.48346" lon="0.46448">
        <ele>32.599998474121</ele>
        <time>2013-03-30T21:33:30.000Z</time>
      </trkpt>
      <trkpt lat="49.48344" lon="0.4645">
        <ele>32</ele>
        <time>2013-03-30T21:33:38.000Z</time>
      </trkpt>
      <trkpt lat="49.48342" lon="0.46451">
        <ele>31.799999237061</ele>
        <time>2013-03-30T21:33:44.000Z</time>
      </trkpt>
      <trkpt lat="49.48341" lon="0.46454">
        <ele>31.200000762939</ele>
        <time>2013-03-30T21:33:53.000Z</time>
      </trkpt>
      <trkpt lat="49.4834" lon="0.46459">
        <ele>29.799999237061</ele>
        <time>2013-03-30T21:34:00.000Z</time>
      </trkpt>
      <trkpt lat="49.4834" lon="0.46459">
        <ele>29.799999237061</ele>
        <time>2013-03-30T21:34:07.000Z</time>
      </trkpt>
      <trkpt lat="49.4834" lon="0.46456">
        <ele>30.39999961853</ele>
        <time>2013-03-30T21:34:11.000Z</time>
      </trkpt>
      <trkpt lat="49.48336" lon="0.46448">
        <ele>32.799999237061</ele>
        <time>2013-03-30T21:34:47.000Z</time>
      </trkpt>
      <trkpt lat="49.48338" lon="0.46445">
        <ele>33.599998474121</ele>
        <time>2013-03-30T21:34:56.000Z</time>
      </trkpt>
      <trkpt lat="49.4834" lon="0.46443">
        <ele>34.200000762939</ele>
        <time>2013-03-30T21:34:58.000Z</time>
      </trkpt>
      <trkpt lat="49.4834" lon="0.46434">
        <ele>36.799999237061</ele>
        <time>2013-03-30T21:35:05.000Z</time>
      </trkpt>
      <trkpt lat="49.4834" lon="0.46432">
        <ele>37</ele>
        <time>2013-03-30T21:35:07.000Z</time>
      </trkpt>
      <trkpt lat="49.4834" lon="0.46431">
        <ele>37.400001525879</ele>
        <time>2013-03-30T21:35:08.000Z</time>
      </trkpt>
      <trkpt lat="49.48339" lon="0.46427">
        <ele>38.599998474121</ele>
        <time>2013-03-30T21:35:14.000Z</time>
      </trkpt>
      <trkpt lat="49.4834" lon="0.46425">
        <ele>39</ele>
        <time>2013-03-30T21:35:25.000Z</time>
      </trkpt>
      <trkpt lat="49.48339" lon="0.46424">
        <ele>39.599998474121</ele>
        <time>2013-03-30T21:35:31.000Z</time>
      </trkpt>
      <trkpt lat="49.48337" lon="0.46412">
        <ele>42.200000762939</ele>
        <time>2013-03-30T21:35:49.000Z</time>
      </trkpt>
      <trkpt lat="49.48336" lon="0.4641">
        <ele>42.799999237061</ele>
        <time>2013-03-30T21:35:51.000Z</time>
      </trkpt>
      <trkpt lat="49.48327" lon="0.46408">
        <ele>43</ele>
        <time>2013-03-30T21:35:56.000Z</time>
      </trkpt>
      <trkpt lat="49.48325" lon="0.46407">
        <ele>43</ele>
        <time>2013-03-30T21:35:57.000Z</time>
      </trkpt>
      <trkpt lat="49.48318" lon="0.46394">
        <ele>44.799999237061</ele>
        <time>2013-03-30T21:36:03.000Z</time>
      </trkpt>
      <trkpt lat="49.48312" lon="0.46385">
        <ele>46.200000762939</ele>
        <time>2013-03-30T21:36:07.000Z</time>
      </trkpt>
      <trkpt lat="49.4831" lon="0.46372">
        <ele>48.400001525879</ele>
        <time>2013-03-30T21:36:12.000Z</time>
      </trkpt>
      <trkpt lat="49.48306" lon="0.46361">
        <ele>50.400001525879</ele>
        <time>2013-03-30T21:36:17.000Z</time>
      </trkpt>
      <trkpt lat="49.48305" lon="0.46358">
        <ele>50.799999237061</ele>
        <time>2013-03-30T21:36:18.000Z</time>
      </trkpt>
      <trkpt lat="49.48303" lon="0.46353">
        <ele>51.799999237061</ele>
        <time>2013-03-30T21:36:22.000Z</time>
      </trkpt>
      <trkpt lat="49.48303" lon="0.46352">
        <ele>52</ele>
        <time>2013-03-30T21:36:23.000Z</time>
      </trkpt>
      <trkpt lat="49.483" lon="0.4634">
        <ele>54.200000762939</ele>
        <time>2013-03-30T21:36:29.000Z</time>
      </trkpt>
      <trkpt lat="49.483" lon="0.46329">
        <ele>55.799999237061</ele>
        <time>2013-03-30T21:36:34.000Z</time>
      </trkpt>
      <trkpt lat="49.483" lon="0.46326">
        <ele>56</ele>
        <time>2013-03-30T21:36:39.000Z</time>
      </trkpt>
      <trkpt lat="49.48299" lon="0.46324">
        <ele>56</ele>
        <time>2013-03-30T21:36:40.000Z</time>
      </trkpt>
      <trkpt lat="49.48302" lon="0.46317">
        <ele>56.200000762939</ele>
        <time>2013-03-30T21:36:45.000Z</time>
      </trkpt>
      <trkpt lat="49.48303" lon="0.46312">
        <ele>56.400001525879</ele>
        <time>2013-03-30T21:36:49.000Z</time>
      </trkpt>
      <trkpt lat="49.48302" lon="0.4631">
        <ele>56.599998474121</ele>
        <time>2013-03-30T21:36:55.000Z</time>
      </trkpt>
      <trkpt lat="49.48306" lon="0.46307">
        <ele>56.400001525879</ele>
        <time>2013-03-30T21:37:08.000Z</time>
      </trkpt>
      <trkpt lat="49.48314" lon="0.46298">
        <ele>56</ele>
        <time>2013-03-30T21:37:12.000Z</time>
      </trkpt>
      <trkpt lat="49.48316" lon="0.46296">
        <ele>55.799999237061</ele>
        <time>2013-03-30T21:37:14.000Z</time>
      </trkpt>
      <trkpt lat="49.48323" lon="0.46278">
        <ele>55.599998474121</ele>
        <time>2013-03-30T21:37:21.000Z</time>
      </trkpt>
      <trkpt lat="49.48329" lon="0.46264">
        <ele>55.200000762939</ele>
        <time>2013-03-30T21:37:25.000Z</time>
      </trkpt>
      <trkpt lat="49.48331" lon="0.4626">
        <ele>55</ele>
        <time>2013-03-30T21:37:26.000Z</time>
      </trkpt>
      <trkpt lat="49.48336" lon="0.46245">
        <ele>54.400001525879</ele>
        <time>2013-03-30T21:37:31.000Z</time>
      </trkpt>
      <trkpt lat="49.48338" lon="0.46243">
        <ele>54.200000762939</ele>
        <time>2013-03-30T21:37:33.000Z</time>
      </trkpt>
      <trkpt lat="49.4834" lon="0.46241">
        <ele>54</ele>
        <time>2013-03-30T21:37:36.000Z</time>
      </trkpt>
      <trkpt lat="49.48348" lon="0.4624">
        <ele>53</ele>
        <time>2013-03-30T21:37:41.000Z</time>
      </trkpt>
      <trkpt lat="49.48348" lon="0.46239">
        <ele>53</ele>
        <time>2013-03-30T21:37:42.000Z</time>
      </trkpt>
      <trkpt lat="49.48354" lon="0.46242">
        <ele>52.200000762939</ele>
        <time>2013-03-30T21:37:48.000Z</time>
      </trkpt>
      <trkpt lat="49.48355" lon="0.46243">
        <ele>52</ele>
        <time>2013-03-30T21:37:51.000Z</time>
      </trkpt>
      <trkpt lat="49.48361" lon="0.46253">
        <ele>50.799999237061</ele>
        <time>2013-03-30T21:37:55.000Z</time>
      </trkpt>
      <trkpt lat="49.48377" lon="0.46268">
        <ele>48.200000762939</ele>
        <time>2013-03-30T21:38:02.000Z</time>
      </trkpt>
      <trkpt lat="49.48378" lon="0.4627">
        <ele>48</ele>
        <time>2013-03-30T21:38:03.000Z</time>
      </trkpt>
      <trkpt lat="49.48387" lon="0.46278">
        <ele>46.400001525879</ele>
        <time>2013-03-30T21:38:06.000Z</time>
      </trkpt>
      <trkpt lat="49.48394" lon="0.46287">
        <ele>45</ele>
        <time>2013-03-30T21:38:09.000Z</time>
      </trkpt>
      <trkpt lat="49.48399" lon="0.46289">
        <ele>44.200000762939</ele>
        <time>2013-03-30T21:38:12.000Z</time>
      </trkpt>
      <trkpt lat="49.48407" lon="0.46292">
        <ele>43</ele>
        <time>2013-03-30T21:38:18.000Z</time>
      </trkpt>
      <trkpt lat="49.4841" lon="0.46298">
        <ele>42.200000762939</ele>
        <time>2013-03-30T21:38:22.000Z</time>
      </trkpt>
      <trkpt lat="49.48411" lon="0.463">
        <ele>42</ele>
        <time>2013-03-30T21:38:24.000Z</time>
      </trkpt>
      <trkpt lat="49.48406" lon="0.46304">
        <ele>42.599998474121</ele>
        <time>2013-03-30T21:38:43.000Z</time>
      </trkpt>
      <trkpt lat="49.48405" lon="0.46309">
        <ele>42.599998474121</ele>
        <time>2013-03-30T21:38:49.000Z</time>
      </trkpt>
      <trkpt lat="49.48402" lon="0.46309">
        <ele>43.200000762939</ele>
        <time>2013-03-30T21:38:55.000Z</time>
      </trkpt>
      <trkpt lat="49.48399" lon="0.46307">
        <ele>43.599998474121</ele>
        <time>2013-03-30T21:38:58.000Z</time>
      </trkpt>
      <trkpt lat="49.48396" lon="0.46303">
        <ele>44.200000762939</ele>
        <time>2013-03-30T21:39:04.000Z</time>
      </trkpt>
      <trkpt lat="49.48404" lon="0.46307">
        <ele>42.799999237061</ele>
        <time>2013-03-30T21:40:14.000Z</time>
      </trkpt>
      <trkpt lat="49.48405" lon="0.46307">
        <ele>42.799999237061</ele>
        <time>2013-03-30T21:40:22.000Z</time>
      </trkpt>
      <trkpt lat="49.48401" lon="0.46308">
        <ele>43.400001525879</ele>
        <time>2013-03-30T21:40:35.000Z</time>
      </trkpt>
      <trkpt lat="49.484" lon="0.463">
        <ele>43.799999237061</ele>
        <time>2013-03-30T21:40:40.000Z</time>
      </trkpt>
      <trkpt lat="49.484" lon="0.46294">
        <ele>43.799999237061</ele>
        <time>2013-03-30T21:40:45.000Z</time>
      </trkpt>
      <trkpt lat="49.48399" lon="0.46288">
        <ele>44.200000762939</ele>
        <time>2013-03-30T21:40:50.000Z</time>
      </trkpt>
      <trkpt lat="49.48396" lon="0.46278">
        <ele>45</ele>
        <time>2013-03-30T21:40:55.000Z</time>
      </trkpt>
      <trkpt lat="49.48395" lon="0.46277">
        <ele>45.200000762939</ele>
        <time>2013-03-30T21:40:56.000Z</time>
      </trkpt>
      <trkpt lat="49.48394" lon="0.46274">
        <ele>45.400001525879</ele>
        <time>2013-03-30T21:41:02.000Z</time>
      </trkpt>
      <trkpt lat="49.48395" lon="0.46268">
        <ele>45.599998474121</ele>
        <time>2013-03-30T21:41:08.000Z</time>
      </trkpt>
      <trkpt lat="49.48403" lon="0.46258">
        <ele>44.599998474121</ele>
        <time>2013-03-30T21:41:13.000Z</time>
      </trkpt>
      <trkpt lat="49.48411" lon="0.46256">
        <ele>43.599998474121</ele>
        <time>2013-03-30T21:41:15.000Z</time>
      </trkpt>
      <trkpt lat="49.48423" lon="0.46255">
        <ele>43.200000762939</ele>
        <time>2013-03-30T21:41:25.000Z</time>
      </trkpt>
      <trkpt lat="49.48432" lon="0.46261">
        <ele>43.200000762939</ele>
        <time>2013-03-30T21:41:30.000Z</time>
      </trkpt>
      <trkpt lat="49.48443" lon="0.4627">
        <ele>42.799999237061</ele>
        <time>2013-03-30T21:41:35.000Z</time>
      </trkpt>
      <trkpt lat="49.4845" lon="0.4628">
        <ele>41.799999237061</ele>
        <time>2013-03-30T21:41:39.000Z</time>
      </trkpt>
      <trkpt lat="49.48455" lon="0.46288">
        <ele>40.599998474121</ele>
        <time>2013-03-30T21:41:45.000Z</time>
      </trkpt>
      <trkpt lat="49.48457" lon="0.46292">
        <ele>40.200000762939</ele>
        <time>2013-03-30T21:41:47.000Z</time>
      </trkpt>
      <trkpt lat="49.48467" lon="0.46307">
        <ele>37.400001525879</ele>
        <time>2013-03-30T21:41:51.000Z</time>
      </trkpt>
      <trkpt lat="49.4847" lon="0.4631">
        <ele>36.799999237061</ele>
        <time>2013-03-30T21:41:53.000Z</time>
      </trkpt>
      <trkpt lat="49.48481" lon="0.46326">
        <ele>32.599998474121</ele>
        <time>2013-03-30T21:41:58.000Z</time>
      </trkpt>
      <trkpt lat="49.48497" lon="0.46341">
        <ele>28.799999237061</ele>
        <time>2013-03-30T21:42:04.000Z</time>
      </trkpt>
      <trkpt lat="49.48509" lon="0.46356">
        <ele>29</ele>
        <time>2013-03-30T21:42:08.000Z</time>
      </trkpt>
      <trkpt lat="49.48521" lon="0.46374">
        <ele>28.39999961853</ele>
        <time>2013-03-30T21:42:14.000Z</time>
      </trkpt>
      <trkpt lat="49.48529" lon="0.46391">
        <ele>26.39999961853</ele>
        <time>2013-03-30T21:42:20.000Z</time>
      </trkpt>
      <trkpt lat="49.48536" lon="0.46412">
        <ele>23.200000762939</ele>
        <time>2013-03-30T21:42:25.000Z</time>
      </trkpt>
      <trkpt lat="49.48541" lon="0.46426">
        <ele>21.200000762939</ele>
        <time>2013-03-30T21:42:29.000Z</time>
      </trkpt>
      <trkpt lat="49.48547" lon="0.46445">
        <ele>19</ele>
        <time>2013-03-30T21:42:34.000Z</time>
      </trkpt>
      <trkpt lat="49.48553" lon="0.46475">
        <ele>15.60000038147</ele>
        <time>2013-03-30T21:42:40.000Z</time>
      </trkpt>
      <trkpt lat="49.4856" lon="0.46502">
        <ele>12.199999809265</ele>
        <time>2013-03-30T21:42:48.000Z</time>
      </trkpt>
      <trkpt lat="49.48565" lon="0.46525">
        <ele>10.199999809265</ele>
        <time>2013-03-30T21:42:54.000Z</time>
      </trkpt>
      <trkpt lat="49.48572" lon="0.46546">
        <ele>8.3999996185303</ele>
        <time>2013-03-30T21:43:00.000Z</time>
      </trkpt>
      <trkpt lat="49.48579" lon="0.46565">
        <ele>7.4000000953674</ele>
        <time>2013-03-30T21:43:05.000Z</time>
      </trkpt>
      <trkpt lat="49.4858" lon="0.46568">
        <ele>7.4000000953674</ele>
        <time>2013-03-30T21:43:07.000Z</time>
      </trkpt>
      <trkpt lat="49.4858" lon="0.46583">
        <ele>6.8000001907349</ele>
        <time>2013-03-30T21:43:13.000Z</time>
      </trkpt>
      <trkpt lat="49.48579" lon="0.46585">
        <ele>6.8000001907349</ele>
        <time>2013-03-30T21:43:14.000Z</time>
      </trkpt>
      <trkpt lat="49.48579" lon="0.46586">
        <ele>6.8000001907349</ele>
        <time>2013-03-30T21:43:19.000Z</time>
      </trkpt>
      <trkpt lat="49.48581" lon="0.46598">
        <ele>6.5999999046326</ele>
        <time>2013-03-30T21:43:49.000Z</time>
      </trkpt>
      <trkpt lat="49.48581" lon="0.46599">
        <ele>6.5999999046326</ele>
        <time>2013-03-30T21:43:54.000Z</time>
      </trkpt>
      <trkpt lat="49.4858" lon="0.46596">
        <ele>6.5999999046326</ele>
        <time>2013-03-30T21:45:02.000Z</time>
      </trkpt>
      <trkpt lat="49.48581" lon="0.46593">
        <ele>6.5999999046326</ele>
        <time>2013-03-30T21:45:07.000Z</time>
      </trkpt>
      <trkpt lat="49.48581" lon="0.46596">
        <ele>6.5999999046326</ele>
        <time>2013-03-30T21:45:08.000Z</time>
      </trkpt>
      <trkpt lat="49.48587" lon="0.46607">
        <ele>6.4000000953674</ele>
        <time>2013-03-30T21:45:13.000Z</time>
      </trkpt>
      <trkpt lat="49.48577" lon="0.46609">
        <ele>6.1999998092651</ele>
        <time>2013-03-30T21:45:20.000Z</time>
      </trkpt>
      <trkpt lat="49.48563" lon="0.46603">
        <ele>6.1999998092651</ele>
        <time>2013-03-30T21:45:25.000Z</time>
      </trkpt>
      <trkpt lat="49.48551" lon="0.46597">
        <ele>6.1999998092651</ele>
        <time>2013-03-30T21:45:28.000Z</time>
      </trkpt>
      <trkpt lat="49.48538" lon="0.46591">
        <ele>6.1999998092651</ele>
        <time>2013-03-30T21:45:33.000Z</time>
      </trkpt>
      <trkpt lat="49.48535" lon="0.46595">
        <ele>6.1999998092651</ele>
        <time>2013-03-30T21:45:38.000Z</time>
      </trkpt>
      <trkpt lat="49.48533" lon="0.46596">
        <ele>6</ele>
        <time>2013-03-30T21:45:43.000Z</time>
      </trkpt>
      <trkpt lat="49.48525" lon="0.46603">
        <ele>5.8000001907349</ele>
        <time>2013-03-30T21:45:48.000Z</time>
      </trkpt>
      <trkpt lat="49.48516" lon="0.46601">
        <ele>5.8000001907349</ele>
        <time>2013-03-30T21:45:55.000Z</time>
      </trkpt>
      <trkpt lat="49.48505" lon="0.46596">
        <ele>5.8000001907349</ele>
        <time>2013-03-30T21:45:59.000Z</time>
      </trkpt>
      <trkpt lat="49.48497" lon="0.46591">
        <ele>5.8000001907349</ele>
        <time>2013-03-30T21:46:02.000Z</time>
      </trkpt>
      <trkpt lat="49.48477" lon="0.46576">
        <ele>7</ele>
        <time>2013-03-30T21:46:10.000Z</time>
      </trkpt>
      <trkpt lat="49.48466" lon="0.46571">
        <ele>8</ele>
        <time>2013-03-30T21:46:14.000Z</time>
      </trkpt>
      <trkpt lat="49.48446" lon="0.46564">
        <ele>9.1999998092651</ele>
        <time>2013-03-30T21:46:21.000Z</time>
      </trkpt>
      <trkpt lat="49.48429" lon="0.46558">
        <ele>10.199999809265</ele>
        <time>2013-03-30T21:46:27.000Z</time>
      </trkpt>
      <trkpt lat="49.48415" lon="0.46547">
        <ele>12.60000038147</ele>
        <time>2013-03-30T21:46:34.000Z</time>
      </trkpt>
      <trkpt lat="49.48404" lon="0.46537">
        <ele>14.39999961853</ele>
        <time>2013-03-30T21:46:38.000Z</time>
      </trkpt>
      <trkpt lat="49.484" lon="0.46531">
        <ele>15.39999961853</ele>
        <time>2013-03-30T21:46:40.000Z</time>
      </trkpt>
      <trkpt lat="49.48394" lon="0.46521">
        <ele>17.200000762939</ele>
        <time>2013-03-30T21:46:45.000Z</time>
      </trkpt>
      <trkpt lat="49.48377" lon="0.46516">
        <ele>17.39999961853</ele>
        <time>2013-03-30T21:46:53.000Z</time>
      </trkpt>
      <trkpt lat="49.48364" lon="0.4651">
        <ele>18</ele>
        <time>2013-03-30T21:46:58.000Z</time>
      </trkpt>
      <trkpt lat="49.48349" lon="0.46504">
        <ele>18</ele>
        <time>2013-03-30T21:47:04.000Z</time>
      </trkpt>
      <trkpt lat="49.48337" lon="0.46499">
        <ele>18.39999961853</ele>
        <time>2013-03-30T21:47:08.000Z</time>
      </trkpt>
      <trkpt lat="49.48322" lon="0.465">
        <ele>17</ele>
        <time>2013-03-30T21:47:14.000Z</time>
      </trkpt>
      <trkpt lat="49.48307" lon="0.46501">
        <ele>15.800000190735</ele>
        <time>2013-03-30T21:47:20.000Z</time>
      </trkpt>
      <trkpt lat="49.48287" lon="0.4649">
        <ele>17.60000038147</ele>
        <time>2013-03-30T21:47:29.000Z</time>
      </trkpt>
      <trkpt lat="49.48274" lon="0.46487">
        <ele>17.60000038147</ele>
        <time>2013-03-30T21:47:34.000Z</time>
      </trkpt>
      <trkpt lat="49.48254" lon="0.46486">
        <ele>16.39999961853</ele>
        <time>2013-03-30T21:47:40.000Z</time>
      </trkpt>
      <trkpt lat="49.48244" lon="0.46489">
        <ele>15.39999961853</ele>
        <time>2013-03-30T21:47:44.000Z</time>
      </trkpt>
      <trkpt lat="49.48243" lon="0.4649">
        <ele>15.199999809265</ele>
        <time>2013-03-30T21:47:45.000Z</time>
      </trkpt>
      <trkpt lat="49.48236" lon="0.46496">
        <ele>13</ele>
        <time>2013-03-30T21:47:52.000Z</time>
      </trkpt>
      <trkpt lat="49.48232" lon="0.46499">
        <ele>12.199999809265</ele>
        <time>2013-03-30T21:47:54.000Z</time>
      </trkpt>
      <trkpt lat="49.48228" lon="0.46499">
        <ele>12</ele>
        <time>2013-03-30T21:47:55.000Z</time>
      </trkpt>
      <trkpt lat="49.48222" lon="0.46494">
        <ele>13.800000190735</ele>
        <time>2013-03-30T21:47:59.000Z</time>
      </trkpt>
      <trkpt lat="49.48209" lon="0.46491">
        <ele>15</ele>
        <time>2013-03-30T21:48:04.000Z</time>
      </trkpt>
      <trkpt lat="49.48193" lon="0.46494">
        <ele>14.199999809265</ele>
        <time>2013-03-30T21:48:10.000Z</time>
      </trkpt>
      <trkpt lat="49.48194" lon="0.46499">
        <ele>12.39999961853</ele>
        <time>2013-03-30T21:48:14.000Z</time>
      </trkpt>
      <trkpt lat="49.48198" lon="0.46504">
        <ele>11.60000038147</ele>
        <time>2013-03-30T21:48:18.000Z</time>
      </trkpt>
      <trkpt lat="49.48203" lon="0.46509">
        <ele>11.199999809265</ele>
        <time>2013-03-30T21:48:22.000Z</time>
      </trkpt>
      <trkpt lat="49.48205" lon="0.4651">
        <ele>11</ele>
        <time>2013-03-30T21:48:23.000Z</time>
      </trkpt>
      <trkpt lat="49.48214" lon="0.46521">
        <ele>10.199999809265</ele>
        <time>2013-03-30T21:48:28.000Z</time>
      </trkpt>
      <trkpt lat="49.48215" lon="0.46545">
        <ele>8.1999998092651</ele>
        <time>2013-03-30T21:48:34.000Z</time>
      </trkpt>
      <trkpt lat="49.48214" lon="0.4655">
        <ele>7.8000001907349</ele>
        <time>2013-03-30T21:48:35.000Z</time>
      </trkpt>
      <trkpt lat="49.48205" lon="0.46566">
        <ele>6.4000000953674</ele>
        <time>2013-03-30T21:48:42.000Z</time>
      </trkpt>
      <trkpt lat="49.48204" lon="0.46567">
        <ele>6.1999998092651</ele>
        <time>2013-03-30T21:48:43.000Z</time>
      </trkpt>
      <trkpt lat="49.482" lon="0.46571">
        <ele>6</ele>
        <time>2013-03-30T21:48:45.000Z</time>
      </trkpt>
      <trkpt lat="49.48187" lon="0.46589">
        <ele>4.8000001907349</ele>
        <time>2013-03-30T21:48:53.000Z</time>
      </trkpt>
      <trkpt lat="49.48176" lon="0.46605">
        <ele>4.5999999046326</ele>
        <time>2013-03-30T21:48:59.000Z</time>
      </trkpt>
      <trkpt lat="49.48166" lon="0.46617">
        <ele>4.5999999046326</ele>
        <time>2013-03-30T21:49:05.000Z</time>
      </trkpt>
      <trkpt lat="49.48155" lon="0.46632">
        <ele>4.5999999046326</ele>
        <time>2013-03-30T21:49:10.000Z</time>
      </trkpt>
      <trkpt lat="49.48145" lon="0.46645">
        <ele>4.8000001907349</ele>
        <time>2013-03-30T21:49:17.000Z</time>
      </trkpt>
      <trkpt lat="49.48137" lon="0.46656">
        <ele>5</ele>
        <time>2013-03-30T21:49:21.000Z</time>
      </trkpt>
      <trkpt lat="49.48128" lon="0.46669">
        <ele>5.1999998092651</ele>
        <time>2013-03-30T21:49:27.000Z</time>
      </trkpt>
      <trkpt lat="49.48127" lon="0.46672">
        <ele>5.1999998092651</ele>
        <time>2013-03-30T21:49:33.000Z</time>
      </trkpt>
      <trkpt lat="49.48126" lon="0.46674">
        <ele>5.1999998092651</ele>
        <time>2013-03-30T21:49:41.000Z</time>
      </trkpt>
      <trkpt lat="49.48125" lon="0.46675">
        <ele>5.1999998092651</ele>
        <time>2013-03-30T21:50:04.000Z</time>
      </trkpt>
      <trkpt lat="49.48119" lon="0.46672">
        <ele>5.5999999046326</ele>
        <time>2013-03-30T21:50:09.000Z</time>
      </trkpt>
      <trkpt lat="49.48118" lon="0.4667">
        <ele>5.5999999046326</ele>
        <time>2013-03-30T21:50:10.000Z</time>
      </trkpt>
      <trkpt lat="49.48113" lon="0.46661">
        <ele>5.8000001907349</ele>
        <time>2013-03-30T21:50:14.000Z</time>
      </trkpt>
      <trkpt lat="49.48106" lon="0.46649">
        <ele>6.1999998092651</ele>
        <time>2013-03-30T21:50:20.000Z</time>
      </trkpt>
      <trkpt lat="49.481" lon="0.46637">
        <ele>6.4000000953674</ele>
        <time>2013-03-30T21:50:25.000Z</time>
      </trkpt>
      <trkpt lat="49.48093" lon="0.46622">
        <ele>6.5999999046326</ele>
        <time>2013-03-30T21:50:30.000Z</time>
      </trkpt>
      <trkpt lat="49.48092" lon="0.46618">
        <ele>6.5999999046326</ele>
        <time>2013-03-30T21:50:32.000Z</time>
      </trkpt>
      <trkpt lat="49.48087" lon="0.46607">
        <ele>6.8000001907349</ele>
        <time>2013-03-30T21:50:37.000Z</time>
      </trkpt>
      <trkpt lat="49.48086" lon="0.46606">
        <ele>6.8000001907349</ele>
        <time>2013-03-30T21:50:38.000Z</time>
      </trkpt>
      <trkpt lat="49.4808" lon="0.46609">
        <ele>7</ele>
        <time>2013-03-30T21:50:44.000Z</time>
      </trkpt>
      <trkpt lat="49.48075" lon="0.46615">
        <ele>7.1999998092651</ele>
        <time>2013-03-30T21:50:48.000Z</time>
      </trkpt>
      <trkpt lat="49.48071" lon="0.46625">
        <ele>7.1999998092651</ele>
        <time>2013-03-30T21:50:52.000Z</time>
      </trkpt>
      <trkpt lat="49.48069" lon="0.46629">
        <ele>7.1999998092651</ele>
        <time>2013-03-30T21:50:55.000Z</time>
      </trkpt>
      <trkpt lat="49.48069" lon="0.4663">
        <ele>7.1999998092651</ele>
        <time>2013-03-30T21:50:56.000Z</time>
      </trkpt>
      <trkpt lat="49.48067" lon="0.46629">
        <ele>7.1999998092651</ele>
        <time>2013-03-30T21:50:59.000Z</time>
      </trkpt>
      <trkpt lat="49.48064" lon="0.46622">
        <ele>7.4000000953674</ele>
        <time>2013-03-30T21:51:02.000Z</time>
      </trkpt>
      <trkpt lat="49.48062" lon="0.46618">
        <ele>7.4000000953674</ele>
        <time>2013-03-30T21:51:05.000Z</time>
      </trkpt>
      <trkpt lat="49.48058" lon="0.46614">
        <ele>7.5999999046326</ele>
        <time>2013-03-30T21:51:08.000Z</time>
      </trkpt>
      <trkpt lat="49.48057" lon="0.46612">
        <ele>7.5999999046326</ele>
        <time>2013-03-30T21:51:10.000Z</time>
      </trkpt>
      <trkpt lat="49.48051" lon="0.46602">
        <ele>8</ele>
        <time>2013-03-30T21:51:15.000Z</time>
      </trkpt>
      <trkpt lat="49.48045" lon="0.46594">
        <ele>8.1999998092651</ele>
        <time>2013-03-30T21:51:20.000Z</time>
      </trkpt>
      <trkpt lat="49.48039" lon="0.46586">
        <ele>8.3999996185303</ele>
        <time>2013-03-30T21:51:25.000Z</time>
      </trkpt>
      <trkpt lat="49.48033" lon="0.46569">
        <ele>9.1999998092651</ele>
        <time>2013-03-30T21:51:30.000Z</time>
      </trkpt>
      <trkpt lat="49.48023" lon="0.46545">
        <ele>10.199999809265</ele>
        <time>2013-03-30T21:51:37.000Z</time>
      </trkpt>
      <trkpt lat="49.48014" lon="0.46529">
        <ele>10.60000038147</ele>
        <time>2013-03-30T21:51:40.000Z</time>
      </trkpt>
      <trkpt lat="49.48008" lon="0.46515">
        <ele>10.800000190735</ele>
        <time>2013-03-30T21:51:45.000Z</time>
      </trkpt>
      <trkpt lat="49.48026" lon="0.46508">
        <ele>11.199999809265</ele>
        <time>2013-03-30T21:51:53.000Z</time>
      </trkpt>
      <trkpt lat="49.4804" lon="0.46508">
        <ele>11.60000038147</ele>
        <time>2013-03-30T21:51:58.000Z</time>
      </trkpt>
      <trkpt lat="49.48043" lon="0.46506">
        <ele>11.60000038147</ele>
        <time>2013-03-30T21:51:59.000Z</time>
      </trkpt>
      <trkpt lat="49.4806" lon="0.46503">
        <ele>12.199999809265</ele>
        <time>2013-03-30T21:52:05.000Z</time>
      </trkpt>
      <trkpt lat="49.48071" lon="0.46501">
        <ele>12.60000038147</ele>
        <time>2013-03-30T21:52:10.000Z</time>
      </trkpt>
      <trkpt lat="49.48086" lon="0.46499">
        <ele>13.199999809265</ele>
        <time>2013-03-30T21:52:16.000Z</time>
      </trkpt>
      <trkpt lat="49.48093" lon="0.46499">
        <ele>13</ele>
        <time>2013-03-30T21:52:20.000Z</time>
      </trkpt>
      <trkpt lat="49.48101" lon="0.46502">
        <ele>12.60000038147</ele>
        <time>2013-03-30T21:52:26.000Z</time>
      </trkpt>
      <trkpt lat="49.48099" lon="0.46502">
        <ele>12.60000038147</ele>
        <time>2013-03-30T21:52:29.000Z</time>
      </trkpt>
      <trkpt lat="49.48095" lon="0.46496">
        <ele>14</ele>
        <time>2013-03-30T21:52:35.000Z</time>
      </trkpt>
      <trkpt lat="49.48102" lon="0.46493">
        <ele>14.60000038147</ele>
        <time>2013-03-30T21:52:38.000Z</time>
      </trkpt>
      <trkpt lat="49.48108" lon="0.46492">
        <ele>15.199999809265</ele>
        <time>2013-03-30T21:52:41.000Z</time>
      </trkpt>
      <trkpt lat="49.48119" lon="0.46491">
        <ele>15.39999961853</ele>
        <time>2013-03-30T21:52:45.000Z</time>
      </trkpt>
      <trkpt lat="49.48138" lon="0.46486">
        <ele>17.200000762939</ele>
        <time>2013-03-30T21:52:51.000Z</time>
      </trkpt>
      <trkpt lat="49.48155" lon="0.46483">
        <ele>18.39999961853</ele>
        <time>2013-03-30T21:52:57.000Z</time>
      </trkpt>
      <trkpt lat="49.48176" lon="0.46479">
        <ele>19.799999237061</ele>
        <time>2013-03-30T21:53:04.000Z</time>
      </trkpt>
      <trkpt lat="49.48186" lon="0.46477">
        <ele>20</ele>
        <time>2013-03-30T21:53:08.000Z</time>
      </trkpt>
      <trkpt lat="49.48188" lon="0.4648">
        <ele>19</ele>
        <time>2013-03-30T21:53:09.000Z</time>
      </trkpt>
      <trkpt lat="49.48196" lon="0.4649">
        <ele>15.39999961853</ele>
        <time>2013-03-30T21:53:13.000Z</time>
      </trkpt>
      <trkpt lat="49.48201" lon="0.46494">
        <ele>14</ele>
        <time>2013-03-30T21:53:18.000Z</time>
      </trkpt>
      <trkpt lat="49.48205" lon="0.46499">
        <ele>12.39999961853</ele>
        <time>2013-03-30T21:53:42.000Z</time>
      </trkpt>
      <trkpt lat="49.48207" lon="0.46503">
        <ele>11.60000038147</ele>
        <time>2013-03-30T21:53:48.000Z</time>
      </trkpt>
      <trkpt lat="49.48212" lon="0.46507">
        <ele>11.199999809265</ele>
        <time>2013-03-30T21:53:53.000Z</time>
      </trkpt>
      <trkpt lat="49.48212" lon="0.46508">
        <ele>11.199999809265</ele>
        <time>2013-03-30T21:53:54.000Z</time>
      </trkpt>
      <trkpt lat="49.48212" lon="0.46508">
        <ele>11.199999809265</ele>
        <time>2013-03-30T21:53:55.000Z</time>
      </trkpt>
      <trkpt lat="49.4821" lon="0.46509">
        <ele>11.199999809265</ele>
        <time>2013-03-30T21:53:58.000Z</time>
      </trkpt>
      <trkpt lat="49.48201" lon="0.46503">
        <ele>11.60000038147</ele>
        <time>2013-03-30T21:54:03.000Z</time>
      </trkpt>
      <trkpt lat="49.48199" lon="0.46501">
        <ele>11.800000190735</ele>
        <time>2013-03-30T21:54:04.000Z</time>
      </trkpt>
      <trkpt lat="49.48192" lon="0.4649">
        <ele>15.39999961853</ele>
        <time>2013-03-30T21:54:08.000Z</time>
      </trkpt>
      <trkpt lat="49.48186" lon="0.46483">
        <ele>18</ele>
        <time>2013-03-30T21:54:11.000Z</time>
      </trkpt>
      <trkpt lat="49.48173" lon="0.46485">
        <ele>17.200000762939</ele>
        <time>2013-03-30T21:54:16.000Z</time>
      </trkpt>
      <trkpt lat="49.48164" lon="0.46487">
        <ele>16.799999237061</ele>
        <time>2013-03-30T21:54:20.000Z</time>
      </trkpt>
      <trkpt lat="49.48152" lon="0.4649">
        <ele>15.800000190735</ele>
        <time>2013-03-30T21:54:25.000Z</time>
      </trkpt>
      <trkpt lat="49.48139" lon="0.4649">
        <ele>15.60000038147</ele>
        <time>2013-03-30T21:54:30.000Z</time>
      </trkpt>
      <trkpt lat="49.48126" lon="0.46493">
        <ele>14.800000190735</ele>
        <time>2013-03-30T21:54:35.000Z</time>
      </trkpt>
      <trkpt lat="49.48113" lon="0.46496">
        <ele>13.60000038147</ele>
        <time>2013-03-30T21:54:40.000Z</time>
      </trkpt>
      <trkpt lat="49.48111" lon="0.46496">
        <ele>13.800000190735</ele>
        <time>2013-03-30T21:54:44.000Z</time>
      </trkpt>
      <trkpt lat="49.48111" lon="0.46497">
        <ele>13.60000038147</ele>
        <time>2013-03-30T21:55:09.000Z</time>
      </trkpt>
      <trkpt lat="49.48118" lon="0.46496">
        <ele>13.800000190735</ele>
        <time>2013-03-30T21:55:16.000Z</time>
      </trkpt>
      <trkpt lat="49.48129" lon="0.46497">
        <ele>13.39999961853</ele>
        <time>2013-03-30T21:55:20.000Z</time>
      </trkpt>
      <trkpt lat="49.48122" lon="0.46508">
        <ele>11.800000190735</ele>
        <time>2013-03-30T21:55:24.000Z</time>
      </trkpt>
      <trkpt lat="49.48113" lon="0.46523">
        <ele>10.800000190735</ele>
        <time>2013-03-30T21:55:29.000Z</time>
      </trkpt>
      <trkpt lat="49.481" lon="0.46544">
        <ele>9.3999996185303</ele>
        <time>2013-03-30T21:55:36.000Z</time>
      </trkpt>
      <trkpt lat="49.4809" lon="0.4655">
        <ele>9.1999998092651</ele>
        <time>2013-03-30T21:55:41.000Z</time>
      </trkpt>
      <trkpt lat="49.48081" lon="0.46552">
        <ele>9.1999998092651</ele>
        <time>2013-03-30T21:55:45.000Z</time>
      </trkpt>
      <trkpt lat="49.48077" lon="0.46551">
        <ele>9.3999996185303</ele>
        <time>2013-03-30T21:55:49.000Z</time>
      </trkpt>
      <trkpt lat="49.48062" lon="0.46552">
        <ele>9.3999996185303</ele>
        <time>2013-03-30T21:55:55.000Z</time>
      </trkpt>
      <trkpt lat="49.48062" lon="0.46552">
        <ele>9.3999996185303</ele>
        <time>2013-03-30T21:55:56.000Z</time>
      </trkpt>
      <trkpt lat="49.48059" lon="0.46548">
        <ele>9.8000001907349</ele>
        <time>2013-03-30T21:55:59.000Z</time>
      </trkpt>
      <trkpt lat="49.48054" lon="0.46533">
        <ele>10.39999961853</ele>
        <time>2013-03-30T21:56:03.000Z</time>
      </trkpt>
      <trkpt lat="49.48047" lon="0.46511">
        <ele>11.60000038147</ele>
        <time>2013-03-30T21:56:09.000Z</time>
      </trkpt>
      <trkpt lat="49.48046" lon="0.46509">
        <ele>11.60000038147</ele>
        <time>2013-03-30T21:56:10.000Z</time>
      </trkpt>
      <trkpt lat="49.4803" lon="0.4651">
        <ele>11.199999809265</ele>
        <time>2013-03-30T21:56:16.000Z</time>
      </trkpt>
      <trkpt lat="49.48027" lon="0.46511">
        <ele>11.199999809265</ele>
        <time>2013-03-30T21:56:17.000Z</time>
      </trkpt>
      <trkpt lat="49.48012" lon="0.46511">
        <ele>11</ele>
        <time>2013-03-30T21:56:23.000Z</time>
      </trkpt>
      <trkpt lat="49.48006" lon="0.46513">
        <ele>10.800000190735</ele>
        <time>2013-03-30T21:56:25.000Z</time>
      </trkpt>
      <trkpt lat="49.48009" lon="0.46528">
        <ele>10.60000038147</ele>
        <time>2013-03-30T21:56:29.000Z</time>
      </trkpt>
      <trkpt lat="49.48019" lon="0.46552">
        <ele>10</ele>
        <time>2013-03-30T21:56:36.000Z</time>
      </trkpt>
      <trkpt lat="49.48031" lon="0.46572">
        <ele>9.1999998092651</ele>
        <time>2013-03-30T21:56:42.000Z</time>
      </trkpt>
      <trkpt lat="49.48044" lon="0.46594">
        <ele>8.1999998092651</ele>
        <time>2013-03-30T21:56:49.000Z</time>
      </trkpt>
      <trkpt lat="49.48054" lon="0.46616">
        <ele>7.5999999046326</ele>
        <time>2013-03-30T21:56:56.000Z</time>
      </trkpt>
      <trkpt lat="49.48063" lon="0.46639">
        <ele>7.4000000953674</ele>
        <time>2013-03-30T21:57:03.000Z</time>
      </trkpt>
      <trkpt lat="49.48067" lon="0.46647">
        <ele>7.1999998092651</ele>
        <time>2013-03-30T21:57:09.000Z</time>
      </trkpt>
      <trkpt lat="49.48069" lon="0.46651">
        <ele>7.1999998092651</ele>
        <time>2013-03-30T21:57:16.000Z</time>
      </trkpt>
      <trkpt lat="49.48073" lon="0.46659">
        <ele>7</ele>
        <time>2013-03-30T21:57:24.000Z</time>
      </trkpt>
      <trkpt lat="49.48079" lon="0.46672">
        <ele>6.8000001907349</ele>
        <time>2013-03-30T21:57:30.000Z</time>
      </trkpt>
      <trkpt lat="49.48082" lon="0.4668">
        <ele>6.5999999046326</ele>
        <time>2013-03-30T21:57:35.000Z</time>
      </trkpt>
      <trkpt lat="49.48083" lon="0.46683">
        <ele>6.5999999046326</ele>
        <time>2013-03-30T21:57:55.000Z</time>
      </trkpt>
      <trkpt lat="49.48085" lon="0.46693">
        <ele>6.1999998092651</ele>
        <time>2013-03-30T21:58:05.000Z</time>
      </trkpt>
      <trkpt lat="49.48085" lon="0.46695">
        <ele>6.1999998092651</ele>
        <time>2013-03-30T21:58:06.000Z</time>
      </trkpt>
      <trkpt lat="49.48082" lon="0.46698">
        <ele>6.1999998092651</ele>
        <time>2013-03-30T21:58:11.000Z</time>
      </trkpt>
      <trkpt lat="49.48078" lon="0.46701">
        <ele>6.1999998092651</ele>
        <time>2013-03-30T21:58:15.000Z</time>
      </trkpt>
      <trkpt lat="49.48073" lon="0.46706">
        <ele>6</ele>
        <time>2013-03-30T21:58:19.000Z</time>
      </trkpt>
      <trkpt lat="49.48062" lon="0.46719">
        <ele>5.8000001907349</ele>
        <time>2013-03-30T21:58:25.000Z</time>
      </trkpt>
      <trkpt lat="49.4806" lon="0.46722">
        <ele>5.8000001907349</ele>
        <time>2013-03-30T21:58:26.000Z</time>
      </trkpt>
      <trkpt lat="49.48044" lon="0.46742">
        <ele>5.5999999046326</ele>
        <time>2013-03-30T21:58:33.000Z</time>
      </trkpt>
      <trkpt lat="49.48033" lon="0.46756">
        <ele>5.4000000953674</ele>
        <time>2013-03-30T21:58:38.000Z</time>
      </trkpt>
      <trkpt lat="49.48031" lon="0.46759">
        <ele>5.4000000953674</ele>
        <time>2013-03-30T21:58:39.000Z</time>
      </trkpt>
      <trkpt lat="49.48017" lon="0.46778">
        <ele>5</ele>
        <time>2013-03-30T21:58:46.000Z</time>
      </trkpt>
      <trkpt lat="49.48002" lon="0.46798">
        <ele>4.8000001907349</ele>
        <time>2013-03-30T21:58:53.000Z</time>
      </trkpt>
      <trkpt lat="49.47997" lon="0.46804">
        <ele>4.5999999046326</ele>
        <time>2013-03-30T21:58:55.000Z</time>
      </trkpt>
      <trkpt lat="49.47993" lon="0.46807">
        <ele>4.5999999046326</ele>
        <time>2013-03-30T21:58:57.000Z</time>
      </trkpt>
      <trkpt lat="49.47986" lon="0.4681">
        <ele>4.5999999046326</ele>
        <time>2013-03-30T21:59:03.000Z</time>
      </trkpt>
      <trkpt lat="49.47984" lon="0.4681">
        <ele>4.5999999046326</ele>
        <time>2013-03-30T21:59:04.000Z</time>
      </trkpt>
      <trkpt lat="49.47982" lon="0.4681">
        <ele>4.5999999046326</ele>
        <time>2013-03-30T21:59:06.000Z</time>
      </trkpt>
      <trkpt lat="49.47975" lon="0.46821">
        <ele>4.4000000953674</ele>
        <time>2013-03-30T21:59:11.000Z</time>
      </trkpt>
      <trkpt lat="49.47974" lon="0.46825">
        <ele>4.4000000953674</ele>
        <time>2013-03-30T21:59:14.000Z</time>
      </trkpt>
      <trkpt lat="49.47973" lon="0.46827">
        <ele>4.4000000953674</ele>
        <time>2013-03-30T21:59:16.000Z</time>
      </trkpt>
      <trkpt lat="49.47974" lon="0.46831">
        <ele>4.1999998092651</ele>
        <time>2013-03-30T21:59:22.000Z</time>
      </trkpt>
      <trkpt lat="49.47976" lon="0.46833">
        <ele>4.1999998092651</ele>
        <time>2013-03-30T21:59:23.000Z</time>
      </trkpt>
      <trkpt lat="49.47977" lon="0.46834">
        <ele>4.1999998092651</ele>
        <time>2013-03-30T21:59:24.000Z</time>
      </trkpt>
      <trkpt lat="49.47992" lon="0.4684">
        <ele>3.7999999523163</ele>
        <time>2013-03-30T21:59:30.000Z</time>
      </trkpt>
      <trkpt lat="49.48003" lon="0.46849">
        <ele>3.5999999046326</ele>
        <time>2013-03-30T21:59:36.000Z</time>
      </trkpt>
      <trkpt lat="49.48005" lon="0.46851">
        <ele>3.4000000953674</ele>
        <time>2013-03-30T21:59:41.000Z</time>
      </trkpt>
      <trkpt lat="49.48005" lon="0.46854">
        <ele>3.4000000953674</ele>
        <time>2013-03-30T21:59:42.000Z</time>
      </trkpt>
      <trkpt lat="49.47993" lon="0.46879">
        <ele>3</ele>
        <time>2013-03-30T21:59:50.000Z</time>
      </trkpt>
      <trkpt lat="49.4799" lon="0.46882">
        <ele>3</ele>
        <time>2013-03-30T21:59:51.000Z</time>
      </trkpt>
      <trkpt lat="49.47978" lon="0.46893">
        <ele>3</ele>
        <time>2013-03-30T21:59:57.000Z</time>
      </trkpt>
      <trkpt lat="49.47965" lon="0.46909">
        <ele>2.7999999523163</ele>
        <time>2013-03-30T22:00:03.000Z</time>
      </trkpt>
      <trkpt lat="49.47954" lon="0.4692">
        <ele>3</ele>
        <time>2013-03-30T22:00:08.000Z</time>
      </trkpt>
      <trkpt lat="49.47942" lon="0.46937">
        <ele>3.2000000476837</ele>
        <time>2013-03-30T22:00:14.000Z</time>
      </trkpt>
      <trkpt lat="49.47932" lon="0.46957">
        <ele>3.5999999046326</ele>
        <time>2013-03-30T22:00:20.000Z</time>
      </trkpt>
      <trkpt lat="49.47924" lon="0.46975">
        <ele>3.7999999523163</ele>
        <time>2013-03-30T22:00:25.000Z</time>
      </trkpt>
      <trkpt lat="49.47921" lon="0.46998">
        <ele>3.7999999523163</ele>
        <time>2013-03-30T22:00:31.000Z</time>
      </trkpt>
      <trkpt lat="49.47922" lon="0.47003">
        <ele>3.7999999523163</ele>
        <time>2013-03-30T22:00:34.000Z</time>
      </trkpt>
      <trkpt lat="49.47922" lon="0.47005">
        <ele>3.7999999523163</ele>
        <time>2013-03-30T22:00:35.000Z</time>
      </trkpt>
      <trkpt lat="49.47921" lon="0.47007">
        <ele>3.7999999523163</ele>
        <time>2013-03-30T22:00:42.000Z</time>
      </trkpt>
      <trkpt lat="49.4792" lon="0.47021">
        <ele>3.5999999046326</ele>
        <time>2013-03-30T22:00:58.000Z</time>
      </trkpt>
      <trkpt lat="49.47923" lon="0.47033">
        <ele>3.4000000953674</ele>
        <time>2013-03-30T22:01:03.000Z</time>
      </trkpt>
      <trkpt lat="49.47924" lon="0.47044">
        <ele>3.4000000953674</ele>
        <time>2013-03-30T22:01:10.000Z</time>
      </trkpt>
      <trkpt lat="49.47925" lon="0.47063">
        <ele>3.2000000476837</ele>
        <time>2013-03-30T22:01:17.000Z</time>
      </trkpt>
      <trkpt lat="49.47926" lon="0.47073">
        <ele>3</ele>
        <time>2013-03-30T22:01:22.000Z</time>
      </trkpt>
      <trkpt lat="49.47933" lon="0.47091">
        <ele>3.2000000476837</ele>
        <time>2013-03-30T22:01:28.000Z</time>
      </trkpt>
      <trkpt lat="49.47942" lon="0.4711">
        <ele>3.4000000953674</ele>
        <time>2013-03-30T22:01:33.000Z</time>
      </trkpt>
      <trkpt lat="49.47951" lon="0.47127">
        <ele>3.5999999046326</ele>
        <time>2013-03-30T22:01:38.000Z</time>
      </trkpt>
      <trkpt lat="49.47959" lon="0.47144">
        <ele>3.7999999523163</ele>
        <time>2013-03-30T22:01:43.000Z</time>
      </trkpt>
      <trkpt lat="49.47971" lon="0.47167">
        <ele>3.7999999523163</ele>
        <time>2013-03-30T22:01:50.000Z</time>
      </trkpt>
      <trkpt lat="49.4798" lon="0.47184">
        <ele>4.4000000953674</ele>
        <time>2013-03-30T22:01:55.000Z</time>
      </trkpt>
      <trkpt lat="49.47988" lon="0.47201">
        <ele>4.8000001907349</ele>
        <time>2013-03-30T22:02:00.000Z</time>
      </trkpt>
      <trkpt lat="49.48" lon="0.47225">
        <ele>5.1999998092651</ele>
        <time>2013-03-30T22:02:07.000Z</time>
      </trkpt>
      <trkpt lat="49.4801" lon="0.47248">
        <ele>5.8000001907349</ele>
        <time>2013-03-30T22:02:14.000Z</time>
      </trkpt>
      <trkpt lat="49.4802" lon="0.4727">
        <ele>6.4000000953674</ele>
        <time>2013-03-30T22:02:21.000Z</time>
      </trkpt>
      <trkpt lat="49.4803" lon="0.47284">
        <ele>6.5999999046326</ele>
        <time>2013-03-30T22:02:26.000Z</time>
      </trkpt>
      <trkpt lat="49.48042" lon="0.47304">
        <ele>6.4000000953674</ele>
        <time>2013-03-30T22:02:33.000Z</time>
      </trkpt>
      <trkpt lat="49.48052" lon="0.47325">
        <ele>5.8000001907349</ele>
        <time>2013-03-30T22:02:40.000Z</time>
      </trkpt>
      <trkpt lat="49.48065" lon="0.47345">
        <ele>4.8000001907349</ele>
        <time>2013-03-30T22:02:47.000Z</time>
      </trkpt>
      <trkpt lat="49.4807" lon="0.47349">
        <ele>4.4000000953674</ele>
        <time>2013-03-30T22:02:49.000Z</time>
      </trkpt>
      <trkpt lat="49.48087" lon="0.4736">
        <ele>3.2000000476837</ele>
        <time>2013-03-30T22:02:56.000Z</time>
      </trkpt>
      <trkpt lat="49.48099" lon="0.47375">
        <ele>3.4000000953674</ele>
        <time>2013-03-30T22:03:02.000Z</time>
      </trkpt>
      <trkpt lat="49.4811" lon="0.47398">
        <ele>3.7999999523163</ele>
        <time>2013-03-30T22:03:09.000Z</time>
      </trkpt>
      <trkpt lat="49.4812" lon="0.47418">
        <ele>4</ele>
        <time>2013-03-30T22:03:16.000Z</time>
      </trkpt>
      <trkpt lat="49.4813" lon="0.47436">
        <ele>4.4000000953674</ele>
        <time>2013-03-30T22:03:22.000Z</time>
      </trkpt>
      <trkpt lat="49.48131" lon="0.47438">
        <ele>4.4000000953674</ele>
        <time>2013-03-30T22:03:24.000Z</time>
      </trkpt>
      <trkpt lat="49.48138" lon="0.4745">
        <ele>4.4000000953674</ele>
        <time>2013-03-30T22:03:30.000Z</time>
      </trkpt>
      <trkpt lat="49.48147" lon="0.47464">
        <ele>4.4000000953674</ele>
        <time>2013-03-30T22:03:35.000Z</time>
      </trkpt>
      <trkpt lat="49.48156" lon="0.47481">
        <ele>4.4000000953674</ele>
        <time>2013-03-30T22:03:41.000Z</time>
      </trkpt>
      <trkpt lat="49.48166" lon="0.47499">
        <ele>4</ele>
        <time>2013-03-30T22:03:47.000Z</time>
      </trkpt>
      <trkpt lat="49.48189" lon="0.47531">
        <ele>3.5999999046326</ele>
        <time>2013-03-30T22:04:01.000Z</time>
      </trkpt>
      <trkpt lat="49.48195" lon="0.47547">
        <ele>3.5999999046326</ele>
        <time>2013-03-30T22:04:06.000Z</time>
      </trkpt>
      <trkpt lat="49.482" lon="0.47561">
        <ele>3.4000000953674</ele>
        <time>2013-03-30T22:04:12.000Z</time>
      </trkpt>
      <trkpt lat="49.48201" lon="0.47563">
        <ele>3.4000000953674</ele>
        <time>2013-03-30T22:04:13.000Z</time>
      </trkpt>
      <trkpt lat="49.48202" lon="0.47569">
        <ele>3.4000000953674</ele>
        <time>2013-03-30T22:04:17.000Z</time>
      </trkpt>
      <trkpt lat="49.48201" lon="0.47574">
        <ele>3.4000000953674</ele>
        <time>2013-03-30T22:04:20.000Z</time>
      </trkpt>
      <trkpt lat="49.482" lon="0.47577">
        <ele>3.4000000953674</ele>
        <time>2013-03-30T22:04:22.000Z</time>
      </trkpt>
      <trkpt lat="49.48197" lon="0.47591">
        <ele>3.2000000476837</ele>
        <time>2013-03-30T22:04:29.000Z</time>
      </trkpt>
      <trkpt lat="49.48196" lon="0.47601">
        <ele>3.2000000476837</ele>
        <time>2013-03-30T22:04:36.000Z</time>
      </trkpt>
      <trkpt lat="49.48198" lon="0.47606">
        <ele>3.2000000476837</ele>
        <time>2013-03-30T22:04:43.000Z</time>
      </trkpt>
      <trkpt lat="49.48198" lon="0.47613">
        <ele>3</ele>
        <time>2013-03-30T22:04:47.000Z</time>
      </trkpt>
      <trkpt lat="49.48198" lon="0.47628">
        <ele>3</ele>
        <time>2013-03-30T22:04:54.000Z</time>
      </trkpt>
      <trkpt lat="49.48199" lon="0.47632">
        <ele>3</ele>
        <time>2013-03-30T22:04:57.000Z</time>
      </trkpt>
      <trkpt lat="49.48205" lon="0.47644">
        <ele>3</ele>
        <time>2013-03-30T22:05:05.000Z</time>
      </trkpt>
      <trkpt lat="49.48209" lon="0.47654">
        <ele>3</ele>
        <time>2013-03-30T22:05:12.000Z</time>
      </trkpt>
      <trkpt lat="49.4821" lon="0.47656">
        <ele>3</ele>
        <time>2013-03-30T22:05:14.000Z</time>
      </trkpt>
      <trkpt lat="49.48212" lon="0.47662">
        <ele>3</ele>
        <time>2013-03-30T22:05:19.000Z</time>
      </trkpt>
      <trkpt lat="49.48216" lon="0.47671">
        <ele>3</ele>
        <time>2013-03-30T22:05:24.000Z</time>
      </trkpt>
      <trkpt lat="49.48224" lon="0.47687">
        <ele>2.7999999523163</ele>
        <time>2013-03-30T22:05:33.000Z</time>
      </trkpt>
      <trkpt lat="49.48231" lon="0.47697">
        <ele>2.5999999046326</ele>
        <time>2013-03-30T22:05:38.000Z</time>
      </trkpt>
      <trkpt lat="49.48235" lon="0.47704">
        <ele>2.5999999046326</ele>
        <time>2013-03-30T22:05:41.000Z</time>
      </trkpt>
      <trkpt lat="49.48236" lon="0.4771">
        <ele>2.4000000953674</ele>
        <time>2013-03-30T22:05:43.000Z</time>
      </trkpt>
      <trkpt lat="49.48247" lon="0.47725">
        <ele>2.4000000953674</ele>
        <time>2013-03-30T22:05:51.000Z</time>
      </trkpt>
      <trkpt lat="49.48249" lon="0.47727">
        <ele>2.4000000953674</ele>
        <time>2013-03-30T22:05:52.000Z</time>
      </trkpt>
      <trkpt lat="49.48257" lon="0.47729">
        <ele>2.2000000476837</ele>
        <time>2013-03-30T22:05:55.000Z</time>
      </trkpt>
      <trkpt lat="49.48273" lon="0.47734">
        <ele>2</ele>
        <time>2013-03-30T22:06:02.000Z</time>
      </trkpt>
      <trkpt lat="49.48285" lon="0.47746">
        <ele>1.6000000238419</ele>
        <time>2013-03-30T22:06:08.000Z</time>
      </trkpt>
      <trkpt lat="49.48297" lon="0.47764">
        <ele>1.3999999761581</ele>
        <time>2013-03-30T22:06:15.000Z</time>
      </trkpt>
      <trkpt lat="49.48312" lon="0.47783">
        <ele>1.3999999761581</ele>
        <time>2013-03-30T22:06:23.000Z</time>
      </trkpt>
      <trkpt lat="49.48318" lon="0.47793">
        <ele>1.3999999761581</ele>
        <time>2013-03-30T22:06:27.000Z</time>
      </trkpt>
      <trkpt lat="49.48324" lon="0.47804">
        <ele>1.6000000238419</ele>
        <time>2013-03-30T22:06:33.000Z</time>
      </trkpt>
      <trkpt lat="49.48328" lon="0.47819">
        <ele>1.6000000238419</ele>
        <time>2013-03-30T22:06:40.000Z</time>
      </trkpt>
      <trkpt lat="49.4833" lon="0.47832">
        <ele>1.7999999523163</ele>
        <time>2013-03-30T22:06:46.000Z</time>
      </trkpt>
      <trkpt lat="49.48331" lon="0.47849">
        <ele>2</ele>
        <time>2013-03-30T22:06:52.000Z</time>
      </trkpt>
      <trkpt lat="49.48331" lon="0.47859">
        <ele>2.2000000476837</ele>
        <time>2013-03-30T22:07:02.000Z</time>
      </trkpt>
      <trkpt lat="49.48331" lon="0.47871">
        <ele>2.2000000476837</ele>
        <time>2013-03-30T22:07:24.000Z</time>
      </trkpt>
      <trkpt lat="49.48334" lon="0.47888">
        <ele>2.5999999046326</ele>
        <time>2013-03-30T22:07:29.000Z</time>
      </trkpt>
      <trkpt lat="49.48338" lon="0.47908">
        <ele>2.7999999523163</ele>
        <time>2013-03-30T22:07:35.000Z</time>
      </trkpt>
      <trkpt lat="49.48346" lon="0.47925">
        <ele>3</ele>
        <time>2013-03-30T22:07:41.000Z</time>
      </trkpt>
      <trkpt lat="49.48355" lon="0.47935">
        <ele>3.2000000476837</ele>
        <time>2013-03-30T22:07:46.000Z</time>
      </trkpt>
      <trkpt lat="49.48367" lon="0.4795">
        <ele>3.4000000953674</ele>
        <time>2013-03-30T22:07:51.000Z</time>
      </trkpt>
      <trkpt lat="49.48377" lon="0.47968">
        <ele>3.7999999523163</ele>
        <time>2013-03-30T22:07:58.000Z</time>
      </trkpt>
      <trkpt lat="49.48384" lon="0.47978">
        <ele>4</ele>
        <time>2013-03-30T22:08:04.000Z</time>
      </trkpt>
      <trkpt lat="49.48389" lon="0.47989">
        <ele>4.1999998092651</ele>
        <time>2013-03-30T22:08:09.000Z</time>
      </trkpt>
      <trkpt lat="49.48387" lon="0.47986">
        <ele>4</ele>
        <time>2013-03-30T22:08:13.000Z</time>
      </trkpt>
      <trkpt lat="49.48385" lon="0.47982">
        <ele>4</ele>
        <time>2013-03-30T22:08:36.000Z</time>
      </trkpt>
      <trkpt lat="49.4838" lon="0.47971">
        <ele>3.7999999523163</ele>
        <time>2013-03-30T22:08:40.000Z</time>
      </trkpt>
      <trkpt lat="49.48368" lon="0.47949">
        <ele>3.4000000953674</ele>
        <time>2013-03-30T22:08:47.000Z</time>
      </trkpt>
      <trkpt lat="49.48359" lon="0.47937">
        <ele>3.2000000476837</ele>
        <time>2013-03-30T22:08:52.000Z</time>
      </trkpt>
      <trkpt lat="49.48347" lon="0.47924">
        <ele>3</ele>
        <time>2013-03-30T22:08:57.000Z</time>
      </trkpt>
      <trkpt lat="49.48337" lon="0.47901">
        <ele>2.7999999523163</ele>
        <time>2013-03-30T22:09:04.000Z</time>
      </trkpt>
      <trkpt lat="49.48337" lon="0.47898">
        <ele>2.7999999523163</ele>
        <time>2013-03-30T22:09:05.000Z</time>
      </trkpt>
      <trkpt lat="49.48337" lon="0.47893">
        <ele>2.5999999046326</ele>
        <time>2013-03-30T22:09:09.000Z</time>
      </trkpt>
      <trkpt lat="49.48335" lon="0.4789">
        <ele>2.5999999046326</ele>
        <time>2013-03-30T22:09:16.000Z</time>
      </trkpt>
      <trkpt lat="49.48335" lon="0.47885">
        <ele>2.5999999046326</ele>
        <time>2013-03-30T22:09:17.000Z</time>
      </trkpt>
      <trkpt lat="49.48335" lon="0.47863">
        <ele>2.2000000476837</ele>
        <time>2013-03-30T22:09:23.000Z</time>
      </trkpt>
      <trkpt lat="49.4834" lon="0.47856">
        <ele>2.2000000476837</ele>
        <time>2013-03-30T22:09:27.000Z</time>
      </trkpt>
      <trkpt lat="49.48341" lon="0.47855">
        <ele>2.2000000476837</ele>
        <time>2013-03-30T22:09:28.000Z</time>
      </trkpt>
      <trkpt lat="49.4835" lon="0.47843">
        <ele>2.2000000476837</ele>
        <time>2013-03-30T22:09:35.000Z</time>
      </trkpt>
      <trkpt lat="49.48359" lon="0.4783">
        <ele>2.2000000476837</ele>
        <time>2013-03-30T22:09:41.000Z</time>
      </trkpt>
      <trkpt lat="49.48365" lon="0.47824">
        <ele>2.2000000476837</ele>
        <time>2013-03-30T22:09:45.000Z</time>
      </trkpt>
      <trkpt lat="49.48373" lon="0.47814">
        <ele>2.4000000953674</ele>
        <time>2013-03-30T22:09:52.000Z</time>
      </trkpt>
      <trkpt lat="49.48383" lon="0.47808">
        <ele>2.5999999046326</ele>
        <time>2013-03-30T22:09:59.000Z</time>
      </trkpt>
      <trkpt lat="49.48388" lon="0.47803">
        <ele>2.5999999046326</ele>
        <time>2013-03-30T22:10:05.000Z</time>
      </trkpt>
      <trkpt lat="49.48395" lon="0.47797">
        <ele>2.7999999523163</ele>
        <time>2013-03-30T22:10:10.000Z</time>
      </trkpt>
      <trkpt lat="49.48406" lon="0.47797">
        <ele>3</ele>
        <time>2013-03-30T22:10:15.000Z</time>
      </trkpt>
      <trkpt lat="49.48413" lon="0.47796">
        <ele>3.2000000476837</ele>
        <time>2013-03-30T22:10:20.000Z</time>
      </trkpt>
      <trkpt lat="49.48414" lon="0.47793">
        <ele>3.4000000953674</ele>
        <time>2013-03-30T22:10:24.000Z</time>
      </trkpt>
      <trkpt lat="49.48415" lon="0.47793">
        <ele>3.4000000953674</ele>
        <time>2013-03-30T22:10:29.000Z</time>
      </trkpt>
      <trkpt lat="49.48421" lon="0.47789">
        <ele>3.4000000953674</ele>
        <time>2013-03-30T22:10:36.000Z</time>
      </trkpt>
      <trkpt lat="49.48423" lon="0.47787">
        <ele>3.4000000953674</ele>
        <time>2013-03-30T22:10:38.000Z</time>
      </trkpt>
      <trkpt lat="49.48431" lon="0.47784">
        <ele>3.4000000953674</ele>
        <time>2013-03-30T22:10:44.000Z</time>
      </trkpt>
      <trkpt lat="49.48449" lon="0.47782">
        <ele>3.5999999046326</ele>
        <time>2013-03-30T22:10:52.000Z</time>
      </trkpt>
      <trkpt lat="49.48463" lon="0.4778">
        <ele>3.5999999046326</ele>
        <time>2013-03-30T22:10:58.000Z</time>
      </trkpt>
      <trkpt lat="49.48476" lon="0.4778">
        <ele>3.5999999046326</ele>
        <time>2013-03-30T22:11:04.000Z</time>
      </trkpt>
      <trkpt lat="49.4848" lon="0.47781">
        <ele>3.5999999046326</ele>
        <time>2013-03-30T22:11:08.000Z</time>
      </trkpt>
      <trkpt lat="49.48482" lon="0.47782">
        <ele>3.5999999046326</ele>
        <time>2013-03-30T22:11:11.000Z</time>
      </trkpt>
      <trkpt lat="49.48482" lon="0.47783">
        <ele>3.5999999046326</ele>
        <time>2013-03-30T22:11:13.000Z</time>
      </trkpt>
      <trkpt lat="49.48496" lon="0.47783">
        <ele>3.5999999046326</ele>
        <time>2013-03-30T22:11:19.000Z</time>
      </trkpt>
      <trkpt lat="49.48508" lon="0.47783">
        <ele>3.4000000953674</ele>
        <time>2013-03-30T22:11:24.000Z</time>
      </trkpt>
      <trkpt lat="49.4851" lon="0.47782">
        <ele>3.4000000953674</ele>
        <time>2013-03-30T22:11:25.000Z</time>
      </trkpt>
      <trkpt lat="49.48514" lon="0.47783">
        <ele>3.4000000953674</ele>
        <time>2013-03-30T22:11:29.000Z</time>
      </trkpt>
      <trkpt lat="49.48513" lon="0.47784">
        <ele>3.4000000953674</ele>
        <time>2013-03-30T22:11:41.000Z</time>
      </trkpt>
      <trkpt lat="49.48514" lon="0.47784">
        <ele>3.4000000953674</ele>
        <time>2013-03-30T22:11:56.000Z</time>
      </trkpt>
      <trkpt lat="49.48517" lon="0.47781">
        <ele>3.4000000953674</ele>
        <time>2013-03-30T22:12:01.000Z</time>
      </trkpt>
      <trkpt lat="49.48529" lon="0.47787">
        <ele>3.2000000476837</ele>
        <time>2013-03-30T22:12:07.000Z</time>
      </trkpt>
      <trkpt lat="49.48539" lon="0.47794">
        <ele>3.2000000476837</ele>
        <time>2013-03-30T22:12:13.000Z</time>
      </trkpt>
      <trkpt lat="49.4854" lon="0.47795">
        <ele>3.2000000476837</ele>
        <time>2013-03-30T22:12:18.000Z</time>
      </trkpt>
      <trkpt lat="49.4854" lon="0.47795">
        <ele>3.2000000476837</ele>
        <time>2013-03-30T22:12:21.000Z</time>
      </trkpt>
      <trkpt lat="49.48546" lon="0.47787">
        <ele>3.2000000476837</ele>
        <time>2013-03-30T22:12:27.000Z</time>
      </trkpt>
      <trkpt lat="49.4855" lon="0.47783">
        <ele>3.2000000476837</ele>
        <time>2013-03-30T22:12:32.000Z</time>
      </trkpt>
      <trkpt lat="49.48553" lon="0.47779">
        <ele>3.2000000476837</ele>
        <time>2013-03-30T22:12:35.000Z</time>
      </trkpt>
      <trkpt lat="49.48557" lon="0.47777">
        <ele>3.2000000476837</ele>
        <time>2013-03-30T22:12:39.000Z</time>
      </trkpt>
      <trkpt lat="49.48564" lon="0.47766">
        <ele>3</ele>
        <time>2013-03-30T22:12:45.000Z</time>
      </trkpt>
      <trkpt lat="49.48575" lon="0.47751">
        <ele>3</ele>
        <time>2013-03-30T22:12:52.000Z</time>
      </trkpt>
      <trkpt lat="49.4859" lon="0.47735">
        <ele>3</ele>
        <time>2013-03-30T22:13:00.000Z</time>
      </trkpt>
      <trkpt lat="49.48601" lon="0.47723">
        <ele>3.2000000476837</ele>
        <time>2013-03-30T22:13:06.000Z</time>
      </trkpt>
      <trkpt lat="49.48615" lon="0.47707">
        <ele>3.2000000476837</ele>
        <time>2013-03-30T22:13:14.000Z</time>
      </trkpt>
      <trkpt lat="49.48625" lon="0.47694">
        <ele>3.2000000476837</ele>
        <time>2013-03-30T22:13:20.000Z</time>
      </trkpt>
      <trkpt lat="49.48634" lon="0.47683">
        <ele>3.2000000476837</ele>
        <time>2013-03-30T22:13:27.000Z</time>
      </trkpt>
      <trkpt lat="49.48639" lon="0.47677">
        <ele>3.2000000476837</ele>
        <time>2013-03-30T22:13:33.000Z</time>
      </trkpt>
      <trkpt lat="49.4865" lon="0.47666">
        <ele>3</ele>
        <time>2013-03-30T22:13:43.000Z</time>
      </trkpt>
      <trkpt lat="49.48659" lon="0.47656">
        <ele>2.7999999523163</ele>
        <time>2013-03-30T22:13:52.000Z</time>
      </trkpt>
      <trkpt lat="49.4866" lon="0.47649">
        <ele>2.7999999523163</ele>
        <time>2013-03-30T22:13:58.000Z</time>
      </trkpt>
      <trkpt lat="49.48661" lon="0.47646">
        <ele>2.7999999523163</ele>
        <time>2013-03-30T22:14:00.000Z</time>
      </trkpt>
      <trkpt lat="49.4866" lon="0.47643">
        <ele>2.5999999046326</ele>
        <time>2013-03-30T22:14:03.000Z</time>
      </trkpt>
      <trkpt lat="49.48664" lon="0.47633">
        <ele>2.5999999046326</ele>
        <time>2013-03-30T22:14:09.000Z</time>
      </trkpt>
      <trkpt lat="49.48664" lon="0.47632">
        <ele>2.5999999046326</ele>
        <time>2013-03-30T22:14:10.000Z</time>
      </trkpt>
      <trkpt lat="49.48663" lon="0.47627">
        <ele>2.4000000953674</ele>
        <time>2013-03-30T22:14:13.000Z</time>
      </trkpt>
      <trkpt lat="49.48664" lon="0.47624">
        <ele>2.4000000953674</ele>
        <time>2013-03-30T22:14:15.000Z</time>
      </trkpt>
      <trkpt lat="49.48666" lon="0.47619">
        <ele>2.4000000953674</ele>
        <time>2013-03-30T22:14:22.000Z</time>
      </trkpt>
      <trkpt lat="49.48667" lon="0.47618">
        <ele>2.4000000953674</ele>
        <time>2013-03-30T22:14:25.000Z</time>
      </trkpt>
      <trkpt lat="49.48672" lon="0.47619">
        <ele>2.4000000953674</ele>
        <time>2013-03-30T22:14:30.000Z</time>
      </trkpt>
      <trkpt lat="49.4868" lon="0.47624">
        <ele>2.4000000953674</ele>
        <time>2013-03-30T22:14:37.000Z</time>
      </trkpt>
      <trkpt lat="49.48682" lon="0.47625">
        <ele>2.4000000953674</ele>
        <time>2013-03-30T22:14:39.000Z</time>
      </trkpt>
      <trkpt lat="49.48687" lon="0.47621">
        <ele>2.4000000953674</ele>
        <time>2013-03-30T22:14:45.000Z</time>
      </trkpt>
      <trkpt lat="49.48688" lon="0.47619">
        <ele>2.4000000953674</ele>
        <time>2013-03-30T22:14:47.000Z</time>
      </trkpt>
      <trkpt lat="49.48686" lon="0.47618">
        <ele>2.4000000953674</ele>
        <time>2013-03-30T22:14:51.000Z</time>
      </trkpt>
      <trkpt lat="49.48691" lon="0.47612">
        <ele>2.2000000476837</ele>
        <time>2013-03-30T22:14:57.000Z</time>
      </trkpt>
      <trkpt lat="49.48693" lon="0.47606">
        <ele>2.2000000476837</ele>
        <time>2013-03-30T22:15:01.000Z</time>
      </trkpt>
      <trkpt lat="49.48695" lon="0.47602">
        <ele>2.2000000476837</ele>
        <time>2013-03-30T22:15:07.000Z</time>
      </trkpt>
      <trkpt lat="49.48695" lon="0.47601">
        <ele>2.2000000476837</ele>
        <time>2013-03-30T22:15:15.000Z</time>
      </trkpt>
      <trkpt lat="49.48697" lon="0.4759">
        <ele>2</ele>
        <time>2013-03-30T22:15:23.000Z</time>
      </trkpt>
      <trkpt lat="49.48697" lon="0.47588">
        <ele>2</ele>
        <time>2013-03-30T22:15:24.000Z</time>
      </trkpt>
      <trkpt lat="49.48699" lon="0.47577">
        <ele>2</ele>
        <time>2013-03-30T22:15:30.000Z</time>
      </trkpt>
      <trkpt lat="49.48703" lon="0.47559">
        <ele>2</ele>
        <time>2013-03-30T22:15:37.000Z</time>
      </trkpt>
      <trkpt lat="49.48704" lon="0.47554">
        <ele>2</ele>
        <time>2013-03-30T22:15:39.000Z</time>
      </trkpt>
      <trkpt lat="49.48703" lon="0.47553">
        <ele>2</ele>
        <time>2013-03-30T22:15:41.000Z</time>
      </trkpt>
      <trkpt lat="49.48701" lon="0.47549">
        <ele>2</ele>
        <time>2013-03-30T22:15:45.000Z</time>
      </trkpt>
      <trkpt lat="49.48703" lon="0.47543">
        <ele>2</ele>
        <time>2013-03-30T22:15:52.000Z</time>
      </trkpt>
      <trkpt lat="49.48705" lon="0.4754">
        <ele>2</ele>
        <time>2013-03-30T22:15:57.000Z</time>
      </trkpt>
      <trkpt lat="49.48703" lon="0.47534">
        <ele>2</ele>
        <time>2013-03-30T22:16:02.000Z</time>
      </trkpt>
      <trkpt lat="49.48703" lon="0.47532">
        <ele>2</ele>
        <time>2013-03-30T22:16:08.000Z</time>
      </trkpt>
      <trkpt lat="49.48705" lon="0.47529">
        <ele>2</ele>
        <time>2013-03-30T22:16:14.000Z</time>
      </trkpt>
      <trkpt lat="49.48707" lon="0.47526">
        <ele>2</ele>
        <time>2013-03-30T22:16:20.000Z</time>
      </trkpt>
      <trkpt lat="49.48708" lon="0.47524">
        <ele>2</ele>
        <time>2013-03-30T22:16:22.000Z</time>
      </trkpt>
      <trkpt lat="49.48706" lon="0.47513">
        <ele>2</ele>
        <time>2013-03-30T22:16:28.000Z</time>
      </trkpt>
      <trkpt lat="49.48703" lon="0.47505">
        <ele>2</ele>
        <time>2013-03-30T22:16:32.000Z</time>
      </trkpt>
      <trkpt lat="49.48702" lon="0.4749">
        <ele>2</ele>
        <time>2013-03-30T22:16:39.000Z</time>
      </trkpt>
      <trkpt lat="49.48699" lon="0.47478">
        <ele>2.2000000476837</ele>
        <time>2013-03-30T22:16:45.000Z</time>
      </trkpt>
      <trkpt lat="49.48701" lon="0.47466">
        <ele>2.4000000953674</ele>
        <time>2013-03-30T22:16:50.000Z</time>
      </trkpt>
      <trkpt lat="49.48701" lon="0.47456">
        <ele>2.4000000953674</ele>
        <time>2013-03-30T22:16:55.000Z</time>
      </trkpt>
      <trkpt lat="49.48701" lon="0.47456">
        <ele>2.4000000953674</ele>
        <time>2013-03-30T22:17:04.000Z</time>
      </trkpt>
      <trkpt lat="49.48701" lon="0.4745">
        <ele>2.5999999046326</ele>
        <time>2013-03-30T22:17:07.000Z</time>
      </trkpt>
      <trkpt lat="49.48702" lon="0.47446">
        <ele>2.5999999046326</ele>
        <time>2013-03-30T22:17:10.000Z</time>
      </trkpt>
      <trkpt lat="49.48703" lon="0.47441">
        <ele>2.5999999046326</ele>
        <time>2013-03-30T22:17:13.000Z</time>
      </trkpt>
      <trkpt lat="49.48708" lon="0.47427">
        <ele>2.7999999523163</ele>
        <time>2013-03-30T22:17:22.000Z</time>
      </trkpt>
      <trkpt lat="49.48709" lon="0.4742">
        <ele>2.7999999523163</ele>
        <time>2013-03-30T22:17:27.000Z</time>
      </trkpt>
      <trkpt lat="49.4871" lon="0.47407">
        <ele>3</ele>
        <time>2013-03-30T22:17:33.000Z</time>
      </trkpt>
      <trkpt lat="49.4871" lon="0.47397">
        <ele>3</ele>
        <time>2013-03-30T22:17:35.000Z</time>
      </trkpt>
      <trkpt lat="49.48709" lon="0.47384">
        <ele>3</ele>
        <time>2013-03-30T22:17:39.000Z</time>
      </trkpt>
      <trkpt lat="49.48708" lon="0.47382">
        <ele>3.2000000476837</ele>
        <time>2013-03-30T22:17:40.000Z</time>
      </trkpt>
      <trkpt lat="49.48708" lon="0.47379">
        <ele>3.2000000476837</ele>
        <time>2013-03-30T22:17:41.000Z</time>
      </trkpt>
      <trkpt lat="49.48714" lon="0.47367">
        <ele>3.2000000476837</ele>
        <time>2013-03-30T22:17:46.000Z</time>
      </trkpt>
      <trkpt lat="49.48717" lon="0.47362">
        <ele>3.2000000476837</ele>
        <time>2013-03-30T22:17:48.000Z</time>
      </trkpt>
      <trkpt lat="49.48732" lon="0.47343">
        <ele>3</ele>
        <time>2013-03-30T22:17:57.000Z</time>
      </trkpt>
      <trkpt lat="49.48741" lon="0.47328">
        <ele>3</ele>
        <time>2013-03-30T22:18:03.000Z</time>
      </trkpt>
      <trkpt lat="49.4875" lon="0.47311">
        <ele>3</ele>
        <time>2013-03-30T22:18:09.000Z</time>
      </trkpt>
      <trkpt lat="49.48756" lon="0.47299">
        <ele>3</ele>
        <time>2013-03-30T22:18:14.000Z</time>
      </trkpt>
      <trkpt lat="49.48764" lon="0.47281">
        <ele>3.2000000476837</ele>
        <time>2013-03-30T22:18:20.000Z</time>
      </trkpt>
      <trkpt lat="49.48775" lon="0.47266">
        <ele>3.2000000476837</ele>
        <time>2013-03-30T22:18:27.000Z</time>
      </trkpt>
      <trkpt lat="49.48784" lon="0.47254">
        <ele>3.4000000953674</ele>
        <time>2013-03-30T22:18:33.000Z</time>
      </trkpt>
      <trkpt lat="49.48793" lon="0.47243">
        <ele>3.4000000953674</ele>
        <time>2013-03-30T22:18:38.000Z</time>
      </trkpt>
      <trkpt lat="49.48805" lon="0.47226">
        <ele>3.5999999046326</ele>
        <time>2013-03-30T22:18:45.000Z</time>
      </trkpt>
      <trkpt lat="49.48818" lon="0.47211">
        <ele>3.7999999523163</ele>
        <time>2013-03-30T22:18:53.000Z</time>
      </trkpt>
      <trkpt lat="49.48829" lon="0.47198">
        <ele>3.7999999523163</ele>
        <time>2013-03-30T22:18:59.000Z</time>
      </trkpt>
      <trkpt lat="49.48842" lon="0.47188">
        <ele>4</ele>
        <time>2013-03-30T22:19:06.000Z</time>
      </trkpt>
      <trkpt lat="49.48849" lon="0.47184">
        <ele>4</ele>
        <time>2013-03-30T22:19:12.000Z</time>
      </trkpt>
      <trkpt lat="49.48856" lon="0.47179">
        <ele>4</ele>
        <time>2013-03-30T22:19:19.000Z</time>
      </trkpt>
      <trkpt lat="49.48865" lon="0.47174">
        <ele>4</ele>
        <time>2013-03-30T22:19:28.000Z</time>
      </trkpt>
      <trkpt lat="49.48872" lon="0.47171">
        <ele>4</ele>
        <time>2013-03-30T22:19:35.000Z</time>
      </trkpt>
      <trkpt lat="49.48877" lon="0.47171">
        <ele>4</ele>
        <time>2013-03-30T22:19:41.000Z</time>
      </trkpt>
      <trkpt lat="49.48877" lon="0.47172">
        <ele>4</ele>
        <time>2013-03-30T22:19:50.000Z</time>
      </trkpt>
      <trkpt lat="49.48876" lon="0.47172">
        <ele>4</ele>
        <time>2013-03-30T22:19:56.000Z</time>
      </trkpt>
      <trkpt lat="49.48881" lon="0.47176">
        <ele>4</ele>
        <time>2013-03-30T22:20:12.000Z</time>
      </trkpt>
      <trkpt lat="49.48892" lon="0.47181">
        <ele>4</ele>
        <time>2013-03-30T22:20:18.000Z</time>
      </trkpt>
      <trkpt lat="49.48894" lon="0.47182">
        <ele>4</ele>
        <time>2013-03-30T22:20:19.000Z</time>
      </trkpt>
      <trkpt lat="49.48896" lon="0.47186">
        <ele>4</ele>
        <time>2013-03-30T22:20:21.000Z</time>
      </trkpt>
      <trkpt lat="49.48911" lon="0.47193">
        <ele>4</ele>
        <time>2013-03-30T22:20:27.000Z</time>
      </trkpt>
      <trkpt lat="49.48913" lon="0.47195">
        <ele>4</ele>
        <time>2013-03-30T22:20:28.000Z</time>
      </trkpt>
      <trkpt lat="49.48928" lon="0.47204">
        <ele>4</ele>
        <time>2013-03-30T22:20:35.000Z</time>
      </trkpt>
      <trkpt lat="49.48943" lon="0.47214">
        <ele>4</ele>
        <time>2013-03-30T22:20:42.000Z</time>
      </trkpt>
      <trkpt lat="49.4896" lon="0.47223">
        <ele>4</ele>
        <time>2013-03-30T22:20:50.000Z</time>
      </trkpt>
      <trkpt lat="49.48976" lon="0.47232">
        <ele>4</ele>
        <time>2013-03-30T22:20:57.000Z</time>
      </trkpt>
      <trkpt lat="49.4899" lon="0.47241">
        <ele>4</ele>
        <time>2013-03-30T22:21:04.000Z</time>
      </trkpt>
      <trkpt lat="49.49005" lon="0.4725">
        <ele>4</ele>
        <time>2013-03-30T22:21:11.000Z</time>
      </trkpt>
      <trkpt lat="49.49019" lon="0.47256">
        <ele>4</ele>
        <time>2013-03-30T22:21:18.000Z</time>
      </trkpt>
      <trkpt lat="49.49027" lon="0.47259">
        <ele>4</ele>
        <time>2013-03-30T22:21:22.000Z</time>
      </trkpt>
      <trkpt lat="49.49035" lon="0.47264">
        <ele>4</ele>
        <time>2013-03-30T22:21:29.000Z</time>
      </trkpt>
      <trkpt lat="49.49036" lon="0.47263">
        <ele>4</ele>
        <time>2013-03-30T22:21:38.000Z</time>
      </trkpt>
      <trkpt lat="49.49036" lon="0.47263">
        <ele>4</ele>
        <time>2013-03-30T22:21:52.000Z</time>
      </trkpt>
      <trkpt lat="49.49041" lon="0.47267">
        <ele>4</ele>
        <time>2013-03-30T22:21:59.000Z</time>
      </trkpt>
      <trkpt lat="49.49053" lon="0.47274">
        <ele>4</ele>
        <time>2013-03-30T22:22:06.000Z</time>
      </trkpt>
      <trkpt lat="49.49064" lon="0.47282">
        <ele>4</ele>
        <time>2013-03-30T22:22:12.000Z</time>
      </trkpt>
      <trkpt lat="49.49079" lon="0.47292">
        <ele>4</ele>
        <time>2013-03-30T22:22:20.000Z</time>
      </trkpt>
      <trkpt lat="49.49096" lon="0.47302">
        <ele>3.7999999523163</ele>
        <time>2013-03-30T22:22:28.000Z</time>
      </trkpt>
      <trkpt lat="49.49113" lon="0.47311">
        <ele>3.7999999523163</ele>
        <time>2013-03-30T22:22:36.000Z</time>
      </trkpt>
      <trkpt lat="49.49128" lon="0.47321">
        <ele>3.5999999046326</ele>
        <time>2013-03-30T22:22:43.000Z</time>
      </trkpt>
      <trkpt lat="49.49138" lon="0.47328">
        <ele>3.4000000953674</ele>
        <time>2013-03-30T22:22:48.000Z</time>
      </trkpt>
      <trkpt lat="49.49151" lon="0.47338">
        <ele>3.2000000476837</ele>
        <time>2013-03-30T22:22:54.000Z</time>
      </trkpt>
      <trkpt lat="49.49159" lon="0.47346">
        <ele>3</ele>
        <time>2013-03-30T22:22:59.000Z</time>
      </trkpt>
      <trkpt lat="49.49168" lon="0.47356">
        <ele>3.2000000476837</ele>
        <time>2013-03-30T22:23:04.000Z</time>
      </trkpt>
      <trkpt lat="49.49177" lon="0.47367">
        <ele>3.4000000953674</ele>
        <time>2013-03-30T22:23:10.000Z</time>
      </trkpt>
      <trkpt lat="49.49185" lon="0.47378">
        <ele>3.5999999046326</ele>
        <time>2013-03-30T22:23:17.000Z</time>
      </trkpt>
      <trkpt lat="49.49194" lon="0.47392">
        <ele>3.7999999523163</ele>
        <time>2013-03-30T22:23:23.000Z</time>
      </trkpt>
      <trkpt lat="49.49201" lon="0.47405">
        <ele>3.7999999523163</ele>
        <time>2013-03-30T22:23:28.000Z</time>
      </trkpt>
      <trkpt lat="49.49203" lon="0.47407">
        <ele>3.7999999523163</ele>
        <time>2013-03-30T22:23:32.000Z</time>
      </trkpt>
      <trkpt lat="49.49203" lon="0.47407">
        <ele>3.7999999523163</ele>
        <time>2013-03-30T22:23:36.000Z</time>
      </trkpt>
      <trkpt lat="49.49208" lon="0.47417">
        <ele>3.7999999523163</ele>
        <time>2013-03-30T22:23:42.000Z</time>
      </trkpt>
      <trkpt lat="49.49211" lon="0.47419">
        <ele>4</ele>
        <time>2013-03-30T22:23:44.000Z</time>
      </trkpt>
      <trkpt lat="49.49217" lon="0.47428">
        <ele>4</ele>
        <time>2013-03-30T22:23:49.000Z</time>
      </trkpt>
      <trkpt lat="49.4922" lon="0.47436">
        <ele>4</ele>
        <time>2013-03-30T22:23:53.000Z</time>
      </trkpt>
      <trkpt lat="49.4922" lon="0.47438">
        <ele>4</ele>
        <time>2013-03-30T22:24:01.000Z</time>
      </trkpt>
      <trkpt lat="49.49221" lon="0.47439">
        <ele>4</ele>
        <time>2013-03-30T22:24:07.000Z</time>
      </trkpt>
      <trkpt lat="49.49221" lon="0.47441">
        <ele>4</ele>
        <time>2013-03-30T22:24:17.000Z</time>
      </trkpt>
      <trkpt lat="49.49222" lon="0.47438">
        <ele>4</ele>
        <time>2013-03-30T22:24:21.000Z</time>
      </trkpt>
      <trkpt lat="49.49223" lon="0.47435">
        <ele>4</ele>
        <time>2013-03-30T22:24:25.000Z</time>
      </trkpt>
      <trkpt lat="49.49225" lon="0.47433">
        <ele>4</ele>
        <time>2013-03-30T22:24:32.000Z</time>
      </trkpt>
      <trkpt lat="49.49226" lon="0.47433">
        <ele>4</ele>
        <time>2013-03-30T22:24:34.000Z</time>
      </trkpt>
      <trkpt lat="49.49228" lon="0.4743">
        <ele>4</ele>
        <time>2013-03-30T22:24:39.000Z</time>
      </trkpt>
      <trkpt lat="49.49235" lon="0.47421">
        <ele>4</ele>
        <time>2013-03-30T22:24:46.000Z</time>
      </trkpt>
      <trkpt lat="49.49238" lon="0.47419">
        <ele>4</ele>
        <time>2013-03-30T22:24:51.000Z</time>
      </trkpt>
      <trkpt lat="49.4924" lon="0.47418">
        <ele>4</ele>
        <time>2013-03-30T22:24:52.000Z</time>
      </trkpt>
      <trkpt lat="49.49242" lon="0.47416">
        <ele>3.7999999523163</ele>
        <time>2013-03-30T22:24:55.000Z</time>
      </trkpt>
      <trkpt lat="49.49245" lon="0.47413">
        <ele>3.7999999523163</ele>
        <time>2013-03-30T22:25:01.000Z</time>
      </trkpt>
      <trkpt lat="49.49247" lon="0.47411">
        <ele>3.7999999523163</ele>
        <time>2013-03-30T22:25:03.000Z</time>
      </trkpt>
      <trkpt lat="49.49254" lon="0.47401">
        <ele>3.7999999523163</ele>
        <time>2013-03-30T22:25:08.000Z</time>
      </trkpt>
      <trkpt lat="49.49262" lon="0.47391">
        <ele>3.7999999523163</ele>
        <time>2013-03-30T22:25:13.000Z</time>
      </trkpt>
      <trkpt lat="49.49265" lon="0.47388">
        <ele>3.7999999523163</ele>
        <time>2013-03-30T22:25:15.000Z</time>
      </trkpt>
      <trkpt lat="49.4927" lon="0.47378">
        <ele>3.7999999523163</ele>
        <time>2013-03-30T22:25:19.000Z</time>
      </trkpt>
      <trkpt lat="49.49273" lon="0.47375">
        <ele>3.7999999523163</ele>
        <time>2013-03-30T22:25:21.000Z</time>
      </trkpt>
      <trkpt lat="49.4928" lon="0.47366">
        <ele>3.7999999523163</ele>
        <time>2013-03-30T22:25:25.000Z</time>
      </trkpt>
      <trkpt lat="49.49295" lon="0.47352">
        <ele>3.7999999523163</ele>
        <time>2013-03-30T22:25:33.000Z</time>
      </trkpt>
      <trkpt lat="49.49305" lon="0.47347">
        <ele>3.7999999523163</ele>
        <time>2013-03-30T22:25:38.000Z</time>
      </trkpt>
      <trkpt lat="49.49312" lon="0.47347">
        <ele>3.7999999523163</ele>
        <time>2013-03-30T22:25:41.000Z</time>
      </trkpt>
      <trkpt lat="49.49321" lon="0.47343">
        <ele>3.7999999523163</ele>
        <time>2013-03-30T22:25:45.000Z</time>
      </trkpt>
      <trkpt lat="49.49329" lon="0.47333">
        <ele>3.7999999523163</ele>
        <time>2013-03-30T22:25:49.000Z</time>
      </trkpt>
      <trkpt lat="49.49337" lon="0.47321">
        <ele>4.8000001907349</ele>
        <time>2013-03-30T22:25:55.000Z</time>
      </trkpt>
      <trkpt lat="49.49339" lon="0.47318">
        <ele>5.1999998092651</ele>
        <time>2013-03-30T22:26:00.000Z</time>
      </trkpt>
      <trkpt lat="49.49343" lon="0.47326">
        <ele>4.8000001907349</ele>
        <time>2013-03-30T22:26:05.000Z</time>
      </trkpt>
      <trkpt lat="49.49345" lon="0.47328">
        <ele>5</ele>
        <time>2013-03-30T22:26:07.000Z</time>
      </trkpt>
      <trkpt lat="49.49347" lon="0.47329">
        <ele>5</ele>
        <time>2013-03-30T22:26:09.000Z</time>
      </trkpt>
      <trkpt lat="49.49352" lon="0.47337">
        <ele>5</ele>
        <time>2013-03-30T22:26:14.000Z</time>
      </trkpt>
      <trkpt lat="49.49357" lon="0.4734">
        <ele>5</ele>
        <time>2013-03-30T22:26:18.000Z</time>
      </trkpt>
      <trkpt lat="49.49367" lon="0.47348">
        <ele>5.4000000953674</ele>
        <time>2013-03-30T22:26:27.000Z</time>
      </trkpt>
      <trkpt lat="49.49377" lon="0.47354">
        <ele>5.5999999046326</ele>
        <time>2013-03-30T22:26:33.000Z</time>
      </trkpt>
      <trkpt lat="49.49385" lon="0.47361">
        <ele>5.5999999046326</ele>
        <time>2013-03-30T22:26:38.000Z</time>
      </trkpt>
      <trkpt lat="49.49395" lon="0.47368">
        <ele>5.5999999046326</ele>
        <time>2013-03-30T22:26:43.000Z</time>
      </trkpt>
      <trkpt lat="49.49408" lon="0.47375">
        <ele>5.5999999046326</ele>
        <time>2013-03-30T22:26:49.000Z</time>
      </trkpt>
      <trkpt lat="49.49425" lon="0.4738">
        <ele>6</ele>
        <time>2013-03-30T22:26:56.000Z</time>
      </trkpt>
      <trkpt lat="49.49436" lon="0.47388">
        <ele>6</ele>
        <time>2013-03-30T22:27:01.000Z</time>
      </trkpt>
      <trkpt lat="49.49444" lon="0.47392">
        <ele>6.1999998092651</ele>
        <time>2013-03-30T22:27:06.000Z</time>
      </trkpt>
      <trkpt lat="49.49447" lon="0.47396">
        <ele>6</ele>
        <time>2013-03-30T22:27:13.000Z</time>
      </trkpt>
      <trkpt lat="49.49449" lon="0.474">
        <ele>5.8000001907349</ele>
        <time>2013-03-30T22:27:25.000Z</time>
      </trkpt>
      <trkpt lat="49.49448" lon="0.47401">
        <ele>5.5999999046326</ele>
        <time>2013-03-30T22:27:28.000Z</time>
      </trkpt>
      <trkpt lat="49.4945" lon="0.47409">
        <ele>5.1999998092651</ele>
        <time>2013-03-30T22:27:32.000Z</time>
      </trkpt>
      <trkpt lat="49.49462" lon="0.47422">
        <ele>5</ele>
        <time>2013-03-30T22:27:38.000Z</time>
      </trkpt>
      <trkpt lat="49.4947" lon="0.47434">
        <ele>5.1999998092651</ele>
        <time>2013-03-30T22:27:43.000Z</time>
      </trkpt>
      <trkpt lat="49.49478" lon="0.47442">
        <ele>5.4000000953674</ele>
        <time>2013-03-30T22:27:49.000Z</time>
      </trkpt>
      <trkpt lat="49.49486" lon="0.47455">
        <ele>5.4000000953674</ele>
        <time>2013-03-30T22:27:57.000Z</time>
      </trkpt>
      <trkpt lat="49.49493" lon="0.47467">
        <ele>5.4000000953674</ele>
        <time>2013-03-30T22:28:05.000Z</time>
      </trkpt>
      <trkpt lat="49.49504" lon="0.47477">
        <ele>5.5999999046326</ele>
        <time>2013-03-30T22:28:15.000Z</time>
      </trkpt>
      <trkpt lat="49.49506" lon="0.47478">
        <ele>5.8000001907349</ele>
        <time>2013-03-30T22:28:17.000Z</time>
      </trkpt>
      <trkpt lat="49.49515" lon="0.47486">
        <ele>5.8000001907349</ele>
        <time>2013-03-30T22:28:25.000Z</time>
      </trkpt>
      <trkpt lat="49.49521" lon="0.47495">
        <ele>5.4000000953674</ele>
        <time>2013-03-30T22:28:33.000Z</time>
      </trkpt>
      <trkpt lat="49.49522" lon="0.47497">
        <ele>5.4000000953674</ele>
        <time>2013-03-30T22:28:39.000Z</time>
      </trkpt>
      <trkpt lat="49.49521" lon="0.47499">
        <ele>5.1999998092651</ele>
        <time>2013-03-30T22:28:55.000Z</time>
      </trkpt>
      <trkpt lat="49.49522" lon="0.47503">
        <ele>5.1999998092651</ele>
        <time>2013-03-30T22:28:59.000Z</time>
      </trkpt>
      <trkpt lat="49.49524" lon="0.47511">
        <ele>5</ele>
        <time>2013-03-30T22:29:04.000Z</time>
      </trkpt>
      <trkpt lat="49.49524" lon="0.47513">
        <ele>5</ele>
        <time>2013-03-30T22:29:07.000Z</time>
      </trkpt>
      <trkpt lat="49.49528" lon="0.47517">
        <ele>4.8000001907349</ele>
        <time>2013-03-30T22:29:11.000Z</time>
      </trkpt>
      <trkpt lat="49.49531" lon="0.47521">
        <ele>4.8000001907349</ele>
        <time>2013-03-30T22:29:15.000Z</time>
      </trkpt>
      <trkpt lat="49.49534" lon="0.47527">
        <ele>4.8000001907349</ele>
        <time>2013-03-30T22:29:20.000Z</time>
      </trkpt>
      <trkpt lat="49.49543" lon="0.47538">
        <ele>4.4000000953674</ele>
        <time>2013-03-30T22:29:28.000Z</time>
      </trkpt>
      <trkpt lat="49.49544" lon="0.47539">
        <ele>4.4000000953674</ele>
        <time>2013-03-30T22:29:29.000Z</time>
      </trkpt>
      <trkpt lat="49.49548" lon="0.47555">
        <ele>4</ele>
        <time>2013-03-30T22:29:34.000Z</time>
      </trkpt>
      <trkpt lat="49.49554" lon="0.47571">
        <ele>3.5999999046326</ele>
        <time>2013-03-30T22:29:39.000Z</time>
      </trkpt>
      <trkpt lat="49.49564" lon="0.47585">
        <ele>3.2000000476837</ele>
        <time>2013-03-30T22:29:45.000Z</time>
      </trkpt>
      <trkpt lat="49.49573" lon="0.47598">
        <ele>2.7999999523163</ele>
        <time>2013-03-30T22:29:50.000Z</time>
      </trkpt>
      <trkpt lat="49.49579" lon="0.47609">
        <ele>2.5999999046326</ele>
        <time>2013-03-30T22:29:56.000Z</time>
      </trkpt>
      <trkpt lat="49.49587" lon="0.47622">
        <ele>2.5999999046326</ele>
        <time>2013-03-30T22:30:01.000Z</time>
      </trkpt>
      <trkpt lat="49.49594" lon="0.47636">
        <ele>2.4000000953674</ele>
        <time>2013-03-30T22:30:06.000Z</time>
      </trkpt>
      <trkpt lat="49.496" lon="0.4765">
        <ele>2.4000000953674</ele>
        <time>2013-03-30T22:30:11.000Z</time>
      </trkpt>
      <trkpt lat="49.49606" lon="0.47663">
        <ele>2.2000000476837</ele>
        <time>2013-03-30T22:30:16.000Z</time>
      </trkpt>
      <trkpt lat="49.49611" lon="0.47679">
        <ele>2</ele>
        <time>2013-03-30T22:30:22.000Z</time>
      </trkpt>
      <trkpt lat="49.49612" lon="0.47681">
        <ele>2</ele>
        <time>2013-03-30T22:30:23.000Z</time>
      </trkpt>
      <trkpt lat="49.49617" lon="0.47685">
        <ele>2</ele>
        <time>2013-03-30T22:30:29.000Z</time>
      </trkpt>
      <trkpt lat="49.49619" lon="0.47689">
        <ele>2</ele>
        <time>2013-03-30T22:30:32.000Z</time>
      </trkpt>
      <trkpt lat="49.49624" lon="0.47703">
        <ele>2</ele>
        <time>2013-03-30T22:30:38.000Z</time>
      </trkpt>
      <trkpt lat="49.4963" lon="0.47719">
        <ele>1.7999999523163</ele>
        <time>2013-03-30T22:30:44.000Z</time>
      </trkpt>
      <trkpt lat="49.49634" lon="0.4773">
        <ele>1.7999999523163</ele>
        <time>2013-03-30T22:30:50.000Z</time>
      </trkpt>
      <trkpt lat="49.49635" lon="0.47735">
        <ele>1.7999999523163</ele>
        <time>2013-03-30T22:30:56.000Z</time>
      </trkpt>
      <trkpt lat="49.49636" lon="0.47737">
        <ele>1.6000000238419</ele>
        <time>2013-03-30T22:30:57.000Z</time>
      </trkpt>
      <trkpt lat="49.49643" lon="0.47755">
        <ele>1.6000000238419</ele>
        <time>2013-03-30T22:31:03.000Z</time>
      </trkpt>
      <trkpt lat="49.49648" lon="0.47767">
        <ele>1.3999999761581</ele>
        <time>2013-03-30T22:31:09.000Z</time>
      </trkpt>
      <trkpt lat="49.49654" lon="0.47783">
        <ele>1.2000000476837</ele>
        <time>2013-03-30T22:31:15.000Z</time>
      </trkpt>
      <trkpt lat="49.4966" lon="0.478">
        <ele>1.2000000476837</ele>
        <time>2013-03-30T22:31:21.000Z</time>
      </trkpt>
      <trkpt lat="49.49663" lon="0.4781">
        <ele>1.2000000476837</ele>
        <time>2013-03-30T22:31:26.000Z</time>
      </trkpt>
      <trkpt lat="49.49668" lon="0.47823">
        <ele>1</ele>
        <time>2013-03-30T22:31:33.000Z</time>
      </trkpt>
      <trkpt lat="49.49671" lon="0.47833">
        <ele>1</ele>
        <time>2013-03-30T22:31:39.000Z</time>
      </trkpt>
      <trkpt lat="49.49679" lon="0.47851">
        <ele>1.6000000238419</ele>
        <time>2013-03-30T22:31:50.000Z</time>
      </trkpt>
      <trkpt lat="49.49685" lon="0.47867">
        <ele>2</ele>
        <time>2013-03-30T22:31:58.000Z</time>
      </trkpt>
      <trkpt lat="49.49689" lon="0.4788">
        <ele>2.4000000953674</ele>
        <time>2013-03-30T22:32:06.000Z</time>
      </trkpt>
      <trkpt lat="49.49694" lon="0.47892">
        <ele>2.7999999523163</ele>
        <time>2013-03-30T22:32:13.000Z</time>
      </trkpt>
      <trkpt lat="49.49697" lon="0.47906">
        <ele>3</ele>
        <time>2013-03-30T22:32:19.000Z</time>
      </trkpt>
      <trkpt lat="49.49698" lon="0.47911">
        <ele>3.2000000476837</ele>
        <time>2013-03-30T22:32:25.000Z</time>
      </trkpt>
      <trkpt lat="49.49696" lon="0.47913">
        <ele>3.2000000476837</ele>
        <time>2013-03-30T22:32:33.000Z</time>
      </trkpt>
      <trkpt lat="49.49696" lon="0.47915">
        <ele>3.2000000476837</ele>
        <time>2013-03-30T22:32:43.000Z</time>
      </trkpt>
      <trkpt lat="49.49691" lon="0.47918">
        <ele>3.2000000476837</ele>
        <time>2013-03-30T22:32:50.000Z</time>
      </trkpt>
      <trkpt lat="49.49678" lon="0.47928">
        <ele>3</ele>
        <time>2013-03-30T22:32:56.000Z</time>
      </trkpt>
      <trkpt lat="49.49664" lon="0.47938">
        <ele>2.7999999523163</ele>
        <time>2013-03-30T22:33:03.000Z</time>
      </trkpt>
      <trkpt lat="49.49654" lon="0.47945">
        <ele>2.7999999523163</ele>
        <time>2013-03-30T22:33:08.000Z</time>
      </trkpt>
      <trkpt lat="49.49641" lon="0.47952">
        <ele>2.5999999046326</ele>
        <time>2013-03-30T22:33:14.000Z</time>
      </trkpt>
      <trkpt lat="49.49629" lon="0.47961">
        <ele>2.4000000953674</ele>
        <time>2013-03-30T22:33:20.000Z</time>
      </trkpt>
      <trkpt lat="49.49616" lon="0.47969">
        <ele>2.4000000953674</ele>
        <time>2013-03-30T22:33:26.000Z</time>
      </trkpt>
      <trkpt lat="49.49602" lon="0.47979">
        <ele>2.5999999046326</ele>
        <time>2013-03-30T22:33:33.000Z</time>
      </trkpt>
      <trkpt lat="49.49591" lon="0.47985">
        <ele>2.5999999046326</ele>
        <time>2013-03-30T22:33:38.000Z</time>
      </trkpt>
      <trkpt lat="49.49587" lon="0.47988">
        <ele>2.5999999046326</ele>
        <time>2013-03-30T22:33:40.000Z</time>
      </trkpt>
      <trkpt lat="49.4958" lon="0.47993">
        <ele>2.7999999523163</ele>
        <time>2013-03-30T22:33:46.000Z</time>
      </trkpt>
      <trkpt lat="49.49573" lon="0.47996">
        <ele>2.7999999523163</ele>
        <time>2013-03-30T22:33:52.000Z</time>
      </trkpt>
      <trkpt lat="49.49572" lon="0.47998">
        <ele>2.7999999523163</ele>
        <time>2013-03-30T22:33:58.000Z</time>
      </trkpt>
      <trkpt lat="49.49573" lon="0.48">
        <ele>2.7999999523163</ele>
        <time>2013-03-30T22:34:36.000Z</time>
      </trkpt>
      <trkpt lat="49.49574" lon="0.48006">
        <ele>2.7999999523163</ele>
        <time>2013-03-30T22:34:45.000Z</time>
      </trkpt>
      <trkpt lat="49.49575" lon="0.48007">
        <ele>2.7999999523163</ele>
        <time>2013-03-30T22:34:46.000Z</time>
      </trkpt>
      <trkpt lat="49.49579" lon="0.48014">
        <ele>2.7999999523163</ele>
        <time>2013-03-30T22:34:53.000Z</time>
      </trkpt>
      <trkpt lat="49.49586" lon="0.48026">
        <ele>3</ele>
        <time>2013-03-30T22:35:01.000Z</time>
      </trkpt>
      <trkpt lat="49.49591" lon="0.48037">
        <ele>3</ele>
        <time>2013-03-30T22:35:08.000Z</time>
      </trkpt>
      <trkpt lat="49.49592" lon="0.4804">
        <ele>3</ele>
        <time>2013-03-30T22:35:15.000Z</time>
      </trkpt>
      <trkpt lat="49.49595" lon="0.48047">
        <ele>3</ele>
        <time>2013-03-30T22:35:26.000Z</time>
      </trkpt>
      <trkpt lat="49.49603" lon="0.48062">
        <ele>3</ele>
        <time>2013-03-30T22:35:32.000Z</time>
      </trkpt>
      <trkpt lat="49.49612" lon="0.48079">
        <ele>3</ele>
        <time>2013-03-30T22:35:38.000Z</time>
      </trkpt>
      <trkpt lat="49.49618" lon="0.48089">
        <ele>3</ele>
        <time>2013-03-30T22:35:42.000Z</time>
      </trkpt>
      <trkpt lat="49.49627" lon="0.48102">
        <ele>3</ele>
        <time>2013-03-30T22:35:47.000Z</time>
      </trkpt>
      <trkpt lat="49.4963" lon="0.48108">
        <ele>3</ele>
        <time>2013-03-30T22:35:50.000Z</time>
      </trkpt>
      <trkpt lat="49.49633" lon="0.48112">
        <ele>3.2000000476837</ele>
        <time>2013-03-30T22:35:59.000Z</time>
      </trkpt>
      <trkpt lat="49.49641" lon="0.48128">
        <ele>3.2000000476837</ele>
        <time>2013-03-30T22:36:05.000Z</time>
      </trkpt>
      <trkpt lat="49.49648" lon="0.48137">
        <ele>3.4000000953674</ele>
        <time>2013-03-30T22:36:09.000Z</time>
      </trkpt>
      <trkpt lat="49.49658" lon="0.48153">
        <ele>3.5999999046326</ele>
        <time>2013-03-30T22:36:15.000Z</time>
      </trkpt>
      <trkpt lat="49.49666" lon="0.48169">
        <ele>3.7999999523163</ele>
        <time>2013-03-30T22:36:21.000Z</time>
      </trkpt>
      <trkpt lat="49.49675" lon="0.48181">
        <ele>3.5999999046326</ele>
        <time>2013-03-30T22:36:27.000Z</time>
      </trkpt>
      <trkpt lat="49.49682" lon="0.48193">
        <ele>3.4000000953674</ele>
        <time>2013-03-30T22:36:32.000Z</time>
      </trkpt>
      <trkpt lat="49.49689" lon="0.48205">
        <ele>3.2000000476837</ele>
        <time>2013-03-30T22:36:37.000Z</time>
      </trkpt>
      <trkpt lat="49.49696" lon="0.48214">
        <ele>3.2000000476837</ele>
        <time>2013-03-30T22:36:41.000Z</time>
      </trkpt>
      <trkpt lat="49.49704" lon="0.48228">
        <ele>3</ele>
        <time>2013-03-30T22:36:47.000Z</time>
      </trkpt>
      <trkpt lat="49.49713" lon="0.48241">
        <ele>3</ele>
        <time>2013-03-30T22:36:53.000Z</time>
      </trkpt>
      <trkpt lat="49.49722" lon="0.48254">
        <ele>3</ele>
        <time>2013-03-30T22:36:59.000Z</time>
      </trkpt>
      <trkpt lat="49.4973" lon="0.48266">
        <ele>3</ele>
        <time>2013-03-30T22:37:05.000Z</time>
      </trkpt>
      <trkpt lat="49.49737" lon="0.48275">
        <ele>3</ele>
        <time>2013-03-30T22:37:10.000Z</time>
      </trkpt>
      <trkpt lat="49.49747" lon="0.48285">
        <ele>3</ele>
        <time>2013-03-30T22:37:16.000Z</time>
      </trkpt>
      <trkpt lat="49.49755" lon="0.48299">
        <ele>3</ele>
        <time>2013-03-30T22:37:22.000Z</time>
      </trkpt>
      <trkpt lat="49.49762" lon="0.48311">
        <ele>3</ele>
        <time>2013-03-30T22:37:27.000Z</time>
      </trkpt>
      <trkpt lat="49.49769" lon="0.48324">
        <ele>3</ele>
        <time>2013-03-30T22:37:33.000Z</time>
      </trkpt>
      <trkpt lat="49.49776" lon="0.48337">
        <ele>2.7999999523163</ele>
        <time>2013-03-30T22:37:39.000Z</time>
      </trkpt>
      <trkpt lat="49.49784" lon="0.48352">
        <ele>2.5999999046326</ele>
        <time>2013-03-30T22:37:45.000Z</time>
      </trkpt>
      <trkpt lat="49.49788" lon="0.48361">
        <ele>2.5999999046326</ele>
        <time>2013-03-30T22:37:50.000Z</time>
      </trkpt>
      <trkpt lat="49.49789" lon="0.48364">
        <ele>2.5999999046326</ele>
        <time>2013-03-30T22:37:52.000Z</time>
      </trkpt>
      <trkpt lat="49.49792" lon="0.48371">
        <ele>2.4000000953674</ele>
        <time>2013-03-30T22:37:57.000Z</time>
      </trkpt>
      <trkpt lat="49.49792" lon="0.48372">
        <ele>2.4000000953674</ele>
        <time>2013-03-30T22:37:58.000Z</time>
      </trkpt>
      <trkpt lat="49.49792" lon="0.48376">
        <ele>2.4000000953674</ele>
        <time>2013-03-30T22:38:06.000Z</time>
      </trkpt>
      <trkpt lat="49.49792" lon="0.48381">
        <ele>2.4000000953674</ele>
        <time>2013-03-30T22:38:12.000Z</time>
      </trkpt>
      <trkpt lat="49.49795" lon="0.48389">
        <ele>2.2000000476837</ele>
        <time>2013-03-30T22:38:16.000Z</time>
      </trkpt>
      <trkpt lat="49.49799" lon="0.48397">
        <ele>2.2000000476837</ele>
        <time>2013-03-30T22:38:21.000Z</time>
      </trkpt>
      <trkpt lat="49.49802" lon="0.48403">
        <ele>2</ele>
        <time>2013-03-30T22:38:24.000Z</time>
      </trkpt>
      <trkpt lat="49.49809" lon="0.48415">
        <ele>2</ele>
        <time>2013-03-30T22:38:32.000Z</time>
      </trkpt>
      <trkpt lat="49.49817" lon="0.48423">
        <ele>2</ele>
        <time>2013-03-30T22:38:37.000Z</time>
      </trkpt>
      <trkpt lat="49.49826" lon="0.48427">
        <ele>2</ele>
        <time>2013-03-30T22:38:42.000Z</time>
      </trkpt>
      <trkpt lat="49.49835" lon="0.48431">
        <ele>2</ele>
        <time>2013-03-30T22:38:49.000Z</time>
      </trkpt>
      <trkpt lat="49.4984" lon="0.48434">
        <ele>2.2000000476837</ele>
        <time>2013-03-30T22:38:53.000Z</time>
      </trkpt>
      <trkpt lat="49.49846" lon="0.48437">
        <ele>2.2000000476837</ele>
        <time>2013-03-30T22:38:59.000Z</time>
      </trkpt>
      <trkpt lat="49.49848" lon="0.48437">
        <ele>2.2000000476837</ele>
        <time>2013-03-30T22:39:00.000Z</time>
      </trkpt>
      <trkpt lat="49.49858" lon="0.4845">
        <ele>2.4000000953674</ele>
        <time>2013-03-30T22:39:09.000Z</time>
      </trkpt>
      <trkpt lat="49.49863" lon="0.48459">
        <ele>2.5999999046326</ele>
        <time>2013-03-30T22:39:15.000Z</time>
      </trkpt>
      <trkpt lat="49.49866" lon="0.48464">
        <ele>2.5999999046326</ele>
        <time>2013-03-30T22:39:18.000Z</time>
      </trkpt>
      <trkpt lat="49.49867" lon="0.48467">
        <ele>2.7999999523163</ele>
        <time>2013-03-30T22:39:24.000Z</time>
      </trkpt>
      <trkpt lat="49.49866" lon="0.4847">
        <ele>2.7999999523163</ele>
        <time>2013-03-30T22:39:37.000Z</time>
      </trkpt>
      <trkpt lat="49.49864" lon="0.48467">
        <ele>2.7999999523163</ele>
        <time>2013-03-30T22:39:40.000Z</time>
      </trkpt>
      <trkpt lat="49.49863" lon="0.48467">
        <ele>2.7999999523163</ele>
        <time>2013-03-30T22:39:43.000Z</time>
      </trkpt>
      <trkpt lat="49.49866" lon="0.48478">
        <ele>3</ele>
        <time>2013-03-30T22:39:50.000Z</time>
      </trkpt>
      <trkpt lat="49.49871" lon="0.48492">
        <ele>3.2000000476837</ele>
        <time>2013-03-30T22:39:58.000Z</time>
      </trkpt>
      <trkpt lat="49.49871" lon="0.48496">
        <ele>3.2000000476837</ele>
        <time>2013-03-30T22:40:00.000Z</time>
      </trkpt>
      <trkpt lat="49.49864" lon="0.485">
        <ele>3.2000000476837</ele>
        <time>2013-03-30T22:40:06.000Z</time>
      </trkpt>
      <trkpt lat="49.49858" lon="0.48504">
        <ele>3.2000000476837</ele>
        <time>2013-03-30T22:40:11.000Z</time>
      </trkpt>
      <trkpt lat="49.49853" lon="0.48506">
        <ele>3.2000000476837</ele>
        <time>2013-03-30T22:40:14.000Z</time>
      </trkpt>
      <trkpt lat="49.49847" lon="0.48502">
        <ele>3</ele>
        <time>2013-03-30T22:40:20.000Z</time>
      </trkpt>
      <trkpt lat="49.49843" lon="0.48505">
        <ele>3</ele>
        <time>2013-03-30T22:40:24.000Z</time>
      </trkpt>
      <trkpt lat="49.4984" lon="0.48512">
        <ele>3</ele>
        <time>2013-03-30T22:40:29.000Z</time>
      </trkpt>
      <trkpt lat="49.49839" lon="0.48515">
        <ele>3</ele>
        <time>2013-03-30T22:40:31.000Z</time>
      </trkpt>
      <trkpt lat="49.4984" lon="0.48517">
        <ele>3</ele>
        <time>2013-03-30T22:40:39.000Z</time>
      </trkpt>
      <trkpt lat="49.4984" lon="0.4852">
        <ele>3</ele>
        <time>2013-03-30T22:40:58.000Z</time>
      </trkpt>
      <trkpt lat="49.49838" lon="0.48521">
        <ele>3</ele>
        <time>2013-03-30T22:41:03.000Z</time>
      </trkpt>
      <trkpt lat="49.49838" lon="0.48525">
        <ele>3</ele>
        <time>2013-03-30T22:41:20.000Z</time>
      </trkpt>
      <trkpt lat="49.49837" lon="0.48527">
        <ele>3</ele>
        <time>2013-03-30T22:41:30.000Z</time>
      </trkpt>
      <trkpt lat="49.49837" lon="0.48529">
        <ele>3</ele>
        <time>2013-03-30T22:41:32.000Z</time>
      </trkpt>
      <trkpt lat="49.49837" lon="0.48534">
        <ele>3</ele>
        <time>2013-03-30T22:41:36.000Z</time>
      </trkpt>
      <trkpt lat="49.49838" lon="0.48535">
        <ele>3</ele>
        <time>2013-03-30T22:41:37.000Z</time>
      </trkpt>
      <trkpt lat="49.49844" lon="0.4854">
        <ele>3</ele>
        <time>2013-03-30T22:41:42.000Z</time>
      </trkpt>
      <trkpt lat="49.49848" lon="0.48543">
        <ele>3</ele>
        <time>2013-03-30T22:41:47.000Z</time>
      </trkpt>
      <trkpt lat="49.49848" lon="0.48544">
        <ele>3</ele>
        <time>2013-03-30T22:41:48.000Z</time>
      </trkpt>
      <trkpt lat="49.49848" lon="0.48547">
        <ele>3</ele>
        <time>2013-03-30T22:41:56.000Z</time>
      </trkpt>
      <trkpt lat="49.49851" lon="0.48551">
        <ele>3</ele>
        <time>2013-03-30T22:42:00.000Z</time>
      </trkpt>
      <trkpt lat="49.49859" lon="0.48557">
        <ele>3</ele>
        <time>2013-03-30T22:42:06.000Z</time>
      </trkpt>
      <trkpt lat="49.49868" lon="0.48564">
        <ele>3</ele>
        <time>2013-03-30T22:42:11.000Z</time>
      </trkpt>
      <trkpt lat="49.49873" lon="0.48569">
        <ele>3</ele>
        <time>2013-03-30T22:42:15.000Z</time>
      </trkpt>
      <trkpt lat="49.49878" lon="0.48572">
        <ele>3</ele>
        <time>2013-03-30T22:42:19.000Z</time>
      </trkpt>
      <trkpt lat="49.49884" lon="0.48576">
        <ele>3</ele>
        <time>2013-03-30T22:42:26.000Z</time>
      </trkpt>
      <trkpt lat="49.4989" lon="0.48578">
        <ele>3</ele>
        <time>2013-03-30T22:42:32.000Z</time>
      </trkpt>
      <trkpt lat="49.4989" lon="0.48579">
        <ele>3</ele>
        <time>2013-03-30T22:42:33.000Z</time>
      </trkpt>
      <trkpt lat="49.49893" lon="0.4858">
        <ele>3</ele>
        <time>2013-03-30T22:42:37.000Z</time>
      </trkpt>
      <trkpt lat="49.49899" lon="0.48585">
        <ele>3</ele>
        <time>2013-03-30T22:42:45.000Z</time>
      </trkpt>
      <trkpt lat="49.499" lon="0.48585">
        <ele>3</ele>
        <time>2013-03-30T22:42:46.000Z</time>
      </trkpt>
      <trkpt lat="49.49904" lon="0.4859">
        <ele>3</ele>
        <time>2013-03-30T22:42:50.000Z</time>
      </trkpt>
      <trkpt lat="49.49912" lon="0.48601">
        <ele>3.2000000476837</ele>
        <time>2013-03-30T22:42:58.000Z</time>
      </trkpt>
      <trkpt lat="49.49918" lon="0.48612">
        <ele>3.2000000476837</ele>
        <time>2013-03-30T22:43:03.000Z</time>
      </trkpt>
      <trkpt lat="49.49924" lon="0.48622">
        <ele>3.4000000953674</ele>
        <time>2013-03-30T22:43:09.000Z</time>
      </trkpt>
      <trkpt lat="49.49929" lon="0.48627">
        <ele>3.4000000953674</ele>
        <time>2013-03-30T22:43:13.000Z</time>
      </trkpt>
      <trkpt lat="49.49931" lon="0.4863">
        <ele>3.5999999046326</ele>
        <time>2013-03-30T22:43:16.000Z</time>
      </trkpt>
      <trkpt lat="49.49932" lon="0.48632">
        <ele>3.5999999046326</ele>
        <time>2013-03-30T22:43:22.000Z</time>
      </trkpt>
      <trkpt lat="49.49933" lon="0.48634">
        <ele>3.5999999046326</ele>
        <time>2013-03-30T22:43:26.000Z</time>
      </trkpt>
      <trkpt lat="49.49941" lon="0.48646">
        <ele>3.7999999523163</ele>
        <time>2013-03-30T22:43:31.000Z</time>
      </trkpt>
      <trkpt lat="49.49944" lon="0.48652">
        <ele>4</ele>
        <time>2013-03-30T22:43:33.000Z</time>
      </trkpt>
      <trkpt lat="49.49956" lon="0.48664">
        <ele>4.4000000953674</ele>
        <time>2013-03-30T22:43:39.000Z</time>
      </trkpt>
      <trkpt lat="49.49965" lon="0.48673">
        <ele>4.5999999046326</ele>
        <time>2013-03-30T22:43:44.000Z</time>
      </trkpt>
      <trkpt lat="49.49975" lon="0.48686">
        <ele>5</ele>
        <time>2013-03-30T22:43:50.000Z</time>
      </trkpt>
      <trkpt lat="49.49983" lon="0.48694">
        <ele>5.1999998092651</ele>
        <time>2013-03-30T22:43:55.000Z</time>
      </trkpt>
      <trkpt lat="49.4999" lon="0.48704">
        <ele>5.4000000953674</ele>
        <time>2013-03-30T22:44:00.000Z</time>
      </trkpt>
      <trkpt lat="49.49994" lon="0.48721">
        <ele>5.5999999046326</ele>
        <time>2013-03-30T22:44:05.000Z</time>
      </trkpt>
      <trkpt lat="49.49999" lon="0.48737">
        <ele>5.8000001907349</ele>
        <time>2013-03-30T22:44:10.000Z</time>
      </trkpt>
      <trkpt lat="49.50002" lon="0.48755">
        <ele>5.8000001907349</ele>
        <time>2013-03-30T22:44:15.000Z</time>
      </trkpt>
      <trkpt lat="49.50005" lon="0.48769">
        <ele>5.5999999046326</ele>
        <time>2013-03-30T22:44:20.000Z</time>
      </trkpt>
      <trkpt lat="49.50007" lon="0.48775">
        <ele>5.5999999046326</ele>
        <time>2013-03-30T22:44:22.000Z</time>
      </trkpt>
      <trkpt lat="49.50011" lon="0.48789">
        <ele>5.4000000953674</ele>
        <time>2013-03-30T22:44:26.000Z</time>
      </trkpt>
      <trkpt lat="49.50025" lon="0.48812">
        <ele>5</ele>
        <time>2013-03-30T22:44:34.000Z</time>
      </trkpt>
      <trkpt lat="49.50031" lon="0.48828">
        <ele>5</ele>
        <time>2013-03-30T22:44:39.000Z</time>
      </trkpt>
      <trkpt lat="49.50037" lon="0.48843">
        <ele>4.5999999046326</ele>
        <time>2013-03-30T22:44:44.000Z</time>
      </trkpt>
      <trkpt lat="49.5004" lon="0.48862">
        <ele>4</ele>
        <time>2013-03-30T22:44:50.000Z</time>
      </trkpt>
      <trkpt lat="49.50037" lon="0.48875">
        <ele>3.5999999046326</ele>
        <time>2013-03-30T22:44:56.000Z</time>
      </trkpt>
      <trkpt lat="49.50032" lon="0.48884">
        <ele>3.4000000953674</ele>
        <time>2013-03-30T22:45:04.000Z</time>
      </trkpt>
      <trkpt lat="49.50032" lon="0.48885">
        <ele>3.4000000953674</ele>
        <time>2013-03-30T22:45:20.000Z</time>
      </trkpt>
      <trkpt lat="49.50034" lon="0.48897">
        <ele>3</ele>
        <time>2013-03-30T22:45:25.000Z</time>
      </trkpt>
      <trkpt lat="49.50033" lon="0.48912">
        <ele>2.5999999046326</ele>
        <time>2013-03-30T22:45:30.000Z</time>
      </trkpt>
      <trkpt lat="49.50034" lon="0.48915">
        <ele>2.5999999046326</ele>
        <time>2013-03-30T22:45:31.000Z</time>
      </trkpt>
      <trkpt lat="49.50034" lon="0.48922">
        <ele>2.4000000953674</ele>
        <time>2013-03-30T22:45:36.000Z</time>
      </trkpt>
      <trkpt lat="49.50034" lon="0.48923">
        <ele>2.4000000953674</ele>
        <time>2013-03-30T22:45:43.000Z</time>
      </trkpt>
      <trkpt lat="49.50035" lon="0.48931">
        <ele>2.4000000953674</ele>
        <time>2013-03-30T22:45:54.000Z</time>
      </trkpt>
      <trkpt lat="49.50034" lon="0.48932">
        <ele>2.4000000953674</ele>
        <time>2013-03-30T22:45:55.000Z</time>
      </trkpt>
      <trkpt lat="49.50035" lon="0.4895">
        <ele>2.2000000476837</ele>
        <time>2013-03-30T22:46:01.000Z</time>
      </trkpt>
      <trkpt lat="49.50037" lon="0.48976">
        <ele>2</ele>
        <time>2013-03-30T22:46:09.000Z</time>
      </trkpt>
      <trkpt lat="49.50037" lon="0.48995">
        <ele>2</ele>
        <time>2013-03-30T22:46:15.000Z</time>
      </trkpt>
      <trkpt lat="49.50037" lon="0.49013">
        <ele>2</ele>
        <time>2013-03-30T22:46:21.000Z</time>
      </trkpt>
      <trkpt lat="49.50037" lon="0.49032">
        <ele>2.2000000476837</ele>
        <time>2013-03-30T22:46:27.000Z</time>
      </trkpt>
      <trkpt lat="49.50037" lon="0.49051">
        <ele>2.5999999046326</ele>
        <time>2013-03-30T22:46:33.000Z</time>
      </trkpt>
      <trkpt lat="49.50036" lon="0.49069">
        <ele>2.7999999523163</ele>
        <time>2013-03-30T22:46:39.000Z</time>
      </trkpt>
      <trkpt lat="49.50035" lon="0.49089">
        <ele>3</ele>
        <time>2013-03-30T22:46:45.000Z</time>
      </trkpt>
      <trkpt lat="49.50035" lon="0.49113">
        <ele>3.2000000476837</ele>
        <time>2013-03-30T22:46:52.000Z</time>
      </trkpt>
      <trkpt lat="49.50034" lon="0.49136">
        <ele>3.2000000476837</ele>
        <time>2013-03-30T22:46:59.000Z</time>
      </trkpt>
      <trkpt lat="49.50033" lon="0.49156">
        <ele>3.4000000953674</ele>
        <time>2013-03-30T22:47:05.000Z</time>
      </trkpt>
      <trkpt lat="49.50031" lon="0.49176">
        <ele>3.5999999046326</ele>
        <time>2013-03-30T22:47:12.000Z</time>
      </trkpt>
      <trkpt lat="49.50028" lon="0.49192">
        <ele>4</ele>
        <time>2013-03-30T22:47:18.000Z</time>
      </trkpt>
      <trkpt lat="49.50026" lon="0.49214">
        <ele>4.4000000953674</ele>
        <time>2013-03-30T22:47:26.000Z</time>
      </trkpt>
      <trkpt lat="49.50025" lon="0.49225">
        <ele>4.5999999046326</ele>
        <time>2013-03-30T22:47:31.000Z</time>
      </trkpt>
      <trkpt lat="49.50024" lon="0.4924">
        <ele>4.8000001907349</ele>
        <time>2013-03-30T22:47:38.000Z</time>
      </trkpt>
      <trkpt lat="49.50023" lon="0.49257">
        <ele>5</ele>
        <time>2013-03-30T22:47:46.000Z</time>
      </trkpt>
      <trkpt lat="49.50022" lon="0.49266">
        <ele>5</ele>
        <time>2013-03-30T22:47:52.000Z</time>
      </trkpt>
      <trkpt lat="49.50021" lon="0.49269">
        <ele>5</ele>
        <time>2013-03-30T22:47:54.000Z</time>
      </trkpt>
      <trkpt lat="49.50022" lon="0.49279">
        <ele>5</ele>
        <time>2013-03-30T22:48:00.000Z</time>
      </trkpt>
      <trkpt lat="49.50022" lon="0.49297">
        <ele>5</ele>
        <time>2013-03-30T22:48:07.000Z</time>
      </trkpt>
      <trkpt lat="49.50021" lon="0.49306">
        <ele>5</ele>
        <time>2013-03-30T22:48:10.000Z</time>
      </trkpt>
      <trkpt lat="49.50025" lon="0.49321">
        <ele>5</ele>
        <time>2013-03-30T22:48:16.000Z</time>
      </trkpt>
      <trkpt lat="49.50026" lon="0.49336">
        <ele>4.8000001907349</ele>
        <time>2013-03-30T22:48:22.000Z</time>
      </trkpt>
      <trkpt lat="49.50027" lon="0.49355">
        <ele>4.5999999046326</ele>
        <time>2013-03-30T22:48:28.000Z</time>
      </trkpt>
      <trkpt lat="49.50028" lon="0.49365">
        <ele>4.4000000953674</ele>
        <time>2013-03-30T22:48:33.000Z</time>
      </trkpt>
      <trkpt lat="49.50028" lon="0.49367">
        <ele>4.4000000953674</ele>
        <time>2013-03-30T22:48:34.000Z</time>
      </trkpt>
      <trkpt lat="49.50027" lon="0.49375">
        <ele>4.1999998092651</ele>
        <time>2013-03-30T22:48:39.000Z</time>
      </trkpt>
      <trkpt lat="49.50026" lon="0.49376">
        <ele>4.1999998092651</ele>
        <time>2013-03-30T22:48:40.000Z</time>
      </trkpt>
      <trkpt lat="49.50022" lon="0.49382">
        <ele>4.1999998092651</ele>
        <time>2013-03-30T22:48:44.000Z</time>
      </trkpt>
      <trkpt lat="49.5002" lon="0.49386">
        <ele>4.1999998092651</ele>
        <time>2013-03-30T22:48:48.000Z</time>
      </trkpt>
      <trkpt lat="49.50018" lon="0.49387">
        <ele>4.1999998092651</ele>
        <time>2013-03-30T22:48:50.000Z</time>
      </trkpt>
      <trkpt lat="49.50017" lon="0.49391">
        <ele>4</ele>
        <time>2013-03-30T22:48:55.000Z</time>
      </trkpt>
      <trkpt lat="49.50017" lon="0.49393">
        <ele>4</ele>
        <time>2013-03-30T22:48:56.000Z</time>
      </trkpt>
      <trkpt lat="49.50015" lon="0.49401">
        <ele>4</ele>
        <time>2013-03-30T22:49:01.000Z</time>
      </trkpt>
      <trkpt lat="49.50013" lon="0.49404">
        <ele>4</ele>
        <time>2013-03-30T22:49:11.000Z</time>
      </trkpt>
      <trkpt lat="49.50013" lon="0.49407">
        <ele>3.7999999523163</ele>
        <time>2013-03-30T22:49:23.000Z</time>
      </trkpt>
      <trkpt lat="49.50013" lon="0.49416">
        <ele>3.7999999523163</ele>
        <time>2013-03-30T22:49:27.000Z</time>
      </trkpt>
      <trkpt lat="49.50012" lon="0.49424">
        <ele>3.5999999046326</ele>
        <time>2013-03-30T22:49:31.000Z</time>
      </trkpt>
      <trkpt lat="49.50012" lon="0.49439">
        <ele>3.5999999046326</ele>
        <time>2013-03-30T22:49:39.000Z</time>
      </trkpt>
      <trkpt lat="49.50012" lon="0.49443">
        <ele>3.5999999046326</ele>
        <time>2013-03-30T22:49:41.000Z</time>
      </trkpt>
      <trkpt lat="49.50011" lon="0.49477">
        <ele>3.2000000476837</ele>
        <time>2013-03-30T22:49:53.000Z</time>
      </trkpt>
      <trkpt lat="49.50008" lon="0.49497">
        <ele>3</ele>
        <time>2013-03-30T22:49:59.000Z</time>
      </trkpt>
      <trkpt lat="49.50004" lon="0.49518">
        <ele>3.2000000476837</ele>
        <time>2013-03-30T22:50:05.000Z</time>
      </trkpt>
      <trkpt lat="49.5" lon="0.4954">
        <ele>3.4000000953674</ele>
        <time>2013-03-30T22:50:11.000Z</time>
      </trkpt>
      <trkpt lat="49.49998" lon="0.4956">
        <ele>3.5999999046326</ele>
        <time>2013-03-30T22:50:17.000Z</time>
      </trkpt>
      <trkpt lat="49.49996" lon="0.49581">
        <ele>3.7999999523163</ele>
        <time>2013-03-30T22:50:23.000Z</time>
      </trkpt>
      <trkpt lat="49.49993" lon="0.49603">
        <ele>4.1999998092651</ele>
        <time>2013-03-30T22:50:29.000Z</time>
      </trkpt>
      <trkpt lat="49.49989" lon="0.49617">
        <ele>4.4000000953674</ele>
        <time>2013-03-30T22:50:33.000Z</time>
      </trkpt>
      <trkpt lat="49.49985" lon="0.49633">
        <ele>4.5999999046326</ele>
        <time>2013-03-30T22:50:38.000Z</time>
      </trkpt>
      <trkpt lat="49.49982" lon="0.4965">
        <ele>4.8000001907349</ele>
        <time>2013-03-30T22:50:43.000Z</time>
      </trkpt>
      <trkpt lat="49.49981" lon="0.49655">
        <ele>5</ele>
        <time>2013-03-30T22:50:45.000Z</time>
      </trkpt>
      <trkpt lat="49.49978" lon="0.49681">
        <ele>5</ele>
        <time>2013-03-30T22:50:53.000Z</time>
      </trkpt>
      <trkpt lat="49.49978" lon="0.49685">
        <ele>5</ele>
        <time>2013-03-30T22:50:55.000Z</time>
      </trkpt>
      <trkpt lat="49.49977" lon="0.49689">
        <ele>5</ele>
        <time>2013-03-30T22:51:03.000Z</time>
      </trkpt>
      <trkpt lat="49.49977" lon="0.49689">
        <ele>5</ele>
        <time>2013-03-30T22:51:13.000Z</time>
      </trkpt>
      <trkpt lat="49.49977" lon="0.49691">
        <ele>5</ele>
        <time>2013-03-30T22:51:20.000Z</time>
      </trkpt>
      <trkpt lat="49.49975" lon="0.49694">
        <ele>5</ele>
        <time>2013-03-30T22:51:25.000Z</time>
      </trkpt>
      <trkpt lat="49.49975" lon="0.49695">
        <ele>5</ele>
        <time>2013-03-30T22:51:30.000Z</time>
      </trkpt>
      <trkpt lat="49.49974" lon="0.49705">
        <ele>5</ele>
        <time>2013-03-30T22:51:35.000Z</time>
      </trkpt>
      <trkpt lat="49.49975" lon="0.49724">
        <ele>4.8000001907349</ele>
        <time>2013-03-30T22:51:43.000Z</time>
      </trkpt>
      <trkpt lat="49.49977" lon="0.49747">
        <ele>4.5999999046326</ele>
        <time>2013-03-30T22:51:52.000Z</time>
      </trkpt>
      <trkpt lat="49.49979" lon="0.49755">
        <ele>4.5999999046326</ele>
        <time>2013-03-30T22:51:56.000Z</time>
      </trkpt>
      <trkpt lat="49.49978" lon="0.49758">
        <ele>4.4000000953674</ele>
        <time>2013-03-30T22:52:04.000Z</time>
      </trkpt>
      <trkpt lat="49.49978" lon="0.49758">
        <ele>4.4000000953674</ele>
        <time>2013-03-30T22:52:05.000Z</time>
      </trkpt>
      <trkpt lat="49.49978" lon="0.49771">
        <ele>4.1999998092651</ele>
        <time>2013-03-30T22:52:10.000Z</time>
      </trkpt>
      <trkpt lat="49.49978" lon="0.49773">
        <ele>4</ele>
        <time>2013-03-30T22:52:11.000Z</time>
      </trkpt>
      <trkpt lat="49.49976" lon="0.49791">
        <ele>3.5999999046326</ele>
        <time>2013-03-30T22:52:18.000Z</time>
      </trkpt>
      <trkpt lat="49.49975" lon="0.49801">
        <ele>3.4000000953674</ele>
        <time>2013-03-30T22:52:22.000Z</time>
      </trkpt>
      <trkpt lat="49.49975" lon="0.49808">
        <ele>3.2000000476837</ele>
        <time>2013-03-30T22:52:27.000Z</time>
      </trkpt>
      <trkpt lat="49.49973" lon="0.49821">
        <ele>2.7999999523163</ele>
        <time>2013-03-30T22:52:34.000Z</time>
      </trkpt>
      <trkpt lat="49.49968" lon="0.4984">
        <ele>2.5999999046326</ele>
        <time>2013-03-30T22:52:42.000Z</time>
      </trkpt>
      <trkpt lat="49.49963" lon="0.49863">
        <ele>2.5999999046326</ele>
        <time>2013-03-30T22:52:49.000Z</time>
      </trkpt>
      <trkpt lat="49.4996" lon="0.49879">
        <ele>2.5999999046326</ele>
        <time>2013-03-30T22:52:55.000Z</time>
      </trkpt>
      <trkpt lat="49.49958" lon="0.499">
        <ele>2.7999999523163</ele>
        <time>2013-03-30T22:53:01.000Z</time>
      </trkpt>
      <trkpt lat="49.49956" lon="0.4992">
        <ele>3</ele>
        <time>2013-03-30T22:53:07.000Z</time>
      </trkpt>
      <trkpt lat="49.49954" lon="0.49941">
        <ele>3.2000000476837</ele>
        <time>2013-03-30T22:53:13.000Z</time>
      </trkpt>
      <trkpt lat="49.49952" lon="0.49958">
        <ele>3.2000000476837</ele>
        <time>2013-03-30T22:53:19.000Z</time>
      </trkpt>
      <trkpt lat="49.49951" lon="0.49964">
        <ele>3.2000000476837</ele>
        <time>2013-03-30T22:53:24.000Z</time>
      </trkpt>
      <trkpt lat="49.49952" lon="0.49967">
        <ele>3.2000000476837</ele>
        <time>2013-03-30T22:53:29.000Z</time>
      </trkpt>
      <trkpt lat="49.49951" lon="0.49968">
        <ele>3.2000000476837</ele>
        <time>2013-03-30T22:53:39.000Z</time>
      </trkpt>
      <trkpt lat="49.4995" lon="0.49975">
        <ele>3.2000000476837</ele>
        <time>2013-03-30T22:53:48.000Z</time>
      </trkpt>
      <trkpt lat="49.49945" lon="0.50006">
        <ele>3.4000000953674</ele>
        <time>2013-03-30T22:54:00.000Z</time>
      </trkpt>
      <trkpt lat="49.49941" lon="0.50033">
        <ele>3.7999999523163</ele>
        <time>2013-03-30T22:54:08.000Z</time>
      </trkpt>
      <trkpt lat="49.49938" lon="0.50056">
        <ele>4</ele>
        <time>2013-03-30T22:54:15.000Z</time>
      </trkpt>
      <trkpt lat="49.49934" lon="0.50077">
        <ele>4.1999998092651</ele>
        <time>2013-03-30T22:54:21.000Z</time>
      </trkpt>
      <trkpt lat="49.49929" lon="0.50098">
        <ele>4</ele>
        <time>2013-03-30T22:54:27.000Z</time>
      </trkpt>
      <trkpt lat="49.49925" lon="0.50126">
        <ele>3.5999999046326</ele>
        <time>2013-03-30T22:54:35.000Z</time>
      </trkpt>
      <trkpt lat="49.49919" lon="0.50154">
        <ele>3.2000000476837</ele>
        <time>2013-03-30T22:54:43.000Z</time>
      </trkpt>
      <trkpt lat="49.49917" lon="0.50176">
        <ele>3</ele>
        <time>2013-03-30T22:54:49.000Z</time>
      </trkpt>
      <trkpt lat="49.49914" lon="0.50194">
        <ele>3.2000000476837</ele>
        <time>2013-03-30T22:54:54.000Z</time>
      </trkpt>
      <trkpt lat="49.49911" lon="0.5022">
        <ele>3.4000000953674</ele>
        <time>2013-03-30T22:55:01.000Z</time>
      </trkpt>
      <trkpt lat="49.49907" lon="0.50243">
        <ele>3.5999999046326</ele>
        <time>2013-03-30T22:55:08.000Z</time>
      </trkpt>
      <trkpt lat="49.49902" lon="0.50262">
        <ele>3.4000000953674</ele>
        <time>2013-03-30T22:55:14.000Z</time>
      </trkpt>
      <trkpt lat="49.49897" lon="0.50287">
        <ele>3</ele>
        <time>2013-03-30T22:55:21.000Z</time>
      </trkpt>
      <trkpt lat="49.49894" lon="0.50308">
        <ele>2.7999999523163</ele>
        <time>2013-03-30T22:55:27.000Z</time>
      </trkpt>
      <trkpt lat="49.49892" lon="0.50324">
        <ele>2.5999999046326</ele>
        <time>2013-03-30T22:55:33.000Z</time>
      </trkpt>
      <trkpt lat="49.4989" lon="0.50344">
        <ele>2.7999999523163</ele>
        <time>2013-03-30T22:55:44.000Z</time>
      </trkpt>
      <trkpt lat="49.49888" lon="0.50359">
        <ele>2.7999999523163</ele>
        <time>2013-03-30T22:55:49.000Z</time>
      </trkpt>
      <trkpt lat="49.49885" lon="0.50375">
        <ele>3</ele>
        <time>2013-03-30T22:55:55.000Z</time>
      </trkpt>
      <trkpt lat="49.49882" lon="0.50392">
        <ele>3.2000000476837</ele>
        <time>2013-03-30T22:56:04.000Z</time>
      </trkpt>
      <trkpt lat="49.49881" lon="0.50409">
        <ele>3.4000000953674</ele>
        <time>2013-03-30T22:56:13.000Z</time>
      </trkpt>
      <trkpt lat="49.49881" lon="0.50429">
        <ele>3.5999999046326</ele>
        <time>2013-03-30T22:56:22.000Z</time>
      </trkpt>
      <trkpt lat="49.49881" lon="0.50448">
        <ele>3.7999999523163</ele>
        <time>2013-03-30T22:56:31.000Z</time>
      </trkpt>
      <trkpt lat="49.49881" lon="0.50464">
        <ele>4</ele>
        <time>2013-03-30T22:56:38.000Z</time>
      </trkpt>
      <trkpt lat="49.49882" lon="0.50481">
        <ele>4.1999998092651</ele>
        <time>2013-03-30T22:56:46.000Z</time>
      </trkpt>
      <trkpt lat="49.49881" lon="0.50483">
        <ele>4.1999998092651</ele>
        <time>2013-03-30T22:56:48.000Z</time>
      </trkpt>
      <trkpt lat="49.49881" lon="0.50488">
        <ele>4.1999998092651</ele>
        <time>2013-03-30T22:57:02.000Z</time>
      </trkpt>
      <trkpt lat="49.49881" lon="0.50486">
        <ele>4.1999998092651</ele>
        <time>2013-03-30T22:57:07.000Z</time>
      </trkpt>
      <trkpt lat="49.49885" lon="0.5049">
        <ele>4.1999998092651</ele>
        <time>2013-03-30T22:57:39.000Z</time>
      </trkpt>
      <trkpt lat="49.49898" lon="0.50499">
        <ele>4.1999998092651</ele>
        <time>2013-03-30T22:57:48.000Z</time>
      </trkpt>
      <trkpt lat="49.49909" lon="0.50507">
        <ele>4</ele>
        <time>2013-03-30T22:57:55.000Z</time>
      </trkpt>
      <trkpt lat="49.49919" lon="0.50515">
        <ele>3.7999999523163</ele>
        <time>2013-03-30T22:58:02.000Z</time>
      </trkpt>
      <trkpt lat="49.49929" lon="0.50524">
        <ele>3.5999999046326</ele>
        <time>2013-03-30T22:58:07.000Z</time>
      </trkpt>
      <trkpt lat="49.49936" lon="0.50532">
        <ele>3.5999999046326</ele>
        <time>2013-03-30T22:58:11.000Z</time>
      </trkpt>
      <trkpt lat="49.4994" lon="0.50534">
        <ele>3.4000000953674</ele>
        <time>2013-03-30T22:58:13.000Z</time>
      </trkpt>
      <trkpt lat="49.49955" lon="0.50532">
        <ele>3.2000000476837</ele>
        <time>2013-03-30T22:58:19.000Z</time>
      </trkpt>
      <trkpt lat="49.49967" lon="0.50531">
        <ele>3</ele>
        <time>2013-03-30T22:58:24.000Z</time>
      </trkpt>
      <trkpt lat="49.49986" lon="0.50527">
        <ele>2.5999999046326</ele>
        <time>2013-03-30T22:58:32.000Z</time>
      </trkpt>
      <trkpt lat="49.50003" lon="0.50531">
        <ele>2.2000000476837</ele>
        <time>2013-03-30T22:58:39.000Z</time>
      </trkpt>
      <trkpt lat="49.50019" lon="0.50538">
        <ele>2.4000000953674</ele>
        <time>2013-03-30T22:58:46.000Z</time>
      </trkpt>
      <trkpt lat="49.50032" lon="0.50543">
        <ele>2.5999999046326</ele>
        <time>2013-03-30T22:58:52.000Z</time>
      </trkpt>
      <trkpt lat="49.50048" lon="0.50547">
        <ele>2.7999999523163</ele>
        <time>2013-03-30T22:58:59.000Z</time>
      </trkpt>
      <trkpt lat="49.50064" lon="0.50545">
        <ele>2.7999999523163</ele>
        <time>2013-03-30T22:59:06.000Z</time>
      </trkpt>
      <trkpt lat="49.5007" lon="0.50543">
        <ele>2.7999999523163</ele>
        <time>2013-03-30T22:59:09.000Z</time>
      </trkpt>
      <trkpt lat="49.50077" lon="0.50542">
        <ele>2.7999999523163</ele>
        <time>2013-03-30T22:59:12.000Z</time>
      </trkpt>
      <trkpt lat="49.50091" lon="0.5054">
        <ele>3</ele>
        <time>2013-03-30T22:59:18.000Z</time>
      </trkpt>
      <trkpt lat="49.50102" lon="0.50542">
        <ele>3.4000000953674</ele>
        <time>2013-03-30T22:59:23.000Z</time>
      </trkpt>
      <trkpt lat="49.50108" lon="0.50546">
        <ele>3.4000000953674</ele>
        <time>2013-03-30T22:59:28.000Z</time>
      </trkpt>
      <trkpt lat="49.50109" lon="0.50547">
        <ele>3.5999999046326</ele>
        <time>2013-03-30T22:59:33.000Z</time>
      </trkpt>
      <trkpt lat="49.50113" lon="0.5055">
        <ele>3.5999999046326</ele>
        <time>2013-03-30T22:59:42.000Z</time>
      </trkpt>
      <trkpt lat="49.50114" lon="0.50551">
        <ele>3.5999999046326</ele>
        <time>2013-03-30T22:59:43.000Z</time>
      </trkpt>
      <trkpt lat="49.50129" lon="0.50545">
        <ele>4</ele>
        <time>2013-03-30T22:59:50.000Z</time>
      </trkpt>
      <trkpt lat="49.50145" lon="0.50539">
        <ele>4.4000000953674</ele>
        <time>2013-03-30T22:59:57.000Z</time>
      </trkpt>
      <trkpt lat="49.50153" lon="0.50537">
        <ele>4.5999999046326</ele>
        <time>2013-03-30T23:00:02.000Z</time>
      </trkpt>
      <trkpt lat="49.50164" lon="0.50541">
        <ele>4.8000001907349</ele>
        <time>2013-03-30T23:00:07.000Z</time>
      </trkpt>
      <trkpt lat="49.50172" lon="0.50553">
        <ele>5</ele>
        <time>2013-03-30T23:00:12.000Z</time>
      </trkpt>
      <trkpt lat="49.50174" lon="0.50555">
        <ele>5</ele>
        <time>2013-03-30T23:00:13.000Z</time>
      </trkpt>
      <trkpt lat="49.50178" lon="0.50558">
        <ele>5</ele>
        <time>2013-03-30T23:00:15.000Z</time>
      </trkpt>
      <trkpt lat="49.5018" lon="0.50569">
        <ele>5</ele>
        <time>2013-03-30T23:00:20.000Z</time>
      </trkpt>
      <trkpt lat="49.50183" lon="0.5056">
        <ele>5</ele>
        <time>2013-03-30T23:00:24.000Z</time>
      </trkpt>
      <trkpt lat="49.50188" lon="0.50551">
        <ele>5</ele>
        <time>2013-03-30T23:00:28.000Z</time>
      </trkpt>
      <trkpt lat="49.5019" lon="0.50551">
        <ele>5</ele>
        <time>2013-03-30T23:00:31.000Z</time>
      </trkpt>
      <trkpt lat="49.50192" lon="0.5055">
        <ele>5</ele>
        <time>2013-03-30T23:00:35.000Z</time>
      </trkpt>
      <trkpt lat="49.50194" lon="0.50555">
        <ele>5</ele>
        <time>2013-03-30T23:00:39.000Z</time>
      </trkpt>
      <trkpt lat="49.50196" lon="0.50556">
        <ele>5</ele>
        <time>2013-03-30T23:00:41.000Z</time>
      </trkpt>
      <trkpt lat="49.50199" lon="0.50561">
        <ele>5</ele>
        <time>2013-03-30T23:00:49.000Z</time>
      </trkpt>
      <trkpt lat="49.50204" lon="0.50562">
        <ele>5</ele>
        <time>2013-03-30T23:00:54.000Z</time>
      </trkpt>
      <trkpt lat="49.50211" lon="0.50565">
        <ele>5</ele>
        <time>2013-03-30T23:00:59.000Z</time>
      </trkpt>
      <trkpt lat="49.50225" lon="0.50569">
        <ele>5</ele>
        <time>2013-03-30T23:01:05.000Z</time>
      </trkpt>
      <trkpt lat="49.50227" lon="0.50574">
        <ele>5</ele>
        <time>2013-03-30T23:01:10.000Z</time>
      </trkpt>
      <trkpt lat="49.50231" lon="0.50579">
        <ele>5</ele>
        <time>2013-03-30T23:01:15.000Z</time>
      </trkpt>
      <trkpt lat="49.50232" lon="0.5058">
        <ele>5</ele>
        <time>2013-03-30T23:01:16.000Z</time>
      </trkpt>
      <trkpt lat="49.50236" lon="0.50575">
        <ele>5</ele>
        <time>2013-03-30T23:01:21.000Z</time>
      </trkpt>
      <trkpt lat="49.50237" lon="0.50575">
        <ele>5</ele>
        <time>2013-03-30T23:01:22.000Z</time>
      </trkpt>
      <trkpt lat="49.50234" lon="0.5058">
        <ele>5</ele>
        <time>2013-03-30T23:01:40.000Z</time>
      </trkpt>
      <trkpt lat="49.50228" lon="0.50608">
        <ele>4.5999999046326</ele>
        <time>2013-03-30T23:01:47.000Z</time>
      </trkpt>
      <trkpt lat="49.50229" lon="0.5061">
        <ele>4.5999999046326</ele>
        <time>2013-03-30T23:01:48.000Z</time>
      </trkpt>
      <trkpt lat="49.50231" lon="0.50612">
        <ele>4.5999999046326</ele>
        <time>2013-03-30T23:01:52.000Z</time>
      </trkpt>
      <trkpt lat="49.50235" lon="0.50615">
        <ele>4.5999999046326</ele>
        <time>2013-03-30T23:02:01.000Z</time>
      </trkpt>
      <trkpt lat="49.50244" lon="0.50617">
        <ele>4.5999999046326</ele>
        <time>2013-03-30T23:02:05.000Z</time>
      </trkpt>
      <trkpt lat="49.50253" lon="0.50618">
        <ele>4.4000000953674</ele>
        <time>2013-03-30T23:02:11.000Z</time>
      </trkpt>
      <trkpt lat="49.50261" lon="0.50619">
        <ele>4.4000000953674</ele>
        <time>2013-03-30T23:02:17.000Z</time>
      </trkpt>
      <trkpt lat="49.50274" lon="0.50623">
        <ele>4.4000000953674</ele>
        <time>2013-03-30T23:02:23.000Z</time>
      </trkpt>
      <trkpt lat="49.50288" lon="0.50629">
        <ele>4.4000000953674</ele>
        <time>2013-03-30T23:02:29.000Z</time>
      </trkpt>
      <trkpt lat="49.503" lon="0.50635">
        <ele>4.4000000953674</ele>
        <time>2013-03-30T23:02:35.000Z</time>
      </trkpt>
      <trkpt lat="49.50312" lon="0.5064">
        <ele>4.4000000953674</ele>
        <time>2013-03-30T23:02:40.000Z</time>
      </trkpt>
      <trkpt lat="49.50328" lon="0.50646">
        <ele>4.5999999046326</ele>
        <time>2013-03-30T23:02:47.000Z</time>
      </trkpt>
      <trkpt lat="49.50342" lon="0.50651">
        <ele>4.5999999046326</ele>
        <time>2013-03-30T23:02:53.000Z</time>
      </trkpt>
      <trkpt lat="49.50358" lon="0.50657">
        <ele>4.1999998092651</ele>
        <time>2013-03-30T23:03:00.000Z</time>
      </trkpt>
      <trkpt lat="49.5037" lon="0.50662">
        <ele>4</ele>
        <time>2013-03-30T23:03:06.000Z</time>
      </trkpt>
      <trkpt lat="49.50383" lon="0.50667">
        <ele>3.7999999523163</ele>
        <time>2013-03-30T23:03:12.000Z</time>
      </trkpt>
      <trkpt lat="49.50385" lon="0.50668">
        <ele>3.5999999046326</ele>
        <time>2013-03-30T23:03:13.000Z</time>
      </trkpt>
      <trkpt lat="49.50392" lon="0.50668">
        <ele>3.5999999046326</ele>
        <time>2013-03-30T23:03:18.000Z</time>
      </trkpt>
      <trkpt lat="49.50394" lon="0.50668">
        <ele>3.5999999046326</ele>
        <time>2013-03-30T23:03:19.000Z</time>
      </trkpt>
      <trkpt lat="49.50399" lon="0.50671">
        <ele>3.4000000953674</ele>
        <time>2013-03-30T23:03:24.000Z</time>
      </trkpt>
      <trkpt lat="49.50404" lon="0.50658">
        <ele>3.2000000476837</ele>
        <time>2013-03-30T23:03:30.000Z</time>
      </trkpt>
      <trkpt lat="49.50404" lon="0.50655">
        <ele>3.2000000476837</ele>
        <time>2013-03-30T23:03:31.000Z</time>
      </trkpt>
      <trkpt lat="49.50411" lon="0.50633">
        <ele>3</ele>
        <time>2013-03-30T23:03:38.000Z</time>
      </trkpt>
      <trkpt lat="49.50412" lon="0.50632">
        <ele>3</ele>
        <time>2013-03-30T23:03:39.000Z</time>
      </trkpt>
      <trkpt lat="49.50421" lon="0.50635">
        <ele>3</ele>
        <time>2013-03-30T23:03:43.000Z</time>
      </trkpt>
      <trkpt lat="49.50423" lon="0.50637">
        <ele>3</ele>
        <time>2013-03-30T23:03:44.000Z</time>
      </trkpt>
      <trkpt lat="49.50431" lon="0.50644">
        <ele>3</ele>
        <time>2013-03-30T23:03:49.000Z</time>
      </trkpt>
      <trkpt lat="49.50444" lon="0.50641">
        <ele>3.2000000476837</ele>
        <time>2013-03-30T23:03:55.000Z</time>
      </trkpt>
      <trkpt lat="49.50454" lon="0.50644">
        <ele>3.2000000476837</ele>
        <time>2013-03-30T23:04:02.000Z</time>
      </trkpt>
      <trkpt lat="49.50469" lon="0.50648">
        <ele>3.4000000953674</ele>
        <time>2013-03-30T23:04:09.000Z</time>
      </trkpt>
      <trkpt lat="49.50476" lon="0.50658">
        <ele>3.5999999046326</ele>
        <time>2013-03-30T23:04:13.000Z</time>
      </trkpt>
      <trkpt lat="49.50487" lon="0.50669">
        <ele>3.7999999523163</ele>
        <time>2013-03-30T23:04:19.000Z</time>
      </trkpt>
      <trkpt lat="49.50498" lon="0.50681">
        <ele>4.1999998092651</ele>
        <time>2013-03-30T23:04:25.000Z</time>
      </trkpt>
      <trkpt lat="49.5051" lon="0.50691">
        <ele>4.5999999046326</ele>
        <time>2013-03-30T23:04:32.000Z</time>
      </trkpt>
      <trkpt lat="49.50511" lon="0.50692">
        <ele>4.8000001907349</ele>
        <time>2013-03-30T23:04:33.000Z</time>
      </trkpt>
      <trkpt lat="49.50512" lon="0.50693">
        <ele>4.8000001907349</ele>
        <time>2013-03-30T23:04:35.000Z</time>
      </trkpt>
      <trkpt lat="49.50514" lon="0.507">
        <ele>5</ele>
        <time>2013-03-30T23:04:39.000Z</time>
      </trkpt>
      <trkpt lat="49.50514" lon="0.50719">
        <ele>5.4000000953674</ele>
        <time>2013-03-30T23:04:47.000Z</time>
      </trkpt>
      <trkpt lat="49.50516" lon="0.50735">
        <ele>5.8000001907349</ele>
        <time>2013-03-30T23:04:52.000Z</time>
      </trkpt>
      <trkpt lat="49.50526" lon="0.50751">
        <ele>6.1999998092651</ele>
        <time>2013-03-30T23:04:59.000Z</time>
      </trkpt>
      <trkpt lat="49.50534" lon="0.50757">
        <ele>6.1999998092651</ele>
        <time>2013-03-30T23:05:05.000Z</time>
      </trkpt>
      <trkpt lat="49.50539" lon="0.50759">
        <ele>6.4000000953674</ele>
        <time>2013-03-30T23:05:09.000Z</time>
      </trkpt>
      <trkpt lat="49.50541" lon="0.50763">
        <ele>6.4000000953674</ele>
        <time>2013-03-30T23:05:17.000Z</time>
      </trkpt>
      <trkpt lat="49.50541" lon="0.50761">
        <ele>6.4000000953674</ele>
        <time>2013-03-30T23:05:27.000Z</time>
      </trkpt>
      <trkpt lat="49.50539" lon="0.50755">
        <ele>6.4000000953674</ele>
        <time>2013-03-30T23:05:45.000Z</time>
      </trkpt>
      <trkpt lat="49.50538" lon="0.50749">
        <ele>6.4000000953674</ele>
        <time>2013-03-30T23:05:49.000Z</time>
      </trkpt>
      <trkpt lat="49.50537" lon="0.50744">
        <ele>6.1999998092651</ele>
        <time>2013-03-30T23:05:54.000Z</time>
      </trkpt>
      <trkpt lat="49.50536" lon="0.50742">
        <ele>6.1999998092651</ele>
        <time>2013-03-30T23:05:58.000Z</time>
      </trkpt>
      <trkpt lat="49.50537" lon="0.50745">
        <ele>6.1999998092651</ele>
        <time>2013-03-30T23:06:26.000Z</time>
      </trkpt>
      <trkpt lat="49.50538" lon="0.5075">
        <ele>6.4000000953674</ele>
        <time>2013-03-30T23:06:29.000Z</time>
      </trkpt>
      <trkpt lat="49.50537" lon="0.50758">
        <ele>6.1999998092651</ele>
        <time>2013-03-30T23:06:33.000Z</time>
      </trkpt>
      <trkpt lat="49.50535" lon="0.50777">
        <ele>6.1999998092651</ele>
        <time>2013-03-30T23:06:40.000Z</time>
      </trkpt>
      <trkpt lat="49.50533" lon="0.50793">
        <ele>6</ele>
        <time>2013-03-30T23:06:45.000Z</time>
      </trkpt>
      <trkpt lat="49.50531" lon="0.50815">
        <ele>5.8000001907349</ele>
        <time>2013-03-30T23:06:52.000Z</time>
      </trkpt>
      <trkpt lat="49.50531" lon="0.50822">
        <ele>5.8000001907349</ele>
        <time>2013-03-30T23:06:54.000Z</time>
      </trkpt>
      <trkpt lat="49.5053" lon="0.50842">
        <ele>5.8000001907349</ele>
        <time>2013-03-30T23:07:00.000Z</time>
      </trkpt>
      <trkpt lat="49.50529" lon="0.50846">
        <ele>5.8000001907349</ele>
        <time>2013-03-30T23:07:01.000Z</time>
      </trkpt>
      <trkpt lat="49.50528" lon="0.50858">
        <ele>5.8000001907349</ele>
        <time>2013-03-30T23:07:05.000Z</time>
      </trkpt>
      <trkpt lat="49.50523" lon="0.50874">
        <ele>6</ele>
        <time>2013-03-30T23:07:11.000Z</time>
      </trkpt>
      <trkpt lat="49.50521" lon="0.50886">
        <ele>6</ele>
        <time>2013-03-30T23:07:16.000Z</time>
      </trkpt>
      <trkpt lat="49.50516" lon="0.50902">
        <ele>6.1999998092651</ele>
        <time>2013-03-30T23:07:23.000Z</time>
      </trkpt>
      <trkpt lat="49.50516" lon="0.50904">
        <ele>6.1999998092651</ele>
        <time>2013-03-30T23:07:24.000Z</time>
      </trkpt>
      <trkpt lat="49.50511" lon="0.50918">
        <ele>6.1999998092651</ele>
        <time>2013-03-30T23:07:31.000Z</time>
      </trkpt>
      <trkpt lat="49.50505" lon="0.5093">
        <ele>6</ele>
        <time>2013-03-30T23:07:36.000Z</time>
      </trkpt>
      <trkpt lat="49.50498" lon="0.50948">
        <ele>5.8000001907349</ele>
        <time>2013-03-30T23:07:42.000Z</time>
      </trkpt>
      <trkpt lat="49.50497" lon="0.50955">
        <ele>5.8000001907349</ele>
        <time>2013-03-30T23:07:45.000Z</time>
      </trkpt>
      <trkpt lat="49.50498" lon="0.50959">
        <ele>6</ele>
        <time>2013-03-30T23:07:54.000Z</time>
      </trkpt>
      <trkpt lat="49.50499" lon="0.5096">
        <ele>6</ele>
        <time>2013-03-30T23:07:55.000Z</time>
      </trkpt>
      <trkpt lat="49.50502" lon="0.50967">
        <ele>6</ele>
        <time>2013-03-30T23:07:59.000Z</time>
      </trkpt>
      <trkpt lat="49.50504" lon="0.50975">
        <ele>6</ele>
        <time>2013-03-30T23:08:03.000Z</time>
      </trkpt>
      <trkpt lat="49.50505" lon="0.50996">
        <ele>6</ele>
        <time>2013-03-30T23:08:09.000Z</time>
      </trkpt>
      <trkpt lat="49.50504" lon="0.51018">
        <ele>5.1999998092651</ele>
        <time>2013-03-30T23:08:15.000Z</time>
      </trkpt>
      <trkpt lat="49.50505" lon="0.51038">
        <ele>4.4000000953674</ele>
        <time>2013-03-30T23:08:21.000Z</time>
      </trkpt>
      <trkpt lat="49.50508" lon="0.51052">
        <ele>3.7999999523163</ele>
        <time>2013-03-30T23:08:27.000Z</time>
      </trkpt>
      <trkpt lat="49.50509" lon="0.51053">
        <ele>3.7999999523163</ele>
        <time>2013-03-30T23:08:32.000Z</time>
      </trkpt>
      <trkpt lat="49.50518" lon="0.51054">
        <ele>4.1999998092651</ele>
        <time>2013-03-30T23:08:37.000Z</time>
      </trkpt>
      <trkpt lat="49.50519" lon="0.51055">
        <ele>4.1999998092651</ele>
        <time>2013-03-30T23:08:38.000Z</time>
      </trkpt>
      <trkpt lat="49.50522" lon="0.51056">
        <ele>4.4000000953674</ele>
        <time>2013-03-30T23:08:43.000Z</time>
      </trkpt>
      <trkpt lat="49.50523" lon="0.51055">
        <ele>4.4000000953674</ele>
        <time>2013-03-30T23:08:44.000Z</time>
      </trkpt>
      <trkpt lat="49.50528" lon="0.51055">
        <ele>4.5999999046326</ele>
        <time>2013-03-30T23:08:46.000Z</time>
      </trkpt>
      <trkpt lat="49.50536" lon="0.51056">
        <ele>5.1999998092651</ele>
        <time>2013-03-30T23:08:51.000Z</time>
      </trkpt>
      <trkpt lat="49.50538" lon="0.51057">
        <ele>5.1999998092651</ele>
        <time>2013-03-30T23:08:53.000Z</time>
      </trkpt>
      <trkpt lat="49.50543" lon="0.51056">
        <ele>5.4000000953674</ele>
        <time>2013-03-30T23:08:58.000Z</time>
      </trkpt>
      <trkpt lat="49.50549" lon="0.51058">
        <ele>5.8000001907349</ele>
        <time>2013-03-30T23:09:03.000Z</time>
      </trkpt>
      <trkpt lat="49.5055" lon="0.5106">
        <ele>5.5999999046326</ele>
        <time>2013-03-30T23:09:05.000Z</time>
      </trkpt>
      <trkpt lat="49.5055" lon="0.51063">
        <ele>5.5999999046326</ele>
        <time>2013-03-30T23:09:07.000Z</time>
      </trkpt>
      <trkpt lat="49.5055" lon="0.51064">
        <ele>5.5999999046326</ele>
        <time>2013-03-30T23:09:15.000Z</time>
      </trkpt>
      <trkpt lat="49.50551" lon="0.51065">
        <ele>5.5999999046326</ele>
        <time>2013-03-30T23:09:28.000Z</time>
      </trkpt>
      <trkpt lat="49.50551" lon="0.51066">
        <ele>5.5999999046326</ele>
        <time>2013-03-30T23:09:29.000Z</time>
      </trkpt>
      <trkpt lat="49.50553" lon="0.51075">
        <ele>5.4000000953674</ele>
        <time>2013-03-30T23:09:33.000Z</time>
      </trkpt>
      <trkpt lat="49.50557" lon="0.511">
        <ele>4.8000001907349</ele>
        <time>2013-03-30T23:09:40.000Z</time>
      </trkpt>
      <trkpt lat="49.50559" lon="0.51108">
        <ele>4.5999999046326</ele>
        <time>2013-03-30T23:09:42.000Z</time>
      </trkpt>
      <trkpt lat="49.5056" lon="0.51118">
        <ele>4.4000000953674</ele>
        <time>2013-03-30T23:09:45.000Z</time>
      </trkpt>
      <trkpt lat="49.50562" lon="0.51139">
        <ele>3.7999999523163</ele>
        <time>2013-03-30T23:09:52.000Z</time>
      </trkpt>
      <trkpt lat="49.50563" lon="0.51158">
        <ele>3.2000000476837</ele>
        <time>2013-03-30T23:09:59.000Z</time>
      </trkpt>
      <trkpt lat="49.50566" lon="0.51179">
        <ele>3</ele>
        <time>2013-03-30T23:10:05.000Z</time>
      </trkpt>
      <trkpt lat="49.50568" lon="0.51199">
        <ele>3.4000000953674</ele>
        <time>2013-03-30T23:10:11.000Z</time>
      </trkpt>
      <trkpt lat="49.5057" lon="0.51213">
        <ele>3.5999999046326</ele>
        <time>2013-03-30T23:10:16.000Z</time>
      </trkpt>
      <trkpt lat="49.50569" lon="0.51233">
        <ele>3.7999999523163</ele>
        <time>2013-03-30T23:10:22.000Z</time>
      </trkpt>
      <trkpt lat="49.50569" lon="0.51251">
        <ele>4</ele>
        <time>2013-03-30T23:10:28.000Z</time>
      </trkpt>
      <trkpt lat="49.50567" lon="0.51269">
        <ele>4.5999999046326</ele>
        <time>2013-03-30T23:10:34.000Z</time>
      </trkpt>
      <trkpt lat="49.50567" lon="0.51285">
        <ele>5</ele>
        <time>2013-03-30T23:10:39.000Z</time>
      </trkpt>
      <trkpt lat="49.50566" lon="0.51304">
        <ele>5.5999999046326</ele>
        <time>2013-03-30T23:10:45.000Z</time>
      </trkpt>
      <trkpt lat="49.50565" lon="0.5132">
        <ele>5.8000001907349</ele>
        <time>2013-03-30T23:10:50.000Z</time>
      </trkpt>
      <trkpt lat="49.50564" lon="0.51338">
        <ele>6.1999998092651</ele>
        <time>2013-03-30T23:10:55.000Z</time>
      </trkpt>
      <trkpt lat="49.50564" lon="0.51343">
        <ele>6.1999998092651</ele>
        <time>2013-03-30T23:10:57.000Z</time>
      </trkpt>
      <trkpt lat="49.50565" lon="0.51346">
        <ele>6.1999998092651</ele>
        <time>2013-03-30T23:10:59.000Z</time>
      </trkpt>
      <trkpt lat="49.50573" lon="0.51353">
        <ele>6.5999999046326</ele>
        <time>2013-03-30T23:11:05.000Z</time>
      </trkpt>
      <trkpt lat="49.50584" lon="0.5136">
        <ele>6.8000001907349</ele>
        <time>2013-03-30T23:11:10.000Z</time>
      </trkpt>
      <trkpt lat="49.50601" lon="0.51371">
        <ele>6.5999999046326</ele>
        <time>2013-03-30T23:11:18.000Z</time>
      </trkpt>
      <trkpt lat="49.50617" lon="0.51378">
        <ele>6.5999999046326</ele>
        <time>2013-03-30T23:11:25.000Z</time>
      </trkpt>
      <trkpt lat="49.5063" lon="0.51386">
        <ele>6.4000000953674</ele>
        <time>2013-03-30T23:11:31.000Z</time>
      </trkpt>
      <trkpt lat="49.50639" lon="0.51393">
        <ele>6.1999998092651</ele>
        <time>2013-03-30T23:11:35.000Z</time>
      </trkpt>
      <trkpt lat="49.50652" lon="0.51402">
        <ele>6</ele>
        <time>2013-03-30T23:11:41.000Z</time>
      </trkpt>
      <trkpt lat="49.50667" lon="0.51408">
        <ele>6</ele>
        <time>2013-03-30T23:11:47.000Z</time>
      </trkpt>
      <trkpt lat="49.50681" lon="0.51414">
        <ele>7.1999998092651</ele>
        <time>2013-03-30T23:11:53.000Z</time>
      </trkpt>
      <trkpt lat="49.50698" lon="0.5142">
        <ele>9</ele>
        <time>2013-03-30T23:12:00.000Z</time>
      </trkpt>
      <trkpt lat="49.50712" lon="0.51423">
        <ele>10.60000038147</ele>
        <time>2013-03-30T23:12:06.000Z</time>
      </trkpt>
      <trkpt lat="49.50727" lon="0.51431">
        <ele>12.800000190735</ele>
        <time>2013-03-30T23:12:13.000Z</time>
      </trkpt>
      <trkpt lat="49.50739" lon="0.51439">
        <ele>14.60000038147</ele>
        <time>2013-03-30T23:12:19.000Z</time>
      </trkpt>
      <trkpt lat="49.50744" lon="0.51441">
        <ele>15.199999809265</ele>
        <time>2013-03-30T23:12:22.000Z</time>
      </trkpt>
      <trkpt lat="49.50748" lon="0.51437">
        <ele>15.39999961853</ele>
        <time>2013-03-30T23:12:26.000Z</time>
      </trkpt>
      <trkpt lat="49.50756" lon="0.51432">
        <ele>16.200000762939</ele>
        <time>2013-03-30T23:12:33.000Z</time>
      </trkpt>
      <trkpt lat="49.50766" lon="0.51427">
        <ele>17.39999961853</ele>
        <time>2013-03-30T23:12:40.000Z</time>
      </trkpt>
      <trkpt lat="49.50774" lon="0.51421">
        <ele>18.200000762939</ele>
        <time>2013-03-30T23:12:47.000Z</time>
      </trkpt>
      <trkpt lat="49.50776" lon="0.51421">
        <ele>18.39999961853</ele>
        <time>2013-03-30T23:12:48.000Z</time>
      </trkpt>
      <trkpt lat="49.50783" lon="0.51416">
        <ele>19</ele>
        <time>2013-03-30T23:12:54.000Z</time>
      </trkpt>
      <trkpt lat="49.50784" lon="0.51415">
        <ele>19.200000762939</ele>
        <time>2013-03-30T23:12:55.000Z</time>
      </trkpt>
      <trkpt lat="49.50791" lon="0.5141">
        <ele>20.39999961853</ele>
        <time>2013-03-30T23:13:01.000Z</time>
      </trkpt>
      <trkpt lat="49.50797" lon="0.51401">
        <ele>21.60000038147</ele>
        <time>2013-03-30T23:13:08.000Z</time>
      </trkpt>
      <trkpt lat="49.50803" lon="0.51389">
        <ele>22.39999961853</ele>
        <time>2013-03-30T23:13:15.000Z</time>
      </trkpt>
      <trkpt lat="49.50808" lon="0.51379">
        <ele>23.200000762939</ele>
        <time>2013-03-30T23:13:21.000Z</time>
      </trkpt>
      <trkpt lat="49.50811" lon="0.51381">
        <ele>23.60000038147</ele>
        <time>2013-03-30T23:13:26.000Z</time>
      </trkpt>
      <trkpt lat="49.50811" lon="0.51382">
        <ele>23.60000038147</ele>
        <time>2013-03-30T23:13:36.000Z</time>
      </trkpt>
      <trkpt lat="49.5081" lon="0.51381">
        <ele>23.39999961853</ele>
        <time>2013-03-30T23:14:25.000Z</time>
      </trkpt>
      <trkpt lat="49.5081" lon="0.51382">
        <ele>23.39999961853</ele>
        <time>2013-03-30T23:14:37.000Z</time>
      </trkpt>
      <trkpt lat="49.50812" lon="0.51381">
        <ele>23.799999237061</ele>
        <time>2013-03-30T23:14:58.000Z</time>
      </trkpt>
      <trkpt lat="49.50812" lon="0.51382">
        <ele>23.60000038147</ele>
        <time>2013-03-30T23:15:05.000Z</time>
      </trkpt>
      <trkpt lat="49.50811" lon="0.5138">
        <ele>23.60000038147</ele>
        <time>2013-03-30T23:15:49.000Z</time>
      </trkpt>
      <trkpt lat="49.50811" lon="0.51381">
        <ele>23.60000038147</ele>
        <time>2013-03-30T23:15:52.000Z</time>
      </trkpt>
      <trkpt lat="49.50807" lon="0.51377">
        <ele>23</ele>
        <time>2013-03-30T23:15:57.000Z</time>
      </trkpt>
      <trkpt lat="49.50809" lon="0.5137">
        <ele>23.39999961853</ele>
        <time>2013-03-30T23:16:02.000Z</time>
      </trkpt>
      <trkpt lat="49.50809" lon="0.51368">
        <ele>23.39999961853</ele>
        <time>2013-03-30T23:16:03.000Z</time>
      </trkpt>
      <trkpt lat="49.50809" lon="0.51365">
        <ele>23.39999961853</ele>
        <time>2013-03-30T23:16:09.000Z</time>
      </trkpt>
      <trkpt lat="49.5081" lon="0.51362">
        <ele>23.60000038147</ele>
        <time>2013-03-30T23:16:13.000Z</time>
      </trkpt>
      <trkpt lat="49.50815" lon="0.51351">
        <ele>24.200000762939</ele>
        <time>2013-03-30T23:16:18.000Z</time>
      </trkpt>
      <trkpt lat="49.50821" lon="0.51344">
        <ele>24.799999237061</ele>
        <time>2013-03-30T23:16:22.000Z</time>
      </trkpt>
      <trkpt lat="49.50828" lon="0.51338">
        <ele>25.39999961853</ele>
        <time>2013-03-30T23:16:27.000Z</time>
      </trkpt>
      <trkpt lat="49.50838" lon="0.51332">
        <ele>26.799999237061</ele>
        <time>2013-03-30T23:16:32.000Z</time>
      </trkpt>
      <trkpt lat="49.50842" lon="0.51315">
        <ele>28.200000762939</ele>
        <time>2013-03-30T23:16:39.000Z</time>
      </trkpt>
      <trkpt lat="49.50847" lon="0.51299">
        <ele>29.39999961853</ele>
        <time>2013-03-30T23:16:46.000Z</time>
      </trkpt>
      <trkpt lat="49.50853" lon="0.51284">
        <ele>30.39999961853</ele>
        <time>2013-03-30T23:16:53.000Z</time>
      </trkpt>
      <trkpt lat="49.50856" lon="0.51272">
        <ele>30.799999237061</ele>
        <time>2013-03-30T23:16:58.000Z</time>
      </trkpt>
      <trkpt lat="49.50857" lon="0.5127">
        <ele>30.799999237061</ele>
        <time>2013-03-30T23:16:59.000Z</time>
      </trkpt>
      <trkpt lat="49.50864" lon="0.51254">
        <ele>31.39999961853</ele>
        <time>2013-03-30T23:17:06.000Z</time>
      </trkpt>
      <trkpt lat="49.5087" lon="0.51241">
        <ele>32.200000762939</ele>
        <time>2013-03-30T23:17:12.000Z</time>
      </trkpt>
      <trkpt lat="49.50878" lon="0.51229">
        <ele>33</ele>
        <time>2013-03-30T23:17:18.000Z</time>
      </trkpt>
      <trkpt lat="49.50887" lon="0.51227">
        <ele>33.200000762939</ele>
        <time>2013-03-30T23:17:24.000Z</time>
      </trkpt>
      <trkpt lat="49.50899" lon="0.51226">
        <ele>33.599998474121</ele>
        <time>2013-03-30T23:17:32.000Z</time>
      </trkpt>
      <trkpt lat="49.50909" lon="0.51223">
        <ele>33.799999237061</ele>
        <time>2013-03-30T23:17:40.000Z</time>
      </trkpt>
      <trkpt lat="49.50918" lon="0.5122">
        <ele>34</ele>
        <time>2013-03-30T23:17:48.000Z</time>
      </trkpt>
      <trkpt lat="49.50919" lon="0.5122">
        <ele>34</ele>
        <time>2013-03-30T23:17:49.000Z</time>
      </trkpt>
      <trkpt lat="49.50924" lon="0.51219">
        <ele>34.599998474121</ele>
        <time>2013-03-30T23:17:56.000Z</time>
      </trkpt>
      <trkpt lat="49.50925" lon="0.51219">
        <ele>34.599998474121</ele>
        <time>2013-03-30T23:18:04.000Z</time>
      </trkpt>
      <trkpt lat="49.50926" lon="0.51219">
        <ele>34.799999237061</ele>
        <time>2013-03-30T23:18:13.000Z</time>
      </trkpt>
      <trkpt lat="49.50928" lon="0.51218">
        <ele>35</ele>
        <time>2013-03-30T23:18:19.000Z</time>
      </trkpt>
      <trkpt lat="49.50934" lon="0.51216">
        <ele>35.400001525879</ele>
        <time>2013-03-30T23:18:25.000Z</time>
      </trkpt>
      <trkpt lat="49.5094" lon="0.51218">
        <ele>36</ele>
        <time>2013-03-30T23:18:31.000Z</time>
      </trkpt>
      <trkpt lat="49.50942" lon="0.51219">
        <ele>36.200000762939</ele>
        <time>2013-03-30T23:18:33.000Z</time>
      </trkpt>
      <trkpt lat="49.50947" lon="0.51218">
        <ele>36.599998474121</ele>
        <time>2013-03-30T23:18:42.000Z</time>
      </trkpt>
      <trkpt lat="49.50952" lon="0.51218">
        <ele>37</ele>
        <time>2013-03-30T23:18:48.000Z</time>
      </trkpt>
      <trkpt lat="49.50965" lon="0.51211">
        <ele>38</ele>
        <time>2013-03-30T23:18:59.000Z</time>
      </trkpt>
      <trkpt lat="49.50977" lon="0.51206">
        <ele>38.799999237061</ele>
        <time>2013-03-30T23:19:08.000Z</time>
      </trkpt>
      <trkpt lat="49.50978" lon="0.51206">
        <ele>39</ele>
        <time>2013-03-30T23:19:09.000Z</time>
      </trkpt>
      <trkpt lat="49.50982" lon="0.51204">
        <ele>39.200000762939</ele>
        <time>2013-03-30T23:19:13.000Z</time>
      </trkpt>
      <trkpt lat="49.50991" lon="0.512">
        <ele>39.799999237061</ele>
        <time>2013-03-30T23:19:20.000Z</time>
      </trkpt>
      <trkpt lat="49.51001" lon="0.512">
        <ele>40.599998474121</ele>
        <time>2013-03-30T23:19:27.000Z</time>
      </trkpt>
      <trkpt lat="49.51009" lon="0.51202">
        <ele>41.400001525879</ele>
        <time>2013-03-30T23:19:33.000Z</time>
      </trkpt>
      <trkpt lat="49.51009" lon="0.51199">
        <ele>41.400001525879</ele>
        <time>2013-03-30T23:19:39.000Z</time>
      </trkpt>
      <trkpt lat="49.5101" lon="0.51197">
        <ele>41.200000762939</ele>
        <time>2013-03-30T23:19:50.000Z</time>
      </trkpt>
      <trkpt lat="49.51023" lon="0.512">
        <ele>42.599998474121</ele>
        <time>2013-03-30T23:19:57.000Z</time>
      </trkpt>
      <trkpt lat="49.51032" lon="0.51204">
        <ele>43.599998474121</ele>
        <time>2013-03-30T23:20:04.000Z</time>
      </trkpt>
      <trkpt lat="49.51036" lon="0.51205">
        <ele>44.200000762939</ele>
        <time>2013-03-30T23:20:08.000Z</time>
      </trkpt>
      <trkpt lat="49.51037" lon="0.51205">
        <ele>44.200000762939</ele>
        <time>2013-03-30T23:20:09.000Z</time>
      </trkpt>
      <trkpt lat="49.51046" lon="0.51205">
        <ele>45</ele>
        <time>2013-03-30T23:20:16.000Z</time>
      </trkpt>
      <trkpt lat="49.51053" lon="0.51204">
        <ele>45.599998474121</ele>
        <time>2013-03-30T23:20:20.000Z</time>
      </trkpt>
      <trkpt lat="49.51061" lon="0.51204">
        <ele>46.400001525879</ele>
        <time>2013-03-30T23:20:25.000Z</time>
      </trkpt>
      <trkpt lat="49.51072" lon="0.51204">
        <ele>47.400001525879</ele>
        <time>2013-03-30T23:20:30.000Z</time>
      </trkpt>
      <trkpt lat="49.51079" lon="0.51205">
        <ele>48.200000762939</ele>
        <time>2013-03-30T23:20:34.000Z</time>
      </trkpt>
      <trkpt lat="49.51085" lon="0.51205">
        <ele>48.799999237061</ele>
        <time>2013-03-30T23:20:38.000Z</time>
      </trkpt>
      <trkpt lat="49.51096" lon="0.51205">
        <ele>50.400001525879</ele>
        <time>2013-03-30T23:20:44.000Z</time>
      </trkpt>
      <trkpt lat="49.51106" lon="0.51204">
        <ele>51.599998474121</ele>
        <time>2013-03-30T23:20:49.000Z</time>
      </trkpt>
      <trkpt lat="49.51122" lon="0.51199">
        <ele>53.400001525879</ele>
        <time>2013-03-30T23:20:57.000Z</time>
      </trkpt>
      <trkpt lat="49.51127" lon="0.51199">
        <ele>54</ele>
        <time>2013-03-30T23:21:00.000Z</time>
      </trkpt>
      <trkpt lat="49.51134" lon="0.51196">
        <ele>54.799999237061</ele>
        <time>2013-03-30T23:21:05.000Z</time>
      </trkpt>
      <trkpt lat="49.51138" lon="0.51196">
        <ele>55.400001525879</ele>
        <time>2013-03-30T23:21:08.000Z</time>
      </trkpt>
      <trkpt lat="49.51143" lon="0.512">
        <ele>56.400001525879</ele>
        <time>2013-03-30T23:21:13.000Z</time>
      </trkpt>
      <trkpt lat="49.51147" lon="0.51205">
        <ele>57.400001525879</ele>
        <time>2013-03-30T23:21:19.000Z</time>
      </trkpt>
      <trkpt lat="49.51148" lon="0.51206">
        <ele>57.599998474121</ele>
        <time>2013-03-30T23:21:20.000Z</time>
      </trkpt>
      <trkpt lat="49.51152" lon="0.51213">
        <ele>58.799999237061</ele>
        <time>2013-03-30T23:21:25.000Z</time>
      </trkpt>
      <trkpt lat="49.51156" lon="0.51218">
        <ele>59.799999237061</ele>
        <time>2013-03-30T23:21:29.000Z</time>
      </trkpt>
      <trkpt lat="49.51158" lon="0.51221">
        <ele>60.400001525879</ele>
        <time>2013-03-30T23:21:31.000Z</time>
      </trkpt>
      <trkpt lat="49.51165" lon="0.51228">
        <ele>61.799999237061</ele>
        <time>2013-03-30T23:21:37.000Z</time>
      </trkpt>
      <trkpt lat="49.51168" lon="0.51231">
        <ele>62.400001525879</ele>
        <time>2013-03-30T23:21:39.000Z</time>
      </trkpt>
      <trkpt lat="49.5117" lon="0.51233">
        <ele>63.400001525879</ele>
        <time>2013-03-30T23:21:41.000Z</time>
      </trkpt>
      <trkpt lat="49.51174" lon="0.51236">
        <ele>64.400001525879</ele>
        <time>2013-03-30T23:21:44.000Z</time>
      </trkpt>
      <trkpt lat="49.51176" lon="0.51239">
        <ele>65</ele>
        <time>2013-03-30T23:21:46.000Z</time>
      </trkpt>
      <trkpt lat="49.51179" lon="0.51246">
        <ele>66.400001525879</ele>
        <time>2013-03-30T23:21:52.000Z</time>
      </trkpt>
      <trkpt lat="49.51181" lon="0.51247">
        <ele>66.800003051758</ele>
        <time>2013-03-30T23:21:53.000Z</time>
      </trkpt>
      <trkpt lat="49.51187" lon="0.51253">
        <ele>68.800003051758</ele>
        <time>2013-03-30T23:21:59.000Z</time>
      </trkpt>
      <trkpt lat="49.51195" lon="0.51257">
        <ele>71</ele>
        <time>2013-03-30T23:22:05.000Z</time>
      </trkpt>
      <trkpt lat="49.51196" lon="0.51258">
        <ele>71.400001525879</ele>
        <time>2013-03-30T23:22:06.000Z</time>
      </trkpt>
      <trkpt lat="49.512" lon="0.51261">
        <ele>72.400001525879</ele>
        <time>2013-03-30T23:22:10.000Z</time>
      </trkpt>
      <trkpt lat="49.51201" lon="0.51266">
        <ele>73</ele>
        <time>2013-03-30T23:22:16.000Z</time>
      </trkpt>
      <trkpt lat="49.51204" lon="0.51272">
        <ele>74.199996948242</ele>
        <time>2013-03-30T23:22:21.000Z</time>
      </trkpt>
      <trkpt lat="49.51206" lon="0.51273">
        <ele>74.599998474121</ele>
        <time>2013-03-30T23:22:23.000Z</time>
      </trkpt>
      <trkpt lat="49.51207" lon="0.51276">
        <ele>75.199996948242</ele>
        <time>2013-03-30T23:22:26.000Z</time>
      </trkpt>
      <trkpt lat="49.51207" lon="0.51279">
        <ele>75.400001525879</ele>
        <time>2013-03-30T23:22:29.000Z</time>
      </trkpt>
      <trkpt lat="49.51209" lon="0.51281">
        <ele>76</ele>
        <time>2013-03-30T23:22:31.000Z</time>
      </trkpt>
      <trkpt lat="49.51215" lon="0.51289">
        <ele>77.599998474121</ele>
        <time>2013-03-30T23:22:39.000Z</time>
      </trkpt>
      <trkpt lat="49.51218" lon="0.51296">
        <ele>78.599998474121</ele>
        <time>2013-03-30T23:22:45.000Z</time>
      </trkpt>
      <trkpt lat="49.51218" lon="0.51297">
        <ele>78.800003051758</ele>
        <time>2013-03-30T23:22:46.000Z</time>
      </trkpt>
      <trkpt lat="49.51219" lon="0.51298">
        <ele>78.800003051758</ele>
        <time>2013-03-30T23:22:47.000Z</time>
      </trkpt>
      <trkpt lat="49.51221" lon="0.51299">
        <ele>79.400001525879</ele>
        <time>2013-03-30T23:22:51.000Z</time>
      </trkpt>
      <trkpt lat="49.51226" lon="0.513">
        <ele>80.199996948242</ele>
        <time>2013-03-30T23:23:01.000Z</time>
      </trkpt>
      <trkpt lat="49.51225" lon="0.51303">
        <ele>80.199996948242</ele>
        <time>2013-03-30T23:23:06.000Z</time>
      </trkpt>
      <trkpt lat="49.51227" lon="0.51306">
        <ele>80.599998474121</ele>
        <time>2013-03-30T23:23:12.000Z</time>
      </trkpt>
      <trkpt lat="49.51229" lon="0.51311">
        <ele>81.199996948242</ele>
        <time>2013-03-30T23:23:17.000Z</time>
      </trkpt>
      <trkpt lat="49.5123" lon="0.51315">
        <ele>81.599998474121</ele>
        <time>2013-03-30T23:23:22.000Z</time>
      </trkpt>
      <trkpt lat="49.51232" lon="0.5132">
        <ele>82</ele>
        <time>2013-03-30T23:23:28.000Z</time>
      </trkpt>
      <trkpt lat="49.51235" lon="0.51329">
        <ele>83</ele>
        <time>2013-03-30T23:23:36.000Z</time>
      </trkpt>
      <trkpt lat="49.51236" lon="0.51333">
        <ele>83.199996948242</ele>
        <time>2013-03-30T23:23:41.000Z</time>
      </trkpt>
      <trkpt lat="49.51238" lon="0.51335">
        <ele>83.599998474121</ele>
        <time>2013-03-30T23:23:48.000Z</time>
      </trkpt>
      <trkpt lat="49.51241" lon="0.51343">
        <ele>84.800003051758</ele>
        <time>2013-03-30T23:24:03.000Z</time>
      </trkpt>
      <trkpt lat="49.5124" lon="0.51347">
        <ele>85</ele>
        <time>2013-03-30T23:24:07.000Z</time>
      </trkpt>
      <trkpt lat="49.51237" lon="0.51353">
        <ele>85.400001525879</ele>
        <time>2013-03-30T23:24:14.000Z</time>
      </trkpt>
      <trkpt lat="49.51235" lon="0.51357">
        <ele>85.599998474121</ele>
        <time>2013-03-30T23:24:20.000Z</time>
      </trkpt>
      <trkpt lat="49.51234" lon="0.51365">
        <ele>86.199996948242</ele>
        <time>2013-03-30T23:24:29.000Z</time>
      </trkpt>
      <trkpt lat="49.51233" lon="0.51368">
        <ele>86.400001525879</ele>
        <time>2013-03-30T23:24:34.000Z</time>
      </trkpt>
      <trkpt lat="49.51234" lon="0.51371">
        <ele>86.800003051758</ele>
        <time>2013-03-30T23:24:39.000Z</time>
      </trkpt>
      <trkpt lat="49.51233" lon="0.51375">
        <ele>87</ele>
        <time>2013-03-30T23:24:47.000Z</time>
      </trkpt>
      <trkpt lat="49.5123" lon="0.5138">
        <ele>87.199996948242</ele>
        <time>2013-03-30T23:24:58.000Z</time>
      </trkpt>
      <trkpt lat="49.51227" lon="0.51381">
        <ele>87</ele>
        <time>2013-03-30T23:25:03.000Z</time>
      </trkpt>
      <trkpt lat="49.51226" lon="0.51385">
        <ele>87.400001525879</ele>
        <time>2013-03-30T23:25:14.000Z</time>
      </trkpt>
      <trkpt lat="49.51224" lon="0.51388">
        <ele>87.400001525879</ele>
        <time>2013-03-30T23:25:25.000Z</time>
      </trkpt>
      <trkpt lat="49.51224" lon="0.51392">
        <ele>87.800003051758</ele>
        <time>2013-03-30T23:25:51.000Z</time>
      </trkpt>
      <trkpt lat="49.5122" lon="0.51395">
        <ele>87.800003051758</ele>
        <time>2013-03-30T23:27:06.000Z</time>
      </trkpt>
      <trkpt lat="49.51227" lon="0.51392">
        <ele>88.199996948242</ele>
        <time>2013-03-30T23:27:42.000Z</time>
      </trkpt>
      <trkpt lat="49.51229" lon="0.5139">
        <ele>88.199996948242</ele>
        <time>2013-03-30T23:27:47.000Z</time>
      </trkpt>
      <trkpt lat="49.5123" lon="0.51385">
        <ele>87.800003051758</ele>
        <time>2013-03-30T23:27:52.000Z</time>
      </trkpt>
      <trkpt lat="49.5123" lon="0.51379">
        <ele>87</ele>
        <time>2013-03-30T23:27:56.000Z</time>
      </trkpt>
      <trkpt lat="49.5123" lon="0.51374">
        <ele>86.599998474121</ele>
        <time>2013-03-30T23:28:00.000Z</time>
      </trkpt>
      <trkpt lat="49.51235" lon="0.51369">
        <ele>86.599998474121</ele>
        <time>2013-03-30T23:28:07.000Z</time>
      </trkpt>
      <trkpt lat="49.51235" lon="0.51368">
        <ele>86.599998474121</ele>
        <time>2013-03-30T23:28:08.000Z</time>
      </trkpt>
      <trkpt lat="49.51236" lon="0.51365">
        <ele>86.400001525879</ele>
        <time>2013-03-30T23:28:12.000Z</time>
      </trkpt>
      <trkpt lat="49.51235" lon="0.51365">
        <ele>86.400001525879</ele>
        <time>2013-03-30T23:28:17.000Z</time>
      </trkpt>
      <trkpt lat="49.51234" lon="0.51363">
        <ele>86</ele>
        <time>2013-03-30T23:28:22.000Z</time>
      </trkpt>
      <trkpt lat="49.51231" lon="0.51358">
        <ele>85.199996948242</ele>
        <time>2013-03-30T23:28:28.000Z</time>
      </trkpt>
      <trkpt lat="49.51232" lon="0.51356">
        <ele>85</ele>
        <time>2013-03-30T23:28:29.000Z</time>
      </trkpt>
      <trkpt lat="49.51232" lon="0.51354">
        <ele>84.800003051758</ele>
        <time>2013-03-30T23:28:32.000Z</time>
      </trkpt>
      <trkpt lat="49.51233" lon="0.51349">
        <ele>84.400001525879</ele>
        <time>2013-03-30T23:28:37.000Z</time>
      </trkpt>
      <trkpt lat="49.51234" lon="0.51346">
        <ele>84.199996948242</ele>
        <time>2013-03-30T23:28:41.000Z</time>
      </trkpt>
      <trkpt lat="49.51236" lon="0.51339">
        <ele>83.800003051758</ele>
        <time>2013-03-30T23:28:48.000Z</time>
      </trkpt>
      <trkpt lat="49.51235" lon="0.51337">
        <ele>83.400001525879</ele>
        <time>2013-03-30T23:28:56.000Z</time>
      </trkpt>
      <trkpt lat="49.51235" lon="0.51336">
        <ele>83.400001525879</ele>
        <time>2013-03-30T23:29:06.000Z</time>
      </trkpt>
      <trkpt lat="49.51236" lon="0.51339">
        <ele>83.800003051758</ele>
        <time>2013-03-30T23:29:12.000Z</time>
      </trkpt>
      <trkpt lat="49.51238" lon="0.51339">
        <ele>84</ele>
        <time>2013-03-30T23:29:17.000Z</time>
      </trkpt>
      <trkpt lat="49.51241" lon="0.51342">
        <ele>84.599998474121</ele>
        <time>2013-03-30T23:29:29.000Z</time>
      </trkpt>
      <trkpt lat="49.51242" lon="0.51343">
        <ele>84.800003051758</ele>
        <time>2013-03-30T23:29:30.000Z</time>
      </trkpt>
      <trkpt lat="49.51245" lon="0.5135">
        <ele>85.800003051758</ele>
        <time>2013-03-30T23:29:35.000Z</time>
      </trkpt>
      <trkpt lat="49.51249" lon="0.51352">
        <ele>86.599998474121</ele>
        <time>2013-03-30T23:29:39.000Z</time>
      </trkpt>
      <trkpt lat="49.5125" lon="0.51353">
        <ele>86.800003051758</ele>
        <time>2013-03-30T23:29:41.000Z</time>
      </trkpt>
      <trkpt lat="49.51254" lon="0.51361">
        <ele>88.199996948242</ele>
        <time>2013-03-30T23:29:48.000Z</time>
      </trkpt>
      <trkpt lat="49.51257" lon="0.51364">
        <ele>89</ele>
        <time>2013-03-30T23:29:51.000Z</time>
      </trkpt>
      <trkpt lat="49.51258" lon="0.51366">
        <ele>89.400001525879</ele>
        <time>2013-03-30T23:29:54.000Z</time>
      </trkpt>
      <trkpt lat="49.51261" lon="0.5137">
        <ele>90</ele>
        <time>2013-03-30T23:30:00.000Z</time>
      </trkpt>
      <trkpt lat="49.51264" lon="0.51377">
        <ele>91.199996948242</ele>
        <time>2013-03-30T23:30:07.000Z</time>
      </trkpt>
      <trkpt lat="49.51264" lon="0.51381">
        <ele>91.599998474121</ele>
        <time>2013-03-30T23:30:09.000Z</time>
      </trkpt>
      <trkpt lat="49.51267" lon="0.51386">
        <ele>92.199996948242</ele>
        <time>2013-03-30T23:30:13.000Z</time>
      </trkpt>
      <trkpt lat="49.51267" lon="0.51387">
        <ele>92.400001525879</ele>
        <time>2013-03-30T23:30:15.000Z</time>
      </trkpt>
      <trkpt lat="49.5127" lon="0.51391">
        <ele>93</ele>
        <time>2013-03-30T23:30:19.000Z</time>
      </trkpt>
      <trkpt lat="49.5127" lon="0.51392">
        <ele>93.199996948242</ele>
        <time>2013-03-30T23:30:20.000Z</time>
      </trkpt>
      <trkpt lat="49.51271" lon="0.51393">
        <ele>93.599998474121</ele>
        <time>2013-03-30T23:30:22.000Z</time>
      </trkpt>
      <trkpt lat="49.51273" lon="0.51396">
        <ele>94</ele>
        <time>2013-03-30T23:30:25.000Z</time>
      </trkpt>
      <trkpt lat="49.51277" lon="0.51401">
        <ele>94.800003051758</ele>
        <time>2013-03-30T23:30:32.000Z</time>
      </trkpt>
      <trkpt lat="49.5128" lon="0.51404">
        <ele>95.599998474121</ele>
        <time>2013-03-30T23:30:42.000Z</time>
      </trkpt>
      <trkpt lat="49.51281" lon="0.514">
        <ele>95.400001525879</ele>
        <time>2013-03-30T23:30:47.000Z</time>
      </trkpt>
      <trkpt lat="49.51281" lon="0.51389">
        <ele>94.400001525879</ele>
        <time>2013-03-30T23:30:54.000Z</time>
      </trkpt>
      <trkpt lat="49.5128" lon="0.51387">
        <ele>94.199996948242</ele>
        <time>2013-03-30T23:30:55.000Z</time>
      </trkpt>
      <trkpt lat="49.51281" lon="0.51384">
        <ele>94</ele>
        <time>2013-03-30T23:30:57.000Z</time>
      </trkpt>
      <trkpt lat="49.51277" lon="0.51369">
        <ele>92.400001525879</ele>
        <time>2013-03-30T23:31:02.000Z</time>
      </trkpt>
      <trkpt lat="49.51274" lon="0.51352">
        <ele>90.400001525879</ele>
        <time>2013-03-30T23:31:07.000Z</time>
      </trkpt>
      <trkpt lat="49.51274" lon="0.51341">
        <ele>89.599998474121</ele>
        <time>2013-03-30T23:31:10.000Z</time>
      </trkpt>
      <trkpt lat="49.51274" lon="0.51337">
        <ele>89.199996948242</ele>
        <time>2013-03-30T23:31:11.000Z</time>
      </trkpt>
      <trkpt lat="49.51274" lon="0.51331">
        <ele>88.800003051758</ele>
        <time>2013-03-30T23:31:13.000Z</time>
      </trkpt>
      <trkpt lat="49.51277" lon="0.51314">
        <ele>89.199996948242</ele>
        <time>2013-03-30T23:31:19.000Z</time>
      </trkpt>
      <trkpt lat="49.5128" lon="0.51297">
        <ele>89.400001525879</ele>
        <time>2013-03-30T23:31:24.000Z</time>
      </trkpt>
      <trkpt lat="49.51283" lon="0.51283">
        <ele>89.599998474121</ele>
        <time>2013-03-30T23:31:28.000Z</time>
      </trkpt>
      <trkpt lat="49.51288" lon="0.51269">
        <ele>90.400001525879</ele>
        <time>2013-03-30T23:31:33.000Z</time>
      </trkpt>
      <trkpt lat="49.51293" lon="0.51253">
        <ele>91.199996948242</ele>
        <time>2013-03-30T23:31:39.000Z</time>
      </trkpt>
      <trkpt lat="49.51296" lon="0.51245">
        <ele>91.400001525879</ele>
        <time>2013-03-30T23:31:42.000Z</time>
      </trkpt>
      <trkpt lat="49.51301" lon="0.51228">
        <ele>91.800003051758</ele>
        <time>2013-03-30T23:31:48.000Z</time>
      </trkpt>
      <trkpt lat="49.5131" lon="0.51213">
        <ele>93</ele>
        <time>2013-03-30T23:31:55.000Z</time>
      </trkpt>
      <trkpt lat="49.51311" lon="0.51212">
        <ele>93.199996948242</ele>
        <time>2013-03-30T23:31:56.000Z</time>
      </trkpt>
      <trkpt lat="49.51317" lon="0.51206">
        <ele>94.400001525879</ele>
        <time>2013-03-30T23:32:02.000Z</time>
      </trkpt>
      <trkpt lat="49.51321" lon="0.512">
        <ele>95</ele>
        <time>2013-03-30T23:32:06.000Z</time>
      </trkpt>
      <trkpt lat="49.51322" lon="0.51199">
        <ele>95.199996948242</ele>
        <time>2013-03-30T23:32:07.000Z</time>
      </trkpt>
      <trkpt lat="49.51327" lon="0.51195">
        <ele>96</ele>
        <time>2013-03-30T23:32:10.000Z</time>
      </trkpt>
      <trkpt lat="49.51336" lon="0.51184">
        <ele>97.800003051758</ele>
        <time>2013-03-30T23:32:15.000Z</time>
      </trkpt>
      <trkpt lat="49.51338" lon="0.51183">
        <ele>98</ele>
        <time>2013-03-30T23:32:16.000Z</time>
      </trkpt>
      <trkpt lat="49.5135" lon="0.51176">
        <ele>99.800003051758</ele>
        <time>2013-03-30T23:32:22.000Z</time>
      </trkpt>
      <trkpt lat="49.51358" lon="0.51175">
        <ele>101</ele>
        <time>2013-03-30T23:32:25.000Z</time>
      </trkpt>
      <trkpt lat="49.51368" lon="0.51173">
        <ele>102.40000152588</ele>
        <time>2013-03-30T23:32:30.000Z</time>
      </trkpt>
      <trkpt lat="49.51374" lon="0.51171">
        <ele>103.40000152588</ele>
        <time>2013-03-30T23:32:35.000Z</time>
      </trkpt>
      <trkpt lat="49.51376" lon="0.51167">
        <ele>103.40000152588</ele>
        <time>2013-03-30T23:32:47.000Z</time>
      </trkpt>
      <trkpt lat="49.51382" lon="0.51162">
        <ele>104.19999694824</ele>
        <time>2013-03-30T23:32:54.000Z</time>
      </trkpt>
      <trkpt lat="49.51388" lon="0.51153">
        <ele>104.40000152588</ele>
        <time>2013-03-30T23:33:05.000Z</time>
      </trkpt>
      <trkpt lat="49.5139" lon="0.51152">
        <ele>104.59999847412</ele>
        <time>2013-03-30T23:33:06.000Z</time>
      </trkpt>
      <trkpt lat="49.51392" lon="0.51152">
        <ele>104.80000305176</ele>
        <time>2013-03-30T23:33:08.000Z</time>
      </trkpt>
      <trkpt lat="49.51397" lon="0.51146">
        <ele>105</ele>
        <time>2013-03-30T23:33:14.000Z</time>
      </trkpt>
      <trkpt lat="49.51401" lon="0.51145">
        <ele>105.59999847412</ele>
        <time>2013-03-30T23:33:18.000Z</time>
      </trkpt>
      <trkpt lat="49.51402" lon="0.51144">
        <ele>105.80000305176</ele>
        <time>2013-03-30T23:33:20.000Z</time>
      </trkpt>
      <trkpt lat="49.51406" lon="0.51138">
        <ele>105.80000305176</ele>
        <time>2013-03-30T23:33:24.000Z</time>
      </trkpt>
      <trkpt lat="49.5141" lon="0.51131">
        <ele>105.59999847412</ele>
        <time>2013-03-30T23:33:27.000Z</time>
      </trkpt>
      <trkpt lat="49.51415" lon="0.51126">
        <ele>105.80000305176</ele>
        <time>2013-03-30T23:33:32.000Z</time>
      </trkpt>
      <trkpt lat="49.51418" lon="0.51123">
        <ele>105.80000305176</ele>
        <time>2013-03-30T23:33:34.000Z</time>
      </trkpt>
      <trkpt lat="49.51423" lon="0.51114">
        <ele>104.80000305176</ele>
        <time>2013-03-30T23:33:39.000Z</time>
      </trkpt>
      <trkpt lat="49.51424" lon="0.51111">
        <ele>104.59999847412</ele>
        <time>2013-03-30T23:33:44.000Z</time>
      </trkpt>
      <trkpt lat="49.51426" lon="0.51107">
        <ele>104.19999694824</ele>
        <time>2013-03-30T23:33:53.000Z</time>
      </trkpt>
      <trkpt lat="49.5143" lon="0.511">
        <ele>103.40000152588</ele>
        <time>2013-03-30T23:34:02.000Z</time>
      </trkpt>
      <trkpt lat="49.51433" lon="0.511">
        <ele>103.40000152588</ele>
        <time>2013-03-30T23:34:06.000Z</time>
      </trkpt>
      <trkpt lat="49.5144" lon="0.51103">
        <ele>103.80000305176</ele>
        <time>2013-03-30T23:34:12.000Z</time>
      </trkpt>
      <trkpt lat="49.51449" lon="0.51115">
        <ele>105.19999694824</ele>
        <time>2013-03-30T23:34:17.000Z</time>
      </trkpt>
      <trkpt lat="49.5146" lon="0.51125">
        <ele>106.40000152588</ele>
        <time>2013-03-30T23:34:22.000Z</time>
      </trkpt>
      <trkpt lat="49.51466" lon="0.51129">
        <ele>107</ele>
        <time>2013-03-30T23:34:25.000Z</time>
      </trkpt>
      <trkpt lat="49.5147" lon="0.51132">
        <ele>107.40000152588</ele>
        <time>2013-03-30T23:34:27.000Z</time>
      </trkpt>
      <trkpt lat="49.51479" lon="0.51137">
        <ele>108.19999694824</ele>
        <time>2013-03-30T23:34:32.000Z</time>
      </trkpt>
      <trkpt lat="49.51486" lon="0.51137">
        <ele>108.40000152588</ele>
        <time>2013-03-30T23:34:39.000Z</time>
      </trkpt>
      <trkpt lat="49.51483" lon="0.51135">
        <ele>108</ele>
        <time>2013-03-30T23:35:27.000Z</time>
      </trkpt>
      <trkpt lat="49.51481" lon="0.51134">
        <ele>108</ele>
        <time>2013-03-30T23:35:31.000Z</time>
      </trkpt>
      <trkpt lat="49.51479" lon="0.51133">
        <ele>107.80000305176</ele>
        <time>2013-03-30T23:35:35.000Z</time>
      </trkpt>
      <trkpt lat="49.51477" lon="0.51133">
        <ele>107.80000305176</ele>
        <time>2013-03-30T23:35:41.000Z</time>
      </trkpt>
      <trkpt lat="49.51473" lon="0.51134">
        <ele>107.80000305176</ele>
        <time>2013-03-30T23:35:46.000Z</time>
      </trkpt>
      <trkpt lat="49.51462" lon="0.51131">
        <ele>107.19999694824</ele>
        <time>2013-03-30T23:35:55.000Z</time>
      </trkpt>
      <trkpt lat="49.51459" lon="0.51134">
        <ele>107.59999847412</ele>
        <time>2013-03-30T23:36:00.000Z</time>
      </trkpt>
      <trkpt lat="49.51458" lon="0.51136">
        <ele>107.59999847412</ele>
        <time>2013-03-30T23:36:01.000Z</time>
      </trkpt>
      <trkpt lat="49.51454" lon="0.51141">
        <ele>108.19999694824</ele>
        <time>2013-03-30T23:36:04.000Z</time>
      </trkpt>
      <trkpt lat="49.51444" lon="0.51144">
        <ele>108.40000152588</ele>
        <time>2013-03-30T23:36:09.000Z</time>
      </trkpt>
      <trkpt lat="49.51439" lon="0.51145">
        <ele>108.40000152588</ele>
        <time>2013-03-30T23:36:11.000Z</time>
      </trkpt>
      <trkpt lat="49.51431" lon="0.51161">
        <ele>109.80000305176</ele>
        <time>2013-03-30T23:36:17.000Z</time>
      </trkpt>
      <trkpt lat="49.5143" lon="0.51163">
        <ele>110</ele>
        <time>2013-03-30T23:36:18.000Z</time>
      </trkpt>
      <trkpt lat="49.51427" lon="0.51179">
        <ele>110.80000305176</ele>
        <time>2013-03-30T23:36:24.000Z</time>
      </trkpt>
      <trkpt lat="49.51423" lon="0.51192">
        <ele>111.19999694824</ele>
        <time>2013-03-30T23:36:29.000Z</time>
      </trkpt>
      <trkpt lat="49.5142" lon="0.51198">
        <ele>111.19999694824</ele>
        <time>2013-03-30T23:36:31.000Z</time>
      </trkpt>
      <trkpt lat="49.51415" lon="0.51208">
        <ele>111</ele>
        <time>2013-03-30T23:36:36.000Z</time>
      </trkpt>
      <trkpt lat="49.51414" lon="0.5121">
        <ele>111</ele>
        <time>2013-03-30T23:36:37.000Z</time>
      </trkpt>
      <trkpt lat="49.51411" lon="0.51217">
        <ele>110.80000305176</ele>
        <time>2013-03-30T23:36:42.000Z</time>
      </trkpt>
      <trkpt lat="49.51413" lon="0.51233">
        <ele>111.59999847412</ele>
        <time>2013-03-30T23:36:50.000Z</time>
      </trkpt>
      <trkpt lat="49.51417" lon="0.51246">
        <ele>112.80000305176</ele>
        <time>2013-03-30T23:36:57.000Z</time>
      </trkpt>
      <trkpt lat="49.5142" lon="0.51254">
        <ele>113.40000152588</ele>
        <time>2013-03-30T23:37:01.000Z</time>
      </trkpt>
      <trkpt lat="49.51422" lon="0.51268">
        <ele>113.80000305176</ele>
        <time>2013-03-30T23:37:08.000Z</time>
      </trkpt>
      <trkpt lat="49.51422" lon="0.51271">
        <ele>113.80000305176</ele>
        <time>2013-03-30T23:37:09.000Z</time>
      </trkpt>
      <trkpt lat="49.51422" lon="0.51282">
        <ele>114</ele>
        <time>2013-03-30T23:37:13.000Z</time>
      </trkpt>
      <trkpt lat="49.51424" lon="0.51294">
        <ele>114.40000152588</ele>
        <time>2013-03-30T23:37:17.000Z</time>
      </trkpt>
      <trkpt lat="49.5143" lon="0.51304">
        <ele>115.19999694824</ele>
        <time>2013-03-30T23:37:21.000Z</time>
      </trkpt>
      <trkpt lat="49.51431" lon="0.51306">
        <ele>115.59999847412</ele>
        <time>2013-03-30T23:37:22.000Z</time>
      </trkpt>
      <trkpt lat="49.51434" lon="0.5131">
        <ele>116</ele>
        <time>2013-03-30T23:37:24.000Z</time>
      </trkpt>
      <trkpt lat="49.51436" lon="0.51321">
        <ele>116.59999847412</ele>
        <time>2013-03-30T23:37:30.000Z</time>
      </trkpt>
      <trkpt lat="49.5144" lon="0.51328">
        <ele>117.19999694824</ele>
        <time>2013-03-30T23:37:34.000Z</time>
      </trkpt>
      <trkpt lat="49.51441" lon="0.51329">
        <ele>117.19999694824</ele>
        <time>2013-03-30T23:37:35.000Z</time>
      </trkpt>
      <trkpt lat="49.51443" lon="0.51334">
        <ele>117.80000305176</ele>
        <time>2013-03-30T23:37:38.000Z</time>
      </trkpt>
      <trkpt lat="49.51445" lon="0.51341">
        <ele>118.19999694824</ele>
        <time>2013-03-30T23:37:43.000Z</time>
      </trkpt>
      <trkpt lat="49.51449" lon="0.51349">
        <ele>119</ele>
        <time>2013-03-30T23:37:50.000Z</time>
      </trkpt>
      <trkpt lat="49.51451" lon="0.51353">
        <ele>119.40000152588</ele>
        <time>2013-03-30T23:37:52.000Z</time>
      </trkpt>
      <trkpt lat="49.51451" lon="0.51355">
        <ele>119.59999847412</ele>
        <time>2013-03-30T23:37:54.000Z</time>
      </trkpt>
      <trkpt lat="49.51454" lon="0.51364">
        <ele>120.19999694824</ele>
        <time>2013-03-30T23:38:00.000Z</time>
      </trkpt>
      <trkpt lat="49.51457" lon="0.5137">
        <ele>120.80000305176</ele>
        <time>2013-03-30T23:38:04.000Z</time>
      </trkpt>
      <trkpt lat="49.51462" lon="0.51377">
        <ele>121.80000305176</ele>
        <time>2013-03-30T23:38:08.000Z</time>
      </trkpt>
      <trkpt lat="49.51465" lon="0.5138">
        <ele>122.19999694824</ele>
        <time>2013-03-30T23:38:10.000Z</time>
      </trkpt>
      <trkpt lat="49.5147" lon="0.5139">
        <ele>123.19999694824</ele>
        <time>2013-03-30T23:38:16.000Z</time>
      </trkpt>
      <trkpt lat="49.51474" lon="0.51397">
        <ele>123.80000305176</ele>
        <time>2013-03-30T23:38:21.000Z</time>
      </trkpt>
      <trkpt lat="49.51481" lon="0.51407">
        <ele>125</ele>
        <time>2013-03-30T23:38:27.000Z</time>
      </trkpt>
      <trkpt lat="49.51486" lon="0.5142">
        <ele>126</ele>
        <time>2013-03-30T23:38:34.000Z</time>
      </trkpt>
      <trkpt lat="49.51487" lon="0.51422">
        <ele>126</ele>
        <time>2013-03-30T23:38:35.000Z</time>
      </trkpt>
      <trkpt lat="49.51495" lon="0.51437">
        <ele>126.80000305176</ele>
        <time>2013-03-30T23:38:42.000Z</time>
      </trkpt>
      <trkpt lat="49.51502" lon="0.51452">
        <ele>127</ele>
        <time>2013-03-30T23:38:47.000Z</time>
      </trkpt>
      <trkpt lat="49.51503" lon="0.51455">
        <ele>127</ele>
        <time>2013-03-30T23:38:48.000Z</time>
      </trkpt>
      <trkpt lat="49.51508" lon="0.51463">
        <ele>126.80000305176</ele>
        <time>2013-03-30T23:38:51.000Z</time>
      </trkpt>
      <trkpt lat="49.51514" lon="0.51479">
        <ele>126.40000152588</ele>
        <time>2013-03-30T23:38:57.000Z</time>
      </trkpt>
      <trkpt lat="49.5152" lon="0.51491">
        <ele>126</ele>
        <time>2013-03-30T23:39:02.000Z</time>
      </trkpt>
      <trkpt lat="49.51526" lon="0.51506">
        <ele>125.80000305176</ele>
        <time>2013-03-30T23:39:07.000Z</time>
      </trkpt>
      <trkpt lat="49.51529" lon="0.51512">
        <ele>125.80000305176</ele>
        <time>2013-03-30T23:39:09.000Z</time>
      </trkpt>
      <trkpt lat="49.51537" lon="0.51525">
        <ele>125.80000305176</ele>
        <time>2013-03-30T23:39:13.000Z</time>
      </trkpt>
      <trkpt lat="49.51548" lon="0.51544">
        <ele>125.80000305176</ele>
        <time>2013-03-30T23:39:20.000Z</time>
      </trkpt>
      <trkpt lat="49.51558" lon="0.51561">
        <ele>126</ele>
        <time>2013-03-30T23:39:26.000Z</time>
      </trkpt>
      <trkpt lat="49.51568" lon="0.51579">
        <ele>126.40000152588</ele>
        <time>2013-03-30T23:39:32.000Z</time>
      </trkpt>
      <trkpt lat="49.5158" lon="0.51597">
        <ele>127</ele>
        <time>2013-03-30T23:39:39.000Z</time>
      </trkpt>
      <trkpt lat="49.51589" lon="0.51613">
        <ele>127.40000152588</ele>
        <time>2013-03-30T23:39:45.000Z</time>
      </trkpt>
      <trkpt lat="49.51601" lon="0.51635">
        <ele>127.80000305176</ele>
        <time>2013-03-30T23:39:53.000Z</time>
      </trkpt>
      <trkpt lat="49.51612" lon="0.51654">
        <ele>128.19999694824</ele>
        <time>2013-03-30T23:40:01.000Z</time>
      </trkpt>
      <trkpt lat="49.51618" lon="0.51666">
        <ele>128.39999389648</ele>
        <time>2013-03-30T23:40:07.000Z</time>
      </trkpt>
      <trkpt lat="49.51626" lon="0.51678">
        <ele>128.60000610352</ele>
        <time>2013-03-30T23:40:15.000Z</time>
      </trkpt>
      <trkpt lat="49.51632" lon="0.51687">
        <ele>128.80000305176</ele>
        <time>2013-03-30T23:40:20.000Z</time>
      </trkpt>
      <trkpt lat="49.51638" lon="0.51698">
        <ele>129</ele>
        <time>2013-03-30T23:40:26.000Z</time>
      </trkpt>
      <trkpt lat="49.51645" lon="0.51711">
        <ele>129.39999389648</ele>
        <time>2013-03-30T23:40:33.000Z</time>
      </trkpt>
      <trkpt lat="49.5165" lon="0.5172">
        <ele>129.39999389648</ele>
        <time>2013-03-30T23:40:39.000Z</time>
      </trkpt>
      <trkpt lat="49.51656" lon="0.5173">
        <ele>129.60000610352</ele>
        <time>2013-03-30T23:40:45.000Z</time>
      </trkpt>
      <trkpt lat="49.51662" lon="0.51739">
        <ele>129.80000305176</ele>
        <time>2013-03-30T23:40:50.000Z</time>
      </trkpt>
      <trkpt lat="49.51663" lon="0.51739">
        <ele>129.80000305176</ele>
        <time>2013-03-30T23:40:51.000Z</time>
      </trkpt>
      <trkpt lat="49.51671" lon="0.5173">
        <ele>129.80000305176</ele>
        <time>2013-03-30T23:40:56.000Z</time>
      </trkpt>
      <trkpt lat="49.51674" lon="0.51727">
        <ele>129.80000305176</ele>
        <time>2013-03-30T23:40:57.000Z</time>
      </trkpt>
      <trkpt lat="49.51687" lon="0.51709">
        <ele>129.60000610352</ele>
        <time>2013-03-30T23:41:04.000Z</time>
      </trkpt>
      <trkpt lat="49.51698" lon="0.51694">
        <ele>129.60000610352</ele>
        <time>2013-03-30T23:41:10.000Z</time>
      </trkpt>
      <trkpt lat="49.5171" lon="0.51679">
        <ele>129.60000610352</ele>
        <time>2013-03-30T23:41:16.000Z</time>
      </trkpt>
      <trkpt lat="49.51721" lon="0.51664">
        <ele>129.60000610352</ele>
        <time>2013-03-30T23:41:22.000Z</time>
      </trkpt>
      <trkpt lat="49.5173" lon="0.51652">
        <ele>129.60000610352</ele>
        <time>2013-03-30T23:41:27.000Z</time>
      </trkpt>
      <trkpt lat="49.51742" lon="0.51644">
        <ele>129.80000305176</ele>
        <time>2013-03-30T23:41:33.000Z</time>
      </trkpt>
      <trkpt lat="49.51747" lon="0.5164">
        <ele>129.80000305176</ele>
        <time>2013-03-30T23:41:35.000Z</time>
      </trkpt>
      <trkpt lat="49.51764" lon="0.51627">
        <ele>129.80000305176</ele>
        <time>2013-03-30T23:41:43.000Z</time>
      </trkpt>
      <trkpt lat="49.51766" lon="0.51627">
        <ele>129.80000305176</ele>
        <time>2013-03-30T23:41:44.000Z</time>
      </trkpt>
      <trkpt lat="49.51775" lon="0.51622">
        <ele>129.80000305176</ele>
        <time>2013-03-30T23:41:49.000Z</time>
      </trkpt>
      <trkpt lat="49.51796" lon="0.51617">
        <ele>129.60000610352</ele>
        <time>2013-03-30T23:41:58.000Z</time>
      </trkpt>
      <trkpt lat="49.5181" lon="0.51615">
        <ele>129.39999389648</ele>
        <time>2013-03-30T23:42:04.000Z</time>
      </trkpt>
      <trkpt lat="49.51812" lon="0.51616">
        <ele>129.39999389648</ele>
        <time>2013-03-30T23:42:10.000Z</time>
      </trkpt>
      <trkpt lat="49.51818" lon="0.51616">
        <ele>129.39999389648</ele>
        <time>2013-03-30T23:42:14.000Z</time>
      </trkpt>
      <trkpt lat="49.51833" lon="0.51616">
        <ele>129.19999694824</ele>
        <time>2013-03-30T23:42:21.000Z</time>
      </trkpt>
      <trkpt lat="49.51849" lon="0.51617">
        <ele>129.19999694824</ele>
        <time>2013-03-30T23:42:28.000Z</time>
      </trkpt>
      <trkpt lat="49.51863" lon="0.51618">
        <ele>129</ele>
        <time>2013-03-30T23:42:35.000Z</time>
      </trkpt>
      <trkpt lat="49.51874" lon="0.51619">
        <ele>128.80000305176</ele>
        <time>2013-03-30T23:42:40.000Z</time>
      </trkpt>
      <trkpt lat="49.5189" lon="0.5162">
        <ele>128.60000610352</ele>
        <time>2013-03-30T23:42:47.000Z</time>
      </trkpt>
      <trkpt lat="49.51891" lon="0.51619">
        <ele>128.60000610352</ele>
        <time>2013-03-30T23:42:48.000Z</time>
      </trkpt>
      <trkpt lat="49.51893" lon="0.5162">
        <ele>128.60000610352</ele>
        <time>2013-03-30T23:42:54.000Z</time>
      </trkpt>
      <trkpt lat="49.51894" lon="0.5162">
        <ele>128.60000610352</ele>
        <time>2013-03-30T23:42:59.000Z</time>
      </trkpt>
      <trkpt lat="49.51909" lon="0.51621">
        <ele>128.39999389648</ele>
        <time>2013-03-30T23:43:06.000Z</time>
      </trkpt>
      <trkpt lat="49.51927" lon="0.51621">
        <ele>128.19999694824</ele>
        <time>2013-03-30T23:43:13.000Z</time>
      </trkpt>
      <trkpt lat="49.51941" lon="0.51621">
        <ele>128</ele>
        <time>2013-03-30T23:43:19.000Z</time>
      </trkpt>
      <trkpt lat="49.51961" lon="0.51623">
        <ele>127.80000305176</ele>
        <time>2013-03-30T23:43:27.000Z</time>
      </trkpt>
      <trkpt lat="49.51969" lon="0.51624">
        <ele>127.80000305176</ele>
        <time>2013-03-30T23:43:31.000Z</time>
      </trkpt>
      <trkpt lat="49.51984" lon="0.51624">
        <ele>127.59999847412</ele>
        <time>2013-03-30T23:43:37.000Z</time>
      </trkpt>
      <trkpt lat="49.51997" lon="0.51624">
        <ele>127.40000152588</ele>
        <time>2013-03-30T23:43:43.000Z</time>
      </trkpt>
      <trkpt lat="49.52006" lon="0.51624">
        <ele>127.19999694824</ele>
        <time>2013-03-30T23:43:47.000Z</time>
      </trkpt>
      <trkpt lat="49.5201" lon="0.51626">
        <ele>127</ele>
        <time>2013-03-30T23:43:49.000Z</time>
      </trkpt>
      <trkpt lat="49.52012" lon="0.51633">
        <ele>127</ele>
        <time>2013-03-30T23:43:51.000Z</time>
      </trkpt>
      <trkpt lat="49.5201" lon="0.51653">
        <ele>126.80000305176</ele>
        <time>2013-03-30T23:43:57.000Z</time>
      </trkpt>
      <trkpt lat="49.52004" lon="0.51677">
        <ele>126.40000152588</ele>
        <time>2013-03-30T23:44:05.000Z</time>
      </trkpt>
      <trkpt lat="49.52001" lon="0.51704">
        <ele>125</ele>
        <time>2013-03-30T23:44:13.000Z</time>
      </trkpt>
      <trkpt lat="49.51999" lon="0.51725">
        <ele>124.19999694824</ele>
        <time>2013-03-30T23:44:20.000Z</time>
      </trkpt>
      <trkpt lat="49.51999" lon="0.51727">
        <ele>124</ele>
        <time>2013-03-30T23:44:21.000Z</time>
      </trkpt>
      <trkpt lat="49.51997" lon="0.51736">
        <ele>123.59999847412</ele>
        <time>2013-03-30T23:44:25.000Z</time>
      </trkpt>
      <trkpt lat="49.51996" lon="0.51752">
        <ele>123.19999694824</ele>
        <time>2013-03-30T23:44:31.000Z</time>
      </trkpt>
      <trkpt lat="49.51995" lon="0.51764">
        <ele>123.40000152588</ele>
        <time>2013-03-30T23:44:35.000Z</time>
      </trkpt>
      <trkpt lat="49.51995" lon="0.51768">
        <ele>123.59999847412</ele>
        <time>2013-03-30T23:44:37.000Z</time>
      </trkpt>
      <trkpt lat="49.51994" lon="0.51772">
        <ele>123.59999847412</ele>
        <time>2013-03-30T23:44:39.000Z</time>
      </trkpt>
      <trkpt lat="49.51994" lon="0.51782">
        <ele>124</ele>
        <time>2013-03-30T23:44:43.000Z</time>
      </trkpt>
      <trkpt lat="49.51991" lon="0.51802">
        <ele>124.40000152588</ele>
        <time>2013-03-30T23:44:50.000Z</time>
      </trkpt>
      <trkpt lat="49.5199" lon="0.51824">
        <ele>125</ele>
        <time>2013-03-30T23:44:56.000Z</time>
      </trkpt>
      <trkpt lat="49.51987" lon="0.51842">
        <ele>126</ele>
        <time>2013-03-30T23:45:01.000Z</time>
      </trkpt>
      <trkpt lat="49.51983" lon="0.51867">
        <ele>128.19999694824</ele>
        <time>2013-03-30T23:45:08.000Z</time>
      </trkpt>
      <trkpt lat="49.51978" lon="0.51892">
        <ele>130</ele>
        <time>2013-03-30T23:45:16.000Z</time>
      </trkpt>
      <trkpt lat="49.51973" lon="0.51909">
        <ele>131.39999389648</ele>
        <time>2013-03-30T23:45:22.000Z</time>
      </trkpt>
      <trkpt lat="49.51968" lon="0.51932">
        <ele>131.80000305176</ele>
        <time>2013-03-30T23:45:29.000Z</time>
      </trkpt>
      <trkpt lat="49.51963" lon="0.51955">
        <ele>131.60000610352</ele>
        <time>2013-03-30T23:45:36.000Z</time>
      </trkpt>
      <trkpt lat="49.51959" lon="0.52008">
        <ele>131.19999694824</ele>
        <time>2013-03-30T23:45:51.000Z</time>
      </trkpt>
      <trkpt lat="49.51956" lon="0.52037">
        <ele>130.39999389648</ele>
        <time>2013-03-30T23:45:59.000Z</time>
      </trkpt>
      <trkpt lat="49.51954" lon="0.52046">
        <ele>130</ele>
        <time>2013-03-30T23:46:03.000Z</time>
      </trkpt>
      <trkpt lat="49.51951" lon="0.5206">
        <ele>129.60000610352</ele>
        <time>2013-03-30T23:46:12.000Z</time>
      </trkpt>
      <trkpt lat="49.51951" lon="0.52062">
        <ele>129.60000610352</ele>
        <time>2013-03-30T23:46:13.000Z</time>
      </trkpt>
      <trkpt lat="49.51948" lon="0.52077">
        <ele>129.19999694824</ele>
        <time>2013-03-30T23:46:21.000Z</time>
      </trkpt>
      <trkpt lat="49.51947" lon="0.52093">
        <ele>128.60000610352</ele>
        <time>2013-03-30T23:46:28.000Z</time>
      </trkpt>
      <trkpt lat="49.51942" lon="0.52112">
        <ele>127.80000305176</ele>
        <time>2013-03-30T23:46:35.000Z</time>
      </trkpt>
      <trkpt lat="49.51942" lon="0.52118">
        <ele>127.59999847412</ele>
        <time>2013-03-30T23:46:37.000Z</time>
      </trkpt>
      <trkpt lat="49.51937" lon="0.52139">
        <ele>126.80000305176</ele>
        <time>2013-03-30T23:46:43.000Z</time>
      </trkpt>
      <trkpt lat="49.51934" lon="0.52153">
        <ele>126.40000152588</ele>
        <time>2013-03-30T23:46:47.000Z</time>
      </trkpt>
      <trkpt lat="49.5194" lon="0.5216">
        <ele>126.19999694824</ele>
        <time>2013-03-30T23:46:52.000Z</time>
      </trkpt>
      <trkpt lat="49.5194" lon="0.5216">
        <ele>126.19999694824</ele>
        <time>2013-03-30T23:46:58.000Z</time>
      </trkpt>
      <trkpt lat="49.5194" lon="0.52164">
        <ele>126</ele>
        <time>2013-03-30T23:47:06.000Z</time>
      </trkpt>
      <trkpt lat="49.5194" lon="0.52164">
        <ele>126</ele>
        <time>2013-03-30T23:47:16.000Z</time>
      </trkpt>
      <trkpt lat="49.5194" lon="0.52167">
        <ele>125.80000305176</ele>
        <time>2013-03-30T23:47:37.000Z</time>
      </trkpt>
      <trkpt lat="49.51934" lon="0.52181">
        <ele>125.19999694824</ele>
        <time>2013-03-30T23:47:45.000Z</time>
      </trkpt>
      <trkpt lat="49.5193" lon="0.52193">
        <ele>124.40000152588</ele>
        <time>2013-03-30T23:47:53.000Z</time>
      </trkpt>
      <trkpt lat="49.51925" lon="0.52208">
        <ele>123.59999847412</ele>
        <time>2013-03-30T23:47:58.000Z</time>
      </trkpt>
      <trkpt lat="49.51922" lon="0.52223">
        <ele>122.59999847412</ele>
        <time>2013-03-30T23:48:06.000Z</time>
      </trkpt>
      <trkpt lat="49.51918" lon="0.52235">
        <ele>121.80000305176</ele>
        <time>2013-03-30T23:48:14.000Z</time>
      </trkpt>
      <trkpt lat="49.51914" lon="0.52248">
        <ele>121</ele>
        <time>2013-03-30T23:48:19.000Z</time>
      </trkpt>
      <trkpt lat="49.5191" lon="0.52261">
        <ele>121</ele>
        <time>2013-03-30T23:48:24.000Z</time>
      </trkpt>
      <trkpt lat="49.51906" lon="0.52272">
        <ele>121</ele>
        <time>2013-03-30T23:48:30.000Z</time>
      </trkpt>
      <trkpt lat="49.51904" lon="0.52282">
        <ele>121</ele>
        <time>2013-03-30T23:48:36.000Z</time>
      </trkpt>
      <trkpt lat="49.51904" lon="0.52288">
        <ele>121</ele>
        <time>2013-03-30T23:48:38.000Z</time>
      </trkpt>
      <trkpt lat="49.51904" lon="0.52291">
        <ele>121</ele>
        <time>2013-03-30T23:48:42.000Z</time>
      </trkpt>
      <trkpt lat="49.51899" lon="0.5229">
        <ele>121.40000152588</ele>
        <time>2013-03-30T23:48:47.000Z</time>
      </trkpt>
      <trkpt lat="49.519" lon="0.52281">
        <ele>121.40000152588</ele>
        <time>2013-03-30T23:48:53.000Z</time>
      </trkpt>
      <trkpt lat="49.519" lon="0.52279">
        <ele>121.19999694824</ele>
        <time>2013-03-30T23:48:54.000Z</time>
      </trkpt>
      <trkpt lat="49.51897" lon="0.52277">
        <ele>121.40000152588</ele>
        <time>2013-03-30T23:48:59.000Z</time>
      </trkpt>
      <trkpt lat="49.51895" lon="0.52279">
        <ele>121.59999847412</ele>
        <time>2013-03-30T23:49:07.000Z</time>
      </trkpt>
      <trkpt lat="49.51894" lon="0.5228">
        <ele>121.59999847412</ele>
        <time>2013-03-30T23:49:08.000Z</time>
      </trkpt>
      <trkpt lat="49.51887" lon="0.5228">
        <ele>121.80000305176</ele>
        <time>2013-03-30T23:49:12.000Z</time>
      </trkpt>
      <trkpt lat="49.51883" lon="0.5228">
        <ele>122</ele>
        <time>2013-03-30T23:49:15.000Z</time>
      </trkpt>
      <trkpt lat="49.51878" lon="0.52287">
        <ele>122.40000152588</ele>
        <time>2013-03-30T23:49:19.000Z</time>
      </trkpt>
      <trkpt lat="49.51879" lon="0.52295">
        <ele>122.40000152588</ele>
        <time>2013-03-30T23:49:27.000Z</time>
      </trkpt>
      <trkpt lat="49.51879" lon="0.52299">
        <ele>122.59999847412</ele>
        <time>2013-03-30T23:49:29.000Z</time>
      </trkpt>
      <trkpt lat="49.51878" lon="0.52307">
        <ele>122.80000305176</ele>
        <time>2013-03-30T23:49:32.000Z</time>
      </trkpt>
      <trkpt lat="49.51881" lon="0.52323">
        <ele>122.80000305176</ele>
        <time>2013-03-30T23:49:40.000Z</time>
      </trkpt>
      <trkpt lat="49.51883" lon="0.52328">
        <ele>122.59999847412</ele>
        <time>2013-03-30T23:49:44.000Z</time>
      </trkpt>
      <trkpt lat="49.51884" lon="0.52329">
        <ele>122.59999847412</ele>
        <time>2013-03-30T23:49:46.000Z</time>
      </trkpt>
      <trkpt lat="49.51885" lon="0.52333">
        <ele>122.59999847412</ele>
        <time>2013-03-30T23:49:48.000Z</time>
      </trkpt>
      <trkpt lat="49.51886" lon="0.52361">
        <ele>119</ele>
        <time>2013-03-30T23:49:59.000Z</time>
      </trkpt>
      <trkpt lat="49.51886" lon="0.52364">
        <ele>118.59999847412</ele>
        <time>2013-03-30T23:50:00.000Z</time>
      </trkpt>
      <trkpt lat="49.5189" lon="0.52378">
        <ele>116.40000152588</ele>
        <time>2013-03-30T23:50:05.000Z</time>
      </trkpt>
      <trkpt lat="49.51894" lon="0.52387">
        <ele>114.80000305176</ele>
        <time>2013-03-30T23:50:09.000Z</time>
      </trkpt>
      <trkpt lat="49.51895" lon="0.52389">
        <ele>114.40000152588</ele>
        <time>2013-03-30T23:50:10.000Z</time>
      </trkpt>
      <trkpt lat="49.51897" lon="0.52393">
        <ele>113.80000305176</ele>
        <time>2013-03-30T23:50:11.000Z</time>
      </trkpt>
      <trkpt lat="49.51897" lon="0.52404">
        <ele>112.19999694824</ele>
        <time>2013-03-30T23:50:15.000Z</time>
      </trkpt>
      <trkpt lat="49.51896" lon="0.52416">
        <ele>110.80000305176</ele>
        <time>2013-03-30T23:50:21.000Z</time>
      </trkpt>
      <trkpt lat="49.51897" lon="0.52423">
        <ele>109</ele>
        <time>2013-03-30T23:50:27.000Z</time>
      </trkpt>
      <trkpt lat="49.51905" lon="0.52433">
        <ele>105.59999847412</ele>
        <time>2013-03-30T23:50:32.000Z</time>
      </trkpt>
      <trkpt lat="49.51905" lon="0.5244">
        <ele>103.80000305176</ele>
        <time>2013-03-30T23:50:36.000Z</time>
      </trkpt>
      <trkpt lat="49.51906" lon="0.52449">
        <ele>101.19999694824</ele>
        <time>2013-03-30T23:50:41.000Z</time>
      </trkpt>
      <trkpt lat="49.51905" lon="0.52451">
        <ele>101</ele>
        <time>2013-03-30T23:50:42.000Z</time>
      </trkpt>
      <trkpt lat="49.51903" lon="0.52455">
        <ele>100.40000152588</ele>
        <time>2013-03-30T23:50:44.000Z</time>
      </trkpt>
      <trkpt lat="49.51905" lon="0.52464">
        <ele>97.800003051758</ele>
        <time>2013-03-30T23:50:48.000Z</time>
      </trkpt>
      <trkpt lat="49.51906" lon="0.52473">
        <ele>95.599998474121</ele>
        <time>2013-03-30T23:50:53.000Z</time>
      </trkpt>
      <trkpt lat="49.51907" lon="0.52479">
        <ele>93.800003051758</ele>
        <time>2013-03-30T23:50:56.000Z</time>
      </trkpt>
      <trkpt lat="49.51907" lon="0.52483">
        <ele>93</ele>
        <time>2013-03-30T23:50:59.000Z</time>
      </trkpt>
      <trkpt lat="49.51907" lon="0.52485">
        <ele>92.400001525879</ele>
        <time>2013-03-30T23:51:01.000Z</time>
      </trkpt>
      <trkpt lat="49.51913" lon="0.52493">
        <ele>89.400001525879</ele>
        <time>2013-03-30T23:51:05.000Z</time>
      </trkpt>
      <trkpt lat="49.51915" lon="0.52504">
        <ele>86.599998474121</ele>
        <time>2013-03-30T23:51:09.000Z</time>
      </trkpt>
      <trkpt lat="49.5192" lon="0.52514">
        <ele>85.199996948242</ele>
        <time>2013-03-30T23:51:13.000Z</time>
      </trkpt>
      <trkpt lat="49.51923" lon="0.52517">
        <ele>85</ele>
        <time>2013-03-30T23:51:16.000Z</time>
      </trkpt>
      <trkpt lat="49.51926" lon="0.52517">
        <ele>85.199996948242</ele>
        <time>2013-03-30T23:51:24.000Z</time>
      </trkpt>
      <trkpt lat="49.51935" lon="0.52515">
        <ele>86</ele>
        <time>2013-03-30T23:51:29.000Z</time>
      </trkpt>
      <trkpt lat="49.51941" lon="0.52516">
        <ele>86.199996948242</ele>
        <time>2013-03-30T23:51:34.000Z</time>
      </trkpt>
      <trkpt lat="49.51943" lon="0.52517">
        <ele>86.199996948242</ele>
        <time>2013-03-30T23:51:35.000Z</time>
      </trkpt>
      <trkpt lat="49.51955" lon="0.52523">
        <ele>86</ele>
        <time>2013-03-30T23:51:41.000Z</time>
      </trkpt>
      <trkpt lat="49.51966" lon="0.5253">
        <ele>85.400001525879</ele>
        <time>2013-03-30T23:51:47.000Z</time>
      </trkpt>
      <trkpt lat="49.5197" lon="0.52534">
        <ele>85</ele>
        <time>2013-03-30T23:51:49.000Z</time>
      </trkpt>
      <trkpt lat="49.51976" lon="0.5254">
        <ele>84.199996948242</ele>
        <time>2013-03-30T23:51:53.000Z</time>
      </trkpt>
      <trkpt lat="49.51986" lon="0.52552">
        <ele>82.400001525879</ele>
        <time>2013-03-30T23:51:58.000Z</time>
      </trkpt>
      <trkpt lat="49.51995" lon="0.52564">
        <ele>80.599998474121</ele>
        <time>2013-03-30T23:52:02.000Z</time>
      </trkpt>
      <trkpt lat="49.52003" lon="0.52576">
        <ele>78.400001525879</ele>
        <time>2013-03-30T23:52:07.000Z</time>
      </trkpt>
      <trkpt lat="49.5201" lon="0.52589">
        <ele>76.199996948242</ele>
        <time>2013-03-30T23:52:12.000Z</time>
      </trkpt>
      <trkpt lat="49.52014" lon="0.52597">
        <ele>74.400001525879</ele>
        <time>2013-03-30T23:52:16.000Z</time>
      </trkpt>
      <trkpt lat="49.52019" lon="0.52607">
        <ele>72.400001525879</ele>
        <time>2013-03-30T23:52:20.000Z</time>
      </trkpt>
      <trkpt lat="49.52026" lon="0.52614">
        <ele>71</ele>
        <time>2013-03-30T23:52:25.000Z</time>
      </trkpt>
      <trkpt lat="49.52028" lon="0.52618">
        <ele>70.199996948242</ele>
        <time>2013-03-30T23:52:27.000Z</time>
      </trkpt>
      <trkpt lat="49.52028" lon="0.5262">
        <ele>69.599998474121</ele>
        <time>2013-03-30T23:52:29.000Z</time>
      </trkpt>
      <trkpt lat="49.5203" lon="0.52624">
        <ele>69</ele>
        <time>2013-03-30T23:52:32.000Z</time>
      </trkpt>
      <trkpt lat="49.52032" lon="0.52625">
        <ele>68.800003051758</ele>
        <time>2013-03-30T23:52:38.000Z</time>
      </trkpt>
      <trkpt lat="49.52033" lon="0.52626">
        <ele>68.400001525879</ele>
        <time>2013-03-30T23:52:44.000Z</time>
      </trkpt>
      <trkpt lat="49.52032" lon="0.52628">
        <ele>68</ele>
        <time>2013-03-30T23:52:45.000Z</time>
      </trkpt>
      <trkpt lat="49.52032" lon="0.52635">
        <ele>66.599998474121</ele>
        <time>2013-03-30T23:52:50.000Z</time>
      </trkpt>
      <trkpt lat="49.52032" lon="0.52643">
        <ele>64.599998474121</ele>
        <time>2013-03-30T23:52:54.000Z</time>
      </trkpt>
      <trkpt lat="49.52033" lon="0.5265">
        <ele>63</ele>
        <time>2013-03-30T23:52:59.000Z</time>
      </trkpt>
      <trkpt lat="49.52037" lon="0.52646">
        <ele>64</ele>
        <time>2013-03-30T23:53:14.000Z</time>
      </trkpt>
      <trkpt lat="49.52037" lon="0.52636">
        <ele>66.400001525879</ele>
        <time>2013-03-30T23:53:19.000Z</time>
      </trkpt>
      <trkpt lat="49.52037" lon="0.52636">
        <ele>66.400001525879</ele>
        <time>2013-03-30T23:53:20.000Z</time>
      </trkpt>
      <trkpt lat="49.52039" lon="0.52628">
        <ele>68.199996948242</ele>
        <time>2013-03-30T23:53:25.000Z</time>
      </trkpt>
      <trkpt lat="49.5204" lon="0.52624">
        <ele>69.400001525879</ele>
        <time>2013-03-30T23:53:30.000Z</time>
      </trkpt>
      <trkpt lat="49.52042" lon="0.52623">
        <ele>69.599998474121</ele>
        <time>2013-03-30T23:53:37.000Z</time>
      </trkpt>
      <trkpt lat="49.52044" lon="0.52622">
        <ele>70</ele>
        <time>2013-03-30T23:54:00.000Z</time>
      </trkpt>
      <trkpt lat="49.52047" lon="0.52625">
        <ele>69.400001525879</ele>
        <time>2013-03-30T23:54:31.000Z</time>
      </trkpt>
      <trkpt lat="49.52039" lon="0.52629">
        <ele>68.199996948242</ele>
        <time>2013-03-30T23:54:37.000Z</time>
      </trkpt>
      <trkpt lat="49.52037" lon="0.52632">
        <ele>67.400001525879</ele>
        <time>2013-03-30T23:54:41.000Z</time>
      </trkpt>
      <trkpt lat="49.52045" lon="0.52632">
        <ele>67.800003051758</ele>
        <time>2013-03-30T23:55:03.000Z</time>
      </trkpt>
      <trkpt lat="49.52051" lon="0.5263">
        <ele>68.400001525879</ele>
        <time>2013-03-30T23:55:08.000Z</time>
      </trkpt>
      <trkpt lat="49.52058" lon="0.52625">
        <ele>69.800003051758</ele>
        <time>2013-03-30T23:55:13.000Z</time>
      </trkpt>
      <trkpt lat="49.52059" lon="0.52624">
        <ele>70.199996948242</ele>
        <time>2013-03-30T23:55:14.000Z</time>
      </trkpt>
      <trkpt lat="49.52061" lon="0.52619">
        <ele>71.400001525879</ele>
        <time>2013-03-30T23:55:17.000Z</time>
      </trkpt>
      <trkpt lat="49.52068" lon="0.52603">
        <ele>75.599998474121</ele>
        <time>2013-03-30T23:55:24.000Z</time>
      </trkpt>
      <trkpt lat="49.52069" lon="0.52601">
        <ele>76</ele>
        <time>2013-03-30T23:55:25.000Z</time>
      </trkpt>
      <trkpt lat="49.52072" lon="0.52598">
        <ele>77</ele>
        <time>2013-03-30T23:55:27.000Z</time>
      </trkpt>
      <trkpt lat="49.52077" lon="0.52592">
        <ele>78.599998474121</ele>
        <time>2013-03-30T23:55:31.000Z</time>
      </trkpt>
      <trkpt lat="49.52078" lon="0.52586">
        <ele>80</ele>
        <time>2013-03-30T23:55:34.000Z</time>
      </trkpt>
      <trkpt lat="49.52087" lon="0.52581">
        <ele>81.599998474121</ele>
        <time>2013-03-30T23:55:40.000Z</time>
      </trkpt>
      <trkpt lat="49.5209" lon="0.52578">
        <ele>82.599998474121</ele>
        <time>2013-03-30T23:55:43.000Z</time>
      </trkpt>
      <trkpt lat="49.52101" lon="0.52574">
        <ele>83.599998474121</ele>
        <time>2013-03-30T23:55:50.000Z</time>
      </trkpt>
      <trkpt lat="49.52104" lon="0.52574">
        <ele>83.599998474121</ele>
        <time>2013-03-30T23:55:52.000Z</time>
      </trkpt>
      <trkpt lat="49.52117" lon="0.52576">
        <ele>83</ele>
        <time>2013-03-30T23:55:58.000Z</time>
      </trkpt>
      <trkpt lat="49.52132" lon="0.52571">
        <ele>84.599998474121</ele>
        <time>2013-03-30T23:56:03.000Z</time>
      </trkpt>
      <trkpt lat="49.52137" lon="0.52569">
        <ele>85.199996948242</ele>
        <time>2013-03-30T23:56:05.000Z</time>
      </trkpt>
      <trkpt lat="49.52139" lon="0.52564">
        <ele>86.800003051758</ele>
        <time>2013-03-30T23:56:09.000Z</time>
      </trkpt>
      <trkpt lat="49.5215" lon="0.52556">
        <ele>89</ele>
        <time>2013-03-30T23:56:15.000Z</time>
      </trkpt>
      <trkpt lat="49.52151" lon="0.52555">
        <ele>89.400001525879</ele>
        <time>2013-03-30T23:56:16.000Z</time>
      </trkpt>
      <trkpt lat="49.52159" lon="0.52549">
        <ele>91.199996948242</ele>
        <time>2013-03-30T23:56:23.000Z</time>
      </trkpt>
      <trkpt lat="49.52159" lon="0.52548">
        <ele>91.400001525879</ele>
        <time>2013-03-30T23:56:24.000Z</time>
      </trkpt>
      <trkpt lat="49.52167" lon="0.52542">
        <ele>93.400001525879</ele>
        <time>2013-03-30T23:56:31.000Z</time>
      </trkpt>
      <trkpt lat="49.52178" lon="0.52537">
        <ele>94.400001525879</ele>
        <time>2013-03-30T23:56:37.000Z</time>
      </trkpt>
      <trkpt lat="49.52193" lon="0.52531">
        <ele>95.599998474121</ele>
        <time>2013-03-30T23:56:46.000Z</time>
      </trkpt>
      <trkpt lat="49.52199" lon="0.52526">
        <ele>97</ele>
        <time>2013-03-30T23:56:50.000Z</time>
      </trkpt>
      <trkpt lat="49.52216" lon="0.52522">
        <ele>97.599998474121</ele>
        <time>2013-03-30T23:56:57.000Z</time>
      </trkpt>
      <trkpt lat="49.52223" lon="0.52518">
        <ele>98.599998474121</ele>
        <time>2013-03-30T23:57:02.000Z</time>
      </trkpt>
      <trkpt lat="49.52229" lon="0.52515">
        <ele>99.199996948242</ele>
        <time>2013-03-30T23:57:07.000Z</time>
      </trkpt>
      <trkpt lat="49.52234" lon="0.52513">
        <ele>99.599998474121</ele>
        <time>2013-03-30T23:57:10.000Z</time>
      </trkpt>
      <trkpt lat="49.52236" lon="0.52512">
        <ele>100</ele>
        <time>2013-03-30T23:57:12.000Z</time>
      </trkpt>
      <trkpt lat="49.52247" lon="0.52513">
        <ele>99.400001525879</ele>
        <time>2013-03-30T23:57:18.000Z</time>
      </trkpt>
      <trkpt lat="49.52248" lon="0.52512">
        <ele>99.400001525879</ele>
        <time>2013-03-30T23:57:19.000Z</time>
      </trkpt>
      <trkpt lat="49.52254" lon="0.52511">
        <ele>99.800003051758</ele>
        <time>2013-03-30T23:57:23.000Z</time>
      </trkpt>
      <trkpt lat="49.52257" lon="0.52509">
        <ele>100.19999694824</ele>
        <time>2013-03-30T23:57:25.000Z</time>
      </trkpt>
      <trkpt lat="49.52261" lon="0.52507">
        <ele>100.80000305176</ele>
        <time>2013-03-30T23:57:29.000Z</time>
      </trkpt>
      <trkpt lat="49.52262" lon="0.52505">
        <ele>101.19999694824</ele>
        <time>2013-03-30T23:57:31.000Z</time>
      </trkpt>
      <trkpt lat="49.52265" lon="0.52504">
        <ele>101.59999847412</ele>
        <time>2013-03-30T23:57:35.000Z</time>
      </trkpt>
      <trkpt lat="49.52266" lon="0.52504">
        <ele>101.59999847412</ele>
        <time>2013-03-30T23:57:36.000Z</time>
      </trkpt>
      <trkpt lat="49.52274" lon="0.52502">
        <ele>102</ele>
        <time>2013-03-30T23:57:43.000Z</time>
      </trkpt>
      <trkpt lat="49.52289" lon="0.52501">
        <ele>102</ele>
        <time>2013-03-30T23:57:52.000Z</time>
      </trkpt>
      <trkpt lat="49.52292" lon="0.525">
        <ele>102.40000152588</ele>
        <time>2013-03-30T23:57:54.000Z</time>
      </trkpt>
      <trkpt lat="49.52294" lon="0.52499">
        <ele>102.40000152588</ele>
        <time>2013-03-30T23:57:56.000Z</time>
      </trkpt>
      <trkpt lat="49.523" lon="0.52496">
        <ele>102.80000305176</ele>
        <time>2013-03-30T23:58:02.000Z</time>
      </trkpt>
      <trkpt lat="49.52304" lon="0.52494">
        <ele>103</ele>
        <time>2013-03-30T23:58:06.000Z</time>
      </trkpt>
      <trkpt lat="49.52305" lon="0.52493">
        <ele>103</ele>
        <time>2013-03-30T23:58:08.000Z</time>
      </trkpt>
      <trkpt lat="49.52312" lon="0.5249">
        <ele>103.19999694824</ele>
        <time>2013-03-30T23:58:14.000Z</time>
      </trkpt>
      <trkpt lat="49.52319" lon="0.52488">
        <ele>103.40000152588</ele>
        <time>2013-03-30T23:58:20.000Z</time>
      </trkpt>
      <trkpt lat="49.52325" lon="0.52486">
        <ele>103.59999847412</ele>
        <time>2013-03-30T23:58:25.000Z</time>
      </trkpt>
      <trkpt lat="49.52338" lon="0.5248">
        <ele>104.19999694824</ele>
        <time>2013-03-30T23:58:32.000Z</time>
      </trkpt>
      <trkpt lat="49.52348" lon="0.52477">
        <ele>104.19999694824</ele>
        <time>2013-03-30T23:58:37.000Z</time>
      </trkpt>
      <trkpt lat="49.52365" lon="0.52475">
        <ele>104</ele>
        <time>2013-03-30T23:58:43.000Z</time>
      </trkpt>
      <trkpt lat="49.52369" lon="0.52472">
        <ele>104.19999694824</ele>
        <time>2013-03-30T23:58:46.000Z</time>
      </trkpt>
      <trkpt lat="49.52379" lon="0.52466">
        <ele>104.80000305176</ele>
        <time>2013-03-30T23:58:54.000Z</time>
      </trkpt>
      <trkpt lat="49.52382" lon="0.52464">
        <ele>105</ele>
        <time>2013-03-30T23:58:56.000Z</time>
      </trkpt>
      <trkpt lat="49.52383" lon="0.52462">
        <ele>105.19999694824</ele>
        <time>2013-03-30T23:58:58.000Z</time>
      </trkpt>
      <trkpt lat="49.52395" lon="0.52458">
        <ele>105.40000152588</ele>
        <time>2013-03-30T23:59:05.000Z</time>
      </trkpt>
      <trkpt lat="49.52396" lon="0.52457">
        <ele>105.59999847412</ele>
        <time>2013-03-30T23:59:06.000Z</time>
      </trkpt>
      <trkpt lat="49.52398" lon="0.52456">
        <ele>105.59999847412</ele>
        <time>2013-03-30T23:59:07.000Z</time>
      </trkpt>
      <trkpt lat="49.52404" lon="0.52452">
        <ele>106</ele>
        <time>2013-03-30T23:59:11.000Z</time>
      </trkpt>
      <trkpt lat="49.52411" lon="0.52446">
        <ele>106.80000305176</ele>
        <time>2013-03-30T23:59:16.000Z</time>
      </trkpt>
      <trkpt lat="49.52409" lon="0.5244">
        <ele>107.59999847412</ele>
        <time>2013-03-30T23:59:20.000Z</time>
      </trkpt>
      <trkpt lat="49.524" lon="0.52433">
        <ele>108.80000305176</ele>
        <time>2013-03-30T23:59:28.000Z</time>
      </trkpt>
      <trkpt lat="49.52399" lon="0.5243">
        <ele>109.19999694824</ele>
        <time>2013-03-30T23:59:30.000Z</time>
      </trkpt>
      <trkpt lat="49.52396" lon="0.52414">
        <ele>111</ele>
        <time>2013-03-30T23:59:39.000Z</time>
      </trkpt>
      <trkpt lat="49.52398" lon="0.52402">
        <ele>110.80000305176</ele>
        <time>2013-03-30T23:59:46.000Z</time>
      </trkpt>
      <trkpt lat="49.52398" lon="0.52395">
        <ele>110.59999847412</ele>
        <time>2013-03-30T23:59:50.000Z</time>
      </trkpt>
      <trkpt lat="49.52405" lon="0.52376">
        <ele>109.80000305176</ele>
        <time>2013-03-31T00:00:00.000Z</time>
      </trkpt>
      <trkpt lat="49.52408" lon="0.52363">
        <ele>109.19999694824</ele>
        <time>2013-03-31T00:00:05.000Z</time>
      </trkpt>
      <trkpt lat="49.52409" lon="0.5236">
        <ele>109.19999694824</ele>
        <time>2013-03-31T00:00:06.000Z</time>
      </trkpt>
      <trkpt lat="49.52407" lon="0.52343">
        <ele>108.59999847412</ele>
        <time>2013-03-31T00:00:13.000Z</time>
      </trkpt>
      <trkpt lat="49.52405" lon="0.52334">
        <ele>108.40000152588</ele>
        <time>2013-03-31T00:00:17.000Z</time>
      </trkpt>
      <trkpt lat="49.52402" lon="0.5232">
        <ele>108</ele>
        <time>2013-03-31T00:00:24.000Z</time>
      </trkpt>
      <trkpt lat="49.52402" lon="0.52314">
        <ele>107.59999847412</ele>
        <time>2013-03-31T00:00:30.000Z</time>
      </trkpt>
      <trkpt lat="49.52402" lon="0.52311">
        <ele>107.59999847412</ele>
        <time>2013-03-31T00:00:31.000Z</time>
      </trkpt>
      <trkpt lat="49.52401" lon="0.52309">
        <ele>107.59999847412</ele>
        <time>2013-03-31T00:00:32.000Z</time>
      </trkpt>
      <trkpt lat="49.52399" lon="0.52299">
        <ele>107.19999694824</ele>
        <time>2013-03-31T00:00:37.000Z</time>
      </trkpt>
      <trkpt lat="49.52398" lon="0.52293">
        <ele>107</ele>
        <time>2013-03-31T00:00:42.000Z</time>
      </trkpt>
      <trkpt lat="49.52396" lon="0.52279">
        <ele>106.59999847412</ele>
        <time>2013-03-31T00:00:51.000Z</time>
      </trkpt>
      <trkpt lat="49.52395" lon="0.52277">
        <ele>106.59999847412</ele>
        <time>2013-03-31T00:00:55.000Z</time>
      </trkpt>
      <trkpt lat="49.52395" lon="0.52276">
        <ele>106.59999847412</ele>
        <time>2013-03-31T00:01:01.000Z</time>
      </trkpt>
      <trkpt lat="49.52395" lon="0.52274">
        <ele>106.59999847412</ele>
        <time>2013-03-31T00:01:10.000Z</time>
      </trkpt>
      <trkpt lat="49.52394" lon="0.52266">
        <ele>106.19999694824</ele>
        <time>2013-03-31T00:01:18.000Z</time>
      </trkpt>
      <trkpt lat="49.52393" lon="0.52262">
        <ele>106.19999694824</ele>
        <time>2013-03-31T00:01:20.000Z</time>
      </trkpt>
      <trkpt lat="49.52391" lon="0.5225">
        <ele>106</ele>
        <time>2013-03-31T00:01:26.000Z</time>
      </trkpt>
      <trkpt lat="49.5239" lon="0.52249">
        <ele>106</ele>
        <time>2013-03-31T00:01:27.000Z</time>
      </trkpt>
      <trkpt lat="49.52389" lon="0.52247">
        <ele>106</ele>
        <time>2013-03-31T00:01:28.000Z</time>
      </trkpt>
      <trkpt lat="49.52388" lon="0.5224">
        <ele>105.80000305176</ele>
        <time>2013-03-31T00:01:32.000Z</time>
      </trkpt>
      <trkpt lat="49.52388" lon="0.52237">
        <ele>105.59999847412</ele>
        <time>2013-03-31T00:01:34.000Z</time>
      </trkpt>
      <trkpt lat="49.52385" lon="0.52222">
        <ele>105.19999694824</ele>
        <time>2013-03-31T00:01:41.000Z</time>
      </trkpt>
      <trkpt lat="49.52379" lon="0.52191">
        <ele>104.40000152588</ele>
        <time>2013-03-31T00:01:51.000Z</time>
      </trkpt>
      <trkpt lat="49.52377" lon="0.52167">
        <ele>103.40000152588</ele>
        <time>2013-03-31T00:01:57.000Z</time>
      </trkpt>
      <trkpt lat="49.52375" lon="0.52141">
        <ele>102.80000305176</ele>
        <time>2013-03-31T00:02:03.000Z</time>
      </trkpt>
      <trkpt lat="49.52374" lon="0.52128">
        <ele>102.19999694824</ele>
        <time>2013-03-31T00:02:06.000Z</time>
      </trkpt>
      <trkpt lat="49.5237" lon="0.52112">
        <ele>102.40000152588</ele>
        <time>2013-03-31T00:02:10.000Z</time>
      </trkpt>
      <trkpt lat="49.5237" lon="0.52105">
        <ele>102.19999694824</ele>
        <time>2013-03-31T00:02:15.000Z</time>
      </trkpt>
      <trkpt lat="49.52367" lon="0.52102">
        <ele>102.80000305176</ele>
        <time>2013-03-31T00:02:20.000Z</time>
      </trkpt>
      <trkpt lat="49.52364" lon="0.52097">
        <ele>103</ele>
        <time>2013-03-31T00:02:26.000Z</time>
      </trkpt>
      <trkpt lat="49.52361" lon="0.52092">
        <ele>103.80000305176</ele>
        <time>2013-03-31T00:02:31.000Z</time>
      </trkpt>
      <trkpt lat="49.52358" lon="0.52089">
        <ele>104.19999694824</ele>
        <time>2013-03-31T00:02:42.000Z</time>
      </trkpt>
      <trkpt lat="49.52357" lon="0.52088">
        <ele>104.40000152588</ele>
        <time>2013-03-31T00:02:43.000Z</time>
      </trkpt>
      <trkpt lat="49.52355" lon="0.52085">
        <ele>104.80000305176</ele>
        <time>2013-03-31T00:02:46.000Z</time>
      </trkpt>
      <trkpt lat="49.52347" lon="0.52078">
        <ele>106</ele>
        <time>2013-03-31T00:02:54.000Z</time>
      </trkpt>
      <trkpt lat="49.52346" lon="0.52076">
        <ele>106.19999694824</ele>
        <time>2013-03-31T00:02:55.000Z</time>
      </trkpt>
      <trkpt lat="49.52345" lon="0.52073">
        <ele>106.19999694824</ele>
        <time>2013-03-31T00:03:04.000Z</time>
      </trkpt>
      <trkpt lat="49.52342" lon="0.52068">
        <ele>106.59999847412</ele>
        <time>2013-03-31T00:03:11.000Z</time>
      </trkpt>
      <trkpt lat="49.52337" lon="0.52061">
        <ele>107</ele>
        <time>2013-03-31T00:03:18.000Z</time>
      </trkpt>
      <trkpt lat="49.52335" lon="0.52058">
        <ele>107</ele>
        <time>2013-03-31T00:03:21.000Z</time>
      </trkpt>
      <trkpt lat="49.52331" lon="0.52053">
        <ele>107.19999694824</ele>
        <time>2013-03-31T00:03:29.000Z</time>
      </trkpt>
      <trkpt lat="49.52328" lon="0.52051">
        <ele>107.19999694824</ele>
        <time>2013-03-31T00:03:34.000Z</time>
      </trkpt>
      <trkpt lat="49.52326" lon="0.52048">
        <ele>107.19999694824</ele>
        <time>2013-03-31T00:03:39.000Z</time>
      </trkpt>
      <trkpt lat="49.52323" lon="0.52044">
        <ele>107.19999694824</ele>
        <time>2013-03-31T00:03:44.000Z</time>
      </trkpt>
      <trkpt lat="49.52324" lon="0.52042">
        <ele>106.80000305176</ele>
        <time>2013-03-31T00:03:47.000Z</time>
      </trkpt>
      <trkpt lat="49.52321" lon="0.52033">
        <ele>106.40000152588</ele>
        <time>2013-03-31T00:03:53.000Z</time>
      </trkpt>
      <trkpt lat="49.52318" lon="0.52027">
        <ele>106.19999694824</ele>
        <time>2013-03-31T00:03:58.000Z</time>
      </trkpt>
      <trkpt lat="49.52315" lon="0.52024">
        <ele>106.19999694824</ele>
        <time>2013-03-31T00:04:03.000Z</time>
      </trkpt>
      <trkpt lat="49.5231" lon="0.52016">
        <ele>106.19999694824</ele>
        <time>2013-03-31T00:04:08.000Z</time>
      </trkpt>
      <trkpt lat="49.52308" lon="0.52014">
        <ele>106.40000152588</ele>
        <time>2013-03-31T00:04:12.000Z</time>
      </trkpt>
      <trkpt lat="49.52304" lon="0.52009">
        <ele>106.59999847412</ele>
        <time>2013-03-31T00:04:16.000Z</time>
      </trkpt>
      <trkpt lat="49.52299" lon="0.52008">
        <ele>107</ele>
        <time>2013-03-31T00:04:22.000Z</time>
      </trkpt>
      <trkpt lat="49.52295" lon="0.52007">
        <ele>107.40000152588</ele>
        <time>2013-03-31T00:04:29.000Z</time>
      </trkpt>
      <trkpt lat="49.52291" lon="0.51999">
        <ele>107.40000152588</ele>
        <time>2013-03-31T00:04:50.000Z</time>
      </trkpt>
      <trkpt lat="49.52289" lon="0.51998">
        <ele>107.80000305176</ele>
        <time>2013-03-31T00:04:55.000Z</time>
      </trkpt>
      <trkpt lat="49.52284" lon="0.51992">
        <ele>108.19999694824</ele>
        <time>2013-03-31T00:05:00.000Z</time>
      </trkpt>
      <trkpt lat="49.52279" lon="0.51981">
        <ele>108.59999847412</ele>
        <time>2013-03-31T00:05:06.000Z</time>
      </trkpt>
      <trkpt lat="49.52271" lon="0.51967">
        <ele>109.40000152588</ele>
        <time>2013-03-31T00:05:11.000Z</time>
      </trkpt>
      <trkpt lat="49.52265" lon="0.51953">
        <ele>109.80000305176</ele>
        <time>2013-03-31T00:05:15.000Z</time>
      </trkpt>
      <trkpt lat="49.52264" lon="0.51949">
        <ele>109.80000305176</ele>
        <time>2013-03-31T00:05:16.000Z</time>
      </trkpt>
      <trkpt lat="49.52261" lon="0.51939">
        <ele>110</ele>
        <time>2013-03-31T00:05:20.000Z</time>
      </trkpt>
      <trkpt lat="49.52259" lon="0.51931">
        <ele>110</ele>
        <time>2013-03-31T00:05:24.000Z</time>
      </trkpt>
      <trkpt lat="49.52257" lon="0.5192">
        <ele>110</ele>
        <time>2013-03-31T00:05:32.000Z</time>
      </trkpt>
      <trkpt lat="49.52255" lon="0.51912">
        <ele>110.40000152588</ele>
        <time>2013-03-31T00:05:39.000Z</time>
      </trkpt>
      <trkpt lat="49.52254" lon="0.51902">
        <ele>110.80000305176</ele>
        <time>2013-03-31T00:05:47.000Z</time>
      </trkpt>
      <trkpt lat="49.52254" lon="0.51896">
        <ele>111</ele>
        <time>2013-03-31T00:05:50.000Z</time>
      </trkpt>
      <trkpt lat="49.52256" lon="0.51889">
        <ele>110.80000305176</ele>
        <time>2013-03-31T00:05:55.000Z</time>
      </trkpt>
      <trkpt lat="49.52258" lon="0.51876">
        <ele>111</ele>
        <time>2013-03-31T00:06:02.000Z</time>
      </trkpt>
      <trkpt lat="49.52259" lon="0.51875">
        <ele>111</ele>
        <time>2013-03-31T00:06:03.000Z</time>
      </trkpt>
      <trkpt lat="49.52258" lon="0.51865">
        <ele>111.40000152588</ele>
        <time>2013-03-31T00:06:07.000Z</time>
      </trkpt>
      <trkpt lat="49.52256" lon="0.51854">
        <ele>112</ele>
        <time>2013-03-31T00:06:13.000Z</time>
      </trkpt>
      <trkpt lat="49.52253" lon="0.5184">
        <ele>112.59999847412</ele>
        <time>2013-03-31T00:06:20.000Z</time>
      </trkpt>
      <trkpt lat="49.52251" lon="0.51826">
        <ele>113</ele>
        <time>2013-03-31T00:06:26.000Z</time>
      </trkpt>
      <trkpt lat="49.52249" lon="0.5181">
        <ele>113.40000152588</ele>
        <time>2013-03-31T00:06:33.000Z</time>
      </trkpt>
      <trkpt lat="49.52248" lon="0.51795">
        <ele>113.59999847412</ele>
        <time>2013-03-31T00:06:40.000Z</time>
      </trkpt>
      <trkpt lat="49.52247" lon="0.51782">
        <ele>113.80000305176</ele>
        <time>2013-03-31T00:06:47.000Z</time>
      </trkpt>
      <trkpt lat="49.52246" lon="0.51768">
        <ele>114</ele>
        <time>2013-03-31T00:06:53.000Z</time>
      </trkpt>
      <trkpt lat="49.52238" lon="0.51751">
        <ele>114.80000305176</ele>
        <time>2013-03-31T00:07:01.000Z</time>
      </trkpt>
      <trkpt lat="49.5223" lon="0.51737">
        <ele>115.40000152588</ele>
        <time>2013-03-31T00:07:09.000Z</time>
      </trkpt>
      <trkpt lat="49.5223" lon="0.51735">
        <ele>115.40000152588</ele>
        <time>2013-03-31T00:07:14.000Z</time>
      </trkpt>
      <trkpt lat="49.52232" lon="0.51728">
        <ele>115.19999694824</ele>
        <time>2013-03-31T00:07:42.000Z</time>
      </trkpt>
      <trkpt lat="49.5223" lon="0.51698">
        <ele>115</ele>
        <time>2013-03-31T00:07:57.000Z</time>
      </trkpt>
      <trkpt lat="49.52226" lon="0.5168">
        <ele>115</ele>
        <time>2013-03-31T00:08:05.000Z</time>
      </trkpt>
      <trkpt lat="49.52225" lon="0.51669">
        <ele>115</ele>
        <time>2013-03-31T00:08:10.000Z</time>
      </trkpt>
      <trkpt lat="49.52225" lon="0.51668">
        <ele>115</ele>
        <time>2013-03-31T00:08:11.000Z</time>
      </trkpt>
      <trkpt lat="49.52225" lon="0.51659">
        <ele>115.19999694824</ele>
        <time>2013-03-31T00:08:16.000Z</time>
      </trkpt>
      <trkpt lat="49.52221" lon="0.51646">
        <ele>115.80000305176</ele>
        <time>2013-03-31T00:08:23.000Z</time>
      </trkpt>
      <trkpt lat="49.52214" lon="0.5163">
        <ele>116.59999847412</ele>
        <time>2013-03-31T00:08:30.000Z</time>
      </trkpt>
      <trkpt lat="49.52211" lon="0.51614">
        <ele>117.19999694824</ele>
        <time>2013-03-31T00:08:36.000Z</time>
      </trkpt>
      <trkpt lat="49.52211" lon="0.51612">
        <ele>117.19999694824</ele>
        <time>2013-03-31T00:08:37.000Z</time>
      </trkpt>
      <trkpt lat="49.52214" lon="0.51601">
        <ele>117.19999694824</ele>
        <time>2013-03-31T00:08:44.000Z</time>
      </trkpt>
      <trkpt lat="49.52216" lon="0.51592">
        <ele>117.40000152588</ele>
        <time>2013-03-31T00:08:49.000Z</time>
      </trkpt>
      <trkpt lat="49.52218" lon="0.51584">
        <ele>117.40000152588</ele>
        <time>2013-03-31T00:08:57.000Z</time>
      </trkpt>
      <trkpt lat="49.52221" lon="0.51573">
        <ele>117.80000305176</ele>
        <time>2013-03-31T00:09:02.000Z</time>
      </trkpt>
      <trkpt lat="49.52226" lon="0.5156">
        <ele>118.19999694824</ele>
        <time>2013-03-31T00:09:10.000Z</time>
      </trkpt>
      <trkpt lat="49.52232" lon="0.51548">
        <ele>118.40000152588</ele>
        <time>2013-03-31T00:09:17.000Z</time>
      </trkpt>
      <trkpt lat="49.52234" lon="0.51544">
        <ele>118.59999847412</ele>
        <time>2013-03-31T00:09:19.000Z</time>
      </trkpt>
      <trkpt lat="49.52238" lon="0.51537">
        <ele>118.59999847412</ele>
        <time>2013-03-31T00:09:23.000Z</time>
      </trkpt>
      <trkpt lat="49.52253" lon="0.51523">
        <ele>118.80000305176</ele>
        <time>2013-03-31T00:09:31.000Z</time>
      </trkpt>
      <trkpt lat="49.52257" lon="0.51518">
        <ele>119.19999694824</ele>
        <time>2013-03-31T00:09:35.000Z</time>
      </trkpt>
      <trkpt lat="49.52261" lon="0.51515">
        <ele>119.40000152588</ele>
        <time>2013-03-31T00:09:39.000Z</time>
      </trkpt>
      <trkpt lat="49.52265" lon="0.5151">
        <ele>119.59999847412</ele>
        <time>2013-03-31T00:09:46.000Z</time>
      </trkpt>
      <trkpt lat="49.52267" lon="0.51508">
        <ele>119.80000305176</ele>
        <time>2013-03-31T00:09:54.000Z</time>
      </trkpt>
      <trkpt lat="49.52272" lon="0.51504">
        <ele>120</ele>
        <time>2013-03-31T00:09:59.000Z</time>
      </trkpt>
      <trkpt lat="49.52272" lon="0.51505">
        <ele>120</ele>
        <time>2013-03-31T00:10:03.000Z</time>
      </trkpt>
      <trkpt lat="49.52277" lon="0.51512">
        <ele>119.59999847412</ele>
        <time>2013-03-31T00:10:07.000Z</time>
      </trkpt>
      <trkpt lat="49.52278" lon="0.51513">
        <ele>119.59999847412</ele>
        <time>2013-03-31T00:10:08.000Z</time>
      </trkpt>
      <trkpt lat="49.52278" lon="0.51514">
        <ele>119.59999847412</ele>
        <time>2013-03-31T00:10:09.000Z</time>
      </trkpt>
      <trkpt lat="49.52279" lon="0.51517">
        <ele>119.59999847412</ele>
        <time>2013-03-31T00:10:14.000Z</time>
      </trkpt>
      <trkpt lat="49.52282" lon="0.51522">
        <ele>119.40000152588</ele>
        <time>2013-03-31T00:10:19.000Z</time>
      </trkpt>
      <trkpt lat="49.52284" lon="0.51529">
        <ele>119</ele>
        <time>2013-03-31T00:10:25.000Z</time>
      </trkpt>
      <trkpt lat="49.52285" lon="0.51533">
        <ele>119</ele>
        <time>2013-03-31T00:10:30.000Z</time>
      </trkpt>
      <trkpt lat="49.52287" lon="0.51542">
        <ele>118.59999847412</ele>
        <time>2013-03-31T00:10:34.000Z</time>
      </trkpt>
      <trkpt lat="49.52296" lon="0.51562">
        <ele>118</ele>
        <time>2013-03-31T00:10:40.000Z</time>
      </trkpt>
      <trkpt lat="49.52307" lon="0.51579">
        <ele>117.40000152588</ele>
        <time>2013-03-31T00:10:46.000Z</time>
      </trkpt>
      <trkpt lat="49.52315" lon="0.51592">
        <ele>117</ele>
        <time>2013-03-31T00:10:50.000Z</time>
      </trkpt>
      <trkpt lat="49.5232" lon="0.51607">
        <ele>116.19999694824</ele>
        <time>2013-03-31T00:10:55.000Z</time>
      </trkpt>
      <trkpt lat="49.52322" lon="0.51611">
        <ele>116</ele>
        <time>2013-03-31T00:11:13.000Z</time>
      </trkpt>
      <trkpt lat="49.52321" lon="0.51612">
        <ele>116</ele>
        <time>2013-03-31T00:11:20.000Z</time>
      </trkpt>
      <trkpt lat="49.52326" lon="0.51617">
        <ele>115.80000305176</ele>
        <time>2013-03-31T00:11:24.000Z</time>
      </trkpt>
      <trkpt lat="49.52334" lon="0.51628">
        <ele>115.19999694824</ele>
        <time>2013-03-31T00:11:29.000Z</time>
      </trkpt>
      <trkpt lat="49.52345" lon="0.51641">
        <ele>114.59999847412</ele>
        <time>2013-03-31T00:11:34.000Z</time>
      </trkpt>
      <trkpt lat="49.52356" lon="0.51653">
        <ele>114</ele>
        <time>2013-03-31T00:11:39.000Z</time>
      </trkpt>
      <trkpt lat="49.52371" lon="0.5167">
        <ele>113.40000152588</ele>
        <time>2013-03-31T00:11:45.000Z</time>
      </trkpt>
      <trkpt lat="49.52381" lon="0.51683">
        <ele>113.40000152588</ele>
        <time>2013-03-31T00:11:50.000Z</time>
      </trkpt>
      <trkpt lat="49.52385" lon="0.51689">
        <ele>113.40000152588</ele>
        <time>2013-03-31T00:11:52.000Z</time>
      </trkpt>
      <trkpt lat="49.52398" lon="0.51706">
        <ele>113.59999847412</ele>
        <time>2013-03-31T00:11:59.000Z</time>
      </trkpt>
      <trkpt lat="49.5241" lon="0.51718">
        <ele>113.80000305176</ele>
        <time>2013-03-31T00:12:05.000Z</time>
      </trkpt>
      <trkpt lat="49.52415" lon="0.51724">
        <ele>113.80000305176</ele>
        <time>2013-03-31T00:12:08.000Z</time>
      </trkpt>
      <trkpt lat="49.52419" lon="0.51731">
        <ele>114</ele>
        <time>2013-03-31T00:12:14.000Z</time>
      </trkpt>
      <trkpt lat="49.52428" lon="0.51738">
        <ele>114</ele>
        <time>2013-03-31T00:12:18.000Z</time>
      </trkpt>
      <trkpt lat="49.52444" lon="0.51754">
        <ele>113.80000305176</ele>
        <time>2013-03-31T00:12:25.000Z</time>
      </trkpt>
      <trkpt lat="49.52454" lon="0.51761">
        <ele>113.80000305176</ele>
        <time>2013-03-31T00:12:30.000Z</time>
      </trkpt>
      <trkpt lat="49.52465" lon="0.51765">
        <ele>113.59999847412</ele>
        <time>2013-03-31T00:12:35.000Z</time>
      </trkpt>
      <trkpt lat="49.52473" lon="0.51768">
        <ele>113.59999847412</ele>
        <time>2013-03-31T00:12:42.000Z</time>
      </trkpt>
      <trkpt lat="49.52475" lon="0.5177">
        <ele>113.59999847412</ele>
        <time>2013-03-31T00:12:44.000Z</time>
      </trkpt>
      <trkpt lat="49.52481" lon="0.51771">
        <ele>113.59999847412</ele>
        <time>2013-03-31T00:12:49.000Z</time>
      </trkpt>
      <trkpt lat="49.52481" lon="0.5177">
        <ele>113.59999847412</ele>
        <time>2013-03-31T00:12:50.000Z</time>
      </trkpt>
      <trkpt lat="49.52488" lon="0.51766">
        <ele>113.59999847412</ele>
        <time>2013-03-31T00:12:57.000Z</time>
      </trkpt>
      <trkpt lat="49.52491" lon="0.51775">
        <ele>113.40000152588</ele>
        <time>2013-03-31T00:13:01.000Z</time>
      </trkpt>
      <trkpt lat="49.52492" lon="0.51776">
        <ele>113.40000152588</ele>
        <time>2013-03-31T00:13:03.000Z</time>
      </trkpt>
      <trkpt lat="49.52493" lon="0.51778">
        <ele>113.19999694824</ele>
        <time>2013-03-31T00:13:05.000Z</time>
      </trkpt>
      <trkpt lat="49.52498" lon="0.51782">
        <ele>113.19999694824</ele>
        <time>2013-03-31T00:13:10.000Z</time>
      </trkpt>
      <trkpt lat="49.52502" lon="0.51787">
        <ele>113</ele>
        <time>2013-03-31T00:13:15.000Z</time>
      </trkpt>
      <trkpt lat="49.52503" lon="0.51792">
        <ele>113</ele>
        <time>2013-03-31T00:13:18.000Z</time>
      </trkpt>
      <trkpt lat="49.52504" lon="0.51802">
        <ele>112.80000305176</ele>
        <time>2013-03-31T00:13:24.000Z</time>
      </trkpt>
      <trkpt lat="49.52507" lon="0.51805">
        <ele>112.59999847412</ele>
        <time>2013-03-31T00:13:29.000Z</time>
      </trkpt>
      <trkpt lat="49.52509" lon="0.51808">
        <ele>112.59999847412</ele>
        <time>2013-03-31T00:13:31.000Z</time>
      </trkpt>
      <trkpt lat="49.52511" lon="0.51817">
        <ele>112.40000152588</ele>
        <time>2013-03-31T00:13:36.000Z</time>
      </trkpt>
      <trkpt lat="49.52514" lon="0.51822">
        <ele>112.40000152588</ele>
        <time>2013-03-31T00:13:42.000Z</time>
      </trkpt>
      <trkpt lat="49.52515" lon="0.51822">
        <ele>112.40000152588</ele>
        <time>2013-03-31T00:13:44.000Z</time>
      </trkpt>
      <trkpt lat="49.52524" lon="0.51823">
        <ele>112.40000152588</ele>
        <time>2013-03-31T00:13:52.000Z</time>
      </trkpt>
      <trkpt lat="49.52525" lon="0.51819">
        <ele>112.59999847412</ele>
        <time>2013-03-31T00:14:01.000Z</time>
      </trkpt>
      <trkpt lat="49.52531" lon="0.5182">
        <ele>112.59999847412</ele>
        <time>2013-03-31T00:14:29.000Z</time>
      </trkpt>
      <trkpt lat="49.52533" lon="0.51819">
        <ele>112.59999847412</ele>
        <time>2013-03-31T00:14:41.000Z</time>
      </trkpt>
      <trkpt lat="49.52534" lon="0.51818">
        <ele>112.59999847412</ele>
        <time>2013-03-31T00:14:47.000Z</time>
      </trkpt>
      <trkpt lat="49.52539" lon="0.51816">
        <ele>112.80000305176</ele>
        <time>2013-03-31T00:14:52.000Z</time>
      </trkpt>
      <trkpt lat="49.52543" lon="0.51815">
        <ele>112.80000305176</ele>
        <time>2013-03-31T00:14:56.000Z</time>
      </trkpt>
      <trkpt lat="49.52551" lon="0.51812">
        <ele>113</ele>
        <time>2013-03-31T00:15:03.000Z</time>
      </trkpt>
      <trkpt lat="49.5256" lon="0.51812">
        <ele>113.19999694824</ele>
        <time>2013-03-31T00:15:08.000Z</time>
      </trkpt>
      <trkpt lat="49.52561" lon="0.51811">
        <ele>113.19999694824</ele>
        <time>2013-03-31T00:15:09.000Z</time>
      </trkpt>
      <trkpt lat="49.52567" lon="0.51808">
        <ele>113.40000152588</ele>
        <time>2013-03-31T00:15:16.000Z</time>
      </trkpt>
      <trkpt lat="49.52576" lon="0.51806">
        <ele>113.40000152588</ele>
        <time>2013-03-31T00:15:20.000Z</time>
      </trkpt>
      <trkpt lat="49.52591" lon="0.51803">
        <ele>114.19999694824</ele>
        <time>2013-03-31T00:15:26.000Z</time>
      </trkpt>
      <trkpt lat="49.52604" lon="0.51798">
        <ele>115.19999694824</ele>
        <time>2013-03-31T00:15:32.000Z</time>
      </trkpt>
      <trkpt lat="49.52613" lon="0.51795">
        <ele>115.80000305176</ele>
        <time>2013-03-31T00:15:36.000Z</time>
      </trkpt>
      <trkpt lat="49.52624" lon="0.51792">
        <ele>116.59999847412</ele>
        <time>2013-03-31T00:15:41.000Z</time>
      </trkpt>
      <trkpt lat="49.52638" lon="0.51791">
        <ele>117.59999847412</ele>
        <time>2013-03-31T00:15:48.000Z</time>
      </trkpt>
      <trkpt lat="49.52646" lon="0.51788">
        <ele>118.19999694824</ele>
        <time>2013-03-31T00:15:52.000Z</time>
      </trkpt>
      <trkpt lat="49.52657" lon="0.51777">
        <ele>119.19999694824</ele>
        <time>2013-03-31T00:15:58.000Z</time>
      </trkpt>
      <trkpt lat="49.52662" lon="0.51772">
        <ele>119.80000305176</ele>
        <time>2013-03-31T00:16:02.000Z</time>
      </trkpt>
      <trkpt lat="49.52663" lon="0.51772">
        <ele>119.80000305176</ele>
        <time>2013-03-31T00:16:03.000Z</time>
      </trkpt>
      <trkpt lat="49.52666" lon="0.5177">
        <ele>120.19999694824</ele>
        <time>2013-03-31T00:16:09.000Z</time>
      </trkpt>
      <trkpt lat="49.52667" lon="0.51771">
        <ele>120.19999694824</ele>
        <time>2013-03-31T00:16:10.000Z</time>
      </trkpt>
      <trkpt lat="49.52668" lon="0.5178">
        <ele>119.80000305176</ele>
        <time>2013-03-31T00:16:14.000Z</time>
      </trkpt>
      <trkpt lat="49.52669" lon="0.51781">
        <ele>119.80000305176</ele>
        <time>2013-03-31T00:16:18.000Z</time>
      </trkpt>
      <trkpt lat="49.52671" lon="0.51777">
        <ele>119.80000305176</ele>
        <time>2013-03-31T00:16:27.000Z</time>
      </trkpt>
      <trkpt lat="49.52672" lon="0.51776">
        <ele>120</ele>
        <time>2013-03-31T00:16:28.000Z</time>
      </trkpt>
      <trkpt lat="49.52674" lon="0.51772">
        <ele>120</ele>
        <time>2013-03-31T00:16:33.000Z</time>
      </trkpt>
      <trkpt lat="49.52679" lon="0.51772">
        <ele>120</ele>
        <time>2013-03-31T00:16:45.000Z</time>
      </trkpt>
      <trkpt lat="49.52683" lon="0.51775">
        <ele>119.80000305176</ele>
        <time>2013-03-31T00:16:58.000Z</time>
      </trkpt>
      <trkpt lat="49.52684" lon="0.51777">
        <ele>119.80000305176</ele>
        <time>2013-03-31T00:16:59.000Z</time>
      </trkpt>
      <trkpt lat="49.52693" lon="0.51783">
        <ele>119.59999847412</ele>
        <time>2013-03-31T00:17:04.000Z</time>
      </trkpt>
      <trkpt lat="49.52695" lon="0.51785">
        <ele>119.40000152588</ele>
        <time>2013-03-31T00:17:05.000Z</time>
      </trkpt>
      <trkpt lat="49.52701" lon="0.5179">
        <ele>119.19999694824</ele>
        <time>2013-03-31T00:17:09.000Z</time>
      </trkpt>
      <trkpt lat="49.52702" lon="0.5179">
        <ele>119.19999694824</ele>
        <time>2013-03-31T00:17:10.000Z</time>
      </trkpt>
      <trkpt lat="49.52709" lon="0.51791">
        <ele>119.19999694824</ele>
        <time>2013-03-31T00:17:15.000Z</time>
      </trkpt>
      <trkpt lat="49.5272" lon="0.51796">
        <ele>119</ele>
        <time>2013-03-31T00:17:20.000Z</time>
      </trkpt>
      <trkpt lat="49.52725" lon="0.51796">
        <ele>119</ele>
        <time>2013-03-31T00:17:24.000Z</time>
      </trkpt>
      <trkpt lat="49.52731" lon="0.51794">
        <ele>119</ele>
        <time>2013-03-31T00:17:28.000Z</time>
      </trkpt>
      <trkpt lat="49.52733" lon="0.51793">
        <ele>119</ele>
        <time>2013-03-31T00:17:29.000Z</time>
      </trkpt>
      <trkpt lat="49.52742" lon="0.51789">
        <ele>119</ele>
        <time>2013-03-31T00:17:34.000Z</time>
      </trkpt>
      <trkpt lat="49.52749" lon="0.51788">
        <ele>119</ele>
        <time>2013-03-31T00:17:37.000Z</time>
      </trkpt>
      <trkpt lat="49.52753" lon="0.51785">
        <ele>119</ele>
        <time>2013-03-31T00:17:39.000Z</time>
      </trkpt>
      <trkpt lat="49.52762" lon="0.51789">
        <ele>118.59999847412</ele>
        <time>2013-03-31T00:17:44.000Z</time>
      </trkpt>
      <trkpt lat="49.52766" lon="0.51792">
        <ele>118.40000152588</ele>
        <time>2013-03-31T00:17:49.000Z</time>
      </trkpt>
      <trkpt lat="49.5277" lon="0.51784">
        <ele>118.40000152588</ele>
        <time>2013-03-31T00:18:02.000Z</time>
      </trkpt>
      <trkpt lat="49.52772" lon="0.51778">
        <ele>118.59999847412</ele>
        <time>2013-03-31T00:18:09.000Z</time>
      </trkpt>
      <trkpt lat="49.52773" lon="0.51774">
        <ele>118.59999847412</ele>
        <time>2013-03-31T00:18:12.000Z</time>
      </trkpt>
      <trkpt lat="49.52779" lon="0.51767">
        <ele>118.59999847412</ele>
        <time>2013-03-31T00:18:18.000Z</time>
      </trkpt>
      <trkpt lat="49.52783" lon="0.51758">
        <ele>118.59999847412</ele>
        <time>2013-03-31T00:18:22.000Z</time>
      </trkpt>
      <trkpt lat="49.52785" lon="0.51754">
        <ele>118.59999847412</ele>
        <time>2013-03-31T00:18:23.000Z</time>
      </trkpt>
      <trkpt lat="49.52788" lon="0.5174">
        <ele>117.59999847412</ele>
        <time>2013-03-31T00:18:27.000Z</time>
      </trkpt>
      <trkpt lat="49.52787" lon="0.51725">
        <ele>116.19999694824</ele>
        <time>2013-03-31T00:18:31.000Z</time>
      </trkpt>
      <trkpt lat="49.52784" lon="0.51701">
        <ele>114.40000152588</ele>
        <time>2013-03-31T00:18:37.000Z</time>
      </trkpt>
      <trkpt lat="49.52784" lon="0.51697">
        <ele>114</ele>
        <time>2013-03-31T00:18:38.000Z</time>
      </trkpt>
      <trkpt lat="49.52783" lon="0.51689">
        <ele>113.40000152588</ele>
        <time>2013-03-31T00:18:40.000Z</time>
      </trkpt>
      <trkpt lat="49.52781" lon="0.51681">
        <ele>112.80000305176</ele>
        <time>2013-03-31T00:18:42.000Z</time>
      </trkpt>
      <trkpt lat="49.52771" lon="0.51648">
        <ele>110</ele>
        <time>2013-03-31T00:18:52.000Z</time>
      </trkpt>
      <trkpt lat="49.52756" lon="0.5163">
        <ele>110</ele>
        <time>2013-03-31T00:18:59.000Z</time>
      </trkpt>
      <trkpt lat="49.52749" lon="0.51622">
        <ele>110</ele>
        <time>2013-03-31T00:19:02.000Z</time>
      </trkpt>
      <trkpt lat="49.52743" lon="0.51615">
        <ele>109.59999847412</ele>
        <time>2013-03-31T00:19:05.000Z</time>
      </trkpt>
      <trkpt lat="49.52742" lon="0.51602">
        <ele>108.19999694824</ele>
        <time>2013-03-31T00:19:11.000Z</time>
      </trkpt>
      <trkpt lat="49.52743" lon="0.51601">
        <ele>108.19999694824</ele>
        <time>2013-03-31T00:19:12.000Z</time>
      </trkpt>
      <trkpt lat="49.52746" lon="0.51601">
        <ele>108</ele>
        <time>2013-03-31T00:19:14.000Z</time>
      </trkpt>
      <trkpt lat="49.52753" lon="0.51598">
        <ele>107</ele>
        <time>2013-03-31T00:19:19.000Z</time>
      </trkpt>
      <trkpt lat="49.52756" lon="0.51596">
        <ele>106.19999694824</ele>
        <time>2013-03-31T00:19:21.000Z</time>
      </trkpt>
      <trkpt lat="49.52757" lon="0.51593">
        <ele>105.59999847412</ele>
        <time>2013-03-31T00:19:23.000Z</time>
      </trkpt>
      <trkpt lat="49.52758" lon="0.51582">
        <ele>104</ele>
        <time>2013-03-31T00:19:27.000Z</time>
      </trkpt>
      <trkpt lat="49.52761" lon="0.51575">
        <ele>102</ele>
        <time>2013-03-31T00:19:31.000Z</time>
      </trkpt>
      <trkpt lat="49.52761" lon="0.51574">
        <ele>101.80000305176</ele>
        <time>2013-03-31T00:19:32.000Z</time>
      </trkpt>
      <trkpt lat="49.52762" lon="0.51571">
        <ele>101</ele>
        <time>2013-03-31T00:19:34.000Z</time>
      </trkpt>
      <trkpt lat="49.52763" lon="0.51557">
        <ele>98.199996948242</ele>
        <time>2013-03-31T00:19:39.000Z</time>
      </trkpt>
      <trkpt lat="49.52767" lon="0.51549">
        <ele>95.800003051758</ele>
        <time>2013-03-31T00:19:43.000Z</time>
      </trkpt>
      <trkpt lat="49.52766" lon="0.51538">
        <ele>94</ele>
        <time>2013-03-31T00:19:48.000Z</time>
      </trkpt>
      <trkpt lat="49.52764" lon="0.51536">
        <ele>94</ele>
        <time>2013-03-31T00:19:49.000Z</time>
      </trkpt>
      <trkpt lat="49.52761" lon="0.5153">
        <ele>93.400001525879</ele>
        <time>2013-03-31T00:19:53.000Z</time>
      </trkpt>
      <trkpt lat="49.5276" lon="0.51529">
        <ele>93.400001525879</ele>
        <time>2013-03-31T00:19:55.000Z</time>
      </trkpt>
      <trkpt lat="49.52763" lon="0.5151">
        <ele>89.199996948242</ele>
        <time>2013-03-31T00:20:01.000Z</time>
      </trkpt>
      <trkpt lat="49.52765" lon="0.51509">
        <ele>88.599998474121</ele>
        <time>2013-03-31T00:20:02.000Z</time>
      </trkpt>
      <trkpt lat="49.52769" lon="0.51506">
        <ele>87.400001525879</ele>
        <time>2013-03-31T00:20:04.000Z</time>
      </trkpt>
      <trkpt lat="49.52782" lon="0.51505">
        <ele>84.800003051758</ele>
        <time>2013-03-31T00:20:09.000Z</time>
      </trkpt>
      <trkpt lat="49.52799" lon="0.51498">
        <ele>80.599998474121</ele>
        <time>2013-03-31T00:20:14.000Z</time>
      </trkpt>
      <trkpt lat="49.52801" lon="0.51497">
        <ele>80.199996948242</ele>
        <time>2013-03-31T00:20:15.000Z</time>
      </trkpt>
      <trkpt lat="49.5281" lon="0.51494">
        <ele>78.599998474121</ele>
        <time>2013-03-31T00:20:19.000Z</time>
      </trkpt>
      <trkpt lat="49.5282" lon="0.51492">
        <ele>76.599998474121</ele>
        <time>2013-03-31T00:20:23.000Z</time>
      </trkpt>
      <trkpt lat="49.52822" lon="0.51492">
        <ele>76.400001525879</ele>
        <time>2013-03-31T00:20:24.000Z</time>
      </trkpt>
      <trkpt lat="49.52835" lon="0.51494">
        <ele>73.800003051758</ele>
        <time>2013-03-31T00:20:29.000Z</time>
      </trkpt>
      <trkpt lat="49.52845" lon="0.51496">
        <ele>72.400001525879</ele>
        <time>2013-03-31T00:20:33.000Z</time>
      </trkpt>
      <trkpt lat="49.52864" lon="0.51499">
        <ele>69.800003051758</ele>
        <time>2013-03-31T00:20:40.000Z</time>
      </trkpt>
      <trkpt lat="49.52874" lon="0.51501">
        <ele>68.599998474121</ele>
        <time>2013-03-31T00:20:45.000Z</time>
      </trkpt>
      <trkpt lat="49.52885" lon="0.51498">
        <ele>67</ele>
        <time>2013-03-31T00:20:49.000Z</time>
      </trkpt>
      <trkpt lat="49.52895" lon="0.51495">
        <ele>65.800003051758</ele>
        <time>2013-03-31T00:20:53.000Z</time>
      </trkpt>
      <trkpt lat="49.52906" lon="0.51493">
        <ele>64.400001525879</ele>
        <time>2013-03-31T00:20:58.000Z</time>
      </trkpt>
      <trkpt lat="49.52908" lon="0.51494">
        <ele>64.199996948242</ele>
        <time>2013-03-31T00:20:59.000Z</time>
      </trkpt>
      <trkpt lat="49.52918" lon="0.51492">
        <ele>62.799999237061</ele>
        <time>2013-03-31T00:21:03.000Z</time>
      </trkpt>
      <trkpt lat="49.52927" lon="0.51492">
        <ele>61.400001525879</ele>
        <time>2013-03-31T00:21:05.000Z</time>
      </trkpt>
      <trkpt lat="49.52934" lon="0.51492">
        <ele>60.400001525879</ele>
        <time>2013-03-31T00:21:08.000Z</time>
      </trkpt>
      <trkpt lat="49.52935" lon="0.51494">
        <ele>60.200000762939</ele>
        <time>2013-03-31T00:21:12.000Z</time>
      </trkpt>
      <trkpt lat="49.52935" lon="0.51495">
        <ele>60</ele>
        <time>2013-03-31T00:21:23.000Z</time>
      </trkpt>
      <trkpt lat="49.52942" lon="0.51492">
        <ele>59.200000762939</ele>
        <time>2013-03-31T00:21:27.000Z</time>
      </trkpt>
      <trkpt lat="49.5295" lon="0.51492">
        <ele>58</ele>
        <time>2013-03-31T00:21:33.000Z</time>
      </trkpt>
      <trkpt lat="49.52953" lon="0.51492">
        <ele>57.599998474121</ele>
        <time>2013-03-31T00:21:34.000Z</time>
      </trkpt>
      <trkpt lat="49.52964" lon="0.51491">
        <ele>55.799999237061</ele>
        <time>2013-03-31T00:21:38.000Z</time>
      </trkpt>
      <trkpt lat="49.52982" lon="0.51495">
        <ele>53</ele>
        <time>2013-03-31T00:21:44.000Z</time>
      </trkpt>
      <trkpt lat="49.52984" lon="0.51496">
        <ele>52.599998474121</ele>
        <time>2013-03-31T00:21:45.000Z</time>
      </trkpt>
      <trkpt lat="49.52988" lon="0.51497">
        <ele>51.799999237061</ele>
        <time>2013-03-31T00:21:46.000Z</time>
      </trkpt>
      <trkpt lat="49.53001" lon="0.51502">
        <ele>50</ele>
        <time>2013-03-31T00:21:50.000Z</time>
      </trkpt>
      <trkpt lat="49.53011" lon="0.51506">
        <ele>49.400001525879</ele>
        <time>2013-03-31T00:21:54.000Z</time>
      </trkpt>
      <trkpt lat="49.53021" lon="0.51509">
        <ele>48.599998474121</ele>
        <time>2013-03-31T00:21:57.000Z</time>
      </trkpt>
      <trkpt lat="49.53035" lon="0.51518">
        <ele>47.599998474121</ele>
        <time>2013-03-31T00:22:03.000Z</time>
      </trkpt>
      <trkpt lat="49.53044" lon="0.51523">
        <ele>46.799999237061</ele>
        <time>2013-03-31T00:22:08.000Z</time>
      </trkpt>
      <trkpt lat="49.53047" lon="0.51525">
        <ele>46.400001525879</ele>
        <time>2013-03-31T00:22:09.000Z</time>
      </trkpt>
      <trkpt lat="49.53066" lon="0.51533">
        <ele>43.799999237061</ele>
        <time>2013-03-31T00:22:14.000Z</time>
      </trkpt>
      <trkpt lat="49.53076" lon="0.51541">
        <ele>42.200000762939</ele>
        <time>2013-03-31T00:22:18.000Z</time>
      </trkpt>
      <trkpt lat="49.53083" lon="0.5155">
        <ele>41</ele>
        <time>2013-03-31T00:22:23.000Z</time>
      </trkpt>
      <trkpt lat="49.5308" lon="0.51552">
        <ele>41.599998474121</ele>
        <time>2013-03-31T00:22:27.000Z</time>
      </trkpt>
      <trkpt lat="49.5308" lon="0.51557">
        <ele>41.599998474121</ele>
        <time>2013-03-31T00:22:34.000Z</time>
      </trkpt>
      <trkpt lat="49.53082" lon="0.51561">
        <ele>41.200000762939</ele>
        <time>2013-03-31T00:22:37.000Z</time>
      </trkpt>
      <trkpt lat="49.53083" lon="0.51564">
        <ele>41</ele>
        <time>2013-03-31T00:22:40.000Z</time>
      </trkpt>
      <trkpt lat="49.53086" lon="0.51571">
        <ele>40.599998474121</ele>
        <time>2013-03-31T00:22:45.000Z</time>
      </trkpt>
      <trkpt lat="49.53089" lon="0.51576">
        <ele>40</ele>
        <time>2013-03-31T00:22:48.000Z</time>
      </trkpt>
      <trkpt lat="49.53093" lon="0.51583">
        <ele>39.200000762939</ele>
        <time>2013-03-31T00:22:53.000Z</time>
      </trkpt>
      <trkpt lat="49.53103" lon="0.51593">
        <ele>37.799999237061</ele>
        <time>2013-03-31T00:22:58.000Z</time>
      </trkpt>
      <trkpt lat="49.53105" lon="0.51595">
        <ele>37.599998474121</ele>
        <time>2013-03-31T00:22:59.000Z</time>
      </trkpt>
      <trkpt lat="49.53122" lon="0.51608">
        <ele>34.400001525879</ele>
        <time>2013-03-31T00:23:05.000Z</time>
      </trkpt>
      <trkpt lat="49.53133" lon="0.51616">
        <ele>32</ele>
        <time>2013-03-31T00:23:09.000Z</time>
      </trkpt>
      <trkpt lat="49.53147" lon="0.51616">
        <ele>28.60000038147</ele>
        <time>2013-03-31T00:23:14.000Z</time>
      </trkpt>
      <trkpt lat="49.5316" lon="0.51612">
        <ele>25.799999237061</ele>
        <time>2013-03-31T00:23:18.000Z</time>
      </trkpt>
      <trkpt lat="49.53167" lon="0.51611">
        <ele>24.200000762939</ele>
        <time>2013-03-31T00:23:21.000Z</time>
      </trkpt>
      <trkpt lat="49.53176" lon="0.5161">
        <ele>22.39999961853</ele>
        <time>2013-03-31T00:23:28.000Z</time>
      </trkpt>
      <trkpt lat="49.5318" lon="0.51609">
        <ele>21.60000038147</ele>
        <time>2013-03-31T00:23:30.000Z</time>
      </trkpt>
      <trkpt lat="49.53188" lon="0.51598">
        <ele>20.60000038147</ele>
        <time>2013-03-31T00:23:36.000Z</time>
      </trkpt>
      <trkpt lat="49.53193" lon="0.51588">
        <ele>20</ele>
        <time>2013-03-31T00:23:40.000Z</time>
      </trkpt>
      <trkpt lat="49.53196" lon="0.51578">
        <ele>20.200000762939</ele>
        <time>2013-03-31T00:23:45.000Z</time>
      </trkpt>
      <trkpt lat="49.53201" lon="0.5156">
        <ele>20.799999237061</ele>
        <time>2013-03-31T00:23:55.000Z</time>
      </trkpt>
      <trkpt lat="49.53204" lon="0.5155">
        <ele>20.799999237061</ele>
        <time>2013-03-31T00:24:01.000Z</time>
      </trkpt>
      <trkpt lat="49.53205" lon="0.51543">
        <ele>21.39999961853</ele>
        <time>2013-03-31T00:24:04.000Z</time>
      </trkpt>
      <trkpt lat="49.53208" lon="0.51523">
        <ele>22.39999961853</ele>
        <time>2013-03-31T00:24:12.000Z</time>
      </trkpt>
      <trkpt lat="49.53209" lon="0.51521">
        <ele>22.39999961853</ele>
        <time>2013-03-31T00:24:13.000Z</time>
      </trkpt>
      <trkpt lat="49.53213" lon="0.51512">
        <ele>22.200000762939</ele>
        <time>2013-03-31T00:24:18.000Z</time>
      </trkpt>
      <trkpt lat="49.5322" lon="0.51498">
        <ele>21.60000038147</ele>
        <time>2013-03-31T00:24:25.000Z</time>
      </trkpt>
      <trkpt lat="49.53223" lon="0.5149">
        <ele>21.60000038147</ele>
        <time>2013-03-31T00:24:29.000Z</time>
      </trkpt>
      <trkpt lat="49.53226" lon="0.51474">
        <ele>22.39999961853</ele>
        <time>2013-03-31T00:24:34.000Z</time>
      </trkpt>
      <trkpt lat="49.53226" lon="0.5147">
        <ele>22.799999237061</ele>
        <time>2013-03-31T00:24:35.000Z</time>
      </trkpt>
      <trkpt lat="49.53229" lon="0.51457">
        <ele>23.200000762939</ele>
        <time>2013-03-31T00:24:39.000Z</time>
      </trkpt>
      <trkpt lat="49.53231" lon="0.51441">
        <ele>23.60000038147</ele>
        <time>2013-03-31T00:24:43.000Z</time>
      </trkpt>
      <trkpt lat="49.53235" lon="0.51429">
        <ele>23.39999961853</ele>
        <time>2013-03-31T00:24:46.000Z</time>
      </trkpt>
      <trkpt lat="49.53238" lon="0.51401">
        <ele>25.60000038147</ele>
        <time>2013-03-31T00:24:53.000Z</time>
      </trkpt>
      <trkpt lat="49.53248" lon="0.51371">
        <ele>26.39999961853</ele>
        <time>2013-03-31T00:25:01.000Z</time>
      </trkpt>
      <trkpt lat="49.5325" lon="0.51356">
        <ele>27.60000038147</ele>
        <time>2013-03-31T00:25:05.000Z</time>
      </trkpt>
      <trkpt lat="49.53255" lon="0.51343">
        <ele>28.39999961853</ele>
        <time>2013-03-31T00:25:09.000Z</time>
      </trkpt>
      <trkpt lat="49.53265" lon="0.51325">
        <ele>28.200000762939</ele>
        <time>2013-03-31T00:25:15.000Z</time>
      </trkpt>
      <trkpt lat="49.53268" lon="0.51323">
        <ele>27.799999237061</ele>
        <time>2013-03-31T00:25:16.000Z</time>
      </trkpt>
      <trkpt lat="49.53275" lon="0.51307">
        <ele>27.799999237061</ele>
        <time>2013-03-31T00:25:22.000Z</time>
      </trkpt>
      <trkpt lat="49.53282" lon="0.51295">
        <ele>27.200000762939</ele>
        <time>2013-03-31T00:25:27.000Z</time>
      </trkpt>
      <trkpt lat="49.53288" lon="0.5128">
        <ele>26.799999237061</ele>
        <time>2013-03-31T00:25:32.000Z</time>
      </trkpt>
      <trkpt lat="49.53291" lon="0.51267">
        <ele>27.200000762939</ele>
        <time>2013-03-31T00:25:36.000Z</time>
      </trkpt>
      <trkpt lat="49.53292" lon="0.51264">
        <ele>27.200000762939</ele>
        <time>2013-03-31T00:25:37.000Z</time>
      </trkpt>
      <trkpt lat="49.53292" lon="0.51257">
        <ele>27.60000038147</ele>
        <time>2013-03-31T00:25:39.000Z</time>
      </trkpt>
      <trkpt lat="49.53292" lon="0.51242">
        <ele>28.60000038147</ele>
        <time>2013-03-31T00:25:44.000Z</time>
      </trkpt>
      <trkpt lat="49.5329" lon="0.51229">
        <ele>29.60000038147</ele>
        <time>2013-03-31T00:25:48.000Z</time>
      </trkpt>
      <trkpt lat="49.5329" lon="0.51225">
        <ele>30</ele>
        <time>2013-03-31T00:25:49.000Z</time>
      </trkpt>
      <trkpt lat="49.53289" lon="0.51223">
        <ele>30.200000762939</ele>
        <time>2013-03-31T00:25:50.000Z</time>
      </trkpt>
      <trkpt lat="49.53287" lon="0.5122">
        <ele>31</ele>
        <time>2013-03-31T00:25:51.000Z</time>
      </trkpt>
      <trkpt lat="49.53285" lon="0.51198">
        <ele>32.599998474121</ele>
        <time>2013-03-31T00:25:58.000Z</time>
      </trkpt>
      <trkpt lat="49.5328" lon="0.51184">
        <ele>34.799999237061</ele>
        <time>2013-03-31T00:26:02.000Z</time>
      </trkpt>
      <trkpt lat="49.53281" lon="0.5118">
        <ele>35</ele>
        <time>2013-03-31T00:26:03.000Z</time>
      </trkpt>
      <trkpt lat="49.53282" lon="0.51166">
        <ele>35.200000762939</ele>
        <time>2013-03-31T00:26:08.000Z</time>
      </trkpt>
      <trkpt lat="49.53284" lon="0.51152">
        <ele>34.799999237061</ele>
        <time>2013-03-31T00:26:12.000Z</time>
      </trkpt>
      <trkpt lat="49.53285" lon="0.51141">
        <ele>34.599998474121</ele>
        <time>2013-03-31T00:26:16.000Z</time>
      </trkpt>
      <trkpt lat="49.53285" lon="0.51124">
        <ele>34.799999237061</ele>
        <time>2013-03-31T00:26:21.000Z</time>
      </trkpt>
      <trkpt lat="49.53286" lon="0.51105">
        <ele>35.200000762939</ele>
        <time>2013-03-31T00:26:26.000Z</time>
      </trkpt>
      <trkpt lat="49.53286" lon="0.51093">
        <ele>35.400001525879</ele>
        <time>2013-03-31T00:26:31.000Z</time>
      </trkpt>
      <trkpt lat="49.53287" lon="0.51088">
        <ele>35.200000762939</ele>
        <time>2013-03-31T00:26:33.000Z</time>
      </trkpt>
      <trkpt lat="49.53289" lon="0.5107">
        <ele>35.599998474121</ele>
        <time>2013-03-31T00:26:40.000Z</time>
      </trkpt>
      <trkpt lat="49.53289" lon="0.5106">
        <ele>36.200000762939</ele>
        <time>2013-03-31T00:26:45.000Z</time>
      </trkpt>
      <trkpt lat="49.53289" lon="0.51057">
        <ele>36.400001525879</ele>
        <time>2013-03-31T00:26:46.000Z</time>
      </trkpt>
      <trkpt lat="49.53292" lon="0.51046">
        <ele>36</ele>
        <time>2013-03-31T00:26:51.000Z</time>
      </trkpt>
      <trkpt lat="49.53294" lon="0.51035">
        <ele>36.400001525879</ele>
        <time>2013-03-31T00:26:54.000Z</time>
      </trkpt>
      <trkpt lat="49.53294" lon="0.51028">
        <ele>37</ele>
        <time>2013-03-31T00:26:56.000Z</time>
      </trkpt>
      <trkpt lat="49.53295" lon="0.51007">
        <ele>38.200000762939</ele>
        <time>2013-03-31T00:27:01.000Z</time>
      </trkpt>
      <trkpt lat="49.533" lon="0.50989">
        <ele>37.599998474121</ele>
        <time>2013-03-31T00:27:06.000Z</time>
      </trkpt>
      <trkpt lat="49.53303" lon="0.50972">
        <ele>37.400001525879</ele>
        <time>2013-03-31T00:27:10.000Z</time>
      </trkpt>
      <trkpt lat="49.53304" lon="0.50951">
        <ele>38</ele>
        <time>2013-03-31T00:27:15.000Z</time>
      </trkpt>
      <trkpt lat="49.53308" lon="0.50942">
        <ele>37</ele>
        <time>2013-03-31T00:27:18.000Z</time>
      </trkpt>
      <trkpt lat="49.53314" lon="0.50926">
        <ele>35.599998474121</ele>
        <time>2013-03-31T00:27:23.000Z</time>
      </trkpt>
      <trkpt lat="49.5332" lon="0.50915">
        <ele>34.400001525879</ele>
        <time>2013-03-31T00:27:26.000Z</time>
      </trkpt>
      <trkpt lat="49.53327" lon="0.50898">
        <ele>33.200000762939</ele>
        <time>2013-03-31T00:27:31.000Z</time>
      </trkpt>
      <trkpt lat="49.53329" lon="0.50893">
        <ele>32.799999237061</ele>
        <time>2013-03-31T00:27:33.000Z</time>
      </trkpt>
      <trkpt lat="49.53341" lon="0.50869">
        <ele>31.60000038147</ele>
        <time>2013-03-31T00:27:41.000Z</time>
      </trkpt>
      <trkpt lat="49.53347" lon="0.50854">
        <ele>31</ele>
        <time>2013-03-31T00:27:46.000Z</time>
      </trkpt>
      <trkpt lat="49.53349" lon="0.5085">
        <ele>30.799999237061</ele>
        <time>2013-03-31T00:27:47.000Z</time>
      </trkpt>
      <trkpt lat="49.53358" lon="0.50835">
        <ele>29.60000038147</ele>
        <time>2013-03-31T00:27:52.000Z</time>
      </trkpt>
      <trkpt lat="49.53359" lon="0.50832">
        <ele>29.60000038147</ele>
        <time>2013-03-31T00:27:53.000Z</time>
      </trkpt>
      <trkpt lat="49.5336" lon="0.50829">
        <ele>29.799999237061</ele>
        <time>2013-03-31T00:27:54.000Z</time>
      </trkpt>
      <trkpt lat="49.53368" lon="0.50811">
        <ele>29.799999237061</ele>
        <time>2013-03-31T00:27:59.000Z</time>
      </trkpt>
      <trkpt lat="49.5337" lon="0.508">
        <ele>30.60000038147</ele>
        <time>2013-03-31T00:28:02.000Z</time>
      </trkpt>
      <trkpt lat="49.53373" lon="0.50789">
        <ele>31.200000762939</ele>
        <time>2013-03-31T00:28:05.000Z</time>
      </trkpt>
      <trkpt lat="49.5338" lon="0.5077">
        <ele>31</ele>
        <time>2013-03-31T00:28:10.000Z</time>
      </trkpt>
      <trkpt lat="49.53385" lon="0.50757">
        <ele>31.200000762939</ele>
        <time>2013-03-31T00:28:14.000Z</time>
      </trkpt>
      <trkpt lat="49.53394" lon="0.50736">
        <ele>31.39999961853</ele>
        <time>2013-03-31T00:28:21.000Z</time>
      </trkpt>
      <trkpt lat="49.53398" lon="0.50732">
        <ele>30.799999237061</ele>
        <time>2013-03-31T00:28:23.000Z</time>
      </trkpt>
      <trkpt lat="49.53402" lon="0.50716">
        <ele>32</ele>
        <time>2013-03-31T00:28:29.000Z</time>
      </trkpt>
      <trkpt lat="49.53406" lon="0.50708">
        <ele>32</ele>
        <time>2013-03-31T00:28:33.000Z</time>
      </trkpt>
      <trkpt lat="49.5341" lon="0.50701">
        <ele>32</ele>
        <time>2013-03-31T00:28:37.000Z</time>
      </trkpt>
      <trkpt lat="49.5341" lon="0.50693">
        <ele>32.799999237061</ele>
        <time>2013-03-31T00:28:40.000Z</time>
      </trkpt>
      <trkpt lat="49.53412" lon="0.50688">
        <ele>33.200000762939</ele>
        <time>2013-03-31T00:28:42.000Z</time>
      </trkpt>
      <trkpt lat="49.53414" lon="0.50686">
        <ele>33</ele>
        <time>2013-03-31T00:28:44.000Z</time>
      </trkpt>
      <trkpt lat="49.53415" lon="0.50684">
        <ele>33</ele>
        <time>2013-03-31T00:28:45.000Z</time>
      </trkpt>
      <trkpt lat="49.53416" lon="0.50682">
        <ele>33</ele>
        <time>2013-03-31T00:28:47.000Z</time>
      </trkpt>
      <trkpt lat="49.53434" lon="0.50662">
        <ele>31.799999237061</ele>
        <time>2013-03-31T00:28:56.000Z</time>
      </trkpt>
      <trkpt lat="49.53435" lon="0.50659">
        <ele>31.799999237061</ele>
        <time>2013-03-31T00:28:57.000Z</time>
      </trkpt>
      <trkpt lat="49.53444" lon="0.5065">
        <ele>31.200000762939</ele>
        <time>2013-03-31T00:29:01.000Z</time>
      </trkpt>
      <trkpt lat="49.53456" lon="0.50637">
        <ele>30.39999961853</ele>
        <time>2013-03-31T00:29:07.000Z</time>
      </trkpt>
      <trkpt lat="49.53457" lon="0.50634">
        <ele>30.60000038147</ele>
        <time>2013-03-31T00:29:08.000Z</time>
      </trkpt>
      <trkpt lat="49.53463" lon="0.50622">
        <ele>31</ele>
        <time>2013-03-31T00:29:13.000Z</time>
      </trkpt>
      <trkpt lat="49.53473" lon="0.50615">
        <ele>29.60000038147</ele>
        <time>2013-03-31T00:29:16.000Z</time>
      </trkpt>
      <trkpt lat="49.53475" lon="0.50613">
        <ele>29.60000038147</ele>
        <time>2013-03-31T00:29:17.000Z</time>
      </trkpt>
      <trkpt lat="49.53478" lon="0.50609">
        <ele>29.39999961853</ele>
        <time>2013-03-31T00:29:19.000Z</time>
      </trkpt>
      <trkpt lat="49.53489" lon="0.50598">
        <ele>28.39999961853</ele>
        <time>2013-03-31T00:29:24.000Z</time>
      </trkpt>
      <trkpt lat="49.53497" lon="0.50593">
        <ele>27.200000762939</ele>
        <time>2013-03-31T00:29:27.000Z</time>
      </trkpt>
      <trkpt lat="49.53498" lon="0.5059">
        <ele>27.39999961853</ele>
        <time>2013-03-31T00:29:28.000Z</time>
      </trkpt>
      <trkpt lat="49.53507" lon="0.50585">
        <ele>27.200000762939</ele>
        <time>2013-03-31T00:29:31.000Z</time>
      </trkpt>
      <trkpt lat="49.5352" lon="0.5058">
        <ele>27.200000762939</ele>
        <time>2013-03-31T00:29:35.000Z</time>
      </trkpt>
      <trkpt lat="49.53524" lon="0.50578">
        <ele>27.200000762939</ele>
        <time>2013-03-31T00:29:36.000Z</time>
      </trkpt>
      <trkpt lat="49.53528" lon="0.50568">
        <ele>29</ele>
        <time>2013-03-31T00:29:41.000Z</time>
      </trkpt>
      <trkpt lat="49.53529" lon="0.50566">
        <ele>29.200000762939</ele>
        <time>2013-03-31T00:29:42.000Z</time>
      </trkpt>
      <trkpt lat="49.53533" lon="0.50563">
        <ele>29.39999961853</ele>
        <time>2013-03-31T00:29:45.000Z</time>
      </trkpt>
      <trkpt lat="49.53539" lon="0.50555">
        <ele>30.39999961853</ele>
        <time>2013-03-31T00:29:50.000Z</time>
      </trkpt>
      <trkpt lat="49.5354" lon="0.50553">
        <ele>30.799999237061</ele>
        <time>2013-03-31T00:29:51.000Z</time>
      </trkpt>
      <trkpt lat="49.53546" lon="0.50548">
        <ele>31</ele>
        <time>2013-03-31T00:29:54.000Z</time>
      </trkpt>
      <trkpt lat="49.53562" lon="0.50536">
        <ele>31.200000762939</ele>
        <time>2013-03-31T00:30:01.000Z</time>
      </trkpt>
      <trkpt lat="49.53569" lon="0.50531">
        <ele>31.200000762939</ele>
        <time>2013-03-31T00:30:05.000Z</time>
      </trkpt>
      <trkpt lat="49.53571" lon="0.50529">
        <ele>31.200000762939</ele>
        <time>2013-03-31T00:30:07.000Z</time>
      </trkpt>
      <trkpt lat="49.53585" lon="0.50522">
        <ele>30.60000038147</ele>
        <time>2013-03-31T00:30:12.000Z</time>
      </trkpt>
      <trkpt lat="49.53602" lon="0.50521">
        <ele>29.39999961853</ele>
        <time>2013-03-31T00:30:16.000Z</time>
      </trkpt>
      <trkpt lat="49.53605" lon="0.50521">
        <ele>29</ele>
        <time>2013-03-31T00:30:17.000Z</time>
      </trkpt>
      <trkpt lat="49.53623" lon="0.50518">
        <ele>27.799999237061</ele>
        <time>2013-03-31T00:30:23.000Z</time>
      </trkpt>
      <trkpt lat="49.53637" lon="0.50513">
        <ele>27.200000762939</ele>
        <time>2013-03-31T00:30:29.000Z</time>
      </trkpt>
      <trkpt lat="49.53647" lon="0.50508">
        <ele>26.799999237061</ele>
        <time>2013-03-31T00:30:34.000Z</time>
      </trkpt>
      <trkpt lat="49.53657" lon="0.50508">
        <ele>26</ele>
        <time>2013-03-31T00:30:39.000Z</time>
      </trkpt>
      <trkpt lat="49.53666" lon="0.50506">
        <ele>25.39999961853</ele>
        <time>2013-03-31T00:30:43.000Z</time>
      </trkpt>
      <trkpt lat="49.53678" lon="0.505">
        <ele>24.60000038147</ele>
        <time>2013-03-31T00:30:48.000Z</time>
      </trkpt>
      <trkpt lat="49.53684" lon="0.50484">
        <ele>27</ele>
        <time>2013-03-31T00:30:53.000Z</time>
      </trkpt>
      <trkpt lat="49.5369" lon="0.50478">
        <ele>27.39999961853</ele>
        <time>2013-03-31T00:30:57.000Z</time>
      </trkpt>
      <trkpt lat="49.53693" lon="0.50472">
        <ele>28.200000762939</ele>
        <time>2013-03-31T00:31:01.000Z</time>
      </trkpt>
      <trkpt lat="49.53702" lon="0.50468">
        <ele>27.799999237061</ele>
        <time>2013-03-31T00:31:06.000Z</time>
      </trkpt>
      <trkpt lat="49.53715" lon="0.50467">
        <ele>26.200000762939</ele>
        <time>2013-03-31T00:31:11.000Z</time>
      </trkpt>
      <trkpt lat="49.5373" lon="0.50461">
        <ele>25.200000762939</ele>
        <time>2013-03-31T00:31:17.000Z</time>
      </trkpt>
      <trkpt lat="49.53743" lon="0.50454">
        <ele>24.60000038147</ele>
        <time>2013-03-31T00:31:22.000Z</time>
      </trkpt>
      <trkpt lat="49.53747" lon="0.50452">
        <ele>24.200000762939</ele>
        <time>2013-03-31T00:31:24.000Z</time>
      </trkpt>
      <trkpt lat="49.53754" lon="0.50443">
        <ele>25.200000762939</ele>
        <time>2013-03-31T00:31:30.000Z</time>
      </trkpt>
      <trkpt lat="49.53753" lon="0.50443">
        <ele>25.39999961853</ele>
        <time>2013-03-31T00:32:30.000Z</time>
      </trkpt>
      <trkpt lat="49.5376" lon="0.50441">
        <ele>25.200000762939</ele>
        <time>2013-03-31T00:32:34.000Z</time>
      </trkpt>
      <trkpt lat="49.53763" lon="0.50444">
        <ele>24.60000038147</ele>
        <time>2013-03-31T00:32:41.000Z</time>
      </trkpt>
      <trkpt lat="49.53768" lon="0.50445">
        <ele>24.200000762939</ele>
        <time>2013-03-31T00:32:45.000Z</time>
      </trkpt>
      <trkpt lat="49.53768" lon="0.50446">
        <ele>24</ele>
        <time>2013-03-31T00:32:50.000Z</time>
      </trkpt>
      <trkpt lat="49.53767" lon="0.50442">
        <ele>24.60000038147</ele>
        <time>2013-03-31T00:32:52.000Z</time>
      </trkpt>
      <trkpt lat="49.53768" lon="0.50436">
        <ele>25.60000038147</ele>
        <time>2013-03-31T00:32:58.000Z</time>
      </trkpt>
      <trkpt lat="49.53755" lon="0.50433">
        <ele>26.799999237061</ele>
        <time>2013-03-31T00:33:00.000Z</time>
      </trkpt>
      <trkpt lat="49.53753" lon="0.50434">
        <ele>26.799999237061</ele>
        <time>2013-03-31T00:33:07.000Z</time>
      </trkpt>
      <trkpt lat="49.53749" lon="0.50433">
        <ele>27.39999961853</ele>
        <time>2013-03-31T00:33:08.000Z</time>
      </trkpt>
      <trkpt lat="49.53741" lon="0.50439">
        <ele>27.60000038147</ele>
        <time>2013-03-31T00:33:14.000Z</time>
      </trkpt>
      <trkpt lat="49.53738" lon="0.50441">
        <ele>27.60000038147</ele>
        <time>2013-03-31T00:33:17.000Z</time>
      </trkpt>
      <trkpt lat="49.53728" lon="0.50441">
        <ele>29</ele>
        <time>2013-03-31T00:33:24.000Z</time>
      </trkpt>
      <trkpt lat="49.53727" lon="0.50439">
        <ele>29.60000038147</ele>
        <time>2013-03-31T00:33:31.000Z</time>
      </trkpt>
      <trkpt lat="49.53728" lon="0.50439">
        <ele>29.39999961853</ele>
        <time>2013-03-31T00:33:32.000Z</time>
      </trkpt>
      <trkpt lat="49.53756" lon="0.50441">
        <ele>25.39999961853</ele>
        <time>2013-03-31T00:33:51.000Z</time>
      </trkpt>
      <trkpt lat="49.53764" lon="0.50445">
        <ele>24.39999961853</ele>
        <time>2013-03-31T00:33:56.000Z</time>
      </trkpt>
      <trkpt lat="49.53766" lon="0.5045">
        <ele>23.60000038147</ele>
        <time>2013-03-31T00:33:59.000Z</time>
      </trkpt>
      <trkpt lat="49.5377" lon="0.50452">
        <ele>23</ele>
        <time>2013-03-31T00:34:00.000Z</time>
      </trkpt>
      <trkpt lat="49.53768" lon="0.50454">
        <ele>22.799999237061</ele>
        <time>2013-03-31T00:34:05.000Z</time>
      </trkpt>
      <trkpt lat="49.53767" lon="0.50455">
        <ele>22.799999237061</ele>
        <time>2013-03-31T00:34:06.000Z</time>
      </trkpt>
      <trkpt lat="49.53756" lon="0.50451">
        <ele>24</ele>
        <time>2013-03-31T00:34:11.000Z</time>
      </trkpt>
      <trkpt lat="49.53755" lon="0.5045">
        <ele>24</ele>
        <time>2013-03-31T00:34:12.000Z</time>
      </trkpt>
      <trkpt lat="49.53752" lon="0.50448">
        <ele>24.60000038147</ele>
        <time>2013-03-31T00:34:17.000Z</time>
      </trkpt>
      <trkpt lat="49.53746" lon="0.50447">
        <ele>25.39999961853</ele>
        <time>2013-03-31T00:34:25.000Z</time>
      </trkpt>
      <trkpt lat="49.53742" lon="0.50445">
        <ele>26.200000762939</ele>
        <time>2013-03-31T00:34:30.000Z</time>
      </trkpt>
      <trkpt lat="49.53733" lon="0.50444">
        <ele>27.799999237061</ele>
        <time>2013-03-31T00:34:36.000Z</time>
      </trkpt>
      <trkpt lat="49.53732" lon="0.50444">
        <ele>28</ele>
        <time>2013-03-31T00:34:37.000Z</time>
      </trkpt>
    </trkseg>
  </trk>
</gpx>